<?xml version="1.0" encoding="UTF-8" standalone="no" ?>
<gpx xmlns="http://www.topografix.com/GPX/1/1" xmlns:xsi="http://www.w3.org/2001/XMLSchema-instance" xsi:schemaLocation="http://www.topografix.com/GPX/1/1 http://www.topografix.com/GPX/1/1/gpx.xsd" version="1.1" creator="VisuGPX - https://www.visugpx.com">
  <metadata>
    <name>Revers de Boquié</name>
    <desc><![CDATA[Itinéraire facile.
Curiosités:ruisseaux(Fainéant&Dégoutant) 
               :Four à cade]]></desc>
  </metadata>
  <trk>
    <name><![CDATA[Revers de Boquié_1]]></name>
    <trkseg>
      <trkpt lat="43.23431" lon="5.67223">
        <ele>393.5</ele>
        <time>2014-01-15T07:24:50Z</time>
      </trkpt>
      <trkpt lat="43.23431" lon="5.67222">
        <ele>393.700012</ele>
        <time>2014-01-15T07:24:51Z</time>
      </trkpt>
      <trkpt lat="43.23427" lon="5.67221">
        <ele>395.6</ele>
        <time>2014-01-15T07:25:59Z</time>
      </trkpt>
      <trkpt lat="43.23427" lon="5.67221">
        <ele>395.7</ele>
        <time>2014-01-15T07:26:00Z</time>
      </trkpt>
      <trkpt lat="43.23421" lon="5.67226">
        <ele>395.2</ele>
        <time>2014-01-15T07:26:07Z</time>
      </trkpt>
      <trkpt lat="43.23417" lon="5.67229">
        <ele>393.8</ele>
        <time>2014-01-15T07:26:14Z</time>
      </trkpt>
      <trkpt lat="43.23414" lon="5.67232">
        <ele>395.8</ele>
        <time>2014-01-15T07:26:24Z</time>
      </trkpt>
      <trkpt lat="43.2341" lon="5.67234">
        <ele>396.2</ele>
        <time>2014-01-15T07:26:29Z</time>
      </trkpt>
      <trkpt lat="43.23406" lon="5.67235">
        <ele>397.7</ele>
        <time>2014-01-15T07:26:32Z</time>
      </trkpt>
      <trkpt lat="43.23402" lon="5.67237">
        <ele>399</ele>
        <time>2014-01-15T07:26:37Z</time>
      </trkpt>
      <trkpt lat="43.23399" lon="5.6724">
        <ele>397.3</ele>
        <time>2014-01-15T07:26:42Z</time>
      </trkpt>
      <trkpt lat="43.23395" lon="5.67243">
        <ele>396.5</ele>
        <time>2014-01-15T07:26:48Z</time>
      </trkpt>
      <trkpt lat="43.23393" lon="5.67247">
        <ele>395.2</ele>
        <time>2014-01-15T07:26:52Z</time>
      </trkpt>
      <trkpt lat="43.23389" lon="5.6725">
        <ele>396.7</ele>
        <time>2014-01-15T07:26:59Z</time>
      </trkpt>
      <trkpt lat="43.23384" lon="5.6725">
        <ele>395.8</ele>
        <time>2014-01-15T07:27:19Z</time>
      </trkpt>
      <trkpt lat="43.23384" lon="5.67249">
        <ele>396</ele>
        <time>2014-01-15T07:27:20Z</time>
      </trkpt>
      <trkpt lat="43.23377" lon="5.67251">
        <ele>393.1</ele>
        <time>2014-01-15T07:27:30Z</time>
      </trkpt>
      <trkpt lat="43.23374" lon="5.67253">
        <ele>395.1</ele>
        <time>2014-01-15T07:27:33Z</time>
      </trkpt>
      <trkpt lat="43.23371" lon="5.67255">
        <ele>397.5</ele>
        <time>2014-01-15T07:27:37Z</time>
      </trkpt>
      <trkpt lat="43.23368" lon="5.6726">
        <ele>395.5</ele>
        <time>2014-01-15T07:27:41Z</time>
      </trkpt>
      <trkpt lat="43.23365" lon="5.67264">
        <ele>394.8</ele>
        <time>2014-01-15T07:27:45Z</time>
      </trkpt>
      <trkpt lat="43.23363" lon="5.67267">
        <ele>394.8</ele>
        <time>2014-01-15T07:27:48Z</time>
      </trkpt>
      <trkpt lat="43.2336" lon="5.67271">
        <ele>395.7</ele>
        <time>2014-01-15T07:27:51Z</time>
      </trkpt>
      <trkpt lat="43.23357" lon="5.67276">
        <ele>395.1</ele>
        <time>2014-01-15T07:27:55Z</time>
      </trkpt>
      <trkpt lat="43.23354" lon="5.67279">
        <ele>395.5</ele>
        <time>2014-01-15T07:27:58Z</time>
      </trkpt>
      <trkpt lat="43.23351" lon="5.67281">
        <ele>395.3</ele>
        <time>2014-01-15T07:28:01Z</time>
      </trkpt>
      <trkpt lat="43.23348" lon="5.67283">
        <ele>395.2</ele>
        <time>2014-01-15T07:28:04Z</time>
      </trkpt>
      <trkpt lat="43.23345" lon="5.67285">
        <ele>395</ele>
        <time>2014-01-15T07:28:07Z</time>
      </trkpt>
      <trkpt lat="43.23342" lon="5.67286">
        <ele>396.2</ele>
        <time>2014-01-15T07:28:10Z</time>
      </trkpt>
      <trkpt lat="43.23338" lon="5.67288">
        <ele>396.7</ele>
        <time>2014-01-15T07:28:14Z</time>
      </trkpt>
      <trkpt lat="43.23335" lon="5.67291">
        <ele>396.2</ele>
        <time>2014-01-15T07:28:17Z</time>
      </trkpt>
      <trkpt lat="43.23332" lon="5.67293">
        <ele>395.6</ele>
        <time>2014-01-15T07:28:20Z</time>
      </trkpt>
      <trkpt lat="43.23331" lon="5.67295">
        <ele>396.2</ele>
        <time>2014-01-15T07:28:21Z</time>
      </trkpt>
      <trkpt lat="43.23326" lon="5.67298">
        <ele>397</ele>
        <time>2014-01-15T07:28:26Z</time>
      </trkpt>
      <trkpt lat="43.23323" lon="5.673">
        <ele>397.3</ele>
        <time>2014-01-15T07:28:28Z</time>
      </trkpt>
      <trkpt lat="43.2332" lon="5.67303">
        <ele>396.7</ele>
        <time>2014-01-15T07:28:30Z</time>
      </trkpt>
      <trkpt lat="43.23317" lon="5.67305">
        <ele>396.7</ele>
        <time>2014-01-15T07:28:33Z</time>
      </trkpt>
      <trkpt lat="43.23313" lon="5.67307">
        <ele>396.3</ele>
        <time>2014-01-15T07:28:36Z</time>
      </trkpt>
      <trkpt lat="43.2331" lon="5.67309">
        <ele>396.5</ele>
        <time>2014-01-15T07:28:39Z</time>
      </trkpt>
      <trkpt lat="43.23306" lon="5.6731">
        <ele>397.2</ele>
        <time>2014-01-15T07:28:42Z</time>
      </trkpt>
      <trkpt lat="43.23302" lon="5.67312">
        <ele>397.3</ele>
        <time>2014-01-15T07:28:45Z</time>
      </trkpt>
      <trkpt lat="43.23298" lon="5.67312">
        <ele>397.6</ele>
        <time>2014-01-15T07:28:48Z</time>
      </trkpt>
      <trkpt lat="43.23295" lon="5.67312">
        <ele>396.7</ele>
        <time>2014-01-15T07:28:53Z</time>
      </trkpt>
      <trkpt lat="43.23292" lon="5.67314">
        <ele>396.3</ele>
        <time>2014-01-15T07:28:56Z</time>
      </trkpt>
      <trkpt lat="43.23289" lon="5.67317">
        <ele>396.1</ele>
        <time>2014-01-15T07:28:59Z</time>
      </trkpt>
      <trkpt lat="43.23286" lon="5.6732">
        <ele>397.2</ele>
        <time>2014-01-15T07:29:02Z</time>
      </trkpt>
      <trkpt lat="43.23283" lon="5.67322">
        <ele>399.6</ele>
        <time>2014-01-15T07:29:05Z</time>
      </trkpt>
      <trkpt lat="43.23279" lon="5.67324">
        <ele>402.3</ele>
        <time>2014-01-15T07:29:08Z</time>
      </trkpt>
      <trkpt lat="43.23275" lon="5.67326">
        <ele>403.5</ele>
        <time>2014-01-15T07:29:11Z</time>
      </trkpt>
      <trkpt lat="43.23272" lon="5.67329">
        <ele>402.8</ele>
        <time>2014-01-15T07:29:14Z</time>
      </trkpt>
      <trkpt lat="43.23269" lon="5.67331">
        <ele>402.7</ele>
        <time>2014-01-15T07:29:17Z</time>
      </trkpt>
      <trkpt lat="43.23265" lon="5.67334">
        <ele>402.2</ele>
        <time>2014-01-15T07:29:21Z</time>
      </trkpt>
      <trkpt lat="43.23264" lon="5.67335">
        <ele>401.7</ele>
        <time>2014-01-15T07:29:22Z</time>
      </trkpt>
      <trkpt lat="43.23258" lon="5.67339">
        <ele>401.3</ele>
        <time>2014-01-15T07:29:29Z</time>
      </trkpt>
      <trkpt lat="43.23254" lon="5.67341">
        <ele>402.7</ele>
        <time>2014-01-15T07:29:33Z</time>
      </trkpt>
      <trkpt lat="43.23251" lon="5.67342">
        <ele>402.6</ele>
        <time>2014-01-15T07:29:36Z</time>
      </trkpt>
      <trkpt lat="43.23247" lon="5.67344">
        <ele>402.2</ele>
        <time>2014-01-15T07:29:39Z</time>
      </trkpt>
      <trkpt lat="43.23243" lon="5.67346">
        <ele>401.5</ele>
        <time>2014-01-15T07:29:43Z</time>
      </trkpt>
      <trkpt lat="43.2324" lon="5.67348">
        <ele>401.3</ele>
        <time>2014-01-15T07:29:46Z</time>
      </trkpt>
      <trkpt lat="43.23236" lon="5.6735">
        <ele>402.7</ele>
        <time>2014-01-15T07:29:50Z</time>
      </trkpt>
      <trkpt lat="43.23232" lon="5.67351">
        <ele>404.3</ele>
        <time>2014-01-15T07:29:54Z</time>
      </trkpt>
      <trkpt lat="43.23229" lon="5.67355">
        <ele>404.7</ele>
        <time>2014-01-15T07:29:57Z</time>
      </trkpt>
      <trkpt lat="43.23227" lon="5.6736">
        <ele>404.3</ele>
        <time>2014-01-15T07:30:01Z</time>
      </trkpt>
      <trkpt lat="43.23224" lon="5.67364">
        <ele>404.7</ele>
        <time>2014-01-15T07:30:05Z</time>
      </trkpt>
      <trkpt lat="43.23221" lon="5.67366">
        <ele>405.1</ele>
        <time>2014-01-15T07:30:08Z</time>
      </trkpt>
      <trkpt lat="43.23217" lon="5.67369">
        <ele>405</ele>
        <time>2014-01-15T07:30:12Z</time>
      </trkpt>
      <trkpt lat="43.23214" lon="5.6737">
        <ele>405.2</ele>
        <time>2014-01-15T07:30:15Z</time>
      </trkpt>
      <trkpt lat="43.2321" lon="5.67371">
        <ele>405.7</ele>
        <time>2014-01-15T07:30:18Z</time>
      </trkpt>
      <trkpt lat="43.23207" lon="5.67371">
        <ele>406.2</ele>
        <time>2014-01-15T07:30:21Z</time>
      </trkpt>
      <trkpt lat="43.23203" lon="5.67371">
        <ele>407</ele>
        <time>2014-01-15T07:30:24Z</time>
      </trkpt>
      <trkpt lat="43.23202" lon="5.67371">
        <ele>407.1</ele>
        <time>2014-01-15T07:30:25Z</time>
      </trkpt>
      <trkpt lat="43.23196" lon="5.67371">
        <ele>407.2</ele>
        <time>2014-01-15T07:30:30Z</time>
      </trkpt>
      <trkpt lat="43.23192" lon="5.67372">
        <ele>407.6</ele>
        <time>2014-01-15T07:30:34Z</time>
      </trkpt>
      <trkpt lat="43.23188" lon="5.67372">
        <ele>407.7</ele>
        <time>2014-01-15T07:30:37Z</time>
      </trkpt>
      <trkpt lat="43.23185" lon="5.67373">
        <ele>407.6</ele>
        <time>2014-01-15T07:30:40Z</time>
      </trkpt>
      <trkpt lat="43.23181" lon="5.67374">
        <ele>408</ele>
        <time>2014-01-15T07:30:43Z</time>
      </trkpt>
      <trkpt lat="43.23178" lon="5.67375">
        <ele>408.1</ele>
        <time>2014-01-15T07:30:46Z</time>
      </trkpt>
      <trkpt lat="43.23174" lon="5.67375">
        <ele>408.7</ele>
        <time>2014-01-15T07:30:49Z</time>
      </trkpt>
      <trkpt lat="43.2317" lon="5.67376">
        <ele>409.2</ele>
        <time>2014-01-15T07:30:53Z</time>
      </trkpt>
      <trkpt lat="43.23167" lon="5.67376">
        <ele>410.2</ele>
        <time>2014-01-15T07:30:56Z</time>
      </trkpt>
      <trkpt lat="43.23162" lon="5.67377">
        <ele>410</ele>
        <time>2014-01-15T07:31:00Z</time>
      </trkpt>
      <trkpt lat="43.23158" lon="5.67377">
        <ele>410.2</ele>
        <time>2014-01-15T07:31:06Z</time>
      </trkpt>
      <trkpt lat="43.23153" lon="5.67378">
        <ele>411.1</ele>
        <time>2014-01-15T07:31:09Z</time>
      </trkpt>
      <trkpt lat="43.2315" lon="5.67378">
        <ele>412.5</ele>
        <time>2014-01-15T07:31:13Z</time>
      </trkpt>
      <trkpt lat="43.23145" lon="5.67377">
        <ele>414.2</ele>
        <time>2014-01-15T07:31:17Z</time>
      </trkpt>
      <trkpt lat="43.23141" lon="5.67377">
        <ele>416.1</ele>
        <time>2014-01-15T07:31:21Z</time>
      </trkpt>
      <trkpt lat="43.23137" lon="5.67376">
        <ele>416.8</ele>
        <time>2014-01-15T07:31:25Z</time>
      </trkpt>
      <trkpt lat="43.23136" lon="5.67376">
        <ele>417.1</ele>
        <time>2014-01-15T07:31:26Z</time>
      </trkpt>
      <trkpt lat="43.2313" lon="5.67373">
        <ele>417.7</ele>
        <time>2014-01-15T07:31:31Z</time>
      </trkpt>
      <trkpt lat="43.23127" lon="5.6737">
        <ele>418.1</ele>
        <time>2014-01-15T07:31:34Z</time>
      </trkpt>
      <trkpt lat="43.23124" lon="5.67366">
        <ele>417.3</ele>
        <time>2014-01-15T07:31:38Z</time>
      </trkpt>
      <trkpt lat="43.23122" lon="5.67362">
        <ele>416</ele>
        <time>2014-01-15T07:31:42Z</time>
      </trkpt>
      <trkpt lat="43.23121" lon="5.67357">
        <ele>414.2</ele>
        <time>2014-01-15T07:31:46Z</time>
      </trkpt>
      <trkpt lat="43.2312" lon="5.67351">
        <ele>413.3</ele>
        <time>2014-01-15T07:31:50Z</time>
      </trkpt>
      <trkpt lat="43.23118" lon="5.67347">
        <ele>412.3</ele>
        <time>2014-01-15T07:31:54Z</time>
      </trkpt>
      <trkpt lat="43.23117" lon="5.67341">
        <ele>412.5</ele>
        <time>2014-01-15T07:31:58Z</time>
      </trkpt>
      <trkpt lat="43.23115" lon="5.67335">
        <ele>412.7</ele>
        <time>2014-01-15T07:32:02Z</time>
      </trkpt>
      <trkpt lat="43.23113" lon="5.67332">
        <ele>413.1</ele>
        <time>2014-01-15T07:32:07Z</time>
      </trkpt>
      <trkpt lat="43.2311" lon="5.67329">
        <ele>415.2</ele>
        <time>2014-01-15T07:32:10Z</time>
      </trkpt>
      <trkpt lat="43.23106" lon="5.67327">
        <ele>416.2</ele>
        <time>2014-01-15T07:32:14Z</time>
      </trkpt>
      <trkpt lat="43.23102" lon="5.67326">
        <ele>417</ele>
        <time>2014-01-15T07:32:18Z</time>
      </trkpt>
      <trkpt lat="43.23099" lon="5.67325">
        <ele>417.5</ele>
        <time>2014-01-15T07:32:23Z</time>
      </trkpt>
      <trkpt lat="43.23095" lon="5.67326">
        <ele>416</ele>
        <time>2014-01-15T07:32:27Z</time>
      </trkpt>
      <trkpt lat="43.23094" lon="5.67327">
        <ele>416</ele>
        <time>2014-01-15T07:32:28Z</time>
      </trkpt>
      <trkpt lat="43.23087" lon="5.67327">
        <ele>418.8</ele>
        <time>2014-01-15T07:32:35Z</time>
      </trkpt>
      <trkpt lat="43.23083" lon="5.67329">
        <ele>418.7</ele>
        <time>2014-01-15T07:32:41Z</time>
      </trkpt>
      <trkpt lat="43.23079" lon="5.67331">
        <ele>417.7</ele>
        <time>2014-01-15T07:32:46Z</time>
      </trkpt>
      <trkpt lat="43.23075" lon="5.67332">
        <ele>417.3</ele>
        <time>2014-01-15T07:32:50Z</time>
      </trkpt>
      <trkpt lat="43.23072" lon="5.67332">
        <ele>418</ele>
        <time>2014-01-15T07:32:54Z</time>
      </trkpt>
      <trkpt lat="43.23068" lon="5.67333">
        <ele>418.2</ele>
        <time>2014-01-15T07:32:59Z</time>
      </trkpt>
      <trkpt lat="43.23064" lon="5.67335">
        <ele>419</ele>
        <time>2014-01-15T07:33:06Z</time>
      </trkpt>
      <trkpt lat="43.2306" lon="5.67337">
        <ele>420.2</ele>
        <time>2014-01-15T07:33:12Z</time>
      </trkpt>
      <trkpt lat="43.23056" lon="5.6734">
        <ele>421.5</ele>
        <time>2014-01-15T07:33:16Z</time>
      </trkpt>
      <trkpt lat="43.23052" lon="5.67341">
        <ele>422.7</ele>
        <time>2014-01-15T07:33:20Z</time>
      </trkpt>
      <trkpt lat="43.23048" lon="5.67341">
        <ele>423.7</ele>
        <time>2014-01-15T07:33:24Z</time>
      </trkpt>
      <trkpt lat="43.23044" lon="5.6734">
        <ele>425</ele>
        <time>2014-01-15T07:33:29Z</time>
      </trkpt>
      <trkpt lat="43.23043" lon="5.67341">
        <ele>424.7</ele>
        <time>2014-01-15T07:33:30Z</time>
      </trkpt>
      <trkpt lat="43.23036" lon="5.67339">
        <ele>425</ele>
        <time>2014-01-15T07:33:38Z</time>
      </trkpt>
      <trkpt lat="43.23032" lon="5.67338">
        <ele>423.6</ele>
        <time>2014-01-15T07:33:43Z</time>
      </trkpt>
      <trkpt lat="43.23028" lon="5.67337">
        <ele>424.2</ele>
        <time>2014-01-15T07:33:48Z</time>
      </trkpt>
      <trkpt lat="43.23023" lon="5.67336">
        <ele>424.7</ele>
        <time>2014-01-15T07:33:53Z</time>
      </trkpt>
      <trkpt lat="43.2302" lon="5.67334">
        <ele>425.2</ele>
        <time>2014-01-15T07:33:57Z</time>
      </trkpt>
      <trkpt lat="43.23016" lon="5.67332">
        <ele>427.2</ele>
        <time>2014-01-15T07:34:01Z</time>
      </trkpt>
      <trkpt lat="43.23012" lon="5.67333">
        <ele>428.2</ele>
        <time>2014-01-15T07:34:07Z</time>
      </trkpt>
      <trkpt lat="43.23008" lon="5.67334">
        <ele>428.1</ele>
        <time>2014-01-15T07:34:12Z</time>
      </trkpt>
      <trkpt lat="43.23004" lon="5.67332">
        <ele>430</ele>
        <time>2014-01-15T07:34:15Z</time>
      </trkpt>
      <trkpt lat="43.23" lon="5.67332">
        <ele>430.2</ele>
        <time>2014-01-15T07:34:19Z</time>
      </trkpt>
      <trkpt lat="43.22996" lon="5.67333">
        <ele>430.1</ele>
        <time>2014-01-15T07:34:24Z</time>
      </trkpt>
      <trkpt lat="43.22993" lon="5.67336">
        <ele>429.7</ele>
        <time>2014-01-15T07:34:29Z</time>
      </trkpt>
      <trkpt lat="43.2299" lon="5.6734">
        <ele>430.1</ele>
        <time>2014-01-15T07:34:33Z</time>
      </trkpt>
      <trkpt lat="43.2299" lon="5.67341">
        <ele>430.2</ele>
        <time>2014-01-15T07:34:34Z</time>
      </trkpt>
      <trkpt lat="43.22986" lon="5.67349">
        <ele>429.2</ele>
        <time>2014-01-15T07:34:41Z</time>
      </trkpt>
      <trkpt lat="43.22983" lon="5.67353">
        <ele>429</ele>
        <time>2014-01-15T07:34:45Z</time>
      </trkpt>
      <trkpt lat="43.22982" lon="5.67357">
        <ele>429.5</ele>
        <time>2014-01-15T07:34:48Z</time>
      </trkpt>
      <trkpt lat="43.22979" lon="5.67361">
        <ele>430.1</ele>
        <time>2014-01-15T07:34:51Z</time>
      </trkpt>
      <trkpt lat="43.22976" lon="5.67364">
        <ele>430.5</ele>
        <time>2014-01-15T07:34:55Z</time>
      </trkpt>
      <trkpt lat="43.22973" lon="5.67369">
        <ele>429.1</ele>
        <time>2014-01-15T07:34:59Z</time>
      </trkpt>
      <trkpt lat="43.2297" lon="5.67372">
        <ele>429.5</ele>
        <time>2014-01-15T07:35:03Z</time>
      </trkpt>
      <trkpt lat="43.22967" lon="5.67376">
        <ele>430.2</ele>
        <time>2014-01-15T07:35:08Z</time>
      </trkpt>
      <trkpt lat="43.22964" lon="5.67378">
        <ele>430.2</ele>
        <time>2014-01-15T07:35:10Z</time>
      </trkpt>
      <trkpt lat="43.22961" lon="5.67382">
        <ele>430.5</ele>
        <time>2014-01-15T07:35:13Z</time>
      </trkpt>
      <trkpt lat="43.22958" lon="5.67385">
        <ele>431.8</ele>
        <time>2014-01-15T07:35:16Z</time>
      </trkpt>
      <trkpt lat="43.22955" lon="5.67387">
        <ele>433.3</ele>
        <time>2014-01-15T07:35:19Z</time>
      </trkpt>
      <trkpt lat="43.22953" lon="5.67389">
        <ele>434</ele>
        <time>2014-01-15T07:35:21Z</time>
      </trkpt>
      <trkpt lat="43.22949" lon="5.67392">
        <ele>434.7</ele>
        <time>2014-01-15T07:35:24Z</time>
      </trkpt>
      <trkpt lat="43.22946" lon="5.67394">
        <ele>435</ele>
        <time>2014-01-15T07:35:27Z</time>
      </trkpt>
      <trkpt lat="43.22942" lon="5.67396">
        <ele>434.2</ele>
        <time>2014-01-15T07:35:30Z</time>
      </trkpt>
      <trkpt lat="43.22938" lon="5.67396">
        <ele>434.7</ele>
        <time>2014-01-15T07:35:34Z</time>
      </trkpt>
      <trkpt lat="43.22936" lon="5.67396">
        <ele>435.2</ele>
        <time>2014-01-15T07:35:35Z</time>
      </trkpt>
      <trkpt lat="43.22929" lon="5.67396">
        <ele>435.5</ele>
        <time>2014-01-15T07:35:43Z</time>
      </trkpt>
      <trkpt lat="43.22926" lon="5.67399">
        <ele>435.5</ele>
        <time>2014-01-15T07:35:47Z</time>
      </trkpt>
      <trkpt lat="43.22922" lon="5.674">
        <ele>436.5</ele>
        <time>2014-01-15T07:35:50Z</time>
      </trkpt>
      <trkpt lat="43.22918" lon="5.67401">
        <ele>437</ele>
        <time>2014-01-15T07:35:53Z</time>
      </trkpt>
      <trkpt lat="43.22914" lon="5.67404">
        <ele>435.3</ele>
        <time>2014-01-15T07:35:57Z</time>
      </trkpt>
      <trkpt lat="43.22912" lon="5.67405">
        <ele>434.8</ele>
        <time>2014-01-15T07:36:00Z</time>
      </trkpt>
      <trkpt lat="43.22907" lon="5.67406">
        <ele>435.6</ele>
        <time>2014-01-15T07:36:03Z</time>
      </trkpt>
      <trkpt lat="43.22904" lon="5.67409">
        <ele>435.8</ele>
        <time>2014-01-15T07:36:06Z</time>
      </trkpt>
      <trkpt lat="43.22901" lon="5.6741">
        <ele>435.8</ele>
        <time>2014-01-15T07:36:09Z</time>
      </trkpt>
      <trkpt lat="43.22897" lon="5.67411">
        <ele>436.2</ele>
        <time>2014-01-15T07:36:12Z</time>
      </trkpt>
      <trkpt lat="43.22893" lon="5.67412">
        <ele>435.5</ele>
        <time>2014-01-15T07:36:15Z</time>
      </trkpt>
      <trkpt lat="43.22889" lon="5.67413">
        <ele>435</ele>
        <time>2014-01-15T07:36:19Z</time>
      </trkpt>
      <trkpt lat="43.22885" lon="5.67414">
        <ele>435.7</ele>
        <time>2014-01-15T07:36:22Z</time>
      </trkpt>
      <trkpt lat="43.22881" lon="5.67415">
        <ele>435.7</ele>
        <time>2014-01-15T07:36:25Z</time>
      </trkpt>
      <trkpt lat="43.22878" lon="5.67417">
        <ele>435</ele>
        <time>2014-01-15T07:36:28Z</time>
      </trkpt>
      <trkpt lat="43.22875" lon="5.67419">
        <ele>435</ele>
        <time>2014-01-15T07:36:30Z</time>
      </trkpt>
      <trkpt lat="43.22871" lon="5.67421">
        <ele>435.1</ele>
        <time>2014-01-15T07:36:33Z</time>
      </trkpt>
      <trkpt lat="43.22867" lon="5.67423">
        <ele>434.7</ele>
        <time>2014-01-15T07:36:37Z</time>
      </trkpt>
      <trkpt lat="43.22866" lon="5.67424">
        <ele>434.6</ele>
        <time>2014-01-15T07:36:38Z</time>
      </trkpt>
      <trkpt lat="43.22859" lon="5.67426">
        <ele>433.3</ele>
        <time>2014-01-15T07:37:00Z</time>
      </trkpt>
      <trkpt lat="43.22856" lon="5.67421">
        <ele>436.5</ele>
        <time>2014-01-15T07:37:10Z</time>
      </trkpt>
      <trkpt lat="43.22853" lon="5.67417">
        <ele>438</ele>
        <time>2014-01-15T07:37:25Z</time>
      </trkpt>
      <trkpt lat="43.2285" lon="5.67414">
        <ele>438.6</ele>
        <time>2014-01-15T07:37:30Z</time>
      </trkpt>
      <trkpt lat="43.22847" lon="5.67419">
        <ele>435.8</ele>
        <time>2014-01-15T07:37:41Z</time>
      </trkpt>
      <trkpt lat="43.22846" lon="5.6742">
        <ele>436.1</ele>
        <time>2014-01-15T07:37:42Z</time>
      </trkpt>
      <trkpt lat="43.2284" lon="5.67424">
        <ele>434.7</ele>
        <time>2014-01-15T07:37:52Z</time>
      </trkpt>
      <trkpt lat="43.22836" lon="5.67425">
        <ele>434.2</ele>
        <time>2014-01-15T07:37:55Z</time>
      </trkpt>
      <trkpt lat="43.22834" lon="5.6743">
        <ele>432.8</ele>
        <time>2014-01-15T07:38:00Z</time>
      </trkpt>
      <trkpt lat="43.2283" lon="5.67432">
        <ele>432.3</ele>
        <time>2014-01-15T07:38:04Z</time>
      </trkpt>
      <trkpt lat="43.22827" lon="5.67433">
        <ele>432.6</ele>
        <time>2014-01-15T07:38:07Z</time>
      </trkpt>
      <trkpt lat="43.22824" lon="5.67434">
        <ele>433.1</ele>
        <time>2014-01-15T07:38:09Z</time>
      </trkpt>
      <trkpt lat="43.2282" lon="5.67435">
        <ele>433.1</ele>
        <time>2014-01-15T07:38:11Z</time>
      </trkpt>
      <trkpt lat="43.22817" lon="5.67434">
        <ele>434.2</ele>
        <time>2014-01-15T07:38:14Z</time>
      </trkpt>
      <trkpt lat="43.22813" lon="5.67434">
        <ele>434.7</ele>
        <time>2014-01-15T07:38:18Z</time>
      </trkpt>
      <trkpt lat="43.22811" lon="5.67439">
        <ele>434.2</ele>
        <time>2014-01-15T07:38:22Z</time>
      </trkpt>
      <trkpt lat="43.22809" lon="5.67443">
        <ele>434.2</ele>
        <time>2014-01-15T07:38:25Z</time>
      </trkpt>
      <trkpt lat="43.22805" lon="5.67447">
        <ele>435.5</ele>
        <time>2014-01-15T07:38:35Z</time>
      </trkpt>
      <trkpt lat="43.22801" lon="5.67449">
        <ele>440.7</ele>
        <time>2014-01-15T07:39:10Z</time>
      </trkpt>
      <trkpt lat="43.22801" lon="5.67449">
        <ele>440.7</ele>
        <time>2014-01-15T07:39:11Z</time>
      </trkpt>
      <trkpt lat="43.22796" lon="5.67458">
        <ele>438.5</ele>
        <time>2014-01-15T07:39:21Z</time>
      </trkpt>
      <trkpt lat="43.22794" lon="5.67461">
        <ele>437.7</ele>
        <time>2014-01-15T07:39:25Z</time>
      </trkpt>
      <trkpt lat="43.22792" lon="5.67466">
        <ele>437</ele>
        <time>2014-01-15T07:39:29Z</time>
      </trkpt>
      <trkpt lat="43.22789" lon="5.6747">
        <ele>436.3</ele>
        <time>2014-01-15T07:39:33Z</time>
      </trkpt>
      <trkpt lat="43.22785" lon="5.67472">
        <ele>436.5</ele>
        <time>2014-01-15T07:39:37Z</time>
      </trkpt>
      <trkpt lat="43.22782" lon="5.67475">
        <ele>435.7</ele>
        <time>2014-01-15T07:39:41Z</time>
      </trkpt>
      <trkpt lat="43.22779" lon="5.67479">
        <ele>435.3</ele>
        <time>2014-01-15T07:39:45Z</time>
      </trkpt>
      <trkpt lat="43.22776" lon="5.67483">
        <ele>435.5</ele>
        <time>2014-01-15T07:39:49Z</time>
      </trkpt>
      <trkpt lat="43.22772" lon="5.67487">
        <ele>436.1</ele>
        <time>2014-01-15T07:39:53Z</time>
      </trkpt>
      <trkpt lat="43.22769" lon="5.6749">
        <ele>436.2</ele>
        <time>2014-01-15T07:39:56Z</time>
      </trkpt>
      <trkpt lat="43.22767" lon="5.67493">
        <ele>435.8</ele>
        <time>2014-01-15T07:39:59Z</time>
      </trkpt>
      <trkpt lat="43.22763" lon="5.67497">
        <ele>435.1</ele>
        <time>2014-01-15T07:40:03Z</time>
      </trkpt>
      <trkpt lat="43.22761" lon="5.67501">
        <ele>434.5</ele>
        <time>2014-01-15T07:40:07Z</time>
      </trkpt>
      <trkpt lat="43.22757" lon="5.67505">
        <ele>434.3</ele>
        <time>2014-01-15T07:40:12Z</time>
      </trkpt>
      <trkpt lat="43.22756" lon="5.67505">
        <ele>434.8</ele>
        <time>2014-01-15T07:40:13Z</time>
      </trkpt>
      <trkpt lat="43.22751" lon="5.6751">
        <ele>435.6</ele>
        <time>2014-01-15T07:40:18Z</time>
      </trkpt>
      <trkpt lat="43.22747" lon="5.67514">
        <ele>435.7</ele>
        <time>2014-01-15T07:40:22Z</time>
      </trkpt>
      <trkpt lat="43.22744" lon="5.67518">
        <ele>435.7</ele>
        <time>2014-01-15T07:40:25Z</time>
      </trkpt>
      <trkpt lat="43.22742" lon="5.67522">
        <ele>434.5</ele>
        <time>2014-01-15T07:40:29Z</time>
      </trkpt>
      <trkpt lat="43.22739" lon="5.67526">
        <ele>433.8</ele>
        <time>2014-01-15T07:40:33Z</time>
      </trkpt>
      <trkpt lat="43.22737" lon="5.67531">
        <ele>432.5</ele>
        <time>2014-01-15T07:40:37Z</time>
      </trkpt>
      <trkpt lat="43.22735" lon="5.67535">
        <ele>431.5</ele>
        <time>2014-01-15T07:40:41Z</time>
      </trkpt>
      <trkpt lat="43.22733" lon="5.67539">
        <ele>430.7</ele>
        <time>2014-01-15T07:40:45Z</time>
      </trkpt>
      <trkpt lat="43.2273" lon="5.67543">
        <ele>429.8</ele>
        <time>2014-01-15T07:40:49Z</time>
      </trkpt>
      <trkpt lat="43.22727" lon="5.67546">
        <ele>430.2</ele>
        <time>2014-01-15T07:40:52Z</time>
      </trkpt>
      <trkpt lat="43.22724" lon="5.6755">
        <ele>430.5</ele>
        <time>2014-01-15T07:40:55Z</time>
      </trkpt>
      <trkpt lat="43.22721" lon="5.67553">
        <ele>430.5</ele>
        <time>2014-01-15T07:40:58Z</time>
      </trkpt>
      <trkpt lat="43.22718" lon="5.67556">
        <ele>430.7</ele>
        <time>2014-01-15T07:41:01Z</time>
      </trkpt>
      <trkpt lat="43.22715" lon="5.67561">
        <ele>430.2</ele>
        <time>2014-01-15T07:41:05Z</time>
      </trkpt>
      <trkpt lat="43.22712" lon="5.67564">
        <ele>430.2</ele>
        <time>2014-01-15T07:41:11Z</time>
      </trkpt>
      <trkpt lat="43.22709" lon="5.67567">
        <ele>430.1</ele>
        <time>2014-01-15T07:41:15Z</time>
      </trkpt>
      <trkpt lat="43.22708" lon="5.67568">
        <ele>430.1</ele>
        <time>2014-01-15T07:41:16Z</time>
      </trkpt>
      <trkpt lat="43.22702" lon="5.67574">
        <ele>429.7</ele>
        <time>2014-01-15T07:41:24Z</time>
      </trkpt>
      <trkpt lat="43.22699" lon="5.67579">
        <ele>429.1</ele>
        <time>2014-01-15T07:41:27Z</time>
      </trkpt>
      <trkpt lat="43.22696" lon="5.67583">
        <ele>429.8</ele>
        <time>2014-01-15T07:41:30Z</time>
      </trkpt>
      <trkpt lat="43.22693" lon="5.67586">
        <ele>430.3</ele>
        <time>2014-01-15T07:41:33Z</time>
      </trkpt>
      <trkpt lat="43.2269" lon="5.6759">
        <ele>430.2</ele>
        <time>2014-01-15T07:41:37Z</time>
      </trkpt>
      <trkpt lat="43.22688" lon="5.67594">
        <ele>429.7</ele>
        <time>2014-01-15T07:41:41Z</time>
      </trkpt>
      <trkpt lat="43.22685" lon="5.67598">
        <ele>428.8</ele>
        <time>2014-01-15T07:41:44Z</time>
      </trkpt>
      <trkpt lat="43.22683" lon="5.67602">
        <ele>428.2</ele>
        <time>2014-01-15T07:41:47Z</time>
      </trkpt>
      <trkpt lat="43.2268" lon="5.67606">
        <ele>427.7</ele>
        <time>2014-01-15T07:41:51Z</time>
      </trkpt>
      <trkpt lat="43.22677" lon="5.6761">
        <ele>428.1</ele>
        <time>2014-01-15T07:41:55Z</time>
      </trkpt>
      <trkpt lat="43.22673" lon="5.67613">
        <ele>428.5</ele>
        <time>2014-01-15T07:41:59Z</time>
      </trkpt>
      <trkpt lat="43.2267" lon="5.67617">
        <ele>426.3</ele>
        <time>2014-01-15T07:42:03Z</time>
      </trkpt>
      <trkpt lat="43.22668" lon="5.67622">
        <ele>424.2</ele>
        <time>2014-01-15T07:42:08Z</time>
      </trkpt>
      <trkpt lat="43.22665" lon="5.67626">
        <ele>423.6</ele>
        <time>2014-01-15T07:42:12Z</time>
      </trkpt>
      <trkpt lat="43.22662" lon="5.6763">
        <ele>422.7</ele>
        <time>2014-01-15T07:42:16Z</time>
      </trkpt>
      <trkpt lat="43.22661" lon="5.67631">
        <ele>422.6</ele>
        <time>2014-01-15T07:42:17Z</time>
      </trkpt>
      <trkpt lat="43.22657" lon="5.6764">
        <ele>421.6</ele>
        <time>2014-01-15T07:42:25Z</time>
      </trkpt>
      <trkpt lat="43.22654" lon="5.67644">
        <ele>421.3</ele>
        <time>2014-01-15T07:42:29Z</time>
      </trkpt>
      <trkpt lat="43.22652" lon="5.67648">
        <ele>420.7</ele>
        <time>2014-01-15T07:42:33Z</time>
      </trkpt>
      <trkpt lat="43.22649" lon="5.67652">
        <ele>420.6</ele>
        <time>2014-01-15T07:42:36Z</time>
      </trkpt>
      <trkpt lat="43.22647" lon="5.67655">
        <ele>420.6</ele>
        <time>2014-01-15T07:42:39Z</time>
      </trkpt>
      <trkpt lat="43.22644" lon="5.67659">
        <ele>421.1</ele>
        <time>2014-01-15T07:42:42Z</time>
      </trkpt>
      <trkpt lat="43.22642" lon="5.67663">
        <ele>420.7</ele>
        <time>2014-01-15T07:42:46Z</time>
      </trkpt>
      <trkpt lat="43.2264" lon="5.67667">
        <ele>419.5</ele>
        <time>2014-01-15T07:42:50Z</time>
      </trkpt>
      <trkpt lat="43.22637" lon="5.67672">
        <ele>419.2</ele>
        <time>2014-01-15T07:42:55Z</time>
      </trkpt>
      <trkpt lat="43.22635" lon="5.67676">
        <ele>418.7</ele>
        <time>2014-01-15T07:42:59Z</time>
      </trkpt>
      <trkpt lat="43.22632" lon="5.67681">
        <ele>418</ele>
        <time>2014-01-15T07:43:03Z</time>
      </trkpt>
      <trkpt lat="43.22631" lon="5.67687">
        <ele>416.8</ele>
        <time>2014-01-15T07:43:08Z</time>
      </trkpt>
      <trkpt lat="43.22629" lon="5.67691">
        <ele>415.7</ele>
        <time>2014-01-15T07:43:12Z</time>
      </trkpt>
      <trkpt lat="43.22627" lon="5.67696">
        <ele>413.6</ele>
        <time>2014-01-15T07:43:17Z</time>
      </trkpt>
      <trkpt lat="43.22626" lon="5.67697">
        <ele>413.2</ele>
        <time>2014-01-15T07:43:18Z</time>
      </trkpt>
      <trkpt lat="43.22624" lon="5.67707">
        <ele>411.7</ele>
        <time>2014-01-15T07:43:26Z</time>
      </trkpt>
      <trkpt lat="43.22621" lon="5.67711">
        <ele>412.5</ele>
        <time>2014-01-15T07:43:31Z</time>
      </trkpt>
      <trkpt lat="43.22621" lon="5.67717">
        <ele>411.7</ele>
        <time>2014-01-15T07:43:36Z</time>
      </trkpt>
      <trkpt lat="43.22624" lon="5.67721">
        <ele>409.6</ele>
        <time>2014-01-15T07:43:42Z</time>
      </trkpt>
      <trkpt lat="43.22628" lon="5.67723">
        <ele>408.1</ele>
        <time>2014-01-15T07:43:49Z</time>
      </trkpt>
      <trkpt lat="43.22632" lon="5.67722">
        <ele>407.8</ele>
        <time>2014-01-15T07:43:55Z</time>
      </trkpt>
      <trkpt lat="43.22636" lon="5.6772">
        <ele>408.6</ele>
        <time>2014-01-15T07:44:00Z</time>
      </trkpt>
      <trkpt lat="43.22639" lon="5.67718">
        <ele>409.1</ele>
        <time>2014-01-15T07:44:03Z</time>
      </trkpt>
      <trkpt lat="43.22643" lon="5.67717">
        <ele>409.7</ele>
        <time>2014-01-15T07:44:06Z</time>
      </trkpt>
      <trkpt lat="43.22647" lon="5.67715">
        <ele>410.7</ele>
        <time>2014-01-15T07:44:09Z</time>
      </trkpt>
      <trkpt lat="43.2265" lon="5.67713">
        <ele>409.8</ele>
        <time>2014-01-15T07:44:13Z</time>
      </trkpt>
      <trkpt lat="43.22654" lon="5.67712">
        <ele>411.6</ele>
        <time>2014-01-15T07:44:17Z</time>
      </trkpt>
      <trkpt lat="43.22658" lon="5.6771">
        <ele>413.1</ele>
        <time>2014-01-15T07:44:22Z</time>
      </trkpt>
      <trkpt lat="43.22658" lon="5.6771">
        <ele>413.2</ele>
        <time>2014-01-15T07:44:23Z</time>
      </trkpt>
      <trkpt lat="43.22666" lon="5.67706">
        <ele>414.2</ele>
        <time>2014-01-15T07:44:31Z</time>
      </trkpt>
      <trkpt lat="43.2267" lon="5.67706">
        <ele>414</ele>
        <time>2014-01-15T07:44:35Z</time>
      </trkpt>
      <trkpt lat="43.22674" lon="5.67706">
        <ele>413.1</ele>
        <time>2014-01-15T07:44:38Z</time>
      </trkpt>
      <trkpt lat="43.22677" lon="5.67706">
        <ele>412.6</ele>
        <time>2014-01-15T07:44:41Z</time>
      </trkpt>
      <trkpt lat="43.22681" lon="5.67705">
        <ele>412.8</ele>
        <time>2014-01-15T07:44:44Z</time>
      </trkpt>
      <trkpt lat="43.22686" lon="5.67704">
        <ele>413.2</ele>
        <time>2014-01-15T07:44:48Z</time>
      </trkpt>
      <trkpt lat="43.2269" lon="5.67703">
        <ele>411.7</ele>
        <time>2014-01-15T07:44:53Z</time>
      </trkpt>
      <trkpt lat="43.22693" lon="5.67703">
        <ele>410.6</ele>
        <time>2014-01-15T07:44:57Z</time>
      </trkpt>
      <trkpt lat="43.22697" lon="5.67701">
        <ele>410.3</ele>
        <time>2014-01-15T07:45:00Z</time>
      </trkpt>
      <trkpt lat="43.22702" lon="5.677">
        <ele>410.7</ele>
        <time>2014-01-15T07:45:03Z</time>
      </trkpt>
      <trkpt lat="43.22706" lon="5.677">
        <ele>412</ele>
        <time>2014-01-15T07:45:07Z</time>
      </trkpt>
      <trkpt lat="43.2271" lon="5.67699">
        <ele>412.2</ele>
        <time>2014-01-15T07:45:11Z</time>
      </trkpt>
      <trkpt lat="43.22714" lon="5.67699">
        <ele>412.5</ele>
        <time>2014-01-15T07:45:15Z</time>
      </trkpt>
      <trkpt lat="43.22717" lon="5.67698">
        <ele>411.3</ele>
        <time>2014-01-15T07:45:19Z</time>
      </trkpt>
      <trkpt lat="43.22721" lon="5.67697">
        <ele>411.7</ele>
        <time>2014-01-15T07:45:22Z</time>
      </trkpt>
      <trkpt lat="43.22724" lon="5.67696">
        <ele>410.8</ele>
        <time>2014-01-15T07:45:25Z</time>
      </trkpt>
      <trkpt lat="43.22726" lon="5.67696">
        <ele>411.2</ele>
        <time>2014-01-15T07:45:26Z</time>
      </trkpt>
      <trkpt lat="43.22731" lon="5.67694">
        <ele>412.5</ele>
        <time>2014-01-15T07:45:32Z</time>
      </trkpt>
      <trkpt lat="43.22735" lon="5.67693">
        <ele>414.1</ele>
        <time>2014-01-15T07:45:36Z</time>
      </trkpt>
      <trkpt lat="43.22739" lon="5.67692">
        <ele>412.2</ele>
        <time>2014-01-15T07:45:41Z</time>
      </trkpt>
      <trkpt lat="43.22743" lon="5.67691">
        <ele>411.6</ele>
        <time>2014-01-15T07:45:46Z</time>
      </trkpt>
      <trkpt lat="43.22747" lon="5.67692">
        <ele>408.5</ele>
        <time>2014-01-15T07:45:51Z</time>
      </trkpt>
      <trkpt lat="43.22751" lon="5.67693">
        <ele>410.3</ele>
        <time>2014-01-15T07:45:55Z</time>
      </trkpt>
      <trkpt lat="43.22756" lon="5.67694">
        <ele>409.2</ele>
        <time>2014-01-15T07:45:59Z</time>
      </trkpt>
      <trkpt lat="43.22759" lon="5.67695">
        <ele>409</ele>
        <time>2014-01-15T07:46:03Z</time>
      </trkpt>
      <trkpt lat="43.22762" lon="5.67698">
        <ele>411</ele>
        <time>2014-01-15T07:46:06Z</time>
      </trkpt>
      <trkpt lat="43.22766" lon="5.67701">
        <ele>412.6</ele>
        <time>2014-01-15T07:46:09Z</time>
      </trkpt>
      <trkpt lat="43.2277" lon="5.67705">
        <ele>411.8</ele>
        <time>2014-01-15T07:46:13Z</time>
      </trkpt>
      <trkpt lat="43.22773" lon="5.67709">
        <ele>408.1</ele>
        <time>2014-01-15T07:46:18Z</time>
      </trkpt>
      <trkpt lat="43.22774" lon="5.67714">
        <ele>402.7</ele>
        <time>2014-01-15T07:46:24Z</time>
      </trkpt>
      <trkpt lat="43.22776" lon="5.67719">
        <ele>396.5</ele>
        <time>2014-01-15T07:46:31Z</time>
      </trkpt>
      <trkpt lat="43.22777" lon="5.6772">
        <ele>396</ele>
        <time>2014-01-15T07:46:32Z</time>
      </trkpt>
      <trkpt lat="43.22779" lon="5.67727">
        <ele>398.6</ele>
        <time>2014-01-15T07:46:36Z</time>
      </trkpt>
      <trkpt lat="43.22781" lon="5.67732">
        <ele>400.7</ele>
        <time>2014-01-15T07:46:39Z</time>
      </trkpt>
      <trkpt lat="43.22783" lon="5.67737">
        <ele>402.6</ele>
        <time>2014-01-15T07:46:42Z</time>
      </trkpt>
      <trkpt lat="43.22784" lon="5.67742">
        <ele>405</ele>
        <time>2014-01-15T07:46:45Z</time>
      </trkpt>
      <trkpt lat="43.22785" lon="5.67747">
        <ele>406.2</ele>
        <time>2014-01-15T07:46:48Z</time>
      </trkpt>
      <trkpt lat="43.22788" lon="5.67751">
        <ele>405.8</ele>
        <time>2014-01-15T07:46:52Z</time>
      </trkpt>
      <trkpt lat="43.22791" lon="5.67756">
        <ele>406.6</ele>
        <time>2014-01-15T07:46:56Z</time>
      </trkpt>
      <trkpt lat="43.22792" lon="5.67761">
        <ele>407.8</ele>
        <time>2014-01-15T07:46:59Z</time>
      </trkpt>
      <trkpt lat="43.22795" lon="5.67764">
        <ele>403.1</ele>
        <time>2014-01-15T07:47:04Z</time>
      </trkpt>
      <trkpt lat="43.22796" lon="5.6777">
        <ele>400.8</ele>
        <time>2014-01-15T07:47:08Z</time>
      </trkpt>
      <trkpt lat="43.22797" lon="5.67775">
        <ele>400.6</ele>
        <time>2014-01-15T07:47:12Z</time>
      </trkpt>
      <trkpt lat="43.22797" lon="5.67781">
        <ele>400.2</ele>
        <time>2014-01-15T07:47:16Z</time>
      </trkpt>
      <trkpt lat="43.22796" lon="5.67787">
        <ele>399.7</ele>
        <time>2014-01-15T07:47:20Z</time>
      </trkpt>
      <trkpt lat="43.22796" lon="5.67792">
        <ele>401.3</ele>
        <time>2014-01-15T07:47:24Z</time>
      </trkpt>
      <trkpt lat="43.22795" lon="5.67798">
        <ele>402.5</ele>
        <time>2014-01-15T07:47:27Z</time>
      </trkpt>
      <trkpt lat="43.22795" lon="5.67804">
        <ele>403.6</ele>
        <time>2014-01-15T07:47:31Z</time>
      </trkpt>
      <trkpt lat="43.22794" lon="5.6781">
        <ele>403.7</ele>
        <time>2014-01-15T07:47:35Z</time>
      </trkpt>
      <trkpt lat="43.22794" lon="5.67811">
        <ele>403.2</ele>
        <time>2014-01-15T07:47:36Z</time>
      </trkpt>
      <trkpt lat="43.22793" lon="5.6782">
        <ele>401.1</ele>
        <time>2014-01-15T07:47:45Z</time>
      </trkpt>
      <trkpt lat="43.22793" lon="5.67825">
        <ele>401.6</ele>
        <time>2014-01-15T07:47:48Z</time>
      </trkpt>
      <trkpt lat="43.22792" lon="5.6783">
        <ele>401.7</ele>
        <time>2014-01-15T07:47:51Z</time>
      </trkpt>
      <trkpt lat="43.22792" lon="5.67835">
        <ele>401.2</ele>
        <time>2014-01-15T07:47:55Z</time>
      </trkpt>
      <trkpt lat="43.2279" lon="5.67841">
        <ele>401.1</ele>
        <time>2014-01-15T07:48:00Z</time>
      </trkpt>
      <trkpt lat="43.22788" lon="5.67846">
        <ele>401.5</ele>
        <time>2014-01-15T07:48:04Z</time>
      </trkpt>
      <trkpt lat="43.22787" lon="5.67849">
        <ele>402</ele>
        <time>2014-01-15T07:48:07Z</time>
      </trkpt>
      <trkpt lat="43.22785" lon="5.67855">
        <ele>403.7</ele>
        <time>2014-01-15T07:48:11Z</time>
      </trkpt>
      <trkpt lat="43.22783" lon="5.6786">
        <ele>404</ele>
        <time>2014-01-15T07:48:15Z</time>
      </trkpt>
      <trkpt lat="43.22781" lon="5.67864">
        <ele>404.5</ele>
        <time>2014-01-15T07:48:18Z</time>
      </trkpt>
      <trkpt lat="43.22778" lon="5.67868">
        <ele>405.8</ele>
        <time>2014-01-15T07:48:21Z</time>
      </trkpt>
      <trkpt lat="43.22777" lon="5.67873">
        <ele>406.7</ele>
        <time>2014-01-15T07:48:25Z</time>
      </trkpt>
      <trkpt lat="43.22776" lon="5.67878">
        <ele>406.7</ele>
        <time>2014-01-15T07:48:28Z</time>
      </trkpt>
      <trkpt lat="43.22774" lon="5.67883">
        <ele>406.8</ele>
        <time>2014-01-15T07:48:31Z</time>
      </trkpt>
      <trkpt lat="43.22772" lon="5.67887">
        <ele>406.6</ele>
        <time>2014-01-15T07:48:34Z</time>
      </trkpt>
      <trkpt lat="43.22769" lon="5.67891">
        <ele>407.1</ele>
        <time>2014-01-15T07:48:37Z</time>
      </trkpt>
      <trkpt lat="43.22769" lon="5.67892">
        <ele>406.8</ele>
        <time>2014-01-15T07:48:38Z</time>
      </trkpt>
      <trkpt lat="43.22767" lon="5.67902">
        <ele>405.6</ele>
        <time>2014-01-15T07:48:46Z</time>
      </trkpt>
      <trkpt lat="43.22765" lon="5.67907">
        <ele>405.6</ele>
        <time>2014-01-15T07:48:51Z</time>
      </trkpt>
      <trkpt lat="43.22763" lon="5.67912">
        <ele>405.8</ele>
        <time>2014-01-15T07:48:57Z</time>
      </trkpt>
      <trkpt lat="43.22761" lon="5.67917">
        <ele>405.8</ele>
        <time>2014-01-15T07:49:02Z</time>
      </trkpt>
      <trkpt lat="43.22759" lon="5.67921">
        <ele>406.8</ele>
        <time>2014-01-15T07:49:07Z</time>
      </trkpt>
      <trkpt lat="43.22757" lon="5.67926">
        <ele>407.2</ele>
        <time>2014-01-15T07:49:11Z</time>
      </trkpt>
      <trkpt lat="43.22755" lon="5.67931">
        <ele>405.7</ele>
        <time>2014-01-15T07:49:15Z</time>
      </trkpt>
      <trkpt lat="43.22754" lon="5.67935">
        <ele>405.2</ele>
        <time>2014-01-15T07:49:19Z</time>
      </trkpt>
      <trkpt lat="43.22752" lon="5.6794">
        <ele>405.2</ele>
        <time>2014-01-15T07:49:22Z</time>
      </trkpt>
      <trkpt lat="43.22751" lon="5.67946">
        <ele>404.2</ele>
        <time>2014-01-15T07:49:27Z</time>
      </trkpt>
      <trkpt lat="43.22751" lon="5.67951">
        <ele>403.2</ele>
        <time>2014-01-15T07:49:31Z</time>
      </trkpt>
      <trkpt lat="43.22749" lon="5.67955">
        <ele>402.1</ele>
        <time>2014-01-15T07:49:35Z</time>
      </trkpt>
      <trkpt lat="43.22748" lon="5.67959">
        <ele>401.7</ele>
        <time>2014-01-15T07:49:38Z</time>
      </trkpt>
      <trkpt lat="43.22747" lon="5.6796">
        <ele>401.7</ele>
        <time>2014-01-15T07:49:39Z</time>
      </trkpt>
      <trkpt lat="43.22742" lon="5.67967">
        <ele>400.2</ele>
        <time>2014-01-15T07:49:46Z</time>
      </trkpt>
      <trkpt lat="43.2274" lon="5.6797">
        <ele>401.7</ele>
        <time>2014-01-15T07:49:48Z</time>
      </trkpt>
      <trkpt lat="43.22737" lon="5.67974">
        <ele>402.5</ele>
        <time>2014-01-15T07:49:51Z</time>
      </trkpt>
      <trkpt lat="43.22734" lon="5.67978">
        <ele>401.7</ele>
        <time>2014-01-15T07:49:56Z</time>
      </trkpt>
      <trkpt lat="43.22731" lon="5.67981">
        <ele>399.2</ele>
        <time>2014-01-15T07:50:02Z</time>
      </trkpt>
      <trkpt lat="43.22727" lon="5.67984">
        <ele>399</ele>
        <time>2014-01-15T07:50:09Z</time>
      </trkpt>
      <trkpt lat="43.22725" lon="5.67988">
        <ele>395.7</ele>
        <time>2014-01-15T07:50:16Z</time>
      </trkpt>
      <trkpt lat="43.22721" lon="5.67992">
        <ele>393.3</ele>
        <time>2014-01-15T07:50:23Z</time>
      </trkpt>
      <trkpt lat="43.22719" lon="5.67997">
        <ele>392.8</ele>
        <time>2014-01-15T07:50:32Z</time>
      </trkpt>
      <trkpt lat="43.22718" lon="5.68002">
        <ele>393.2</ele>
        <time>2014-01-15T07:50:38Z</time>
      </trkpt>
      <trkpt lat="43.22715" lon="5.68006">
        <ele>394.5</ele>
        <time>2014-01-15T07:50:47Z</time>
      </trkpt>
      <trkpt lat="43.22715" lon="5.68007">
        <ele>394.6</ele>
        <time>2014-01-15T07:50:48Z</time>
      </trkpt>
      <trkpt lat="43.22709" lon="5.68015">
        <ele>394.7</ele>
        <time>2014-01-15T07:51:04Z</time>
      </trkpt>
      <trkpt lat="43.22705" lon="5.68015">
        <ele>394.3</ele>
        <time>2014-01-15T07:51:15Z</time>
      </trkpt>
      <trkpt lat="43.22701" lon="5.68014">
        <ele>392.2</ele>
        <time>2014-01-15T07:51:29Z</time>
      </trkpt>
      <trkpt lat="43.22697" lon="5.68011">
        <ele>388.7</ele>
        <time>2014-01-15T07:51:43Z</time>
      </trkpt>
      <trkpt lat="43.22692" lon="5.6801">
        <ele>386.2</ele>
        <time>2014-01-15T07:51:53Z</time>
      </trkpt>
      <trkpt lat="43.22692" lon="5.6801">
        <ele>385.6</ele>
        <time>2014-01-15T07:51:54Z</time>
      </trkpt>
      <trkpt lat="43.22686" lon="5.68005">
        <ele>386</ele>
        <time>2014-01-15T07:52:05Z</time>
      </trkpt>
      <trkpt lat="43.22681" lon="5.68006">
        <ele>386.1</ele>
        <time>2014-01-15T07:52:11Z</time>
      </trkpt>
      <trkpt lat="43.22677" lon="5.68007">
        <ele>384.1</ele>
        <time>2014-01-15T07:52:22Z</time>
      </trkpt>
      <trkpt lat="43.22673" lon="5.68005">
        <ele>380.2</ele>
        <time>2014-01-15T07:52:42Z</time>
      </trkpt>
      <trkpt lat="43.22669" lon="5.68003">
        <ele>379.2</ele>
        <time>2014-01-15T07:53:03Z</time>
      </trkpt>
      <trkpt lat="43.22669" lon="5.68002">
        <ele>379.3</ele>
        <time>2014-01-15T07:53:04Z</time>
      </trkpt>
      <trkpt lat="43.22663" lon="5.67998">
        <ele>380.7</ele>
        <time>2014-01-15T07:54:02Z</time>
      </trkpt>
      <trkpt lat="43.22658" lon="5.67998">
        <ele>384</ele>
        <time>2014-01-15T07:54:15Z</time>
      </trkpt>
      <trkpt lat="43.22658" lon="5.67999">
        <ele>383.8</ele>
        <time>2014-01-15T07:54:16Z</time>
      </trkpt>
      <trkpt lat="43.2265" lon="5.67994">
        <ele>367</ele>
        <time>2014-01-15T07:55:27Z</time>
      </trkpt>
      <trkpt lat="43.2265" lon="5.67994">
        <ele>367.1</ele>
        <time>2014-01-15T07:55:28Z</time>
      </trkpt>
      <trkpt lat="43.22642" lon="5.67992">
        <ele>371</ele>
        <time>2014-01-15T07:56:07Z</time>
      </trkpt>
      <trkpt lat="43.22638" lon="5.6799">
        <ele>364.1</ele>
        <time>2014-01-15T07:56:55Z</time>
      </trkpt>
      <trkpt lat="43.22637" lon="5.67991">
        <ele>362.6</ele>
        <time>2014-01-15T07:56:56Z</time>
      </trkpt>
      <trkpt lat="43.2263" lon="5.67991">
        <ele>363.8</ele>
        <time>2014-01-15T07:57:51Z</time>
      </trkpt>
      <trkpt lat="43.22625" lon="5.67991">
        <ele>354.8</ele>
        <time>2014-01-15T07:58:12Z</time>
      </trkpt>
      <trkpt lat="43.22625" lon="5.67991">
        <ele>354.7</ele>
        <time>2014-01-15T07:58:13Z</time>
      </trkpt>
      <trkpt lat="43.22618" lon="5.67987">
        <ele>349.5</ele>
        <time>2014-01-15T07:58:39Z</time>
      </trkpt>
      <trkpt lat="43.22614" lon="5.67987">
        <ele>348</ele>
        <time>2014-01-15T07:58:50Z</time>
      </trkpt>
      <trkpt lat="43.2261" lon="5.67988">
        <ele>343.7</ele>
        <time>2014-01-15T07:59:10Z</time>
      </trkpt>
      <trkpt lat="43.22607" lon="5.67992">
        <ele>342.6</ele>
        <time>2014-01-15T07:59:15Z</time>
      </trkpt>
      <trkpt lat="43.22606" lon="5.67993">
        <ele>342.7</ele>
        <time>2014-01-15T07:59:16Z</time>
      </trkpt>
      <trkpt lat="43.22605" lon="5.68003">
        <ele>341.2</ele>
        <time>2014-01-15T07:59:26Z</time>
      </trkpt>
      <trkpt lat="43.22604" lon="5.68008">
        <ele>340.1</ele>
        <time>2014-01-15T07:59:32Z</time>
      </trkpt>
      <trkpt lat="43.22601" lon="5.68012">
        <ele>339.6</ele>
        <time>2014-01-15T07:59:38Z</time>
      </trkpt>
      <trkpt lat="43.22598" lon="5.68016">
        <ele>340.7</ele>
        <time>2014-01-15T07:59:41Z</time>
      </trkpt>
      <trkpt lat="43.22596" lon="5.68021">
        <ele>341.8</ele>
        <time>2014-01-15T07:59:48Z</time>
      </trkpt>
      <trkpt lat="43.22596" lon="5.68026">
        <ele>339.1</ele>
        <time>2014-01-15T07:59:58Z</time>
      </trkpt>
      <trkpt lat="43.22595" lon="5.68032">
        <ele>336</ele>
        <time>2014-01-15T08:00:11Z</time>
      </trkpt>
      <trkpt lat="43.22592" lon="5.68036">
        <ele>334.2</ele>
        <time>2014-01-15T08:00:18Z</time>
      </trkpt>
      <trkpt lat="43.22591" lon="5.68036">
        <ele>333.3</ele>
        <time>2014-01-15T08:00:19Z</time>
      </trkpt>
      <trkpt lat="43.22585" lon="5.68042">
        <ele>330.5</ele>
        <time>2014-01-15T08:00:29Z</time>
      </trkpt>
      <trkpt lat="43.22583" lon="5.68046">
        <ele>329</ele>
        <time>2014-01-15T08:00:32Z</time>
      </trkpt>
      <trkpt lat="43.2258" lon="5.68051">
        <ele>326.5</ele>
        <time>2014-01-15T08:00:37Z</time>
      </trkpt>
      <trkpt lat="43.22578" lon="5.68056">
        <ele>324.7</ele>
        <time>2014-01-15T08:00:43Z</time>
      </trkpt>
      <trkpt lat="43.22575" lon="5.6806">
        <ele>327.5</ele>
        <time>2014-01-15T08:00:49Z</time>
      </trkpt>
      <trkpt lat="43.22572" lon="5.68064">
        <ele>332</ele>
        <time>2014-01-15T08:01:13Z</time>
      </trkpt>
      <trkpt lat="43.22569" lon="5.68068">
        <ele>333.7</ele>
        <time>2014-01-15T08:01:39Z</time>
      </trkpt>
      <trkpt lat="43.22569" lon="5.68068">
        <ele>333.8</ele>
        <time>2014-01-15T08:01:40Z</time>
      </trkpt>
      <trkpt lat="43.22569" lon="5.6808">
        <ele>347.3</ele>
        <time>2014-01-15T08:02:12Z</time>
      </trkpt>
      <trkpt lat="43.22569" lon="5.68086">
        <ele>345.2</ele>
        <time>2014-01-15T08:02:42Z</time>
      </trkpt>
      <trkpt lat="43.22569" lon="5.68086">
        <ele>345.1</ele>
        <time>2014-01-15T08:02:43Z</time>
      </trkpt>
      <trkpt lat="43.22564" lon="5.68093">
        <ele>348.2</ele>
        <time>2014-01-15T08:03:10Z</time>
      </trkpt>
      <trkpt lat="43.22564" lon="5.68099">
        <ele>340.7</ele>
        <time>2014-01-15T08:03:18Z</time>
      </trkpt>
      <trkpt lat="43.22564" lon="5.68104">
        <ele>337.7</ele>
        <time>2014-01-15T08:03:23Z</time>
      </trkpt>
      <trkpt lat="43.22562" lon="5.68109">
        <ele>336.1</ele>
        <time>2014-01-15T08:03:27Z</time>
      </trkpt>
      <trkpt lat="43.22562" lon="5.68115">
        <ele>333.5</ele>
        <time>2014-01-15T08:03:32Z</time>
      </trkpt>
      <trkpt lat="43.22561" lon="5.6812">
        <ele>330.6</ele>
        <time>2014-01-15T08:03:37Z</time>
      </trkpt>
      <trkpt lat="43.2256" lon="5.68126">
        <ele>337.2</ele>
        <time>2014-01-15T08:03:47Z</time>
      </trkpt>
      <trkpt lat="43.22559" lon="5.68126">
        <ele>338.5</ele>
        <time>2014-01-15T08:03:48Z</time>
      </trkpt>
      <trkpt lat="43.22554" lon="5.68135">
        <ele>343.3</ele>
        <time>2014-01-15T08:05:39Z</time>
      </trkpt>
      <trkpt lat="43.22554" lon="5.68135">
        <ele>342.7</ele>
        <time>2014-01-15T08:05:40Z</time>
      </trkpt>
      <trkpt lat="43.22553" lon="5.68146">
        <ele>340</ele>
        <time>2014-01-15T08:05:54Z</time>
      </trkpt>
      <trkpt lat="43.22553" lon="5.68149">
        <ele>340.2</ele>
        <time>2014-01-15T08:05:56Z</time>
      </trkpt>
      <trkpt lat="43.22553" lon="5.68155">
        <ele>339.2</ele>
        <time>2014-01-15T08:05:59Z</time>
      </trkpt>
      <trkpt lat="43.22554" lon="5.68161">
        <ele>336.5</ele>
        <time>2014-01-15T08:06:08Z</time>
      </trkpt>
      <trkpt lat="43.22556" lon="5.68166">
        <ele>334.6</ele>
        <time>2014-01-15T08:06:15Z</time>
      </trkpt>
      <trkpt lat="43.22558" lon="5.68171">
        <ele>334.7</ele>
        <time>2014-01-15T08:06:21Z</time>
      </trkpt>
      <trkpt lat="43.22561" lon="5.68176">
        <ele>335</ele>
        <time>2014-01-15T08:06:29Z</time>
      </trkpt>
      <trkpt lat="43.22565" lon="5.68177">
        <ele>333.2</ele>
        <time>2014-01-15T08:06:34Z</time>
      </trkpt>
      <trkpt lat="43.22568" lon="5.6818">
        <ele>332.6</ele>
        <time>2014-01-15T08:06:38Z</time>
      </trkpt>
      <trkpt lat="43.22571" lon="5.68184">
        <ele>329.7</ele>
        <time>2014-01-15T08:06:43Z</time>
      </trkpt>
      <trkpt lat="43.22571" lon="5.68184">
        <ele>329</ele>
        <time>2014-01-15T08:06:44Z</time>
      </trkpt>
      <trkpt lat="43.22579" lon="5.68186">
        <ele>326.6</ele>
        <time>2014-01-15T08:06:53Z</time>
      </trkpt>
      <trkpt lat="43.22583" lon="5.68187">
        <ele>324</ele>
        <time>2014-01-15T08:06:58Z</time>
      </trkpt>
      <trkpt lat="43.22585" lon="5.68191">
        <ele>322</ele>
        <time>2014-01-15T08:07:04Z</time>
      </trkpt>
      <trkpt lat="43.22588" lon="5.68196">
        <ele>322.6</ele>
        <time>2014-01-15T08:07:10Z</time>
      </trkpt>
      <trkpt lat="43.22591" lon="5.68199">
        <ele>322.6</ele>
        <time>2014-01-15T08:07:15Z</time>
      </trkpt>
      <trkpt lat="43.22595" lon="5.68202">
        <ele>324.2</ele>
        <time>2014-01-15T08:07:20Z</time>
      </trkpt>
      <trkpt lat="43.22598" lon="5.68204">
        <ele>325.1</ele>
        <time>2014-01-15T08:07:26Z</time>
      </trkpt>
      <trkpt lat="43.22601" lon="5.68209">
        <ele>324.2</ele>
        <time>2014-01-15T08:07:31Z</time>
      </trkpt>
      <trkpt lat="43.22603" lon="5.68214">
        <ele>326.7</ele>
        <time>2014-01-15T08:07:36Z</time>
      </trkpt>
      <trkpt lat="43.22607" lon="5.68218">
        <ele>329.7</ele>
        <time>2014-01-15T08:07:40Z</time>
      </trkpt>
      <trkpt lat="43.22609" lon="5.68222">
        <ele>333.1</ele>
        <time>2014-01-15T08:07:44Z</time>
      </trkpt>
      <trkpt lat="43.2261" lon="5.68222">
        <ele>332.5</ele>
        <time>2014-01-15T08:07:45Z</time>
      </trkpt>
      <trkpt lat="43.22614" lon="5.68231">
        <ele>335.6</ele>
        <time>2014-01-15T08:07:56Z</time>
      </trkpt>
      <trkpt lat="43.22614" lon="5.68237">
        <ele>336.2</ele>
        <time>2014-01-15T08:08:03Z</time>
      </trkpt>
      <trkpt lat="43.22612" lon="5.68243">
        <ele>340.3</ele>
        <time>2014-01-15T08:08:08Z</time>
      </trkpt>
      <trkpt lat="43.2261" lon="5.68248">
        <ele>343.8</ele>
        <time>2014-01-15T08:08:14Z</time>
      </trkpt>
      <trkpt lat="43.22608" lon="5.68253">
        <ele>345.7</ele>
        <time>2014-01-15T08:08:21Z</time>
      </trkpt>
      <trkpt lat="43.22605" lon="5.68257">
        <ele>344.7</ele>
        <time>2014-01-15T08:08:29Z</time>
      </trkpt>
      <trkpt lat="43.22603" lon="5.68262">
        <ele>345.1</ele>
        <time>2014-01-15T08:08:37Z</time>
      </trkpt>
      <trkpt lat="43.22599" lon="5.68265">
        <ele>344.5</ele>
        <time>2014-01-15T08:08:42Z</time>
      </trkpt>
      <trkpt lat="43.22597" lon="5.68269">
        <ele>343.1</ele>
        <time>2014-01-15T08:08:47Z</time>
      </trkpt>
      <trkpt lat="43.22596" lon="5.6827">
        <ele>342.8</ele>
        <time>2014-01-15T08:08:48Z</time>
      </trkpt>
      <trkpt lat="43.2259" lon="5.68276">
        <ele>342.1</ele>
        <time>2014-01-15T08:09:01Z</time>
      </trkpt>
      <trkpt lat="43.22586" lon="5.68278">
        <ele>341.8</ele>
        <time>2014-01-15T08:09:08Z</time>
      </trkpt>
      <trkpt lat="43.22583" lon="5.68282">
        <ele>340.1</ele>
        <time>2014-01-15T08:09:15Z</time>
      </trkpt>
      <trkpt lat="43.22579" lon="5.68285">
        <ele>338.6</ele>
        <time>2014-01-15T08:09:22Z</time>
      </trkpt>
      <trkpt lat="43.22576" lon="5.68287">
        <ele>337.7</ele>
        <time>2014-01-15T08:09:26Z</time>
      </trkpt>
      <trkpt lat="43.22572" lon="5.68289">
        <ele>337.5</ele>
        <time>2014-01-15T08:09:30Z</time>
      </trkpt>
      <trkpt lat="43.22568" lon="5.6829">
        <ele>338.5</ele>
        <time>2014-01-15T08:09:34Z</time>
      </trkpt>
      <trkpt lat="43.22564" lon="5.68292">
        <ele>338.6</ele>
        <time>2014-01-15T08:09:39Z</time>
      </trkpt>
      <trkpt lat="43.22561" lon="5.68294">
        <ele>339.2</ele>
        <time>2014-01-15T08:09:43Z</time>
      </trkpt>
      <trkpt lat="43.22557" lon="5.68296">
        <ele>339.3</ele>
        <time>2014-01-15T08:09:48Z</time>
      </trkpt>
      <trkpt lat="43.22557" lon="5.68296">
        <ele>339.2</ele>
        <time>2014-01-15T08:09:49Z</time>
      </trkpt>
      <trkpt lat="43.2255" lon="5.68301">
        <ele>339.6</ele>
        <time>2014-01-15T08:10:01Z</time>
      </trkpt>
      <trkpt lat="43.22546" lon="5.68301">
        <ele>340.3</ele>
        <time>2014-01-15T08:10:05Z</time>
      </trkpt>
      <trkpt lat="43.22543" lon="5.68303">
        <ele>341.5</ele>
        <time>2014-01-15T08:10:09Z</time>
      </trkpt>
      <trkpt lat="43.22538" lon="5.68305">
        <ele>342</ele>
        <time>2014-01-15T08:10:14Z</time>
      </trkpt>
      <trkpt lat="43.22535" lon="5.68307">
        <ele>342</ele>
        <time>2014-01-15T08:10:18Z</time>
      </trkpt>
      <trkpt lat="43.22532" lon="5.68309">
        <ele>341.6</ele>
        <time>2014-01-15T08:10:22Z</time>
      </trkpt>
      <trkpt lat="43.22528" lon="5.68311">
        <ele>341.5</ele>
        <time>2014-01-15T08:10:26Z</time>
      </trkpt>
      <trkpt lat="43.22525" lon="5.68313">
        <ele>341.2</ele>
        <time>2014-01-15T08:10:30Z</time>
      </trkpt>
      <trkpt lat="43.22521" lon="5.68315">
        <ele>340.7</ele>
        <time>2014-01-15T08:10:34Z</time>
      </trkpt>
      <trkpt lat="43.22518" lon="5.68319">
        <ele>339.3</ele>
        <time>2014-01-15T08:10:40Z</time>
      </trkpt>
      <trkpt lat="43.22515" lon="5.68322">
        <ele>338.2</ele>
        <time>2014-01-15T08:10:46Z</time>
      </trkpt>
      <trkpt lat="43.22511" lon="5.68325">
        <ele>337.6</ele>
        <time>2014-01-15T08:10:50Z</time>
      </trkpt>
      <trkpt lat="43.2251" lon="5.68326">
        <ele>337.5</ele>
        <time>2014-01-15T08:10:51Z</time>
      </trkpt>
      <trkpt lat="43.22504" lon="5.68333">
        <ele>336.8</ele>
        <time>2014-01-15T08:11:03Z</time>
      </trkpt>
      <trkpt lat="43.22501" lon="5.68333">
        <ele>338.1</ele>
        <time>2014-01-15T08:11:05Z</time>
      </trkpt>
      <trkpt lat="43.22497" lon="5.68334">
        <ele>340.2</ele>
        <time>2014-01-15T08:11:07Z</time>
      </trkpt>
      <trkpt lat="43.22493" lon="5.68335">
        <ele>341.6</ele>
        <time>2014-01-15T08:11:10Z</time>
      </trkpt>
      <trkpt lat="43.2249" lon="5.68338">
        <ele>340.7</ele>
        <time>2014-01-15T08:11:16Z</time>
      </trkpt>
      <trkpt lat="43.22486" lon="5.68339">
        <ele>342</ele>
        <time>2014-01-15T08:11:23Z</time>
      </trkpt>
      <trkpt lat="43.22482" lon="5.68341">
        <ele>343.7</ele>
        <time>2014-01-15T08:11:29Z</time>
      </trkpt>
      <trkpt lat="43.22479" lon="5.68343">
        <ele>344.1</ele>
        <time>2014-01-15T08:11:36Z</time>
      </trkpt>
      <trkpt lat="43.22475" lon="5.68346">
        <ele>343.6</ele>
        <time>2014-01-15T08:11:40Z</time>
      </trkpt>
      <trkpt lat="43.22472" lon="5.68349">
        <ele>342.2</ele>
        <time>2014-01-15T08:11:44Z</time>
      </trkpt>
      <trkpt lat="43.2247" lon="5.68354">
        <ele>341.2</ele>
        <time>2014-01-15T08:11:48Z</time>
      </trkpt>
      <trkpt lat="43.22466" lon="5.68356">
        <ele>342.3</ele>
        <time>2014-01-15T08:11:52Z</time>
      </trkpt>
      <trkpt lat="43.22466" lon="5.68357">
        <ele>342.3</ele>
        <time>2014-01-15T08:11:53Z</time>
      </trkpt>
      <trkpt lat="43.2246" lon="5.68363">
        <ele>343.2</ele>
        <time>2014-01-15T08:12:05Z</time>
      </trkpt>
      <trkpt lat="43.22457" lon="5.68367">
        <ele>344.7</ele>
        <time>2014-01-15T08:12:24Z</time>
      </trkpt>
      <trkpt lat="43.22455" lon="5.68373">
        <ele>347.2</ele>
        <time>2014-01-15T08:16:24Z</time>
      </trkpt>
      <trkpt lat="43.22455" lon="5.68373">
        <ele>347.1</ele>
        <time>2014-01-15T08:16:25Z</time>
      </trkpt>
      <trkpt lat="43.22448" lon="5.68377">
        <ele>341.8</ele>
        <time>2014-01-15T08:16:52Z</time>
      </trkpt>
      <trkpt lat="43.22444" lon="5.68377">
        <ele>341.6</ele>
        <time>2014-01-15T08:17:07Z</time>
      </trkpt>
      <trkpt lat="43.2244" lon="5.68379">
        <ele>338.2</ele>
        <time>2014-01-15T08:17:16Z</time>
      </trkpt>
      <trkpt lat="43.22436" lon="5.6838">
        <ele>335.7</ele>
        <time>2014-01-15T08:17:21Z</time>
      </trkpt>
      <trkpt lat="43.22433" lon="5.68381">
        <ele>332.8</ele>
        <time>2014-01-15T08:17:27Z</time>
      </trkpt>
      <trkpt lat="43.22432" lon="5.68381">
        <ele>332.5</ele>
        <time>2014-01-15T08:17:28Z</time>
      </trkpt>
      <trkpt lat="43.22425" lon="5.68384">
        <ele>330</ele>
        <time>2014-01-15T08:17:39Z</time>
      </trkpt>
      <trkpt lat="43.22422" lon="5.68387">
        <ele>329.7</ele>
        <time>2014-01-15T08:17:45Z</time>
      </trkpt>
      <trkpt lat="43.22419" lon="5.6839">
        <ele>327.8</ele>
        <time>2014-01-15T08:17:52Z</time>
      </trkpt>
      <trkpt lat="43.22414" lon="5.6839">
        <ele>327.7</ele>
        <time>2014-01-15T08:17:57Z</time>
      </trkpt>
      <trkpt lat="43.22411" lon="5.6839">
        <ele>327.7</ele>
        <time>2014-01-15T08:18:02Z</time>
      </trkpt>
      <trkpt lat="43.22406" lon="5.68391">
        <ele>325.8</ele>
        <time>2014-01-15T08:18:09Z</time>
      </trkpt>
      <trkpt lat="43.22403" lon="5.68393">
        <ele>324</ele>
        <time>2014-01-15T08:18:15Z</time>
      </trkpt>
      <trkpt lat="43.22399" lon="5.68394">
        <ele>322.7</ele>
        <time>2014-01-15T08:18:21Z</time>
      </trkpt>
      <trkpt lat="43.22395" lon="5.68395">
        <ele>323.7</ele>
        <time>2014-01-15T08:18:26Z</time>
      </trkpt>
      <trkpt lat="43.22391" lon="5.68396">
        <ele>322.1</ele>
        <time>2014-01-15T08:18:33Z</time>
      </trkpt>
      <trkpt lat="43.2239" lon="5.68396">
        <ele>321.7</ele>
        <time>2014-01-15T08:18:34Z</time>
      </trkpt>
      <trkpt lat="43.22384" lon="5.68396">
        <ele>321.2</ele>
        <time>2014-01-15T08:18:43Z</time>
      </trkpt>
      <trkpt lat="43.2238" lon="5.68396">
        <ele>320.5</ele>
        <time>2014-01-15T08:18:49Z</time>
      </trkpt>
      <trkpt lat="43.22376" lon="5.68399">
        <ele>318.5</ele>
        <time>2014-01-15T08:18:56Z</time>
      </trkpt>
      <trkpt lat="43.22372" lon="5.68401">
        <ele>315.7</ele>
        <time>2014-01-15T08:19:05Z</time>
      </trkpt>
      <trkpt lat="43.22368" lon="5.68403">
        <ele>313.2</ele>
        <time>2014-01-15T08:19:11Z</time>
      </trkpt>
      <trkpt lat="43.22364" lon="5.68402">
        <ele>311</ele>
        <time>2014-01-15T08:19:17Z</time>
      </trkpt>
      <trkpt lat="43.2236" lon="5.684">
        <ele>310.3</ele>
        <time>2014-01-15T08:19:28Z</time>
      </trkpt>
      <trkpt lat="43.22356" lon="5.68397">
        <ele>310.8</ele>
        <time>2014-01-15T08:19:33Z</time>
      </trkpt>
      <trkpt lat="43.22352" lon="5.68396">
        <ele>309.7</ele>
        <time>2014-01-15T08:19:41Z</time>
      </trkpt>
      <trkpt lat="43.22351" lon="5.68396">
        <ele>309.6</ele>
        <time>2014-01-15T08:19:42Z</time>
      </trkpt>
      <trkpt lat="43.22344" lon="5.68398">
        <ele>305.7</ele>
        <time>2014-01-15T08:19:57Z</time>
      </trkpt>
      <trkpt lat="43.22339" lon="5.68399">
        <ele>305.6</ele>
        <time>2014-01-15T08:20:03Z</time>
      </trkpt>
      <trkpt lat="43.22335" lon="5.68399">
        <ele>303.7</ele>
        <time>2014-01-15T08:20:11Z</time>
      </trkpt>
      <trkpt lat="43.22332" lon="5.684">
        <ele>304.2</ele>
        <time>2014-01-15T08:20:14Z</time>
      </trkpt>
      <trkpt lat="43.22329" lon="5.68399">
        <ele>304.6</ele>
        <time>2014-01-15T08:20:17Z</time>
      </trkpt>
      <trkpt lat="43.22324" lon="5.68398">
        <ele>306.2</ele>
        <time>2014-01-15T08:20:23Z</time>
      </trkpt>
      <trkpt lat="43.2232" lon="5.68397">
        <ele>305</ele>
        <time>2014-01-15T08:20:28Z</time>
      </trkpt>
      <trkpt lat="43.22316" lon="5.68398">
        <ele>303.2</ele>
        <time>2014-01-15T08:20:34Z</time>
      </trkpt>
      <trkpt lat="43.22312" lon="5.684">
        <ele>301.2</ele>
        <time>2014-01-15T08:20:41Z</time>
      </trkpt>
      <trkpt lat="43.22308" lon="5.68402">
        <ele>299.2</ele>
        <time>2014-01-15T08:20:53Z</time>
      </trkpt>
      <trkpt lat="43.22307" lon="5.68402">
        <ele>298.7</ele>
        <time>2014-01-15T08:20:54Z</time>
      </trkpt>
      <trkpt lat="43.223" lon="5.68404">
        <ele>293.7</ele>
        <time>2014-01-15T08:21:08Z</time>
      </trkpt>
      <trkpt lat="43.22296" lon="5.68407">
        <ele>292.3</ele>
        <time>2014-01-15T08:21:15Z</time>
      </trkpt>
      <trkpt lat="43.22293" lon="5.68409">
        <ele>290.8</ele>
        <time>2014-01-15T08:21:20Z</time>
      </trkpt>
      <trkpt lat="43.22289" lon="5.68409">
        <ele>290.2</ele>
        <time>2014-01-15T08:21:25Z</time>
      </trkpt>
      <trkpt lat="43.22285" lon="5.6841">
        <ele>288.3</ele>
        <time>2014-01-15T08:21:31Z</time>
      </trkpt>
      <trkpt lat="43.22281" lon="5.6841">
        <ele>287.5</ele>
        <time>2014-01-15T08:21:38Z</time>
      </trkpt>
      <trkpt lat="43.22277" lon="5.68411">
        <ele>286.2</ele>
        <time>2014-01-15T08:21:44Z</time>
      </trkpt>
      <trkpt lat="43.22273" lon="5.68415">
        <ele>283.8</ele>
        <time>2014-01-15T08:21:51Z</time>
      </trkpt>
      <trkpt lat="43.2227" lon="5.68419">
        <ele>280.3</ele>
        <time>2014-01-15T08:21:59Z</time>
      </trkpt>
      <trkpt lat="43.22269" lon="5.68419">
        <ele>280.1</ele>
        <time>2014-01-15T08:22:00Z</time>
      </trkpt>
      <trkpt lat="43.22263" lon="5.68419">
        <ele>283.2</ele>
        <time>2014-01-15T08:22:05Z</time>
      </trkpt>
      <trkpt lat="43.22259" lon="5.6842">
        <ele>284.2</ele>
        <time>2014-01-15T08:22:09Z</time>
      </trkpt>
      <trkpt lat="43.22254" lon="5.6842">
        <ele>283.2</ele>
        <time>2014-01-15T08:22:16Z</time>
      </trkpt>
      <trkpt lat="43.2225" lon="5.68418">
        <ele>282.7</ele>
        <time>2014-01-15T08:22:24Z</time>
      </trkpt>
      <trkpt lat="43.22246" lon="5.68418">
        <ele>282.3</ele>
        <time>2014-01-15T08:22:32Z</time>
      </trkpt>
      <trkpt lat="43.22242" lon="5.68419">
        <ele>280.5</ele>
        <time>2014-01-15T08:22:44Z</time>
      </trkpt>
      <trkpt lat="43.22238" lon="5.68417">
        <ele>278.7</ele>
        <time>2014-01-15T08:23:02Z</time>
      </trkpt>
      <trkpt lat="43.22237" lon="5.68417">
        <ele>278.5</ele>
        <time>2014-01-15T08:23:03Z</time>
      </trkpt>
      <trkpt lat="43.22229" lon="5.68414">
        <ele>278.5</ele>
        <time>2014-01-15T08:23:35Z</time>
      </trkpt>
      <trkpt lat="43.22225" lon="5.68411">
        <ele>268.8</ele>
        <time>2014-01-15T08:24:23Z</time>
      </trkpt>
      <trkpt lat="43.22225" lon="5.68411">
        <ele>268.5</ele>
        <time>2014-01-15T08:24:24Z</time>
      </trkpt>
      <trkpt lat="43.22217" lon="5.68409">
        <ele>267.3</ele>
        <time>2014-01-15T08:24:47Z</time>
      </trkpt>
      <trkpt lat="43.22213" lon="5.6841">
        <ele>265.8</ele>
        <time>2014-01-15T08:24:57Z</time>
      </trkpt>
      <trkpt lat="43.2221" lon="5.68405">
        <ele>264.8</ele>
        <time>2014-01-15T08:25:09Z</time>
      </trkpt>
      <trkpt lat="43.2221" lon="5.68399">
        <ele>262.6</ele>
        <time>2014-01-15T08:25:23Z</time>
      </trkpt>
      <trkpt lat="43.22208" lon="5.68394">
        <ele>263.3</ele>
        <time>2014-01-15T08:25:36Z</time>
      </trkpt>
      <trkpt lat="43.22208" lon="5.68394">
        <ele>263.6</ele>
        <time>2014-01-15T08:25:37Z</time>
      </trkpt>
      <trkpt lat="43.22204" lon="5.68391">
        <ele>259.2</ele>
        <time>2014-01-15T08:26:46Z</time>
      </trkpt>
      <trkpt lat="43.22199" lon="5.68385">
        <ele>258.5</ele>
        <time>2014-01-15T08:27:25Z</time>
      </trkpt>
      <trkpt lat="43.22195" lon="5.68386">
        <ele>256.6</ele>
        <time>2014-01-15T08:27:32Z</time>
      </trkpt>
      <trkpt lat="43.22192" lon="5.6839">
        <ele>254.8</ele>
        <time>2014-01-15T08:27:42Z</time>
      </trkpt>
      <trkpt lat="43.22191" lon="5.68396">
        <ele>248.5</ele>
        <time>2014-01-15T08:27:58Z</time>
      </trkpt>
      <trkpt lat="43.22191" lon="5.68397">
        <ele>247.6</ele>
        <time>2014-01-15T08:27:59Z</time>
      </trkpt>
      <trkpt lat="43.2219" lon="5.68408">
        <ele>249</ele>
        <time>2014-01-15T08:28:11Z</time>
      </trkpt>
      <trkpt lat="43.22188" lon="5.68413">
        <ele>251.3</ele>
        <time>2014-01-15T08:28:23Z</time>
      </trkpt>
      <trkpt lat="43.22191" lon="5.68409">
        <ele>257.6</ele>
        <time>2014-01-15T08:29:04Z</time>
      </trkpt>
      <trkpt lat="43.2219" lon="5.68408">
        <ele>257.8</ele>
        <time>2014-01-15T08:29:05Z</time>
      </trkpt>
      <trkpt lat="43.22186" lon="5.68415">
        <ele>265</ele>
        <time>2014-01-15T08:29:25Z</time>
      </trkpt>
      <trkpt lat="43.22182" lon="5.68419">
        <ele>267.7</ele>
        <time>2014-01-15T08:29:36Z</time>
      </trkpt>
      <trkpt lat="43.22179" lon="5.68421">
        <ele>263.2</ele>
        <time>2014-01-15T08:29:48Z</time>
      </trkpt>
      <trkpt lat="43.22176" lon="5.68425">
        <ele>260.7</ele>
        <time>2014-01-15T08:29:56Z</time>
      </trkpt>
      <trkpt lat="43.22175" lon="5.68431">
        <ele>265.6</ele>
        <time>2014-01-15T08:30:19Z</time>
      </trkpt>
      <trkpt lat="43.22175" lon="5.68431">
        <ele>266.2</ele>
        <time>2014-01-15T08:30:20Z</time>
      </trkpt>
      <trkpt lat="43.22168" lon="5.68438">
        <ele>257.7</ele>
        <time>2014-01-15T08:31:10Z</time>
      </trkpt>
      <trkpt lat="43.22165" lon="5.68441">
        <ele>254</ele>
        <time>2014-01-15T08:31:20Z</time>
      </trkpt>
      <trkpt lat="43.22165" lon="5.68442">
        <ele>254.3</ele>
        <time>2014-01-15T08:31:21Z</time>
      </trkpt>
      <trkpt lat="43.22159" lon="5.68447">
        <ele>246.8</ele>
        <time>2014-01-15T08:31:30Z</time>
      </trkpt>
      <trkpt lat="43.22156" lon="5.68451">
        <ele>245.6</ele>
        <time>2014-01-15T08:31:35Z</time>
      </trkpt>
      <trkpt lat="43.22152" lon="5.68454">
        <ele>248</ele>
        <time>2014-01-15T08:31:39Z</time>
      </trkpt>
      <trkpt lat="43.22149" lon="5.68458">
        <ele>248.3</ele>
        <time>2014-01-15T08:31:44Z</time>
      </trkpt>
      <trkpt lat="43.22146" lon="5.68461">
        <ele>249.1</ele>
        <time>2014-01-15T08:31:48Z</time>
      </trkpt>
      <trkpt lat="43.22143" lon="5.68463">
        <ele>248.3</ele>
        <time>2014-01-15T08:31:51Z</time>
      </trkpt>
      <trkpt lat="43.22139" lon="5.68466">
        <ele>248.1</ele>
        <time>2014-01-15T08:31:55Z</time>
      </trkpt>
      <trkpt lat="43.22136" lon="5.68471">
        <ele>248.1</ele>
        <time>2014-01-15T08:31:59Z</time>
      </trkpt>
      <trkpt lat="43.22133" lon="5.68474">
        <ele>250.6</ele>
        <time>2014-01-15T08:32:04Z</time>
      </trkpt>
      <trkpt lat="43.22131" lon="5.68478">
        <ele>253.3</ele>
        <time>2014-01-15T08:32:08Z</time>
      </trkpt>
      <trkpt lat="43.22128" lon="5.68482">
        <ele>254.6</ele>
        <time>2014-01-15T08:32:12Z</time>
      </trkpt>
      <trkpt lat="43.22127" lon="5.68488">
        <ele>259.5</ele>
        <time>2014-01-15T08:32:17Z</time>
      </trkpt>
      <trkpt lat="43.22124" lon="5.68492">
        <ele>258.2</ele>
        <time>2014-01-15T08:32:24Z</time>
      </trkpt>
      <trkpt lat="43.22123" lon="5.68493">
        <ele>258.2</ele>
        <time>2014-01-15T08:32:25Z</time>
      </trkpt>
      <trkpt lat="43.22119" lon="5.685">
        <ele>258.3</ele>
        <time>2014-01-15T08:32:35Z</time>
      </trkpt>
      <trkpt lat="43.22117" lon="5.68506">
        <ele>260.2</ele>
        <time>2014-01-15T08:32:46Z</time>
      </trkpt>
      <trkpt lat="43.22115" lon="5.68511">
        <ele>262.5</ele>
        <time>2014-01-15T08:32:54Z</time>
      </trkpt>
      <trkpt lat="43.22113" lon="5.68516">
        <ele>263.3</ele>
        <time>2014-01-15T08:33:00Z</time>
      </trkpt>
      <trkpt lat="43.22111" lon="5.68522">
        <ele>263.6</ele>
        <time>2014-01-15T08:33:05Z</time>
      </trkpt>
      <trkpt lat="43.2211" lon="5.68527">
        <ele>263</ele>
        <time>2014-01-15T08:33:10Z</time>
      </trkpt>
      <trkpt lat="43.22108" lon="5.68533">
        <ele>265.5</ele>
        <time>2014-01-15T08:33:16Z</time>
      </trkpt>
      <trkpt lat="43.22107" lon="5.68538">
        <ele>264.2</ele>
        <time>2014-01-15T08:33:23Z</time>
      </trkpt>
      <trkpt lat="43.22106" lon="5.68543">
        <ele>262.6</ele>
        <time>2014-01-15T08:33:28Z</time>
      </trkpt>
      <trkpt lat="43.22105" lon="5.68544">
        <ele>262.8</ele>
        <time>2014-01-15T08:33:29Z</time>
      </trkpt>
      <trkpt lat="43.22104" lon="5.68554">
        <ele>264.8</ele>
        <time>2014-01-15T08:33:37Z</time>
      </trkpt>
      <trkpt lat="43.22104" lon="5.68559">
        <ele>263.5</ele>
        <time>2014-01-15T08:33:42Z</time>
      </trkpt>
      <trkpt lat="43.22103" lon="5.68565">
        <ele>265.8</ele>
        <time>2014-01-15T08:33:46Z</time>
      </trkpt>
      <trkpt lat="43.22102" lon="5.68571">
        <ele>261.8</ele>
        <time>2014-01-15T08:33:52Z</time>
      </trkpt>
      <trkpt lat="43.22102" lon="5.68576">
        <ele>261</ele>
        <time>2014-01-15T08:33:57Z</time>
      </trkpt>
      <trkpt lat="43.22103" lon="5.68581">
        <ele>260.2</ele>
        <time>2014-01-15T08:34:01Z</time>
      </trkpt>
      <trkpt lat="43.22104" lon="5.68586">
        <ele>260.7</ele>
        <time>2014-01-15T08:34:05Z</time>
      </trkpt>
      <trkpt lat="43.22106" lon="5.68591">
        <ele>261.1</ele>
        <time>2014-01-15T08:34:09Z</time>
      </trkpt>
      <trkpt lat="43.22107" lon="5.68597">
        <ele>260.7</ele>
        <time>2014-01-15T08:34:13Z</time>
      </trkpt>
      <trkpt lat="43.22107" lon="5.68603">
        <ele>259.2</ele>
        <time>2014-01-15T08:34:18Z</time>
      </trkpt>
      <trkpt lat="43.22108" lon="5.68608">
        <ele>258.5</ele>
        <time>2014-01-15T08:34:23Z</time>
      </trkpt>
      <trkpt lat="43.22108" lon="5.68614">
        <ele>257.7</ele>
        <time>2014-01-15T08:34:27Z</time>
      </trkpt>
      <trkpt lat="43.2211" lon="5.68619">
        <ele>256.8</ele>
        <time>2014-01-15T08:34:32Z</time>
      </trkpt>
      <trkpt lat="43.2211" lon="5.6862">
        <ele>257.3</ele>
        <time>2014-01-15T08:34:33Z</time>
      </trkpt>
      <trkpt lat="43.2211" lon="5.68629">
        <ele>256.7</ele>
        <time>2014-01-15T08:34:41Z</time>
      </trkpt>
      <trkpt lat="43.2211" lon="5.68635">
        <ele>254.6</ele>
        <time>2014-01-15T08:34:45Z</time>
      </trkpt>
      <trkpt lat="43.22109" lon="5.6864">
        <ele>253.3</ele>
        <time>2014-01-15T08:34:49Z</time>
      </trkpt>
      <trkpt lat="43.2211" lon="5.68645">
        <ele>253.8</ele>
        <time>2014-01-15T08:34:53Z</time>
      </trkpt>
      <trkpt lat="43.22108" lon="5.6865">
        <ele>252.8</ele>
        <time>2014-01-15T08:34:57Z</time>
      </trkpt>
      <trkpt lat="43.22108" lon="5.68656">
        <ele>253.8</ele>
        <time>2014-01-15T08:35:01Z</time>
      </trkpt>
      <trkpt lat="43.22106" lon="5.68661">
        <ele>252.1</ele>
        <time>2014-01-15T08:35:06Z</time>
      </trkpt>
      <trkpt lat="43.22106" lon="5.68667">
        <ele>256.6</ele>
        <time>2014-01-15T08:35:10Z</time>
      </trkpt>
      <trkpt lat="43.22106" lon="5.68673">
        <ele>257</ele>
        <time>2014-01-15T08:35:16Z</time>
      </trkpt>
      <trkpt lat="43.22106" lon="5.68678">
        <ele>258</ele>
        <time>2014-01-15T08:35:21Z</time>
      </trkpt>
      <trkpt lat="43.22106" lon="5.68684">
        <ele>258.7</ele>
        <time>2014-01-15T08:35:25Z</time>
      </trkpt>
      <trkpt lat="43.22105" lon="5.68689">
        <ele>259.2</ele>
        <time>2014-01-15T08:35:30Z</time>
      </trkpt>
      <trkpt lat="43.22104" lon="5.68694">
        <ele>256.2</ele>
        <time>2014-01-15T08:35:35Z</time>
      </trkpt>
      <trkpt lat="43.22104" lon="5.68696">
        <ele>256.6</ele>
        <time>2014-01-15T08:35:36Z</time>
      </trkpt>
      <trkpt lat="43.22102" lon="5.68706">
        <ele>256.1</ele>
        <time>2014-01-15T08:35:44Z</time>
      </trkpt>
      <trkpt lat="43.22102" lon="5.68711">
        <ele>258.2</ele>
        <time>2014-01-15T08:35:49Z</time>
      </trkpt>
      <trkpt lat="43.22101" lon="5.68717">
        <ele>258.1</ele>
        <time>2014-01-15T08:35:55Z</time>
      </trkpt>
      <trkpt lat="43.22099" lon="5.68723">
        <ele>257.1</ele>
        <time>2014-01-15T08:36:01Z</time>
      </trkpt>
      <trkpt lat="43.22098" lon="5.68728">
        <ele>256.6</ele>
        <time>2014-01-15T08:36:06Z</time>
      </trkpt>
      <trkpt lat="43.22096" lon="5.68733">
        <ele>255.6</ele>
        <time>2014-01-15T08:36:12Z</time>
      </trkpt>
      <trkpt lat="43.22096" lon="5.68739">
        <ele>256.7</ele>
        <time>2014-01-15T08:36:17Z</time>
      </trkpt>
      <trkpt lat="43.22095" lon="5.68743">
        <ele>254.5</ele>
        <time>2014-01-15T08:36:22Z</time>
      </trkpt>
      <trkpt lat="43.22093" lon="5.68748">
        <ele>255.1</ele>
        <time>2014-01-15T08:36:26Z</time>
      </trkpt>
      <trkpt lat="43.22092" lon="5.68753">
        <ele>256.2</ele>
        <time>2014-01-15T08:36:30Z</time>
      </trkpt>
      <trkpt lat="43.2209" lon="5.68757">
        <ele>255.6</ele>
        <time>2014-01-15T08:36:36Z</time>
      </trkpt>
      <trkpt lat="43.22089" lon="5.68758">
        <ele>255.1</ele>
        <time>2014-01-15T08:36:37Z</time>
      </trkpt>
      <trkpt lat="43.22084" lon="5.68765">
        <ele>249.5</ele>
        <time>2014-01-15T08:36:51Z</time>
      </trkpt>
      <trkpt lat="43.2208" lon="5.68768">
        <ele>248.5</ele>
        <time>2014-01-15T08:36:57Z</time>
      </trkpt>
      <trkpt lat="43.22078" lon="5.68773">
        <ele>247.3</ele>
        <time>2014-01-15T08:37:01Z</time>
      </trkpt>
      <trkpt lat="43.22076" lon="5.68779">
        <ele>245.1</ele>
        <time>2014-01-15T08:37:06Z</time>
      </trkpt>
      <trkpt lat="43.22075" lon="5.68782">
        <ele>245</ele>
        <time>2014-01-15T08:37:10Z</time>
      </trkpt>
      <trkpt lat="43.22074" lon="5.68787">
        <ele>247.1</ele>
        <time>2014-01-15T08:37:12Z</time>
      </trkpt>
      <trkpt lat="43.22072" lon="5.68792">
        <ele>248.5</ele>
        <time>2014-01-15T08:37:15Z</time>
      </trkpt>
      <trkpt lat="43.2207" lon="5.68797">
        <ele>247.3</ele>
        <time>2014-01-15T08:37:21Z</time>
      </trkpt>
      <trkpt lat="43.22069" lon="5.68802">
        <ele>246.3</ele>
        <time>2014-01-15T08:37:26Z</time>
      </trkpt>
      <trkpt lat="43.22068" lon="5.68807">
        <ele>246.1</ele>
        <time>2014-01-15T08:37:31Z</time>
      </trkpt>
      <trkpt lat="43.22067" lon="5.68812">
        <ele>245.5</ele>
        <time>2014-01-15T08:37:36Z</time>
      </trkpt>
      <trkpt lat="43.22066" lon="5.68817">
        <ele>244.6</ele>
        <time>2014-01-15T08:37:41Z</time>
      </trkpt>
      <trkpt lat="43.22066" lon="5.68818">
        <ele>244.6</ele>
        <time>2014-01-15T08:37:42Z</time>
      </trkpt>
      <trkpt lat="43.22064" lon="5.68828">
        <ele>244.3</ele>
        <time>2014-01-15T08:37:47Z</time>
      </trkpt>
      <trkpt lat="43.22063" lon="5.68832">
        <ele>244.6</ele>
        <time>2014-01-15T08:37:49Z</time>
      </trkpt>
      <trkpt lat="43.22062" lon="5.68837">
        <ele>245.8</ele>
        <time>2014-01-15T08:37:52Z</time>
      </trkpt>
      <trkpt lat="43.22061" lon="5.68841">
        <ele>246</ele>
        <time>2014-01-15T08:37:54Z</time>
      </trkpt>
      <trkpt lat="43.2206" lon="5.68845">
        <ele>246.6</ele>
        <time>2014-01-15T08:37:56Z</time>
      </trkpt>
      <trkpt lat="43.22059" lon="5.68851">
        <ele>248.8</ele>
        <time>2014-01-15T08:38:00Z</time>
      </trkpt>
      <trkpt lat="43.22058" lon="5.68855">
        <ele>248.8</ele>
        <time>2014-01-15T08:38:06Z</time>
      </trkpt>
      <trkpt lat="43.22057" lon="5.6886">
        <ele>250</ele>
        <time>2014-01-15T08:38:09Z</time>
      </trkpt>
      <trkpt lat="43.22057" lon="5.68866">
        <ele>251.3</ele>
        <time>2014-01-15T08:38:12Z</time>
      </trkpt>
      <trkpt lat="43.22056" lon="5.6887">
        <ele>251.1</ele>
        <time>2014-01-15T08:38:15Z</time>
      </trkpt>
      <trkpt lat="43.22055" lon="5.68875">
        <ele>250</ele>
        <time>2014-01-15T08:38:19Z</time>
      </trkpt>
      <trkpt lat="43.22053" lon="5.6888">
        <ele>248.8</ele>
        <time>2014-01-15T08:38:24Z</time>
      </trkpt>
      <trkpt lat="43.22052" lon="5.68884">
        <ele>245.6</ele>
        <time>2014-01-15T08:38:29Z</time>
      </trkpt>
      <trkpt lat="43.22051" lon="5.68889">
        <ele>245.1</ele>
        <time>2014-01-15T08:38:34Z</time>
      </trkpt>
      <trkpt lat="43.22049" lon="5.68894">
        <ele>245.5</ele>
        <time>2014-01-15T08:38:38Z</time>
      </trkpt>
      <trkpt lat="43.22048" lon="5.689">
        <ele>244.5</ele>
        <time>2014-01-15T08:38:43Z</time>
      </trkpt>
      <trkpt lat="43.22048" lon="5.68901">
        <ele>244.3</ele>
        <time>2014-01-15T08:38:44Z</time>
      </trkpt>
      <trkpt lat="43.22045" lon="5.6891">
        <ele>242.6</ele>
        <time>2014-01-15T08:38:52Z</time>
      </trkpt>
      <trkpt lat="43.22043" lon="5.68914">
        <ele>241.8</ele>
        <time>2014-01-15T08:38:57Z</time>
      </trkpt>
      <trkpt lat="43.22041" lon="5.68918">
        <ele>242.6</ele>
        <time>2014-01-15T08:39:00Z</time>
      </trkpt>
      <trkpt lat="43.22039" lon="5.68923">
        <ele>241.5</ele>
        <time>2014-01-15T08:39:06Z</time>
      </trkpt>
      <trkpt lat="43.22036" lon="5.68927">
        <ele>240.8</ele>
        <time>2014-01-15T08:39:11Z</time>
      </trkpt>
      <trkpt lat="43.22032" lon="5.68931">
        <ele>238.8</ele>
        <time>2014-01-15T08:39:17Z</time>
      </trkpt>
      <trkpt lat="43.22029" lon="5.68935">
        <ele>238.1</ele>
        <time>2014-01-15T08:39:22Z</time>
      </trkpt>
      <trkpt lat="43.22026" lon="5.68938">
        <ele>238.1</ele>
        <time>2014-01-15T08:39:26Z</time>
      </trkpt>
      <trkpt lat="43.22023" lon="5.68941">
        <ele>237.1</ele>
        <time>2014-01-15T08:39:30Z</time>
      </trkpt>
      <trkpt lat="43.2202" lon="5.68946">
        <ele>236.8</ele>
        <time>2014-01-15T08:39:35Z</time>
      </trkpt>
      <trkpt lat="43.22018" lon="5.68951">
        <ele>237.3</ele>
        <time>2014-01-15T08:39:40Z</time>
      </trkpt>
      <trkpt lat="43.22015" lon="5.68955">
        <ele>237.3</ele>
        <time>2014-01-15T08:39:45Z</time>
      </trkpt>
      <trkpt lat="43.22015" lon="5.68955">
        <ele>237.1</ele>
        <time>2014-01-15T08:39:46Z</time>
      </trkpt>
      <trkpt lat="43.22009" lon="5.68962">
        <ele>236.6</ele>
        <time>2014-01-15T08:39:55Z</time>
      </trkpt>
      <trkpt lat="43.22006" lon="5.68965">
        <ele>236.5</ele>
        <time>2014-01-15T08:39:59Z</time>
      </trkpt>
      <trkpt lat="43.22003" lon="5.68969">
        <ele>237.3</ele>
        <time>2014-01-15T08:40:02Z</time>
      </trkpt>
      <trkpt lat="43.22" lon="5.68974">
        <ele>238.3</ele>
        <time>2014-01-15T08:40:06Z</time>
      </trkpt>
      <trkpt lat="43.21997" lon="5.68977">
        <ele>238.6</ele>
        <time>2014-01-15T08:40:11Z</time>
      </trkpt>
      <trkpt lat="43.21995" lon="5.68982">
        <ele>240.1</ele>
        <time>2014-01-15T08:40:14Z</time>
      </trkpt>
      <trkpt lat="43.21991" lon="5.68986">
        <ele>240.1</ele>
        <time>2014-01-15T08:40:19Z</time>
      </trkpt>
      <trkpt lat="43.2199" lon="5.68989">
        <ele>240.6</ele>
        <time>2014-01-15T08:40:22Z</time>
      </trkpt>
      <trkpt lat="43.21988" lon="5.68993">
        <ele>242.3</ele>
        <time>2014-01-15T08:40:25Z</time>
      </trkpt>
      <trkpt lat="43.21985" lon="5.68998">
        <ele>241.8</ele>
        <time>2014-01-15T08:40:29Z</time>
      </trkpt>
      <trkpt lat="43.21982" lon="5.69002">
        <ele>241.5</ele>
        <time>2014-01-15T08:40:33Z</time>
      </trkpt>
      <trkpt lat="43.2198" lon="5.69006">
        <ele>241.1</ele>
        <time>2014-01-15T08:40:36Z</time>
      </trkpt>
      <trkpt lat="43.21978" lon="5.69009">
        <ele>241</ele>
        <time>2014-01-15T08:40:39Z</time>
      </trkpt>
      <trkpt lat="43.21975" lon="5.69013">
        <ele>241.1</ele>
        <time>2014-01-15T08:40:42Z</time>
      </trkpt>
      <trkpt lat="43.21973" lon="5.69017">
        <ele>242</ele>
        <time>2014-01-15T08:40:46Z</time>
      </trkpt>
      <trkpt lat="43.21972" lon="5.6902">
        <ele>244.6</ele>
        <time>2014-01-15T08:40:47Z</time>
      </trkpt>
      <trkpt lat="43.21969" lon="5.69025">
        <ele>247.6</ele>
        <time>2014-01-15T08:40:50Z</time>
      </trkpt>
      <trkpt lat="43.21968" lon="5.69029">
        <ele>249.5</ele>
        <time>2014-01-15T08:40:52Z</time>
      </trkpt>
      <trkpt lat="43.21966" lon="5.69035">
        <ele>251.3</ele>
        <time>2014-01-15T08:40:55Z</time>
      </trkpt>
      <trkpt lat="43.21965" lon="5.6904">
        <ele>251.8</ele>
        <time>2014-01-15T08:40:59Z</time>
      </trkpt>
      <trkpt lat="43.21963" lon="5.69044">
        <ele>251.6</ele>
        <time>2014-01-15T08:41:03Z</time>
      </trkpt>
      <trkpt lat="43.21961" lon="5.69048">
        <ele>249.8</ele>
        <time>2014-01-15T08:41:08Z</time>
      </trkpt>
      <trkpt lat="43.21958" lon="5.69051">
        <ele>248.5</ele>
        <time>2014-01-15T08:41:12Z</time>
      </trkpt>
      <trkpt lat="43.21956" lon="5.69056">
        <ele>250.3</ele>
        <time>2014-01-15T08:41:15Z</time>
      </trkpt>
      <trkpt lat="43.21955" lon="5.69061">
        <ele>250.6</ele>
        <time>2014-01-15T08:41:19Z</time>
      </trkpt>
      <trkpt lat="43.21953" lon="5.69066">
        <ele>248.8</ele>
        <time>2014-01-15T08:41:24Z</time>
      </trkpt>
      <trkpt lat="43.2195" lon="5.69071">
        <ele>246.6</ele>
        <time>2014-01-15T08:41:29Z</time>
      </trkpt>
      <trkpt lat="43.21948" lon="5.69076">
        <ele>245.1</ele>
        <time>2014-01-15T08:41:33Z</time>
      </trkpt>
      <trkpt lat="43.21946" lon="5.69081">
        <ele>245.3</ele>
        <time>2014-01-15T08:41:37Z</time>
      </trkpt>
      <trkpt lat="43.21945" lon="5.69087">
        <ele>242.8</ele>
        <time>2014-01-15T08:41:43Z</time>
      </trkpt>
      <trkpt lat="43.21943" lon="5.69091">
        <ele>241.3</ele>
        <time>2014-01-15T08:41:49Z</time>
      </trkpt>
      <trkpt lat="43.21943" lon="5.69092">
        <ele>240.8</ele>
        <time>2014-01-15T08:41:50Z</time>
      </trkpt>
      <trkpt lat="43.2194" lon="5.69102">
        <ele>236.8</ele>
        <time>2014-01-15T08:42:00Z</time>
      </trkpt>
      <trkpt lat="43.21937" lon="5.69106">
        <ele>236</ele>
        <time>2014-01-15T08:42:05Z</time>
      </trkpt>
      <trkpt lat="43.21935" lon="5.6911">
        <ele>235</ele>
        <time>2014-01-15T08:42:10Z</time>
      </trkpt>
      <trkpt lat="43.21932" lon="5.69113">
        <ele>234.3</ele>
        <time>2014-01-15T08:42:14Z</time>
      </trkpt>
      <trkpt lat="43.2193" lon="5.69118">
        <ele>234.5</ele>
        <time>2014-01-15T08:42:17Z</time>
      </trkpt>
      <trkpt lat="43.21927" lon="5.69123">
        <ele>233.6</ele>
        <time>2014-01-15T08:42:22Z</time>
      </trkpt>
      <trkpt lat="43.21925" lon="5.69127">
        <ele>234.6</ele>
        <time>2014-01-15T08:42:24Z</time>
      </trkpt>
      <trkpt lat="43.21923" lon="5.69131">
        <ele>233.6</ele>
        <time>2014-01-15T08:42:28Z</time>
      </trkpt>
      <trkpt lat="43.21921" lon="5.69136">
        <ele>232.6</ele>
        <time>2014-01-15T08:42:32Z</time>
      </trkpt>
      <trkpt lat="43.21919" lon="5.6914">
        <ele>231.8</ele>
        <time>2014-01-15T08:42:37Z</time>
      </trkpt>
      <trkpt lat="43.21916" lon="5.69144">
        <ele>231.1</ele>
        <time>2014-01-15T08:42:42Z</time>
      </trkpt>
      <trkpt lat="43.21913" lon="5.69148">
        <ele>230.3</ele>
        <time>2014-01-15T08:42:46Z</time>
      </trkpt>
      <trkpt lat="43.21911" lon="5.69151">
        <ele>230.5</ele>
        <time>2014-01-15T08:42:49Z</time>
      </trkpt>
      <trkpt lat="43.21908" lon="5.69155">
        <ele>230.3</ele>
        <time>2014-01-15T08:42:53Z</time>
      </trkpt>
      <trkpt lat="43.21907" lon="5.69155">
        <ele>230.3</ele>
        <time>2014-01-15T08:42:54Z</time>
      </trkpt>
      <trkpt lat="43.21901" lon="5.69162">
        <ele>229.6</ele>
        <time>2014-01-15T08:43:04Z</time>
      </trkpt>
      <trkpt lat="43.21898" lon="5.69166">
        <ele>228</ele>
        <time>2014-01-15T08:43:10Z</time>
      </trkpt>
      <trkpt lat="43.21895" lon="5.6917">
        <ele>228.3</ele>
        <time>2014-01-15T08:43:14Z</time>
      </trkpt>
      <trkpt lat="43.21892" lon="5.69173">
        <ele>228.1</ele>
        <time>2014-01-15T08:43:18Z</time>
      </trkpt>
      <trkpt lat="43.21889" lon="5.69177">
        <ele>228.8</ele>
        <time>2014-01-15T08:43:21Z</time>
      </trkpt>
      <trkpt lat="43.21888" lon="5.69178">
        <ele>229.1</ele>
        <time>2014-01-15T08:43:22Z</time>
      </trkpt>
      <trkpt lat="43.21887" lon="5.69182">
        <ele>232.3</ele>
        <time>2014-01-15T08:43:23Z</time>
      </trkpt>
      <trkpt lat="43.21886" lon="5.69185">
        <ele>234.8</ele>
        <time>2014-01-15T08:43:24Z</time>
      </trkpt>
      <trkpt lat="43.21883" lon="5.6919">
        <ele>236.8</ele>
        <time>2014-01-15T08:43:26Z</time>
      </trkpt>
      <trkpt lat="43.21881" lon="5.69193">
        <ele>236.8</ele>
        <time>2014-01-15T08:43:29Z</time>
      </trkpt>
      <trkpt lat="43.21879" lon="5.69196">
        <ele>236.6</ele>
        <time>2014-01-15T08:43:31Z</time>
      </trkpt>
      <trkpt lat="43.21877" lon="5.69201">
        <ele>238.8</ele>
        <time>2014-01-15T08:43:33Z</time>
      </trkpt>
      <trkpt lat="43.21875" lon="5.69205">
        <ele>240.1</ele>
        <time>2014-01-15T08:43:35Z</time>
      </trkpt>
      <trkpt lat="43.21873" lon="5.69208">
        <ele>240.8</ele>
        <time>2014-01-15T08:43:37Z</time>
      </trkpt>
      <trkpt lat="43.21871" lon="5.69212">
        <ele>242</ele>
        <time>2014-01-15T08:43:40Z</time>
      </trkpt>
      <trkpt lat="43.21867" lon="5.69214">
        <ele>241.6</ele>
        <time>2014-01-15T08:43:44Z</time>
      </trkpt>
      <trkpt lat="43.21864" lon="5.69215">
        <ele>241.6</ele>
        <time>2014-01-15T08:43:47Z</time>
      </trkpt>
      <trkpt lat="43.2186" lon="5.69216">
        <ele>241.1</ele>
        <time>2014-01-15T08:43:51Z</time>
      </trkpt>
      <trkpt lat="43.21856" lon="5.69219">
        <ele>243.1</ele>
        <time>2014-01-15T08:43:59Z</time>
      </trkpt>
      <trkpt lat="43.21856" lon="5.69219">
        <ele>243.3</ele>
        <time>2014-01-15T08:44:00Z</time>
      </trkpt>
      <trkpt lat="43.21849" lon="5.69214">
        <ele>247.6</ele>
        <time>2014-01-15T08:45:06Z</time>
      </trkpt>
      <trkpt lat="43.21849" lon="5.69214">
        <ele>247.6</ele>
        <time>2014-01-15T08:45:07Z</time>
      </trkpt>
      <trkpt lat="43.2184" lon="5.69216">
        <ele>246.5</ele>
        <time>2014-01-15T08:45:27Z</time>
      </trkpt>
      <trkpt lat="43.21836" lon="5.69215">
        <ele>244.8</ele>
        <time>2014-01-15T08:45:35Z</time>
      </trkpt>
      <trkpt lat="43.21832" lon="5.69215">
        <ele>243.1</ele>
        <time>2014-01-15T08:45:42Z</time>
      </trkpt>
      <trkpt lat="43.21828" lon="5.69214">
        <ele>241.5</ele>
        <time>2014-01-15T08:45:48Z</time>
      </trkpt>
      <trkpt lat="43.21824" lon="5.69216">
        <ele>238.6</ele>
        <time>2014-01-15T08:45:55Z</time>
      </trkpt>
      <trkpt lat="43.2182" lon="5.69216">
        <ele>237.5</ele>
        <time>2014-01-15T08:46:00Z</time>
      </trkpt>
      <trkpt lat="43.21816" lon="5.69217">
        <ele>236.3</ele>
        <time>2014-01-15T08:46:05Z</time>
      </trkpt>
      <trkpt lat="43.21811" lon="5.69216">
        <ele>235.1</ele>
        <time>2014-01-15T08:46:10Z</time>
      </trkpt>
      <trkpt lat="43.21811" lon="5.69216">
        <ele>235</ele>
        <time>2014-01-15T08:46:11Z</time>
      </trkpt>
      <trkpt lat="43.21804" lon="5.69214">
        <ele>234.1</ele>
        <time>2014-01-15T08:46:19Z</time>
      </trkpt>
      <trkpt lat="43.218" lon="5.69213">
        <ele>232.8</ele>
        <time>2014-01-15T08:46:23Z</time>
      </trkpt>
      <trkpt lat="43.21796" lon="5.69211">
        <ele>232.3</ele>
        <time>2014-01-15T08:46:28Z</time>
      </trkpt>
      <trkpt lat="43.21791" lon="5.69211">
        <ele>232</ele>
        <time>2014-01-15T08:46:33Z</time>
      </trkpt>
      <trkpt lat="43.21787" lon="5.69211">
        <ele>231.6</ele>
        <time>2014-01-15T08:46:37Z</time>
      </trkpt>
      <trkpt lat="43.21783" lon="5.69211">
        <ele>231.1</ele>
        <time>2014-01-15T08:46:41Z</time>
      </trkpt>
      <trkpt lat="43.21779" lon="5.69211">
        <ele>230.3</ele>
        <time>2014-01-15T08:46:45Z</time>
      </trkpt>
      <trkpt lat="43.21775" lon="5.69212">
        <ele>228.6</ele>
        <time>2014-01-15T08:46:50Z</time>
      </trkpt>
      <trkpt lat="43.21771" lon="5.69212">
        <ele>227.1</ele>
        <time>2014-01-15T08:46:56Z</time>
      </trkpt>
      <trkpt lat="43.21768" lon="5.69212">
        <ele>227.3</ele>
        <time>2014-01-15T08:46:59Z</time>
      </trkpt>
      <trkpt lat="43.21764" lon="5.69211">
        <ele>229.3</ele>
        <time>2014-01-15T08:47:01Z</time>
      </trkpt>
      <trkpt lat="43.2176" lon="5.69211">
        <ele>230.8</ele>
        <time>2014-01-15T08:47:04Z</time>
      </trkpt>
      <trkpt lat="43.21756" lon="5.6921">
        <ele>232.1</ele>
        <time>2014-01-15T08:47:07Z</time>
      </trkpt>
      <trkpt lat="43.21752" lon="5.69211">
        <ele>232.1</ele>
        <time>2014-01-15T08:47:11Z</time>
      </trkpt>
      <trkpt lat="43.21751" lon="5.69211">
        <ele>232.1</ele>
        <time>2014-01-15T08:47:12Z</time>
      </trkpt>
      <trkpt lat="43.21745" lon="5.69213">
        <ele>231.8</ele>
        <time>2014-01-15T08:47:19Z</time>
      </trkpt>
      <trkpt lat="43.21741" lon="5.69211">
        <ele>233.3</ele>
        <time>2014-01-15T08:47:21Z</time>
      </trkpt>
      <trkpt lat="43.21738" lon="5.6921">
        <ele>234.3</ele>
        <time>2014-01-15T08:47:23Z</time>
      </trkpt>
      <trkpt lat="43.21734" lon="5.69209">
        <ele>234.6</ele>
        <time>2014-01-15T08:47:26Z</time>
      </trkpt>
      <trkpt lat="43.2173" lon="5.6921">
        <ele>235.1</ele>
        <time>2014-01-15T08:47:29Z</time>
      </trkpt>
      <trkpt lat="43.21726" lon="5.69211">
        <ele>235.8</ele>
        <time>2014-01-15T08:47:32Z</time>
      </trkpt>
      <trkpt lat="43.21722" lon="5.69211">
        <ele>236.1</ele>
        <time>2014-01-15T08:47:35Z</time>
      </trkpt>
      <trkpt lat="43.21718" lon="5.69211">
        <ele>236.6</ele>
        <time>2014-01-15T08:47:39Z</time>
      </trkpt>
      <trkpt lat="43.21714" lon="5.69211">
        <ele>236</ele>
        <time>2014-01-15T08:47:43Z</time>
      </trkpt>
      <trkpt lat="43.2171" lon="5.69211">
        <ele>235</ele>
        <time>2014-01-15T08:47:48Z</time>
      </trkpt>
      <trkpt lat="43.21706" lon="5.69211">
        <ele>235</ele>
        <time>2014-01-15T08:47:51Z</time>
      </trkpt>
      <trkpt lat="43.21703" lon="5.69211">
        <ele>235.3</ele>
        <time>2014-01-15T08:47:54Z</time>
      </trkpt>
      <trkpt lat="43.21699" lon="5.69212">
        <ele>235.6</ele>
        <time>2014-01-15T08:47:57Z</time>
      </trkpt>
      <trkpt lat="43.21695" lon="5.69212">
        <ele>235.8</ele>
        <time>2014-01-15T08:48:00Z</time>
      </trkpt>
      <trkpt lat="43.21692" lon="5.69212">
        <ele>236.1</ele>
        <time>2014-01-15T08:48:04Z</time>
      </trkpt>
      <trkpt lat="43.21688" lon="5.69212">
        <ele>236.5</ele>
        <time>2014-01-15T08:48:08Z</time>
      </trkpt>
      <trkpt lat="43.21683" lon="5.69212">
        <ele>236.8</ele>
        <time>2014-01-15T08:48:13Z</time>
      </trkpt>
      <trkpt lat="43.21682" lon="5.69213">
        <ele>236.8</ele>
        <time>2014-01-15T08:48:14Z</time>
      </trkpt>
      <trkpt lat="43.21675" lon="5.69213">
        <ele>237.5</ele>
        <time>2014-01-15T08:48:22Z</time>
      </trkpt>
      <trkpt lat="43.21671" lon="5.69211">
        <ele>237.6</ele>
        <time>2014-01-15T08:48:26Z</time>
      </trkpt>
      <trkpt lat="43.21667" lon="5.69211">
        <ele>237.1</ele>
        <time>2014-01-15T08:48:31Z</time>
      </trkpt>
      <trkpt lat="43.21663" lon="5.69211">
        <ele>236.8</ele>
        <time>2014-01-15T08:48:36Z</time>
      </trkpt>
      <trkpt lat="43.21659" lon="5.69212">
        <ele>237</ele>
        <time>2014-01-15T08:48:42Z</time>
      </trkpt>
      <trkpt lat="43.21654" lon="5.69211">
        <ele>240</ele>
        <time>2014-01-15T08:49:04Z</time>
      </trkpt>
      <trkpt lat="43.21651" lon="5.69208">
        <ele>243.1</ele>
        <time>2014-01-15T08:52:50Z</time>
      </trkpt>
      <trkpt lat="43.2165" lon="5.69208">
        <ele>243</ele>
        <time>2014-01-15T08:52:51Z</time>
      </trkpt>
      <trkpt lat="43.21652" lon="5.69214">
        <ele>242.6</ele>
        <time>2014-01-15T08:54:32Z</time>
      </trkpt>
      <trkpt lat="43.21651" lon="5.69208">
        <ele>241.6</ele>
        <time>2014-01-15T08:58:29Z</time>
      </trkpt>
      <trkpt lat="43.21647" lon="5.69212">
        <ele>245.6</ele>
        <time>2014-01-15T09:01:40Z</time>
      </trkpt>
      <trkpt lat="43.2164" lon="5.69215">
        <ele>242.3</ele>
        <time>2014-01-15T09:01:50Z</time>
      </trkpt>
      <trkpt lat="43.21636" lon="5.69217">
        <ele>240.6</ele>
        <time>2014-01-15T09:01:56Z</time>
      </trkpt>
      <trkpt lat="43.21632" lon="5.69218">
        <ele>239.1</ele>
        <time>2014-01-15T09:02:01Z</time>
      </trkpt>
      <trkpt lat="43.21628" lon="5.69221">
        <ele>238.1</ele>
        <time>2014-01-15T09:02:06Z</time>
      </trkpt>
      <trkpt lat="43.21625" lon="5.69224">
        <ele>237.1</ele>
        <time>2014-01-15T09:02:10Z</time>
      </trkpt>
      <trkpt lat="43.21622" lon="5.69227">
        <ele>236.5</ele>
        <time>2014-01-15T09:02:14Z</time>
      </trkpt>
      <trkpt lat="43.21618" lon="5.6923">
        <ele>235.8</ele>
        <time>2014-01-15T09:02:19Z</time>
      </trkpt>
      <trkpt lat="43.21615" lon="5.69234">
        <ele>234.8</ele>
        <time>2014-01-15T09:02:24Z</time>
      </trkpt>
      <trkpt lat="43.21612" lon="5.69237">
        <ele>234</ele>
        <time>2014-01-15T09:02:28Z</time>
      </trkpt>
      <trkpt lat="43.21609" lon="5.6924">
        <ele>232.6</ele>
        <time>2014-01-15T09:02:33Z</time>
      </trkpt>
      <trkpt lat="43.21605" lon="5.69242">
        <ele>231.6</ele>
        <time>2014-01-15T09:02:38Z</time>
      </trkpt>
      <trkpt lat="43.21602" lon="5.69245">
        <ele>230.5</ele>
        <time>2014-01-15T09:02:42Z</time>
      </trkpt>
      <trkpt lat="43.21601" lon="5.69245">
        <ele>230.3</ele>
        <time>2014-01-15T09:02:43Z</time>
      </trkpt>
      <trkpt lat="43.21594" lon="5.69248">
        <ele>227.8</ele>
        <time>2014-01-15T09:02:51Z</time>
      </trkpt>
      <trkpt lat="43.2159" lon="5.6925">
        <ele>226.6</ele>
        <time>2014-01-15T09:02:56Z</time>
      </trkpt>
      <trkpt lat="43.21586" lon="5.69253">
        <ele>225.3</ele>
        <time>2014-01-15T09:03:01Z</time>
      </trkpt>
      <trkpt lat="43.21583" lon="5.69257">
        <ele>224.6</ele>
        <time>2014-01-15T09:03:05Z</time>
      </trkpt>
      <trkpt lat="43.21581" lon="5.69259">
        <ele>224.8</ele>
        <time>2014-01-15T09:03:08Z</time>
      </trkpt>
      <trkpt lat="43.21577" lon="5.69262">
        <ele>224.6</ele>
        <time>2014-01-15T09:03:12Z</time>
      </trkpt>
      <trkpt lat="43.21574" lon="5.69265">
        <ele>224.1</ele>
        <time>2014-01-15T09:03:16Z</time>
      </trkpt>
      <trkpt lat="43.2157" lon="5.69269">
        <ele>223.6</ele>
        <time>2014-01-15T09:03:20Z</time>
      </trkpt>
      <trkpt lat="43.21567" lon="5.69272">
        <ele>223.1</ele>
        <time>2014-01-15T09:03:24Z</time>
      </trkpt>
      <trkpt lat="43.21564" lon="5.69276">
        <ele>222.3</ele>
        <time>2014-01-15T09:03:28Z</time>
      </trkpt>
      <trkpt lat="43.21561" lon="5.6928">
        <ele>221.8</ele>
        <time>2014-01-15T09:03:32Z</time>
      </trkpt>
      <trkpt lat="43.21559" lon="5.69284">
        <ele>221.1</ele>
        <time>2014-01-15T09:03:36Z</time>
      </trkpt>
      <trkpt lat="43.21557" lon="5.69289">
        <ele>220.1</ele>
        <time>2014-01-15T09:03:40Z</time>
      </trkpt>
      <trkpt lat="43.21555" lon="5.69293">
        <ele>219.1</ele>
        <time>2014-01-15T09:03:44Z</time>
      </trkpt>
      <trkpt lat="43.21554" lon="5.69294">
        <ele>218.8</ele>
        <time>2014-01-15T09:03:45Z</time>
      </trkpt>
      <trkpt lat="43.2155" lon="5.69301">
        <ele>217</ele>
        <time>2014-01-15T09:03:54Z</time>
      </trkpt>
      <trkpt lat="43.21547" lon="5.69305">
        <ele>216.1</ele>
        <time>2014-01-15T09:03:58Z</time>
      </trkpt>
      <trkpt lat="43.21545" lon="5.69309">
        <ele>215.6</ele>
        <time>2014-01-15T09:04:01Z</time>
      </trkpt>
      <trkpt lat="43.21542" lon="5.69312">
        <ele>215.1</ele>
        <time>2014-01-15T09:04:04Z</time>
      </trkpt>
      <trkpt lat="43.21539" lon="5.69316">
        <ele>214.8</ele>
        <time>2014-01-15T09:04:08Z</time>
      </trkpt>
      <trkpt lat="43.21537" lon="5.69319">
        <ele>214.6</ele>
        <time>2014-01-15T09:04:11Z</time>
      </trkpt>
      <trkpt lat="43.21535" lon="5.69323">
        <ele>214.1</ele>
        <time>2014-01-15T09:04:14Z</time>
      </trkpt>
      <trkpt lat="43.21533" lon="5.69328">
        <ele>213.3</ele>
        <time>2014-01-15T09:04:18Z</time>
      </trkpt>
      <trkpt lat="43.2153" lon="5.69331">
        <ele>212.8</ele>
        <time>2014-01-15T09:04:22Z</time>
      </trkpt>
      <trkpt lat="43.21527" lon="5.69335">
        <ele>212.3</ele>
        <time>2014-01-15T09:04:25Z</time>
      </trkpt>
      <trkpt lat="43.21526" lon="5.69341">
        <ele>211.6</ele>
        <time>2014-01-15T09:04:30Z</time>
      </trkpt>
      <trkpt lat="43.21528" lon="5.69344">
        <ele>211.5</ele>
        <time>2014-01-15T09:04:35Z</time>
      </trkpt>
      <trkpt lat="43.21532" lon="5.69346">
        <ele>211.3</ele>
        <time>2014-01-15T09:04:39Z</time>
      </trkpt>
      <trkpt lat="43.21535" lon="5.69347">
        <ele>210.3</ele>
        <time>2014-01-15T09:04:42Z</time>
      </trkpt>
      <trkpt lat="43.2154" lon="5.69346">
        <ele>210.1</ele>
        <time>2014-01-15T09:04:47Z</time>
      </trkpt>
      <trkpt lat="43.2154" lon="5.69346">
        <ele>210</ele>
        <time>2014-01-15T09:04:48Z</time>
      </trkpt>
      <trkpt lat="43.21547" lon="5.69345">
        <ele>209.3</ele>
        <time>2014-01-15T09:04:54Z</time>
      </trkpt>
      <trkpt lat="43.2155" lon="5.69344">
        <ele>209</ele>
        <time>2014-01-15T09:04:57Z</time>
      </trkpt>
      <trkpt lat="43.21553" lon="5.69342">
        <ele>207.6</ele>
        <time>2014-01-15T09:05:00Z</time>
      </trkpt>
      <trkpt lat="43.21557" lon="5.69341">
        <ele>206.8</ele>
        <time>2014-01-15T09:05:03Z</time>
      </trkpt>
      <trkpt lat="43.21561" lon="5.69339">
        <ele>206.1</ele>
        <time>2014-01-15T09:05:07Z</time>
      </trkpt>
      <trkpt lat="43.21565" lon="5.69337">
        <ele>206.6</ele>
        <time>2014-01-15T09:05:12Z</time>
      </trkpt>
      <trkpt lat="43.21569" lon="5.69335">
        <ele>206.1</ele>
        <time>2014-01-15T09:05:15Z</time>
      </trkpt>
      <trkpt lat="43.21573" lon="5.69334">
        <ele>205.8</ele>
        <time>2014-01-15T09:05:18Z</time>
      </trkpt>
      <trkpt lat="43.21576" lon="5.69333">
        <ele>206.3</ele>
        <time>2014-01-15T09:05:21Z</time>
      </trkpt>
      <trkpt lat="43.21581" lon="5.69332">
        <ele>207.8</ele>
        <time>2014-01-15T09:05:25Z</time>
      </trkpt>
      <trkpt lat="43.21584" lon="5.6933">
        <ele>207.8</ele>
        <time>2014-01-15T09:05:28Z</time>
      </trkpt>
      <trkpt lat="43.21588" lon="5.69331">
        <ele>210.1</ele>
        <time>2014-01-15T09:05:42Z</time>
      </trkpt>
      <trkpt lat="43.21592" lon="5.6933">
        <ele>211.6</ele>
        <time>2014-01-15T09:05:52Z</time>
      </trkpt>
      <trkpt lat="43.21593" lon="5.69331">
        <ele>211.8</ele>
        <time>2014-01-15T09:05:53Z</time>
      </trkpt>
      <trkpt lat="43.216" lon="5.69328">
        <ele>212.3</ele>
        <time>2014-01-15T09:06:58Z</time>
      </trkpt>
      <trkpt lat="43.21601" lon="5.69328">
        <ele>212.5</ele>
        <time>2014-01-15T09:06:59Z</time>
      </trkpt>
      <trkpt lat="43.21609" lon="5.69329">
        <ele>217.3</ele>
        <time>2014-01-15T09:07:43Z</time>
      </trkpt>
      <trkpt lat="43.21613" lon="5.69328">
        <ele>217.6</ele>
        <time>2014-01-15T09:07:52Z</time>
      </trkpt>
      <trkpt lat="43.21617" lon="5.69327">
        <ele>216.6</ele>
        <time>2014-01-15T09:07:58Z</time>
      </trkpt>
      <trkpt lat="43.21621" lon="5.69326">
        <ele>215.3</ele>
        <time>2014-01-15T09:08:03Z</time>
      </trkpt>
      <trkpt lat="43.21622" lon="5.69326">
        <ele>215</ele>
        <time>2014-01-15T09:08:04Z</time>
      </trkpt>
      <trkpt lat="43.21629" lon="5.69324">
        <ele>212.3</ele>
        <time>2014-01-15T09:08:12Z</time>
      </trkpt>
      <trkpt lat="43.21633" lon="5.69324">
        <ele>211.6</ele>
        <time>2014-01-15T09:08:16Z</time>
      </trkpt>
      <trkpt lat="43.21636" lon="5.69323">
        <ele>210.1</ele>
        <time>2014-01-15T09:08:19Z</time>
      </trkpt>
      <trkpt lat="43.21641" lon="5.69323">
        <ele>209.1</ele>
        <time>2014-01-15T09:08:23Z</time>
      </trkpt>
      <trkpt lat="43.21645" lon="5.69322">
        <ele>208.3</ele>
        <time>2014-01-15T09:08:26Z</time>
      </trkpt>
      <trkpt lat="43.21648" lon="5.69323">
        <ele>209.8</ele>
        <time>2014-01-15T09:08:29Z</time>
      </trkpt>
      <trkpt lat="43.21652" lon="5.69321">
        <ele>207.6</ele>
        <time>2014-01-15T09:08:32Z</time>
      </trkpt>
      <trkpt lat="43.21656" lon="5.69319">
        <ele>205.8</ele>
        <time>2014-01-15T09:08:36Z</time>
      </trkpt>
      <trkpt lat="43.2166" lon="5.69319">
        <ele>204.3</ele>
        <time>2014-01-15T09:08:40Z</time>
      </trkpt>
      <trkpt lat="43.21664" lon="5.69319">
        <ele>203.1</ele>
        <time>2014-01-15T09:08:44Z</time>
      </trkpt>
      <trkpt lat="43.21668" lon="5.69319">
        <ele>202</ele>
        <time>2014-01-15T09:08:48Z</time>
      </trkpt>
      <trkpt lat="43.21672" lon="5.69319">
        <ele>201.8</ele>
        <time>2014-01-15T09:08:51Z</time>
      </trkpt>
      <trkpt lat="43.21676" lon="5.69319">
        <ele>201.3</ele>
        <time>2014-01-15T09:08:54Z</time>
      </trkpt>
      <trkpt lat="43.2168" lon="5.6932">
        <ele>201.3</ele>
        <time>2014-01-15T09:08:57Z</time>
      </trkpt>
      <trkpt lat="43.21683" lon="5.69321">
        <ele>201.1</ele>
        <time>2014-01-15T09:09:00Z</time>
      </trkpt>
      <trkpt lat="43.21687" lon="5.69323">
        <ele>202.6</ele>
        <time>2014-01-15T09:09:03Z</time>
      </trkpt>
      <trkpt lat="43.2169" lon="5.69326">
        <ele>203.1</ele>
        <time>2014-01-15T09:09:07Z</time>
      </trkpt>
      <trkpt lat="43.21691" lon="5.69326">
        <ele>203.3</ele>
        <time>2014-01-15T09:09:08Z</time>
      </trkpt>
      <trkpt lat="43.21698" lon="5.69329">
        <ele>202.5</ele>
        <time>2014-01-15T09:09:15Z</time>
      </trkpt>
      <trkpt lat="43.21702" lon="5.69328">
        <ele>201.1</ele>
        <time>2014-01-15T09:09:18Z</time>
      </trkpt>
      <trkpt lat="43.21706" lon="5.69331">
        <ele>202.8</ele>
        <time>2014-01-15T09:09:22Z</time>
      </trkpt>
      <trkpt lat="43.2171" lon="5.69332">
        <ele>203</ele>
        <time>2014-01-15T09:09:26Z</time>
      </trkpt>
      <trkpt lat="43.21714" lon="5.69334">
        <ele>204.1</ele>
        <time>2014-01-15T09:09:30Z</time>
      </trkpt>
      <trkpt lat="43.21718" lon="5.69336">
        <ele>206.1</ele>
        <time>2014-01-15T09:09:33Z</time>
      </trkpt>
      <trkpt lat="43.21722" lon="5.69336">
        <ele>205.3</ele>
        <time>2014-01-15T09:09:37Z</time>
      </trkpt>
      <trkpt lat="43.21726" lon="5.69338">
        <ele>204.3</ele>
        <time>2014-01-15T09:09:41Z</time>
      </trkpt>
      <trkpt lat="43.21729" lon="5.69342">
        <ele>202.6</ele>
        <time>2014-01-15T09:09:46Z</time>
      </trkpt>
      <trkpt lat="43.21732" lon="5.69346">
        <ele>200.6</ele>
        <time>2014-01-15T09:09:51Z</time>
      </trkpt>
      <trkpt lat="43.21734" lon="5.69351">
        <ele>199.3</ele>
        <time>2014-01-15T09:09:55Z</time>
      </trkpt>
      <trkpt lat="43.21736" lon="5.69354">
        <ele>197.6</ele>
        <time>2014-01-15T09:09:59Z</time>
      </trkpt>
      <trkpt lat="43.21738" lon="5.69358">
        <ele>197</ele>
        <time>2014-01-15T09:10:02Z</time>
      </trkpt>
      <trkpt lat="43.21741" lon="5.69363">
        <ele>197.1</ele>
        <time>2014-01-15T09:10:05Z</time>
      </trkpt>
      <trkpt lat="43.21744" lon="5.69366">
        <ele>196.6</ele>
        <time>2014-01-15T09:10:08Z</time>
      </trkpt>
      <trkpt lat="43.21744" lon="5.69368">
        <ele>197.1</ele>
        <time>2014-01-15T09:10:09Z</time>
      </trkpt>
      <trkpt lat="43.21747" lon="5.69375">
        <ele>199.8</ele>
        <time>2014-01-15T09:10:13Z</time>
      </trkpt>
      <trkpt lat="43.21749" lon="5.69379">
        <ele>201.1</ele>
        <time>2014-01-15T09:10:15Z</time>
      </trkpt>
      <trkpt lat="43.21752" lon="5.69383">
        <ele>202.8</ele>
        <time>2014-01-15T09:10:18Z</time>
      </trkpt>
      <trkpt lat="43.21754" lon="5.69386">
        <ele>203.3</ele>
        <time>2014-01-15T09:10:22Z</time>
      </trkpt>
      <trkpt lat="43.21758" lon="5.69389">
        <ele>204.1</ele>
        <time>2014-01-15T09:10:27Z</time>
      </trkpt>
      <trkpt lat="43.21761" lon="5.6939">
        <ele>204.8</ele>
        <time>2014-01-15T09:10:31Z</time>
      </trkpt>
      <trkpt lat="43.21765" lon="5.69391">
        <ele>205.1</ele>
        <time>2014-01-15T09:10:34Z</time>
      </trkpt>
      <trkpt lat="43.21769" lon="5.69391">
        <ele>204.3</ele>
        <time>2014-01-15T09:10:38Z</time>
      </trkpt>
      <trkpt lat="43.21773" lon="5.6939">
        <ele>203.1</ele>
        <time>2014-01-15T09:10:42Z</time>
      </trkpt>
      <trkpt lat="43.21776" lon="5.69391">
        <ele>203.1</ele>
        <time>2014-01-15T09:10:45Z</time>
      </trkpt>
      <trkpt lat="43.21781" lon="5.69391">
        <ele>202.1</ele>
        <time>2014-01-15T09:10:48Z</time>
      </trkpt>
      <trkpt lat="43.21785" lon="5.6939">
        <ele>201.3</ele>
        <time>2014-01-15T09:10:51Z</time>
      </trkpt>
      <trkpt lat="43.21789" lon="5.6939">
        <ele>200.6</ele>
        <time>2014-01-15T09:10:54Z</time>
      </trkpt>
      <trkpt lat="43.21793" lon="5.6939">
        <ele>199</ele>
        <time>2014-01-15T09:10:57Z</time>
      </trkpt>
      <trkpt lat="43.21797" lon="5.6939">
        <ele>198.3</ele>
        <time>2014-01-15T09:11:00Z</time>
      </trkpt>
      <trkpt lat="43.21801" lon="5.6939">
        <ele>196.6</ele>
        <time>2014-01-15T09:11:03Z</time>
      </trkpt>
      <trkpt lat="43.21805" lon="5.69389">
        <ele>194.3</ele>
        <time>2014-01-15T09:11:06Z</time>
      </trkpt>
      <trkpt lat="43.21809" lon="5.69389">
        <ele>193.6</ele>
        <time>2014-01-15T09:11:09Z</time>
      </trkpt>
      <trkpt lat="43.21811" lon="5.69389">
        <ele>193.5</ele>
        <time>2014-01-15T09:11:10Z</time>
      </trkpt>
      <trkpt lat="43.21815" lon="5.69396">
        <ele>198.3</ele>
        <time>2014-01-15T09:11:15Z</time>
      </trkpt>
      <trkpt lat="43.21819" lon="5.69398">
        <ele>200</ele>
        <time>2014-01-15T09:11:19Z</time>
      </trkpt>
      <trkpt lat="43.21823" lon="5.69399">
        <ele>201.1</ele>
        <time>2014-01-15T09:11:23Z</time>
      </trkpt>
      <trkpt lat="43.21827" lon="5.69399">
        <ele>200.5</ele>
        <time>2014-01-15T09:11:26Z</time>
      </trkpt>
      <trkpt lat="43.2183" lon="5.69399">
        <ele>199.5</ele>
        <time>2014-01-15T09:11:29Z</time>
      </trkpt>
      <trkpt lat="43.21834" lon="5.69399">
        <ele>199.5</ele>
        <time>2014-01-15T09:11:32Z</time>
      </trkpt>
      <trkpt lat="43.21838" lon="5.69398">
        <ele>197.1</ele>
        <time>2014-01-15T09:11:35Z</time>
      </trkpt>
      <trkpt lat="43.21842" lon="5.69397">
        <ele>195.3</ele>
        <time>2014-01-15T09:11:38Z</time>
      </trkpt>
      <trkpt lat="43.21846" lon="5.69397">
        <ele>193.1</ele>
        <time>2014-01-15T09:11:41Z</time>
      </trkpt>
      <trkpt lat="43.21849" lon="5.694">
        <ele>195.8</ele>
        <time>2014-01-15T09:11:44Z</time>
      </trkpt>
      <trkpt lat="43.21853" lon="5.69402">
        <ele>197.3</ele>
        <time>2014-01-15T09:11:47Z</time>
      </trkpt>
      <trkpt lat="43.21856" lon="5.69404">
        <ele>197.6</ele>
        <time>2014-01-15T09:11:50Z</time>
      </trkpt>
      <trkpt lat="43.2186" lon="5.69406">
        <ele>198.5</ele>
        <time>2014-01-15T09:11:53Z</time>
      </trkpt>
      <trkpt lat="43.21863" lon="5.69408">
        <ele>198.6</ele>
        <time>2014-01-15T09:11:56Z</time>
      </trkpt>
      <trkpt lat="43.21867" lon="5.69408">
        <ele>196.8</ele>
        <time>2014-01-15T09:11:59Z</time>
      </trkpt>
      <trkpt lat="43.2187" lon="5.69411">
        <ele>197</ele>
        <time>2014-01-15T09:12:02Z</time>
      </trkpt>
      <trkpt lat="43.21873" lon="5.69413">
        <ele>196.6</ele>
        <time>2014-01-15T09:12:05Z</time>
      </trkpt>
      <trkpt lat="43.21877" lon="5.69414">
        <ele>196</ele>
        <time>2014-01-15T09:12:08Z</time>
      </trkpt>
      <trkpt lat="43.21882" lon="5.69414">
        <ele>193.1</ele>
        <time>2014-01-15T09:12:12Z</time>
      </trkpt>
      <trkpt lat="43.21883" lon="5.69415">
        <ele>193</ele>
        <time>2014-01-15T09:12:13Z</time>
      </trkpt>
      <trkpt lat="43.21888" lon="5.69417">
        <ele>191.8</ele>
        <time>2014-01-15T09:12:18Z</time>
      </trkpt>
      <trkpt lat="43.21892" lon="5.69418">
        <ele>190.8</ele>
        <time>2014-01-15T09:12:21Z</time>
      </trkpt>
      <trkpt lat="43.21896" lon="5.69418">
        <ele>189.5</ele>
        <time>2014-01-15T09:12:24Z</time>
      </trkpt>
      <trkpt lat="43.219" lon="5.69419">
        <ele>189.6</ele>
        <time>2014-01-15T09:12:27Z</time>
      </trkpt>
      <trkpt lat="43.21903" lon="5.69418">
        <ele>189.3</ele>
        <time>2014-01-15T09:12:30Z</time>
      </trkpt>
      <trkpt lat="43.21907" lon="5.69418">
        <ele>191.6</ele>
        <time>2014-01-15T09:12:35Z</time>
      </trkpt>
      <trkpt lat="43.2191" lon="5.69415">
        <ele>192.8</ele>
        <time>2014-01-15T09:12:39Z</time>
      </trkpt>
      <trkpt lat="43.21913" lon="5.69412">
        <ele>193</ele>
        <time>2014-01-15T09:12:43Z</time>
      </trkpt>
      <trkpt lat="43.21915" lon="5.69407">
        <ele>193.1</ele>
        <time>2014-01-15T09:12:48Z</time>
      </trkpt>
      <trkpt lat="43.21916" lon="5.69402">
        <ele>192.8</ele>
        <time>2014-01-15T09:12:52Z</time>
      </trkpt>
      <trkpt lat="43.21916" lon="5.69396">
        <ele>191.8</ele>
        <time>2014-01-15T09:12:56Z</time>
      </trkpt>
      <trkpt lat="43.21917" lon="5.69391">
        <ele>192.3</ele>
        <time>2014-01-15T09:12:59Z</time>
      </trkpt>
      <trkpt lat="43.21917" lon="5.69385">
        <ele>193.6</ele>
        <time>2014-01-15T09:13:02Z</time>
      </trkpt>
      <trkpt lat="43.21919" lon="5.6938">
        <ele>194</ele>
        <time>2014-01-15T09:13:08Z</time>
      </trkpt>
      <trkpt lat="43.2192" lon="5.69375">
        <ele>204.6</ele>
        <time>2014-01-15T09:13:52Z</time>
      </trkpt>
      <trkpt lat="43.2192" lon="5.69374">
        <ele>204.6</ele>
        <time>2014-01-15T09:13:53Z</time>
      </trkpt>
      <trkpt lat="43.21925" lon="5.69369">
        <ele>204.1</ele>
        <time>2014-01-15T09:14:10Z</time>
      </trkpt>
      <trkpt lat="43.21928" lon="5.69373">
        <ele>200.8</ele>
        <time>2014-01-15T09:14:19Z</time>
      </trkpt>
      <trkpt lat="43.21928" lon="5.69379">
        <ele>198.5</ele>
        <time>2014-01-15T09:14:30Z</time>
      </trkpt>
      <trkpt lat="43.21928" lon="5.69385">
        <ele>198.6</ele>
        <time>2014-01-15T09:14:42Z</time>
      </trkpt>
      <trkpt lat="43.2193" lon="5.6939">
        <ele>192.6</ele>
        <time>2014-01-15T09:14:50Z</time>
      </trkpt>
      <trkpt lat="43.21931" lon="5.69396">
        <ele>192.6</ele>
        <time>2014-01-15T09:14:55Z</time>
      </trkpt>
      <trkpt lat="43.21931" lon="5.69397">
        <ele>193.3</ele>
        <time>2014-01-15T09:14:56Z</time>
      </trkpt>
      <trkpt lat="43.21928" lon="5.69407">
        <ele>196.5</ele>
        <time>2014-01-15T09:15:09Z</time>
      </trkpt>
      <trkpt lat="43.21927" lon="5.69412">
        <ele>198.6</ele>
        <time>2014-01-15T09:15:17Z</time>
      </trkpt>
      <trkpt lat="43.21926" lon="5.69416">
        <ele>199.5</ele>
        <time>2014-01-15T09:15:23Z</time>
      </trkpt>
      <trkpt lat="43.21924" lon="5.69421">
        <ele>200.1</ele>
        <time>2014-01-15T09:15:29Z</time>
      </trkpt>
      <trkpt lat="43.21922" lon="5.69426">
        <ele>200.8</ele>
        <time>2014-01-15T09:15:36Z</time>
      </trkpt>
      <trkpt lat="43.2192" lon="5.69432">
        <ele>201.5</ele>
        <time>2014-01-15T09:15:42Z</time>
      </trkpt>
      <trkpt lat="43.21919" lon="5.69437">
        <ele>201.8</ele>
        <time>2014-01-15T09:16:00Z</time>
      </trkpt>
      <trkpt lat="43.21919" lon="5.69438">
        <ele>201.8</ele>
        <time>2014-01-15T09:16:01Z</time>
      </trkpt>
      <trkpt lat="43.21914" lon="5.69448">
        <ele>200.8</ele>
        <time>2014-01-15T09:16:54Z</time>
      </trkpt>
      <trkpt lat="43.21912" lon="5.69453">
        <ele>201.3</ele>
        <time>2014-01-15T09:17:02Z</time>
      </trkpt>
      <trkpt lat="43.21912" lon="5.69454">
        <ele>201.3</ele>
        <time>2014-01-15T09:17:03Z</time>
      </trkpt>
      <trkpt lat="43.21908" lon="5.69462">
        <ele>201.1</ele>
        <time>2014-01-15T09:17:12Z</time>
      </trkpt>
      <trkpt lat="43.21905" lon="5.69467">
        <ele>202.1</ele>
        <time>2014-01-15T09:17:18Z</time>
      </trkpt>
      <trkpt lat="43.21902" lon="5.69468">
        <ele>203.8</ele>
        <time>2014-01-15T09:17:24Z</time>
      </trkpt>
      <trkpt lat="43.21898" lon="5.6947">
        <ele>204.8</ele>
        <time>2014-01-15T09:17:30Z</time>
      </trkpt>
      <trkpt lat="43.21894" lon="5.69473">
        <ele>205.5</ele>
        <time>2014-01-15T09:17:36Z</time>
      </trkpt>
      <trkpt lat="43.2189" lon="5.69475">
        <ele>206.1</ele>
        <time>2014-01-15T09:17:42Z</time>
      </trkpt>
      <trkpt lat="43.21886" lon="5.69476">
        <ele>206.8</ele>
        <time>2014-01-15T09:17:47Z</time>
      </trkpt>
      <trkpt lat="43.21882" lon="5.69479">
        <ele>207.3</ele>
        <time>2014-01-15T09:17:52Z</time>
      </trkpt>
      <trkpt lat="43.21879" lon="5.69481">
        <ele>207.1</ele>
        <time>2014-01-15T09:17:57Z</time>
      </trkpt>
      <trkpt lat="43.21875" lon="5.69483">
        <ele>207.6</ele>
        <time>2014-01-15T09:18:02Z</time>
      </trkpt>
      <trkpt lat="43.21871" lon="5.69486">
        <ele>207.1</ele>
        <time>2014-01-15T09:18:07Z</time>
      </trkpt>
      <trkpt lat="43.2187" lon="5.69486">
        <ele>207.1</ele>
        <time>2014-01-15T09:18:08Z</time>
      </trkpt>
      <trkpt lat="43.21864" lon="5.69486">
        <ele>206.8</ele>
        <time>2014-01-15T09:18:14Z</time>
      </trkpt>
      <trkpt lat="43.2186" lon="5.69486">
        <ele>206.6</ele>
        <time>2014-01-15T09:18:17Z</time>
      </trkpt>
      <trkpt lat="43.21856" lon="5.69487">
        <ele>206.5</ele>
        <time>2014-01-15T09:18:21Z</time>
      </trkpt>
      <trkpt lat="43.21852" lon="5.69486">
        <ele>206.1</ele>
        <time>2014-01-15T09:18:25Z</time>
      </trkpt>
      <trkpt lat="43.21848" lon="5.69486">
        <ele>205.8</ele>
        <time>2014-01-15T09:18:29Z</time>
      </trkpt>
      <trkpt lat="43.21845" lon="5.69485">
        <ele>205.6</ele>
        <time>2014-01-15T09:18:32Z</time>
      </trkpt>
      <trkpt lat="43.2184" lon="5.69485">
        <ele>205.6</ele>
        <time>2014-01-15T09:18:36Z</time>
      </trkpt>
      <trkpt lat="43.21837" lon="5.69485">
        <ele>205.6</ele>
        <time>2014-01-15T09:18:39Z</time>
      </trkpt>
      <trkpt lat="43.21833" lon="5.69485">
        <ele>205.8</ele>
        <time>2014-01-15T09:18:43Z</time>
      </trkpt>
      <trkpt lat="43.21828" lon="5.69485">
        <ele>205.6</ele>
        <time>2014-01-15T09:18:48Z</time>
      </trkpt>
      <trkpt lat="43.21824" lon="5.69486">
        <ele>205.8</ele>
        <time>2014-01-15T09:18:52Z</time>
      </trkpt>
      <trkpt lat="43.21821" lon="5.69487">
        <ele>205.8</ele>
        <time>2014-01-15T09:18:56Z</time>
      </trkpt>
      <trkpt lat="43.21817" lon="5.69488">
        <ele>206.3</ele>
        <time>2014-01-15T09:19:00Z</time>
      </trkpt>
      <trkpt lat="43.21813" lon="5.6949">
        <ele>206.8</ele>
        <time>2014-01-15T09:19:04Z</time>
      </trkpt>
      <trkpt lat="43.21809" lon="5.69491">
        <ele>206.8</ele>
        <time>2014-01-15T09:19:08Z</time>
      </trkpt>
      <trkpt lat="43.21808" lon="5.69491">
        <ele>206.8</ele>
        <time>2014-01-15T09:19:09Z</time>
      </trkpt>
      <trkpt lat="43.21801" lon="5.69494">
        <ele>206.8</ele>
        <time>2014-01-15T09:19:16Z</time>
      </trkpt>
      <trkpt lat="43.21797" lon="5.69495">
        <ele>206.8</ele>
        <time>2014-01-15T09:19:19Z</time>
      </trkpt>
      <trkpt lat="43.21793" lon="5.69496">
        <ele>206.6</ele>
        <time>2014-01-15T09:19:23Z</time>
      </trkpt>
      <trkpt lat="43.21789" lon="5.69496">
        <ele>206.6</ele>
        <time>2014-01-15T09:19:26Z</time>
      </trkpt>
      <trkpt lat="43.21786" lon="5.69497">
        <ele>206.5</ele>
        <time>2014-01-15T09:19:29Z</time>
      </trkpt>
      <trkpt lat="43.21782" lon="5.69498">
        <ele>206.8</ele>
        <time>2014-01-15T09:19:32Z</time>
      </trkpt>
      <trkpt lat="43.21778" lon="5.69499">
        <ele>207.5</ele>
        <time>2014-01-15T09:19:36Z</time>
      </trkpt>
      <trkpt lat="43.21774" lon="5.695">
        <ele>207.8</ele>
        <time>2014-01-15T09:19:40Z</time>
      </trkpt>
      <trkpt lat="43.21771" lon="5.69499">
        <ele>207.6</ele>
        <time>2014-01-15T09:19:43Z</time>
      </trkpt>
      <trkpt lat="43.21767" lon="5.69498">
        <ele>207.6</ele>
        <time>2014-01-15T09:19:46Z</time>
      </trkpt>
      <trkpt lat="43.21763" lon="5.69497">
        <ele>207.8</ele>
        <time>2014-01-15T09:19:49Z</time>
      </trkpt>
      <trkpt lat="43.21759" lon="5.69497">
        <ele>207.6</ele>
        <time>2014-01-15T09:19:53Z</time>
      </trkpt>
      <trkpt lat="43.21755" lon="5.69496">
        <ele>207.5</ele>
        <time>2014-01-15T09:19:56Z</time>
      </trkpt>
      <trkpt lat="43.21752" lon="5.69497">
        <ele>207.3</ele>
        <time>2014-01-15T09:19:59Z</time>
      </trkpt>
      <trkpt lat="43.21748" lon="5.69497">
        <ele>206.8</ele>
        <time>2014-01-15T09:20:03Z</time>
      </trkpt>
      <trkpt lat="43.21744" lon="5.69496">
        <ele>206.6</ele>
        <time>2014-01-15T09:20:06Z</time>
      </trkpt>
      <trkpt lat="43.21741" lon="5.69496">
        <ele>206.1</ele>
        <time>2014-01-15T09:20:09Z</time>
      </trkpt>
      <trkpt lat="43.21739" lon="5.69496">
        <ele>205.8</ele>
        <time>2014-01-15T09:20:10Z</time>
      </trkpt>
      <trkpt lat="43.21733" lon="5.69496">
        <ele>204.3</ele>
        <time>2014-01-15T09:20:16Z</time>
      </trkpt>
      <trkpt lat="43.21729" lon="5.69497">
        <ele>204.1</ele>
        <time>2014-01-15T09:20:20Z</time>
      </trkpt>
      <trkpt lat="43.21726" lon="5.69497">
        <ele>204.3</ele>
        <time>2014-01-15T09:20:23Z</time>
      </trkpt>
      <trkpt lat="43.21721" lon="5.69497">
        <ele>203.8</ele>
        <time>2014-01-15T09:20:27Z</time>
      </trkpt>
      <trkpt lat="43.21717" lon="5.69497">
        <ele>203.3</ele>
        <time>2014-01-15T09:20:31Z</time>
      </trkpt>
      <trkpt lat="43.21713" lon="5.69496">
        <ele>202.8</ele>
        <time>2014-01-15T09:20:35Z</time>
      </trkpt>
      <trkpt lat="43.2171" lon="5.69493">
        <ele>202.3</ele>
        <time>2014-01-15T09:20:39Z</time>
      </trkpt>
      <trkpt lat="43.21706" lon="5.69491">
        <ele>201.8</ele>
        <time>2014-01-15T09:20:43Z</time>
      </trkpt>
      <trkpt lat="43.21702" lon="5.6949">
        <ele>201.3</ele>
        <time>2014-01-15T09:20:48Z</time>
      </trkpt>
      <trkpt lat="43.21699" lon="5.69488">
        <ele>200.8</ele>
        <time>2014-01-15T09:20:52Z</time>
      </trkpt>
      <trkpt lat="43.21695" lon="5.69487">
        <ele>200.5</ele>
        <time>2014-01-15T09:20:56Z</time>
      </trkpt>
      <trkpt lat="43.21691" lon="5.69486">
        <ele>199.1</ele>
        <time>2014-01-15T09:21:02Z</time>
      </trkpt>
      <trkpt lat="43.21687" lon="5.69484">
        <ele>198.1</ele>
        <time>2014-01-15T09:21:06Z</time>
      </trkpt>
      <trkpt lat="43.21683" lon="5.69486">
        <ele>198.1</ele>
        <time>2014-01-15T09:21:12Z</time>
      </trkpt>
      <trkpt lat="43.21682" lon="5.69487">
        <ele>198.3</ele>
        <time>2014-01-15T09:21:13Z</time>
      </trkpt>
      <trkpt lat="43.21676" lon="5.69489">
        <ele>195.8</ele>
        <time>2014-01-15T09:21:23Z</time>
      </trkpt>
      <trkpt lat="43.21672" lon="5.69488">
        <ele>195.3</ele>
        <time>2014-01-15T09:21:27Z</time>
      </trkpt>
      <trkpt lat="43.21669" lon="5.69484">
        <ele>195.3</ele>
        <time>2014-01-15T09:21:38Z</time>
      </trkpt>
      <trkpt lat="43.21667" lon="5.69479">
        <ele>197.5</ele>
        <time>2014-01-15T09:22:25Z</time>
      </trkpt>
      <trkpt lat="43.21667" lon="5.69478">
        <ele>197.5</ele>
        <time>2014-01-15T09:22:26Z</time>
      </trkpt>
      <trkpt lat="43.21662" lon="5.69487">
        <ele>193</ele>
        <time>2014-01-15T09:23:06Z</time>
      </trkpt>
      <trkpt lat="43.21662" lon="5.69493">
        <ele>192.3</ele>
        <time>2014-01-15T09:23:11Z</time>
      </trkpt>
      <trkpt lat="43.21664" lon="5.69498">
        <ele>191.3</ele>
        <time>2014-01-15T09:23:17Z</time>
      </trkpt>
      <trkpt lat="43.21665" lon="5.69504">
        <ele>190.3</ele>
        <time>2014-01-15T09:23:24Z</time>
      </trkpt>
      <trkpt lat="43.21666" lon="5.69509">
        <ele>190.3</ele>
        <time>2014-01-15T09:23:29Z</time>
      </trkpt>
      <trkpt lat="43.21666" lon="5.6951">
        <ele>190.3</ele>
        <time>2014-01-15T09:23:30Z</time>
      </trkpt>
      <trkpt lat="43.21669" lon="5.69519">
        <ele>189.3</ele>
        <time>2014-01-15T09:23:38Z</time>
      </trkpt>
      <trkpt lat="43.2167" lon="5.69525">
        <ele>189.1</ele>
        <time>2014-01-15T09:23:42Z</time>
      </trkpt>
      <trkpt lat="43.2167" lon="5.69531">
        <ele>189.8</ele>
        <time>2014-01-15T09:23:45Z</time>
      </trkpt>
      <trkpt lat="43.21671" lon="5.69536">
        <ele>191.1</ele>
        <time>2014-01-15T09:23:48Z</time>
      </trkpt>
      <trkpt lat="43.21671" lon="5.69542">
        <ele>192.3</ele>
        <time>2014-01-15T09:23:52Z</time>
      </trkpt>
      <trkpt lat="43.21674" lon="5.69547">
        <ele>190.8</ele>
        <time>2014-01-15T09:23:58Z</time>
      </trkpt>
      <trkpt lat="43.21677" lon="5.6955">
        <ele>188.6</ele>
        <time>2014-01-15T09:24:04Z</time>
      </trkpt>
      <trkpt lat="43.21679" lon="5.69555">
        <ele>187.6</ele>
        <time>2014-01-15T09:24:09Z</time>
      </trkpt>
      <trkpt lat="43.2168" lon="5.6956">
        <ele>187.6</ele>
        <time>2014-01-15T09:24:13Z</time>
      </trkpt>
      <trkpt lat="43.21682" lon="5.69565">
        <ele>186.8</ele>
        <time>2014-01-15T09:24:18Z</time>
      </trkpt>
      <trkpt lat="43.21684" lon="5.6957">
        <ele>186.3</ele>
        <time>2014-01-15T09:24:22Z</time>
      </trkpt>
      <trkpt lat="43.21685" lon="5.69575">
        <ele>186.1</ele>
        <time>2014-01-15T09:24:25Z</time>
      </trkpt>
      <trkpt lat="43.21686" lon="5.6958">
        <ele>187.8</ele>
        <time>2014-01-15T09:24:29Z</time>
      </trkpt>
      <trkpt lat="43.21689" lon="5.69584">
        <ele>187.3</ele>
        <time>2014-01-15T09:24:34Z</time>
      </trkpt>
      <trkpt lat="43.21689" lon="5.69585">
        <ele>187.3</ele>
        <time>2014-01-15T09:24:35Z</time>
      </trkpt>
      <trkpt lat="43.21691" lon="5.69594">
        <ele>188.8</ele>
        <time>2014-01-15T09:24:39Z</time>
      </trkpt>
      <trkpt lat="43.21691" lon="5.696">
        <ele>190.6</ele>
        <time>2014-01-15T09:24:42Z</time>
      </trkpt>
      <trkpt lat="43.21693" lon="5.69605">
        <ele>191.5</ele>
        <time>2014-01-15T09:24:46Z</time>
      </trkpt>
      <trkpt lat="43.21695" lon="5.6961">
        <ele>191.1</ele>
        <time>2014-01-15T09:24:50Z</time>
      </trkpt>
      <trkpt lat="43.21696" lon="5.69615">
        <ele>191.5</ele>
        <time>2014-01-15T09:24:54Z</time>
      </trkpt>
      <trkpt lat="43.21696" lon="5.6962">
        <ele>192.1</ele>
        <time>2014-01-15T09:24:56Z</time>
      </trkpt>
      <trkpt lat="43.21698" lon="5.69625">
        <ele>192.6</ele>
        <time>2014-01-15T09:24:59Z</time>
      </trkpt>
      <trkpt lat="43.21699" lon="5.69629">
        <ele>192.5</ele>
        <time>2014-01-15T09:25:02Z</time>
      </trkpt>
      <trkpt lat="43.217" lon="5.69634">
        <ele>192.3</ele>
        <time>2014-01-15T09:25:06Z</time>
      </trkpt>
      <trkpt lat="43.21701" lon="5.6964">
        <ele>193</ele>
        <time>2014-01-15T09:25:10Z</time>
      </trkpt>
      <trkpt lat="43.21701" lon="5.69645">
        <ele>194</ele>
        <time>2014-01-15T09:25:13Z</time>
      </trkpt>
      <trkpt lat="43.21701" lon="5.69651">
        <ele>194.6</ele>
        <time>2014-01-15T09:25:17Z</time>
      </trkpt>
      <trkpt lat="43.21701" lon="5.69656">
        <ele>194.8</ele>
        <time>2014-01-15T09:25:21Z</time>
      </trkpt>
      <trkpt lat="43.217" lon="5.69662">
        <ele>194.3</ele>
        <time>2014-01-15T09:25:25Z</time>
      </trkpt>
      <trkpt lat="43.21699" lon="5.69667">
        <ele>194.1</ele>
        <time>2014-01-15T09:25:28Z</time>
      </trkpt>
      <trkpt lat="43.21698" lon="5.69673">
        <ele>194.5</ele>
        <time>2014-01-15T09:25:34Z</time>
      </trkpt>
      <trkpt lat="43.21696" lon="5.69678">
        <ele>194.1</ele>
        <time>2014-01-15T09:25:38Z</time>
      </trkpt>
      <trkpt lat="43.21696" lon="5.6968">
        <ele>193.6</ele>
        <time>2014-01-15T09:25:39Z</time>
      </trkpt>
      <trkpt lat="43.21691" lon="5.69687">
        <ele>194.3</ele>
        <time>2014-01-15T09:25:45Z</time>
      </trkpt>
      <trkpt lat="43.21688" lon="5.69688">
        <ele>193.6</ele>
        <time>2014-01-15T09:25:54Z</time>
      </trkpt>
      <trkpt lat="43.21684" lon="5.69686">
        <ele>194.3</ele>
        <time>2014-01-15T09:26:14Z</time>
      </trkpt>
      <trkpt lat="43.21682" lon="5.69681">
        <ele>195.8</ele>
        <time>2014-01-15T09:26:22Z</time>
      </trkpt>
      <trkpt lat="43.21681" lon="5.69675">
        <ele>194.1</ele>
        <time>2014-01-15T09:26:30Z</time>
      </trkpt>
      <trkpt lat="43.21678" lon="5.6967">
        <ele>193.5</ele>
        <time>2014-01-15T09:26:38Z</time>
      </trkpt>
      <trkpt lat="43.21677" lon="5.69665">
        <ele>193.6</ele>
        <time>2014-01-15T09:26:46Z</time>
      </trkpt>
      <trkpt lat="43.21676" lon="5.69664">
        <ele>193.8</ele>
        <time>2014-01-15T09:26:47Z</time>
      </trkpt>
      <trkpt lat="43.21671" lon="5.69658">
        <ele>196.3</ele>
        <time>2014-01-15T09:26:58Z</time>
      </trkpt>
      <trkpt lat="43.21668" lon="5.69654">
        <ele>198.6</ele>
        <time>2014-01-15T09:27:04Z</time>
      </trkpt>
      <trkpt lat="43.21665" lon="5.69651">
        <ele>199.5</ele>
        <time>2014-01-15T09:27:12Z</time>
      </trkpt>
      <trkpt lat="43.2166" lon="5.69651">
        <ele>199.1</ele>
        <time>2014-01-15T09:27:19Z</time>
      </trkpt>
      <trkpt lat="43.21656" lon="5.69651">
        <ele>198.1</ele>
        <time>2014-01-15T09:27:25Z</time>
      </trkpt>
      <trkpt lat="43.21653" lon="5.6965">
        <ele>198.3</ele>
        <time>2014-01-15T09:27:31Z</time>
      </trkpt>
      <trkpt lat="43.21649" lon="5.6965">
        <ele>197.8</ele>
        <time>2014-01-15T09:27:35Z</time>
      </trkpt>
      <trkpt lat="43.21645" lon="5.69648">
        <ele>195.8</ele>
        <time>2014-01-15T09:27:41Z</time>
      </trkpt>
      <trkpt lat="43.21642" lon="5.69645">
        <ele>196</ele>
        <time>2014-01-15T09:27:46Z</time>
      </trkpt>
      <trkpt lat="43.2164" lon="5.69641">
        <ele>199.3</ele>
        <time>2014-01-15T09:27:50Z</time>
      </trkpt>
      <trkpt lat="43.21639" lon="5.69639">
        <ele>200.1</ele>
        <time>2014-01-15T09:27:51Z</time>
      </trkpt>
      <trkpt lat="43.21634" lon="5.69634">
        <ele>202</ele>
        <time>2014-01-15T09:27:57Z</time>
      </trkpt>
      <trkpt lat="43.21631" lon="5.6963">
        <ele>203</ele>
        <time>2014-01-15T09:28:02Z</time>
      </trkpt>
      <trkpt lat="43.21628" lon="5.69627">
        <ele>204.3</ele>
        <time>2014-01-15T09:28:07Z</time>
      </trkpt>
      <trkpt lat="43.21624" lon="5.69625">
        <ele>204.3</ele>
        <time>2014-01-15T09:28:12Z</time>
      </trkpt>
      <trkpt lat="43.2162" lon="5.69622">
        <ele>203.8</ele>
        <time>2014-01-15T09:28:20Z</time>
      </trkpt>
      <trkpt lat="43.21616" lon="5.69621">
        <ele>205.5</ele>
        <time>2014-01-15T09:28:26Z</time>
      </trkpt>
      <trkpt lat="43.21613" lon="5.69618">
        <ele>206.8</ele>
        <time>2014-01-15T09:28:32Z</time>
      </trkpt>
      <trkpt lat="43.21609" lon="5.69616">
        <ele>207.5</ele>
        <time>2014-01-15T09:28:37Z</time>
      </trkpt>
      <trkpt lat="43.21605" lon="5.69617">
        <ele>207.8</ele>
        <time>2014-01-15T09:28:43Z</time>
      </trkpt>
      <trkpt lat="43.21601" lon="5.69621">
        <ele>208</ele>
        <time>2014-01-15T09:28:49Z</time>
      </trkpt>
      <trkpt lat="43.21598" lon="5.69625">
        <ele>208.5</ele>
        <time>2014-01-15T09:28:54Z</time>
      </trkpt>
      <trkpt lat="43.21597" lon="5.69626">
        <ele>208.6</ele>
        <time>2014-01-15T09:28:55Z</time>
      </trkpt>
      <trkpt lat="43.21591" lon="5.69632">
        <ele>213.1</ele>
        <time>2014-01-15T09:29:05Z</time>
      </trkpt>
      <trkpt lat="43.21588" lon="5.69636">
        <ele>215</ele>
        <time>2014-01-15T09:29:32Z</time>
      </trkpt>
      <trkpt lat="43.2159" lon="5.69642">
        <ele>214.1</ele>
        <time>2014-01-15T09:29:45Z</time>
      </trkpt>
      <trkpt lat="43.2159" lon="5.69648">
        <ele>213</ele>
        <time>2014-01-15T09:29:55Z</time>
      </trkpt>
      <trkpt lat="43.21589" lon="5.69648">
        <ele>213.1</ele>
        <time>2014-01-15T09:29:56Z</time>
      </trkpt>
      <trkpt lat="43.21587" lon="5.69659">
        <ele>213.8</ele>
        <time>2014-01-15T09:30:08Z</time>
      </trkpt>
      <trkpt lat="43.21585" lon="5.69664">
        <ele>214.1</ele>
        <time>2014-01-15T09:30:13Z</time>
      </trkpt>
      <trkpt lat="43.21584" lon="5.69669">
        <ele>214</ele>
        <time>2014-01-15T09:30:17Z</time>
      </trkpt>
      <trkpt lat="43.21583" lon="5.69674">
        <ele>213.6</ele>
        <time>2014-01-15T09:30:21Z</time>
      </trkpt>
      <trkpt lat="43.21582" lon="5.6968">
        <ele>214.1</ele>
        <time>2014-01-15T09:30:26Z</time>
      </trkpt>
      <trkpt lat="43.21582" lon="5.69685">
        <ele>214.6</ele>
        <time>2014-01-15T09:30:30Z</time>
      </trkpt>
      <trkpt lat="43.21581" lon="5.6969">
        <ele>214.8</ele>
        <time>2014-01-15T09:30:33Z</time>
      </trkpt>
      <trkpt lat="43.2158" lon="5.69696">
        <ele>215.3</ele>
        <time>2014-01-15T09:30:37Z</time>
      </trkpt>
      <trkpt lat="43.21578" lon="5.69701">
        <ele>215.6</ele>
        <time>2014-01-15T09:30:41Z</time>
      </trkpt>
      <trkpt lat="43.21578" lon="5.69706">
        <ele>215.6</ele>
        <time>2014-01-15T09:30:44Z</time>
      </trkpt>
      <trkpt lat="43.21578" lon="5.69711">
        <ele>215.8</ele>
        <time>2014-01-15T09:30:47Z</time>
      </trkpt>
      <trkpt lat="43.21578" lon="5.69716">
        <ele>216.3</ele>
        <time>2014-01-15T09:30:51Z</time>
      </trkpt>
      <trkpt lat="43.21578" lon="5.69722">
        <ele>216.8</ele>
        <time>2014-01-15T09:30:55Z</time>
      </trkpt>
      <trkpt lat="43.21579" lon="5.69727">
        <ele>217.5</ele>
        <time>2014-01-15T09:30:58Z</time>
      </trkpt>
      <trkpt lat="43.21579" lon="5.69728">
        <ele>217.5</ele>
        <time>2014-01-15T09:30:59Z</time>
      </trkpt>
      <trkpt lat="43.21579" lon="5.69738">
        <ele>217.8</ele>
        <time>2014-01-15T09:31:06Z</time>
      </trkpt>
      <trkpt lat="43.21579" lon="5.69743">
        <ele>217.8</ele>
        <time>2014-01-15T09:31:09Z</time>
      </trkpt>
      <trkpt lat="43.21578" lon="5.69747">
        <ele>217.8</ele>
        <time>2014-01-15T09:31:12Z</time>
      </trkpt>
      <trkpt lat="43.21578" lon="5.69752">
        <ele>217.5</ele>
        <time>2014-01-15T09:31:15Z</time>
      </trkpt>
      <trkpt lat="43.21576" lon="5.69758">
        <ele>216.8</ele>
        <time>2014-01-15T09:31:19Z</time>
      </trkpt>
      <trkpt lat="43.21574" lon="5.69761">
        <ele>216.3</ele>
        <time>2014-01-15T09:31:22Z</time>
      </trkpt>
      <trkpt lat="43.21571" lon="5.69765">
        <ele>216.3</ele>
        <time>2014-01-15T09:31:26Z</time>
      </trkpt>
      <trkpt lat="43.21569" lon="5.69769">
        <ele>216.5</ele>
        <time>2014-01-15T09:31:30Z</time>
      </trkpt>
      <trkpt lat="43.21566" lon="5.69774">
        <ele>216.3</ele>
        <time>2014-01-15T09:31:34Z</time>
      </trkpt>
      <trkpt lat="43.21564" lon="5.69778">
        <ele>216.1</ele>
        <time>2014-01-15T09:31:38Z</time>
      </trkpt>
      <trkpt lat="43.21561" lon="5.69782">
        <ele>215.6</ele>
        <time>2014-01-15T09:31:42Z</time>
      </trkpt>
      <trkpt lat="43.21559" lon="5.69787">
        <ele>215</ele>
        <time>2014-01-15T09:31:47Z</time>
      </trkpt>
      <trkpt lat="43.21558" lon="5.69793">
        <ele>214.3</ele>
        <time>2014-01-15T09:31:51Z</time>
      </trkpt>
      <trkpt lat="43.21557" lon="5.69798">
        <ele>213.8</ele>
        <time>2014-01-15T09:31:56Z</time>
      </trkpt>
      <trkpt lat="43.21555" lon="5.69804">
        <ele>212.6</ele>
        <time>2014-01-15T09:32:01Z</time>
      </trkpt>
      <trkpt lat="43.21555" lon="5.69805">
        <ele>212.6</ele>
        <time>2014-01-15T09:32:02Z</time>
      </trkpt>
      <trkpt lat="43.21553" lon="5.69814">
        <ele>211.3</ele>
        <time>2014-01-15T09:32:11Z</time>
      </trkpt>
      <trkpt lat="43.21551" lon="5.69818">
        <ele>210.1</ele>
        <time>2014-01-15T09:32:16Z</time>
      </trkpt>
      <trkpt lat="43.21549" lon="5.69823">
        <ele>209.5</ele>
        <time>2014-01-15T09:32:20Z</time>
      </trkpt>
      <trkpt lat="43.21549" lon="5.69829">
        <ele>210</ele>
        <time>2014-01-15T09:32:24Z</time>
      </trkpt>
      <trkpt lat="43.21549" lon="5.69834">
        <ele>209.1</ele>
        <time>2014-01-15T09:32:31Z</time>
      </trkpt>
      <trkpt lat="43.21549" lon="5.69839">
        <ele>208.6</ele>
        <time>2014-01-15T09:32:40Z</time>
      </trkpt>
      <trkpt lat="43.21546" lon="5.69844">
        <ele>210.5</ele>
        <time>2014-01-15T09:33:07Z</time>
      </trkpt>
      <trkpt lat="43.21546" lon="5.69845">
        <ele>210.5</ele>
        <time>2014-01-15T09:33:08Z</time>
      </trkpt>
      <trkpt lat="43.21542" lon="5.69846">
        <ele>214.8</ele>
        <time>2014-01-15T09:36:22Z</time>
      </trkpt>
      <trkpt lat="43.21547" lon="5.69847">
        <ele>209.6</ele>
        <time>2014-01-15T09:37:31Z</time>
      </trkpt>
      <trkpt lat="43.21539" lon="5.69845">
        <ele>204.8</ele>
        <time>2014-01-15T09:38:19Z</time>
      </trkpt>
      <trkpt lat="43.21536" lon="5.69846">
        <ele>203.5</ele>
        <time>2014-01-15T09:38:23Z</time>
      </trkpt>
      <trkpt lat="43.21531" lon="5.69847">
        <ele>202.3</ele>
        <time>2014-01-15T09:38:28Z</time>
      </trkpt>
      <trkpt lat="43.21528" lon="5.69848">
        <ele>202</ele>
        <time>2014-01-15T09:38:33Z</time>
      </trkpt>
      <trkpt lat="43.21527" lon="5.69849">
        <ele>201.8</ele>
        <time>2014-01-15T09:38:34Z</time>
      </trkpt>
      <trkpt lat="43.21521" lon="5.69852">
        <ele>200.6</ele>
        <time>2014-01-15T09:38:40Z</time>
      </trkpt>
      <trkpt lat="43.21517" lon="5.69853">
        <ele>200.3</ele>
        <time>2014-01-15T09:38:43Z</time>
      </trkpt>
      <trkpt lat="43.21514" lon="5.69856">
        <ele>199.1</ele>
        <time>2014-01-15T09:38:47Z</time>
      </trkpt>
      <trkpt lat="43.2151" lon="5.69858">
        <ele>198.3</ele>
        <time>2014-01-15T09:38:51Z</time>
      </trkpt>
      <trkpt lat="43.21507" lon="5.69862">
        <ele>197.8</ele>
        <time>2014-01-15T09:38:55Z</time>
      </trkpt>
      <trkpt lat="43.21504" lon="5.69867">
        <ele>197.1</ele>
        <time>2014-01-15T09:38:59Z</time>
      </trkpt>
      <trkpt lat="43.21502" lon="5.69871">
        <ele>196.3</ele>
        <time>2014-01-15T09:39:03Z</time>
      </trkpt>
      <trkpt lat="43.21498" lon="5.69874">
        <ele>198.6</ele>
        <time>2014-01-15T09:39:08Z</time>
      </trkpt>
      <trkpt lat="43.21495" lon="5.69878">
        <ele>199.5</ele>
        <time>2014-01-15T09:39:35Z</time>
      </trkpt>
      <trkpt lat="43.21495" lon="5.69879">
        <ele>199.1</ele>
        <time>2014-01-15T09:39:36Z</time>
      </trkpt>
      <trkpt lat="43.21492" lon="5.69889">
        <ele>197.6</ele>
        <time>2014-01-15T09:39:45Z</time>
      </trkpt>
      <trkpt lat="43.21491" lon="5.69894">
        <ele>197.1</ele>
        <time>2014-01-15T09:39:49Z</time>
      </trkpt>
      <trkpt lat="43.21489" lon="5.69899">
        <ele>196.6</ele>
        <time>2014-01-15T09:39:53Z</time>
      </trkpt>
      <trkpt lat="43.21487" lon="5.69903">
        <ele>196.6</ele>
        <time>2014-01-15T09:39:57Z</time>
      </trkpt>
      <trkpt lat="43.21485" lon="5.69907">
        <ele>196.5</ele>
        <time>2014-01-15T09:40:01Z</time>
      </trkpt>
      <trkpt lat="43.21482" lon="5.69911">
        <ele>196.1</ele>
        <time>2014-01-15T09:40:04Z</time>
      </trkpt>
      <trkpt lat="43.2148" lon="5.69914">
        <ele>195.8</ele>
        <time>2014-01-15T09:40:07Z</time>
      </trkpt>
      <trkpt lat="43.21477" lon="5.69917">
        <ele>195.1</ele>
        <time>2014-01-15T09:40:10Z</time>
      </trkpt>
      <trkpt lat="43.21474" lon="5.6992">
        <ele>193.8</ele>
        <time>2014-01-15T09:40:13Z</time>
      </trkpt>
      <trkpt lat="43.21471" lon="5.69924">
        <ele>193</ele>
        <time>2014-01-15T09:40:17Z</time>
      </trkpt>
      <trkpt lat="43.21468" lon="5.69927">
        <ele>192.5</ele>
        <time>2014-01-15T09:40:20Z</time>
      </trkpt>
      <trkpt lat="43.21465" lon="5.69929">
        <ele>193.8</ele>
        <time>2014-01-15T09:40:23Z</time>
      </trkpt>
      <trkpt lat="43.21461" lon="5.69932">
        <ele>193.5</ele>
        <time>2014-01-15T09:40:27Z</time>
      </trkpt>
      <trkpt lat="43.21459" lon="5.69935">
        <ele>192.8</ele>
        <time>2014-01-15T09:40:30Z</time>
      </trkpt>
      <trkpt lat="43.21455" lon="5.69938">
        <ele>192.1</ele>
        <time>2014-01-15T09:40:33Z</time>
      </trkpt>
      <trkpt lat="43.21453" lon="5.6994">
        <ele>191.3</ele>
        <time>2014-01-15T09:40:36Z</time>
      </trkpt>
      <trkpt lat="43.21452" lon="5.69941">
        <ele>191.3</ele>
        <time>2014-01-15T09:40:37Z</time>
      </trkpt>
      <trkpt lat="43.21446" lon="5.69946">
        <ele>191.8</ele>
        <time>2014-01-15T09:40:43Z</time>
      </trkpt>
      <trkpt lat="43.21444" lon="5.6995">
        <ele>191.5</ele>
        <time>2014-01-15T09:40:46Z</time>
      </trkpt>
      <trkpt lat="43.21441" lon="5.69953">
        <ele>191.3</ele>
        <time>2014-01-15T09:40:49Z</time>
      </trkpt>
      <trkpt lat="43.21439" lon="5.69957">
        <ele>191.3</ele>
        <time>2014-01-15T09:40:52Z</time>
      </trkpt>
      <trkpt lat="43.21437" lon="5.69961">
        <ele>191</ele>
        <time>2014-01-15T09:40:55Z</time>
      </trkpt>
      <trkpt lat="43.21435" lon="5.69965">
        <ele>190.6</ele>
        <time>2014-01-15T09:40:58Z</time>
      </trkpt>
      <trkpt lat="43.21434" lon="5.6997">
        <ele>190.1</ele>
        <time>2014-01-15T09:41:01Z</time>
      </trkpt>
      <trkpt lat="43.21432" lon="5.69974">
        <ele>189.5</ele>
        <time>2014-01-15T09:41:04Z</time>
      </trkpt>
      <trkpt lat="43.21431" lon="5.69979">
        <ele>189.3</ele>
        <time>2014-01-15T09:41:07Z</time>
      </trkpt>
      <trkpt lat="43.21431" lon="5.69984">
        <ele>188.8</ele>
        <time>2014-01-15T09:41:10Z</time>
      </trkpt>
      <trkpt lat="43.21429" lon="5.69988">
        <ele>188.3</ele>
        <time>2014-01-15T09:41:13Z</time>
      </trkpt>
      <trkpt lat="43.21428" lon="5.69993">
        <ele>187.5</ele>
        <time>2014-01-15T09:41:16Z</time>
      </trkpt>
      <trkpt lat="43.21426" lon="5.69998">
        <ele>186.6</ele>
        <time>2014-01-15T09:41:19Z</time>
      </trkpt>
      <trkpt lat="43.21425" lon="5.70002">
        <ele>186.1</ele>
        <time>2014-01-15T09:41:22Z</time>
      </trkpt>
      <trkpt lat="43.21423" lon="5.70006">
        <ele>185.8</ele>
        <time>2014-01-15T09:41:25Z</time>
      </trkpt>
      <trkpt lat="43.21421" lon="5.7001">
        <ele>185.6</ele>
        <time>2014-01-15T09:41:28Z</time>
      </trkpt>
      <trkpt lat="43.2142" lon="5.70016">
        <ele>186.1</ele>
        <time>2014-01-15T09:41:32Z</time>
      </trkpt>
      <trkpt lat="43.21424" lon="5.7002">
        <ele>185.8</ele>
        <time>2014-01-15T09:41:36Z</time>
      </trkpt>
      <trkpt lat="43.21427" lon="5.70022">
        <ele>184.6</ele>
        <time>2014-01-15T09:41:41Z</time>
      </trkpt>
      <trkpt lat="43.21428" lon="5.70023">
        <ele>184.6</ele>
        <time>2014-01-15T09:41:42Z</time>
      </trkpt>
      <trkpt lat="43.21436" lon="5.70025">
        <ele>184.8</ele>
        <time>2014-01-15T09:42:02Z</time>
      </trkpt>
      <trkpt lat="43.2144" lon="5.70024">
        <ele>184.3</ele>
        <time>2014-01-15T09:42:09Z</time>
      </trkpt>
      <trkpt lat="43.21443" lon="5.7002">
        <ele>184</ele>
        <time>2014-01-15T09:42:14Z</time>
      </trkpt>
      <trkpt lat="43.21447" lon="5.70018">
        <ele>182.6</ele>
        <time>2014-01-15T09:42:20Z</time>
      </trkpt>
      <trkpt lat="43.21451" lon="5.70018">
        <ele>180.3</ele>
        <time>2014-01-15T09:42:27Z</time>
      </trkpt>
      <trkpt lat="43.21455" lon="5.70018">
        <ele>178.5</ele>
        <time>2014-01-15T09:42:32Z</time>
      </trkpt>
      <trkpt lat="43.21459" lon="5.70019">
        <ele>177.3</ele>
        <time>2014-01-15T09:42:36Z</time>
      </trkpt>
      <trkpt lat="43.21463" lon="5.70019">
        <ele>177.6</ele>
        <time>2014-01-15T09:42:39Z</time>
      </trkpt>
      <trkpt lat="43.21467" lon="5.70019">
        <ele>179.5</ele>
        <time>2014-01-15T09:42:43Z</time>
      </trkpt>
      <trkpt lat="43.21468" lon="5.70019">
        <ele>179.8</ele>
        <time>2014-01-15T09:42:44Z</time>
      </trkpt>
      <trkpt lat="43.21475" lon="5.70021">
        <ele>179.5</ele>
        <time>2014-01-15T09:42:55Z</time>
      </trkpt>
      <trkpt lat="43.21479" lon="5.70022">
        <ele>178.3</ele>
        <time>2014-01-15T09:43:00Z</time>
      </trkpt>
      <trkpt lat="43.21483" lon="5.70024">
        <ele>178</ele>
        <time>2014-01-15T09:43:05Z</time>
      </trkpt>
      <trkpt lat="43.21487" lon="5.70024">
        <ele>178.3</ele>
        <time>2014-01-15T09:43:08Z</time>
      </trkpt>
      <trkpt lat="43.21491" lon="5.70025">
        <ele>178.8</ele>
        <time>2014-01-15T09:43:11Z</time>
      </trkpt>
      <trkpt lat="43.21494" lon="5.70026">
        <ele>179.5</ele>
        <time>2014-01-15T09:43:14Z</time>
      </trkpt>
      <trkpt lat="43.21498" lon="5.70026">
        <ele>179.8</ele>
        <time>2014-01-15T09:43:17Z</time>
      </trkpt>
      <trkpt lat="43.21501" lon="5.70027">
        <ele>179.8</ele>
        <time>2014-01-15T09:43:20Z</time>
      </trkpt>
      <trkpt lat="43.21505" lon="5.70028">
        <ele>179.8</ele>
        <time>2014-01-15T09:43:24Z</time>
      </trkpt>
      <trkpt lat="43.21508" lon="5.70031">
        <ele>178.8</ele>
        <time>2014-01-15T09:43:28Z</time>
      </trkpt>
      <trkpt lat="43.21512" lon="5.70033">
        <ele>179</ele>
        <time>2014-01-15T09:43:32Z</time>
      </trkpt>
      <trkpt lat="43.21516" lon="5.70036">
        <ele>179.3</ele>
        <time>2014-01-15T09:43:35Z</time>
      </trkpt>
      <trkpt lat="43.21519" lon="5.7004">
        <ele>180</ele>
        <time>2014-01-15T09:43:39Z</time>
      </trkpt>
      <trkpt lat="43.21521" lon="5.70044">
        <ele>180.8</ele>
        <time>2014-01-15T09:43:43Z</time>
      </trkpt>
      <trkpt lat="43.21523" lon="5.70049">
        <ele>181.1</ele>
        <time>2014-01-15T09:43:47Z</time>
      </trkpt>
      <trkpt lat="43.21524" lon="5.7005">
        <ele>181.1</ele>
        <time>2014-01-15T09:43:48Z</time>
      </trkpt>
      <trkpt lat="43.21529" lon="5.70057">
        <ele>182.1</ele>
        <time>2014-01-15T09:43:55Z</time>
      </trkpt>
      <trkpt lat="43.21531" lon="5.70061">
        <ele>182.6</ele>
        <time>2014-01-15T09:43:59Z</time>
      </trkpt>
      <trkpt lat="43.21534" lon="5.70065">
        <ele>182.6</ele>
        <time>2014-01-15T09:44:02Z</time>
      </trkpt>
      <trkpt lat="43.21537" lon="5.70069">
        <ele>182.5</ele>
        <time>2014-01-15T09:44:05Z</time>
      </trkpt>
      <trkpt lat="43.21539" lon="5.70073">
        <ele>182.8</ele>
        <time>2014-01-15T09:44:08Z</time>
      </trkpt>
      <trkpt lat="43.21542" lon="5.70077">
        <ele>183.1</ele>
        <time>2014-01-15T09:44:11Z</time>
      </trkpt>
      <trkpt lat="43.21545" lon="5.70081">
        <ele>183.3</ele>
        <time>2014-01-15T09:44:14Z</time>
      </trkpt>
      <trkpt lat="43.21547" lon="5.70085">
        <ele>183.3</ele>
        <time>2014-01-15T09:44:17Z</time>
      </trkpt>
      <trkpt lat="43.21549" lon="5.70088">
        <ele>183.1</ele>
        <time>2014-01-15T09:44:20Z</time>
      </trkpt>
      <trkpt lat="43.21552" lon="5.70092">
        <ele>182.8</ele>
        <time>2014-01-15T09:44:23Z</time>
      </trkpt>
      <trkpt lat="43.21554" lon="5.70095">
        <ele>182.8</ele>
        <time>2014-01-15T09:44:26Z</time>
      </trkpt>
      <trkpt lat="43.21557" lon="5.70099">
        <ele>182.6</ele>
        <time>2014-01-15T09:44:29Z</time>
      </trkpt>
      <trkpt lat="43.2156" lon="5.70104">
        <ele>182.6</ele>
        <time>2014-01-15T09:44:33Z</time>
      </trkpt>
      <trkpt lat="43.21562" lon="5.70108">
        <ele>182.6</ele>
        <time>2014-01-15T09:44:36Z</time>
      </trkpt>
      <trkpt lat="43.21564" lon="5.70112">
        <ele>182.8</ele>
        <time>2014-01-15T09:44:40Z</time>
      </trkpt>
      <trkpt lat="43.21566" lon="5.70116">
        <ele>183.1</ele>
        <time>2014-01-15T09:44:43Z</time>
      </trkpt>
      <trkpt lat="43.21568" lon="5.7012">
        <ele>182.8</ele>
        <time>2014-01-15T09:44:46Z</time>
      </trkpt>
      <trkpt lat="43.21571" lon="5.70123">
        <ele>182.8</ele>
        <time>2014-01-15T09:44:49Z</time>
      </trkpt>
      <trkpt lat="43.21572" lon="5.70124">
        <ele>183</ele>
        <time>2014-01-15T09:44:50Z</time>
      </trkpt>
      <trkpt lat="43.21577" lon="5.70129">
        <ele>183</ele>
        <time>2014-01-15T09:44:55Z</time>
      </trkpt>
      <trkpt lat="43.2158" lon="5.70132">
        <ele>183.3</ele>
        <time>2014-01-15T09:44:58Z</time>
      </trkpt>
      <trkpt lat="43.21583" lon="5.70134">
        <ele>183.5</ele>
        <time>2014-01-15T09:45:01Z</time>
      </trkpt>
      <trkpt lat="43.21587" lon="5.70136">
        <ele>183.3</ele>
        <time>2014-01-15T09:45:05Z</time>
      </trkpt>
      <trkpt lat="43.2159" lon="5.70138">
        <ele>183.3</ele>
        <time>2014-01-15T09:45:08Z</time>
      </trkpt>
      <trkpt lat="43.21594" lon="5.70141">
        <ele>182.6</ele>
        <time>2014-01-15T09:45:13Z</time>
      </trkpt>
      <trkpt lat="43.21597" lon="5.70143">
        <ele>182.3</ele>
        <time>2014-01-15T09:45:16Z</time>
      </trkpt>
      <trkpt lat="43.21601" lon="5.70145">
        <ele>182.1</ele>
        <time>2014-01-15T09:45:19Z</time>
      </trkpt>
      <trkpt lat="43.21604" lon="5.70148">
        <ele>181.1</ele>
        <time>2014-01-15T09:45:23Z</time>
      </trkpt>
      <trkpt lat="43.21608" lon="5.70152">
        <ele>179.8</ele>
        <time>2014-01-15T09:45:27Z</time>
      </trkpt>
      <trkpt lat="43.2161" lon="5.70156">
        <ele>179.8</ele>
        <time>2014-01-15T09:45:30Z</time>
      </trkpt>
      <trkpt lat="43.21613" lon="5.70159">
        <ele>179.3</ele>
        <time>2014-01-15T09:45:33Z</time>
      </trkpt>
      <trkpt lat="43.21615" lon="5.70164">
        <ele>178.3</ele>
        <time>2014-01-15T09:45:37Z</time>
      </trkpt>
      <trkpt lat="43.21617" lon="5.7017">
        <ele>177.6</ele>
        <time>2014-01-15T09:45:41Z</time>
      </trkpt>
      <trkpt lat="43.21618" lon="5.70175">
        <ele>177.5</ele>
        <time>2014-01-15T09:45:44Z</time>
      </trkpt>
      <trkpt lat="43.21618" lon="5.70179">
        <ele>177.1</ele>
        <time>2014-01-15T09:45:47Z</time>
      </trkpt>
      <trkpt lat="43.2162" lon="5.70183">
        <ele>176.6</ele>
        <time>2014-01-15T09:45:50Z</time>
      </trkpt>
      <trkpt lat="43.2162" lon="5.70185">
        <ele>176.6</ele>
        <time>2014-01-15T09:45:51Z</time>
      </trkpt>
      <trkpt lat="43.21623" lon="5.70194">
        <ele>175.6</ele>
        <time>2014-01-15T09:45:58Z</time>
      </trkpt>
      <trkpt lat="43.21626" lon="5.70198">
        <ele>174.8</ele>
        <time>2014-01-15T09:46:02Z</time>
      </trkpt>
      <trkpt lat="43.21628" lon="5.70203">
        <ele>175.1</ele>
        <time>2014-01-15T09:46:06Z</time>
      </trkpt>
      <trkpt lat="43.21631" lon="5.70207">
        <ele>175.1</ele>
        <time>2014-01-15T09:46:10Z</time>
      </trkpt>
      <trkpt lat="43.21634" lon="5.70211">
        <ele>175</ele>
        <time>2014-01-15T09:46:14Z</time>
      </trkpt>
      <trkpt lat="43.21638" lon="5.70213">
        <ele>175</ele>
        <time>2014-01-15T09:46:18Z</time>
      </trkpt>
      <trkpt lat="43.21641" lon="5.70215">
        <ele>174.8</ele>
        <time>2014-01-15T09:46:22Z</time>
      </trkpt>
      <trkpt lat="43.21645" lon="5.70216">
        <ele>174.1</ele>
        <time>2014-01-15T09:46:28Z</time>
      </trkpt>
      <trkpt lat="43.2165" lon="5.70217">
        <ele>173.6</ele>
        <time>2014-01-15T09:46:33Z</time>
      </trkpt>
      <trkpt lat="43.21653" lon="5.70218">
        <ele>173.5</ele>
        <time>2014-01-15T09:46:37Z</time>
      </trkpt>
      <trkpt lat="43.21657" lon="5.7022">
        <ele>172.3</ele>
        <time>2014-01-15T09:46:42Z</time>
      </trkpt>
      <trkpt lat="43.21661" lon="5.70222">
        <ele>171.3</ele>
        <time>2014-01-15T09:46:46Z</time>
      </trkpt>
      <trkpt lat="43.21663" lon="5.70226">
        <ele>170.1</ele>
        <time>2014-01-15T09:46:50Z</time>
      </trkpt>
      <trkpt lat="43.21663" lon="5.70232">
        <ele>170.1</ele>
        <time>2014-01-15T09:46:54Z</time>
      </trkpt>
      <trkpt lat="43.21662" lon="5.70233">
        <ele>170</ele>
        <time>2014-01-15T09:46:55Z</time>
      </trkpt>
      <trkpt lat="43.2166" lon="5.70242">
        <ele>170.1</ele>
        <time>2014-01-15T09:47:01Z</time>
      </trkpt>
      <trkpt lat="43.21658" lon="5.70246">
        <ele>170.1</ele>
        <time>2014-01-15T09:47:04Z</time>
      </trkpt>
      <trkpt lat="43.21657" lon="5.70252">
        <ele>169.8</ele>
        <time>2014-01-15T09:47:08Z</time>
      </trkpt>
      <trkpt lat="43.21656" lon="5.70256">
        <ele>169.8</ele>
        <time>2014-01-15T09:47:11Z</time>
      </trkpt>
      <trkpt lat="43.21654" lon="5.70261">
        <ele>169.8</ele>
        <time>2014-01-15T09:47:14Z</time>
      </trkpt>
      <trkpt lat="43.21653" lon="5.70267">
        <ele>170.3</ele>
        <time>2014-01-15T09:47:18Z</time>
      </trkpt>
      <trkpt lat="43.21652" lon="5.70272">
        <ele>170.3</ele>
        <time>2014-01-15T09:47:23Z</time>
      </trkpt>
      <trkpt lat="43.21652" lon="5.70277">
        <ele>170.3</ele>
        <time>2014-01-15T09:47:27Z</time>
      </trkpt>
      <trkpt lat="43.21653" lon="5.70282">
        <ele>170.1</ele>
        <time>2014-01-15T09:47:31Z</time>
      </trkpt>
      <trkpt lat="43.21653" lon="5.70288">
        <ele>170.1</ele>
        <time>2014-01-15T09:47:36Z</time>
      </trkpt>
      <trkpt lat="43.21654" lon="5.70294">
        <ele>170.3</ele>
        <time>2014-01-15T09:47:40Z</time>
      </trkpt>
      <trkpt lat="43.21655" lon="5.703">
        <ele>170.6</ele>
        <time>2014-01-15T09:47:44Z</time>
      </trkpt>
      <trkpt lat="43.21656" lon="5.70305">
        <ele>170.8</ele>
        <time>2014-01-15T09:47:48Z</time>
      </trkpt>
      <trkpt lat="43.21658" lon="5.7031">
        <ele>170.8</ele>
        <time>2014-01-15T09:47:52Z</time>
      </trkpt>
      <trkpt lat="43.2166" lon="5.70315">
        <ele>171.1</ele>
        <time>2014-01-15T09:47:56Z</time>
      </trkpt>
      <trkpt lat="43.2166" lon="5.70316">
        <ele>171.5</ele>
        <time>2014-01-15T09:47:57Z</time>
      </trkpt>
      <trkpt lat="43.21663" lon="5.70324">
        <ele>172.3</ele>
        <time>2014-01-15T09:48:03Z</time>
      </trkpt>
      <trkpt lat="43.21665" lon="5.70329">
        <ele>172.3</ele>
        <time>2014-01-15T09:48:08Z</time>
      </trkpt>
      <trkpt lat="43.21667" lon="5.70333">
        <ele>172.6</ele>
        <time>2014-01-15T09:48:12Z</time>
      </trkpt>
      <trkpt lat="43.21669" lon="5.70338">
        <ele>173.5</ele>
        <time>2014-01-15T09:48:16Z</time>
      </trkpt>
      <trkpt lat="43.21671" lon="5.70342">
        <ele>173.3</ele>
        <time>2014-01-15T09:48:21Z</time>
      </trkpt>
      <trkpt lat="43.21673" lon="5.70347">
        <ele>173.8</ele>
        <time>2014-01-15T09:48:25Z</time>
      </trkpt>
      <trkpt lat="43.21675" lon="5.70352">
        <ele>173.1</ele>
        <time>2014-01-15T09:48:29Z</time>
      </trkpt>
      <trkpt lat="43.21677" lon="5.70357">
        <ele>172.8</ele>
        <time>2014-01-15T09:48:33Z</time>
      </trkpt>
      <trkpt lat="43.21679" lon="5.70362">
        <ele>172.6</ele>
        <time>2014-01-15T09:48:37Z</time>
      </trkpt>
      <trkpt lat="43.21681" lon="5.70367">
        <ele>172.6</ele>
        <time>2014-01-15T09:48:41Z</time>
      </trkpt>
      <trkpt lat="43.21683" lon="5.70372">
        <ele>172.8</ele>
        <time>2014-01-15T09:48:45Z</time>
      </trkpt>
      <trkpt lat="43.21685" lon="5.70376">
        <ele>173.3</ele>
        <time>2014-01-15T09:48:48Z</time>
      </trkpt>
      <trkpt lat="43.21686" lon="5.70381">
        <ele>174.5</ele>
        <time>2014-01-15T09:48:51Z</time>
      </trkpt>
      <trkpt lat="43.21688" lon="5.70386">
        <ele>174</ele>
        <time>2014-01-15T09:48:55Z</time>
      </trkpt>
      <trkpt lat="43.2169" lon="5.7039">
        <ele>174.6</ele>
        <time>2014-01-15T09:48:58Z</time>
      </trkpt>
      <trkpt lat="43.2169" lon="5.70391">
        <ele>174.8</ele>
        <time>2014-01-15T09:48:59Z</time>
      </trkpt>
      <trkpt lat="43.21693" lon="5.70398">
        <ele>175.6</ele>
        <time>2014-01-15T09:49:04Z</time>
      </trkpt>
      <trkpt lat="43.21696" lon="5.70403">
        <ele>175.6</ele>
        <time>2014-01-15T09:49:09Z</time>
      </trkpt>
      <trkpt lat="43.21699" lon="5.70407">
        <ele>174.8</ele>
        <time>2014-01-15T09:49:14Z</time>
      </trkpt>
      <trkpt lat="43.21701" lon="5.70412">
        <ele>175.5</ele>
        <time>2014-01-15T09:49:18Z</time>
      </trkpt>
      <trkpt lat="43.21703" lon="5.70417">
        <ele>175.1</ele>
        <time>2014-01-15T09:49:22Z</time>
      </trkpt>
      <trkpt lat="43.21704" lon="5.70423">
        <ele>174.8</ele>
        <time>2014-01-15T09:49:26Z</time>
      </trkpt>
      <trkpt lat="43.21704" lon="5.70427">
        <ele>174.6</ele>
        <time>2014-01-15T09:49:29Z</time>
      </trkpt>
      <trkpt lat="43.21704" lon="5.70432">
        <ele>174.6</ele>
        <time>2014-01-15T09:49:32Z</time>
      </trkpt>
      <trkpt lat="43.21705" lon="5.70437">
        <ele>174.5</ele>
        <time>2014-01-15T09:49:36Z</time>
      </trkpt>
      <trkpt lat="43.21706" lon="5.70443">
        <ele>174.5</ele>
        <time>2014-01-15T09:49:40Z</time>
      </trkpt>
      <trkpt lat="43.21708" lon="5.70449">
        <ele>174.5</ele>
        <time>2014-01-15T09:49:44Z</time>
      </trkpt>
      <trkpt lat="43.21709" lon="5.70453">
        <ele>174.5</ele>
        <time>2014-01-15T09:49:47Z</time>
      </trkpt>
      <trkpt lat="43.2171" lon="5.70458">
        <ele>174.6</ele>
        <time>2014-01-15T09:49:50Z</time>
      </trkpt>
      <trkpt lat="43.21712" lon="5.70463">
        <ele>174.5</ele>
        <time>2014-01-15T09:49:54Z</time>
      </trkpt>
      <trkpt lat="43.21715" lon="5.70467">
        <ele>173.8</ele>
        <time>2014-01-15T09:49:58Z</time>
      </trkpt>
      <trkpt lat="43.21717" lon="5.70471">
        <ele>173.3</ele>
        <time>2014-01-15T09:50:02Z</time>
      </trkpt>
      <trkpt lat="43.21718" lon="5.70472">
        <ele>173.3</ele>
        <time>2014-01-15T09:50:03Z</time>
      </trkpt>
      <trkpt lat="43.21721" lon="5.7048">
        <ele>172.8</ele>
        <time>2014-01-15T09:50:10Z</time>
      </trkpt>
      <trkpt lat="43.21722" lon="5.70484">
        <ele>172.5</ele>
        <time>2014-01-15T09:50:13Z</time>
      </trkpt>
      <trkpt lat="43.21723" lon="5.70489">
        <ele>173.8</ele>
        <time>2014-01-15T09:50:15Z</time>
      </trkpt>
      <trkpt lat="43.21724" lon="5.70494">
        <ele>174.6</ele>
        <time>2014-01-15T09:50:18Z</time>
      </trkpt>
      <trkpt lat="43.21726" lon="5.70499">
        <ele>174.6</ele>
        <time>2014-01-15T09:50:21Z</time>
      </trkpt>
      <trkpt lat="43.21729" lon="5.70502">
        <ele>173.8</ele>
        <time>2014-01-15T09:50:25Z</time>
      </trkpt>
      <trkpt lat="43.21731" lon="5.70507">
        <ele>173.8</ele>
        <time>2014-01-15T09:50:29Z</time>
      </trkpt>
      <trkpt lat="43.21735" lon="5.70509">
        <ele>171.6</ele>
        <time>2014-01-15T09:50:34Z</time>
      </trkpt>
      <trkpt lat="43.21737" lon="5.70514">
        <ele>174.3</ele>
        <time>2014-01-15T09:50:47Z</time>
      </trkpt>
      <trkpt lat="43.21739" lon="5.7052">
        <ele>174</ele>
        <time>2014-01-15T09:51:02Z</time>
      </trkpt>
      <trkpt lat="43.21742" lon="5.70522">
        <ele>175.8</ele>
        <time>2014-01-15T09:51:13Z</time>
      </trkpt>
      <trkpt lat="43.21743" lon="5.70522">
        <ele>176</ele>
        <time>2014-01-15T09:51:14Z</time>
      </trkpt>
      <trkpt lat="43.2175" lon="5.70518">
        <ele>180</ele>
        <time>2014-01-15T09:51:50Z</time>
      </trkpt>
      <trkpt lat="43.21754" lon="5.70515">
        <ele>179.6</ele>
        <time>2014-01-15T09:51:56Z</time>
      </trkpt>
      <trkpt lat="43.21757" lon="5.70511">
        <ele>176.3</ele>
        <time>2014-01-15T09:52:04Z</time>
      </trkpt>
      <trkpt lat="43.2176" lon="5.70508">
        <ele>174</ele>
        <time>2014-01-15T09:52:09Z</time>
      </trkpt>
      <trkpt lat="43.21763" lon="5.70504">
        <ele>172.1</ele>
        <time>2014-01-15T09:52:14Z</time>
      </trkpt>
      <trkpt lat="43.21763" lon="5.70503">
        <ele>171.6</ele>
        <time>2014-01-15T09:52:15Z</time>
      </trkpt>
      <trkpt lat="43.21769" lon="5.705">
        <ele>172.3</ele>
        <time>2014-01-15T09:52:21Z</time>
      </trkpt>
      <trkpt lat="43.21772" lon="5.70499">
        <ele>173.1</ele>
        <time>2014-01-15T09:52:24Z</time>
      </trkpt>
      <trkpt lat="43.21776" lon="5.70496">
        <ele>170.6</ele>
        <time>2014-01-15T09:52:30Z</time>
      </trkpt>
      <trkpt lat="43.21779" lon="5.70493">
        <ele>169.1</ele>
        <time>2014-01-15T09:52:35Z</time>
      </trkpt>
      <trkpt lat="43.21783" lon="5.7049">
        <ele>169.1</ele>
        <time>2014-01-15T09:52:39Z</time>
      </trkpt>
      <trkpt lat="43.21786" lon="5.70489">
        <ele>170</ele>
        <time>2014-01-15T09:52:42Z</time>
      </trkpt>
      <trkpt lat="43.2179" lon="5.70487">
        <ele>169.5</ele>
        <time>2014-01-15T09:52:46Z</time>
      </trkpt>
      <trkpt lat="43.21794" lon="5.70485">
        <ele>168.3</ele>
        <time>2014-01-15T09:52:51Z</time>
      </trkpt>
      <trkpt lat="43.21798" lon="5.70483">
        <ele>167.6</ele>
        <time>2014-01-15T09:52:55Z</time>
      </trkpt>
      <trkpt lat="43.21802" lon="5.70482">
        <ele>168.3</ele>
        <time>2014-01-15T09:52:58Z</time>
      </trkpt>
      <trkpt lat="43.21806" lon="5.7048">
        <ele>169.1</ele>
        <time>2014-01-15T09:53:01Z</time>
      </trkpt>
      <trkpt lat="43.21809" lon="5.7048">
        <ele>170.8</ele>
        <time>2014-01-15T09:53:03Z</time>
      </trkpt>
      <trkpt lat="43.21813" lon="5.70478">
        <ele>172.8</ele>
        <time>2014-01-15T09:53:05Z</time>
      </trkpt>
      <trkpt lat="43.21817" lon="5.70477">
        <ele>174.1</ele>
        <time>2014-01-15T09:53:08Z</time>
      </trkpt>
      <trkpt lat="43.21821" lon="5.70476">
        <ele>175.8</ele>
        <time>2014-01-15T09:53:10Z</time>
      </trkpt>
      <trkpt lat="43.21825" lon="5.70475">
        <ele>177.8</ele>
        <time>2014-01-15T09:53:13Z</time>
      </trkpt>
      <trkpt lat="43.21829" lon="5.70474">
        <ele>179.5</ele>
        <time>2014-01-15T09:53:15Z</time>
      </trkpt>
      <trkpt lat="43.2183" lon="5.70474">
        <ele>179.8</ele>
        <time>2014-01-15T09:53:16Z</time>
      </trkpt>
      <trkpt lat="43.21837" lon="5.70474">
        <ele>183.3</ele>
        <time>2014-01-15T09:53:21Z</time>
      </trkpt>
      <trkpt lat="43.2184" lon="5.70473">
        <ele>184.6</ele>
        <time>2014-01-15T09:53:23Z</time>
      </trkpt>
      <trkpt lat="43.21844" lon="5.70472">
        <ele>185.6</ele>
        <time>2014-01-15T09:53:26Z</time>
      </trkpt>
      <trkpt lat="43.21847" lon="5.70469">
        <ele>185.8</ele>
        <time>2014-01-15T09:53:29Z</time>
      </trkpt>
      <trkpt lat="43.2185" lon="5.70467">
        <ele>184.8</ele>
        <time>2014-01-15T09:53:32Z</time>
      </trkpt>
      <trkpt lat="43.21854" lon="5.70465">
        <ele>184.8</ele>
        <time>2014-01-15T09:53:35Z</time>
      </trkpt>
      <trkpt lat="43.21858" lon="5.70464">
        <ele>184.3</ele>
        <time>2014-01-15T09:53:39Z</time>
      </trkpt>
      <trkpt lat="43.21861" lon="5.70463">
        <ele>184.5</ele>
        <time>2014-01-15T09:53:42Z</time>
      </trkpt>
      <trkpt lat="43.21864" lon="5.70461">
        <ele>183.6</ele>
        <time>2014-01-15T09:53:45Z</time>
      </trkpt>
      <trkpt lat="43.21868" lon="5.7046">
        <ele>184</ele>
        <time>2014-01-15T09:53:48Z</time>
      </trkpt>
      <trkpt lat="43.21872" lon="5.70458">
        <ele>183.5</ele>
        <time>2014-01-15T09:53:51Z</time>
      </trkpt>
      <trkpt lat="43.21875" lon="5.70457">
        <ele>183.5</ele>
        <time>2014-01-15T09:53:54Z</time>
      </trkpt>
      <trkpt lat="43.21879" lon="5.70455">
        <ele>184</ele>
        <time>2014-01-15T09:53:58Z</time>
      </trkpt>
      <trkpt lat="43.21883" lon="5.70455">
        <ele>184.5</ele>
        <time>2014-01-15T09:54:03Z</time>
      </trkpt>
      <trkpt lat="43.21887" lon="5.70454">
        <ele>183.6</ele>
        <time>2014-01-15T09:54:07Z</time>
      </trkpt>
      <trkpt lat="43.21892" lon="5.70452">
        <ele>182.6</ele>
        <time>2014-01-15T09:54:11Z</time>
      </trkpt>
      <trkpt lat="43.21895" lon="5.70451">
        <ele>182.1</ele>
        <time>2014-01-15T09:54:15Z</time>
      </trkpt>
      <trkpt lat="43.21899" lon="5.7045">
        <ele>181.8</ele>
        <time>2014-01-15T09:54:19Z</time>
      </trkpt>
      <trkpt lat="43.21901" lon="5.7045">
        <ele>181.6</ele>
        <time>2014-01-15T09:54:20Z</time>
      </trkpt>
      <trkpt lat="43.21907" lon="5.70448">
        <ele>180.8</ele>
        <time>2014-01-15T09:54:25Z</time>
      </trkpt>
      <trkpt lat="43.21911" lon="5.70446">
        <ele>180.1</ele>
        <time>2014-01-15T09:54:29Z</time>
      </trkpt>
      <trkpt lat="43.21915" lon="5.70444">
        <ele>178.6</ele>
        <time>2014-01-15T09:54:35Z</time>
      </trkpt>
      <trkpt lat="43.21919" lon="5.70442">
        <ele>177.6</ele>
        <time>2014-01-15T09:54:42Z</time>
      </trkpt>
      <trkpt lat="43.21922" lon="5.70439">
        <ele>177.3</ele>
        <time>2014-01-15T09:54:46Z</time>
      </trkpt>
      <trkpt lat="43.21926" lon="5.70439">
        <ele>178.6</ele>
        <time>2014-01-15T09:54:49Z</time>
      </trkpt>
      <trkpt lat="43.21931" lon="5.70438">
        <ele>180.1</ele>
        <time>2014-01-15T09:54:52Z</time>
      </trkpt>
      <trkpt lat="43.21935" lon="5.70438">
        <ele>182.1</ele>
        <time>2014-01-15T09:54:55Z</time>
      </trkpt>
      <trkpt lat="43.21939" lon="5.70439">
        <ele>183.6</ele>
        <time>2014-01-15T09:54:59Z</time>
      </trkpt>
      <trkpt lat="43.21943" lon="5.70441">
        <ele>183.8</ele>
        <time>2014-01-15T09:55:03Z</time>
      </trkpt>
      <trkpt lat="43.21947" lon="5.70442">
        <ele>183.5</ele>
        <time>2014-01-15T09:55:08Z</time>
      </trkpt>
      <trkpt lat="43.21951" lon="5.70442">
        <ele>183.6</ele>
        <time>2014-01-15T09:55:12Z</time>
      </trkpt>
      <trkpt lat="43.21956" lon="5.70442">
        <ele>183.3</ele>
        <time>2014-01-15T09:55:16Z</time>
      </trkpt>
      <trkpt lat="43.21959" lon="5.70441">
        <ele>184.3</ele>
        <time>2014-01-15T09:55:19Z</time>
      </trkpt>
      <trkpt lat="43.21963" lon="5.70441">
        <ele>185.1</ele>
        <time>2014-01-15T09:55:22Z</time>
      </trkpt>
      <trkpt lat="43.21964" lon="5.70441">
        <ele>185.6</ele>
        <time>2014-01-15T09:55:23Z</time>
      </trkpt>
      <trkpt lat="43.2197" lon="5.7044">
        <ele>186.1</ele>
        <time>2014-01-15T09:55:29Z</time>
      </trkpt>
      <trkpt lat="43.21974" lon="5.70438">
        <ele>184.8</ele>
        <time>2014-01-15T09:55:33Z</time>
      </trkpt>
      <trkpt lat="43.21977" lon="5.70437">
        <ele>183.8</ele>
        <time>2014-01-15T09:55:36Z</time>
      </trkpt>
      <trkpt lat="43.21982" lon="5.70436">
        <ele>183.3</ele>
        <time>2014-01-15T09:55:40Z</time>
      </trkpt>
      <trkpt lat="43.21986" lon="5.70436">
        <ele>182.5</ele>
        <time>2014-01-15T09:55:44Z</time>
      </trkpt>
      <trkpt lat="43.21989" lon="5.70438">
        <ele>182.8</ele>
        <time>2014-01-15T09:55:48Z</time>
      </trkpt>
      <trkpt lat="43.21993" lon="5.70439">
        <ele>183.6</ele>
        <time>2014-01-15T09:55:53Z</time>
      </trkpt>
      <trkpt lat="43.21997" lon="5.70441">
        <ele>183.8</ele>
        <time>2014-01-15T09:55:57Z</time>
      </trkpt>
      <trkpt lat="43.22" lon="5.70443">
        <ele>184.5</ele>
        <time>2014-01-15T09:56:00Z</time>
      </trkpt>
      <trkpt lat="43.22004" lon="5.70445">
        <ele>184.6</ele>
        <time>2014-01-15T09:56:03Z</time>
      </trkpt>
      <trkpt lat="43.22007" lon="5.70447">
        <ele>184.5</ele>
        <time>2014-01-15T09:56:07Z</time>
      </trkpt>
      <trkpt lat="43.22011" lon="5.70449">
        <ele>184.6</ele>
        <time>2014-01-15T09:56:11Z</time>
      </trkpt>
      <trkpt lat="43.22015" lon="5.70451">
        <ele>184.6</ele>
        <time>2014-01-15T09:56:15Z</time>
      </trkpt>
      <trkpt lat="43.22019" lon="5.70452">
        <ele>184.5</ele>
        <time>2014-01-15T09:56:19Z</time>
      </trkpt>
      <trkpt lat="43.22023" lon="5.70452">
        <ele>184.5</ele>
        <time>2014-01-15T09:56:23Z</time>
      </trkpt>
      <trkpt lat="43.22024" lon="5.70453">
        <ele>184.5</ele>
        <time>2014-01-15T09:56:24Z</time>
      </trkpt>
      <trkpt lat="43.2203" lon="5.70452">
        <ele>184.1</ele>
        <time>2014-01-15T09:56:29Z</time>
      </trkpt>
      <trkpt lat="43.22034" lon="5.70451">
        <ele>184.1</ele>
        <time>2014-01-15T09:56:32Z</time>
      </trkpt>
      <trkpt lat="43.22037" lon="5.7045">
        <ele>184.3</ele>
        <time>2014-01-15T09:56:35Z</time>
      </trkpt>
      <trkpt lat="43.22042" lon="5.70448">
        <ele>184.8</ele>
        <time>2014-01-15T09:56:39Z</time>
      </trkpt>
      <trkpt lat="43.22046" lon="5.70447">
        <ele>185.3</ele>
        <time>2014-01-15T09:56:44Z</time>
      </trkpt>
      <trkpt lat="43.2205" lon="5.70446">
        <ele>186</ele>
        <time>2014-01-15T09:56:48Z</time>
      </trkpt>
      <trkpt lat="43.22053" lon="5.70443">
        <ele>185.3</ele>
        <time>2014-01-15T09:56:53Z</time>
      </trkpt>
      <trkpt lat="43.22057" lon="5.70439">
        <ele>183.8</ele>
        <time>2014-01-15T09:56:58Z</time>
      </trkpt>
      <trkpt lat="43.2206" lon="5.70436">
        <ele>182.6</ele>
        <time>2014-01-15T09:57:03Z</time>
      </trkpt>
      <trkpt lat="43.22062" lon="5.70431">
        <ele>180.6</ele>
        <time>2014-01-15T09:57:08Z</time>
      </trkpt>
      <trkpt lat="43.22065" lon="5.70427">
        <ele>179.3</ele>
        <time>2014-01-15T09:57:13Z</time>
      </trkpt>
      <trkpt lat="43.22069" lon="5.70422">
        <ele>178.8</ele>
        <time>2014-01-15T09:57:18Z</time>
      </trkpt>
      <trkpt lat="43.22072" lon="5.70419">
        <ele>178.6</ele>
        <time>2014-01-15T09:57:22Z</time>
      </trkpt>
      <trkpt lat="43.22074" lon="5.70415">
        <ele>177.8</ele>
        <time>2014-01-15T09:57:26Z</time>
      </trkpt>
      <trkpt lat="43.22075" lon="5.70414">
        <ele>177.8</ele>
        <time>2014-01-15T09:57:27Z</time>
      </trkpt>
      <trkpt lat="43.2208" lon="5.70408">
        <ele>176.8</ele>
        <time>2014-01-15T09:57:34Z</time>
      </trkpt>
      <trkpt lat="43.22083" lon="5.70404">
        <ele>176.6</ele>
        <time>2014-01-15T09:57:38Z</time>
      </trkpt>
      <trkpt lat="43.22086" lon="5.70401">
        <ele>177.1</ele>
        <time>2014-01-15T09:57:41Z</time>
      </trkpt>
      <trkpt lat="43.2209" lon="5.70398">
        <ele>177.8</ele>
        <time>2014-01-15T09:57:45Z</time>
      </trkpt>
      <trkpt lat="43.22093" lon="5.70395">
        <ele>178.5</ele>
        <time>2014-01-15T09:57:48Z</time>
      </trkpt>
      <trkpt lat="43.22096" lon="5.70392">
        <ele>179.6</ele>
        <time>2014-01-15T09:57:52Z</time>
      </trkpt>
      <trkpt lat="43.22098" lon="5.70388">
        <ele>179.1</ele>
        <time>2014-01-15T09:57:56Z</time>
      </trkpt>
      <trkpt lat="43.22101" lon="5.70383">
        <ele>178.6</ele>
        <time>2014-01-15T09:58:01Z</time>
      </trkpt>
      <trkpt lat="43.22104" lon="5.70381">
        <ele>178.6</ele>
        <time>2014-01-15T09:58:04Z</time>
      </trkpt>
      <trkpt lat="43.22106" lon="5.70377">
        <ele>178</ele>
        <time>2014-01-15T09:58:07Z</time>
      </trkpt>
      <trkpt lat="43.22109" lon="5.70373">
        <ele>177.3</ele>
        <time>2014-01-15T09:58:11Z</time>
      </trkpt>
      <trkpt lat="43.22112" lon="5.70369">
        <ele>177.5</ele>
        <time>2014-01-15T09:58:16Z</time>
      </trkpt>
      <trkpt lat="43.22115" lon="5.70365">
        <ele>176.6</ele>
        <time>2014-01-15T09:58:21Z</time>
      </trkpt>
      <trkpt lat="43.22118" lon="5.70361">
        <ele>176.1</ele>
        <time>2014-01-15T09:58:26Z</time>
      </trkpt>
      <trkpt lat="43.22121" lon="5.70358">
        <ele>177.6</ele>
        <time>2014-01-15T09:58:30Z</time>
      </trkpt>
      <trkpt lat="43.22123" lon="5.70358">
        <ele>178.6</ele>
        <time>2014-01-15T09:58:31Z</time>
      </trkpt>
      <trkpt lat="43.22128" lon="5.70353">
        <ele>180.1</ele>
        <time>2014-01-15T09:58:39Z</time>
      </trkpt>
      <trkpt lat="43.22132" lon="5.70349">
        <ele>179.6</ele>
        <time>2014-01-15T09:58:44Z</time>
      </trkpt>
      <trkpt lat="43.22136" lon="5.70346">
        <ele>180.3</ele>
        <time>2014-01-15T09:58:48Z</time>
      </trkpt>
      <trkpt lat="43.22139" lon="5.70342">
        <ele>181.8</ele>
        <time>2014-01-15T09:58:52Z</time>
      </trkpt>
      <trkpt lat="43.22143" lon="5.7034">
        <ele>183.1</ele>
        <time>2014-01-15T09:58:56Z</time>
      </trkpt>
      <trkpt lat="43.22147" lon="5.70342">
        <ele>184.6</ele>
        <time>2014-01-15T09:59:00Z</time>
      </trkpt>
      <trkpt lat="43.2215" lon="5.70346">
        <ele>187.6</ele>
        <time>2014-01-15T09:59:03Z</time>
      </trkpt>
      <trkpt lat="43.22151" lon="5.70351">
        <ele>189.8</ele>
        <time>2014-01-15T09:59:09Z</time>
      </trkpt>
      <trkpt lat="43.2215" lon="5.70357">
        <ele>190.5</ele>
        <time>2014-01-15T09:59:14Z</time>
      </trkpt>
      <trkpt lat="43.2215" lon="5.70362">
        <ele>191</ele>
        <time>2014-01-15T09:59:18Z</time>
      </trkpt>
      <trkpt lat="43.22149" lon="5.70367">
        <ele>191.8</ele>
        <time>2014-01-15T09:59:22Z</time>
      </trkpt>
      <trkpt lat="43.22149" lon="5.70371">
        <ele>192.3</ele>
        <time>2014-01-15T09:59:26Z</time>
      </trkpt>
      <trkpt lat="43.2215" lon="5.70376">
        <ele>192.8</ele>
        <time>2014-01-15T09:59:30Z</time>
      </trkpt>
      <trkpt lat="43.22149" lon="5.70381">
        <ele>192.8</ele>
        <time>2014-01-15T09:59:34Z</time>
      </trkpt>
      <trkpt lat="43.22149" lon="5.70383">
        <ele>192.8</ele>
        <time>2014-01-15T09:59:35Z</time>
      </trkpt>
      <trkpt lat="43.22147" lon="5.70393">
        <ele>194.5</ele>
        <time>2014-01-15T09:59:43Z</time>
      </trkpt>
      <trkpt lat="43.22146" lon="5.70399">
        <ele>196.8</ele>
        <time>2014-01-15T09:59:48Z</time>
      </trkpt>
      <trkpt lat="43.22146" lon="5.70404">
        <ele>196.3</ele>
        <time>2014-01-15T09:59:53Z</time>
      </trkpt>
      <trkpt lat="43.22146" lon="5.7041">
        <ele>196.1</ele>
        <time>2014-01-15T09:59:57Z</time>
      </trkpt>
      <trkpt lat="43.22145" lon="5.70416">
        <ele>196.6</ele>
        <time>2014-01-15T10:00:02Z</time>
      </trkpt>
      <trkpt lat="43.22145" lon="5.70421">
        <ele>196.1</ele>
        <time>2014-01-15T10:00:06Z</time>
      </trkpt>
      <trkpt lat="43.22145" lon="5.70427">
        <ele>194.6</ele>
        <time>2014-01-15T10:00:12Z</time>
      </trkpt>
      <trkpt lat="43.22145" lon="5.70433">
        <ele>193.6</ele>
        <time>2014-01-15T10:00:17Z</time>
      </trkpt>
      <trkpt lat="43.22145" lon="5.70438">
        <ele>193.5</ele>
        <time>2014-01-15T10:00:21Z</time>
      </trkpt>
      <trkpt lat="43.22144" lon="5.70444">
        <ele>194.8</ele>
        <time>2014-01-15T10:00:28Z</time>
      </trkpt>
      <trkpt lat="43.22144" lon="5.7045">
        <ele>195.3</ele>
        <time>2014-01-15T10:00:33Z</time>
      </trkpt>
      <trkpt lat="43.22144" lon="5.70455">
        <ele>195.5</ele>
        <time>2014-01-15T10:00:38Z</time>
      </trkpt>
      <trkpt lat="43.22144" lon="5.70456">
        <ele>195.5</ele>
        <time>2014-01-15T10:00:39Z</time>
      </trkpt>
      <trkpt lat="43.22145" lon="5.70467">
        <ele>194.6</ele>
        <time>2014-01-15T10:00:49Z</time>
      </trkpt>
      <trkpt lat="43.22145" lon="5.70473">
        <ele>194.1</ele>
        <time>2014-01-15T10:00:54Z</time>
      </trkpt>
      <trkpt lat="43.22146" lon="5.70479">
        <ele>194</ele>
        <time>2014-01-15T10:00:59Z</time>
      </trkpt>
      <trkpt lat="43.22147" lon="5.70484">
        <ele>194.6</ele>
        <time>2014-01-15T10:01:03Z</time>
      </trkpt>
      <trkpt lat="43.22145" lon="5.7049">
        <ele>198.3</ele>
        <time>2014-01-15T10:01:07Z</time>
      </trkpt>
      <trkpt lat="43.22145" lon="5.70496">
        <ele>199.1</ele>
        <time>2014-01-15T10:01:13Z</time>
      </trkpt>
      <trkpt lat="43.22145" lon="5.70502">
        <ele>199.5</ele>
        <time>2014-01-15T10:01:18Z</time>
      </trkpt>
      <trkpt lat="43.22146" lon="5.70507">
        <ele>199.8</ele>
        <time>2014-01-15T10:01:23Z</time>
      </trkpt>
      <trkpt lat="43.22146" lon="5.70512">
        <ele>200</ele>
        <time>2014-01-15T10:01:27Z</time>
      </trkpt>
      <trkpt lat="43.22145" lon="5.70518">
        <ele>200.3</ele>
        <time>2014-01-15T10:01:31Z</time>
      </trkpt>
      <trkpt lat="43.22146" lon="5.70524">
        <ele>200.6</ele>
        <time>2014-01-15T10:01:36Z</time>
      </trkpt>
      <trkpt lat="43.22146" lon="5.7053">
        <ele>200.1</ele>
        <time>2014-01-15T10:01:42Z</time>
      </trkpt>
      <trkpt lat="43.22146" lon="5.70531">
        <ele>200.1</ele>
        <time>2014-01-15T10:01:43Z</time>
      </trkpt>
      <trkpt lat="43.22146" lon="5.7054">
        <ele>201.6</ele>
        <time>2014-01-15T10:01:50Z</time>
      </trkpt>
      <trkpt lat="43.22147" lon="5.70545">
        <ele>201.1</ele>
        <time>2014-01-15T10:01:54Z</time>
      </trkpt>
      <trkpt lat="43.22148" lon="5.7055">
        <ele>201</ele>
        <time>2014-01-15T10:01:58Z</time>
      </trkpt>
      <trkpt lat="43.22151" lon="5.70554">
        <ele>202.1</ele>
        <time>2014-01-15T10:02:03Z</time>
      </trkpt>
      <trkpt lat="43.22155" lon="5.70557">
        <ele>203.1</ele>
        <time>2014-01-15T10:02:09Z</time>
      </trkpt>
      <trkpt lat="43.22151" lon="5.70558">
        <ele>204.3</ele>
        <time>2014-01-15T10:02:39Z</time>
      </trkpt>
      <trkpt lat="43.22147" lon="5.70558">
        <ele>203.6</ele>
        <time>2014-01-15T10:02:43Z</time>
      </trkpt>
      <trkpt lat="43.22146" lon="5.70559">
        <ele>203.6</ele>
        <time>2014-01-15T10:02:44Z</time>
      </trkpt>
      <trkpt lat="43.22147" lon="5.70559">
        <ele>203.3</ele>
        <time>2014-01-15T10:03:36Z</time>
      </trkpt>
      <trkpt lat="43.22151" lon="5.70561">
        <ele>203.6</ele>
        <time>2014-01-15T10:03:42Z</time>
      </trkpt>
      <trkpt lat="43.22155" lon="5.70559">
        <ele>204.3</ele>
        <time>2014-01-15T10:03:49Z</time>
      </trkpt>
      <trkpt lat="43.22155" lon="5.70558">
        <ele>204.3</ele>
        <time>2014-01-15T10:03:50Z</time>
      </trkpt>
      <trkpt lat="43.22159" lon="5.70563">
        <ele>207.1</ele>
        <time>2014-01-15T10:06:37Z</time>
      </trkpt>
      <trkpt lat="43.22166" lon="5.70563">
        <ele>206.5</ele>
        <time>2014-01-15T10:06:46Z</time>
      </trkpt>
      <trkpt lat="43.22171" lon="5.70562">
        <ele>206.1</ele>
        <time>2014-01-15T10:06:51Z</time>
      </trkpt>
      <trkpt lat="43.22174" lon="5.7056">
        <ele>206.1</ele>
        <time>2014-01-15T10:06:55Z</time>
      </trkpt>
      <trkpt lat="43.22178" lon="5.70559">
        <ele>205</ele>
        <time>2014-01-15T10:06:59Z</time>
      </trkpt>
      <trkpt lat="43.22182" lon="5.70557">
        <ele>205.3</ele>
        <time>2014-01-15T10:07:03Z</time>
      </trkpt>
      <trkpt lat="43.22186" lon="5.70555">
        <ele>204.6</ele>
        <time>2014-01-15T10:07:07Z</time>
      </trkpt>
      <trkpt lat="43.2219" lon="5.70553">
        <ele>203.8</ele>
        <time>2014-01-15T10:07:11Z</time>
      </trkpt>
      <trkpt lat="43.22193" lon="5.70551">
        <ele>203.5</ele>
        <time>2014-01-15T10:07:15Z</time>
      </trkpt>
      <trkpt lat="43.22197" lon="5.7055">
        <ele>203.1</ele>
        <time>2014-01-15T10:07:19Z</time>
      </trkpt>
      <trkpt lat="43.22201" lon="5.70548">
        <ele>202.6</ele>
        <time>2014-01-15T10:07:23Z</time>
      </trkpt>
      <trkpt lat="43.22205" lon="5.70546">
        <ele>202.1</ele>
        <time>2014-01-15T10:07:27Z</time>
      </trkpt>
      <trkpt lat="43.22209" lon="5.70544">
        <ele>202.3</ele>
        <time>2014-01-15T10:07:31Z</time>
      </trkpt>
      <trkpt lat="43.22212" lon="5.70543">
        <ele>202.5</ele>
        <time>2014-01-15T10:07:34Z</time>
      </trkpt>
      <trkpt lat="43.22215" lon="5.70542">
        <ele>203.3</ele>
        <time>2014-01-15T10:07:36Z</time>
      </trkpt>
      <trkpt lat="43.22219" lon="5.70541">
        <ele>204.1</ele>
        <time>2014-01-15T10:07:39Z</time>
      </trkpt>
      <trkpt lat="43.2222" lon="5.7054">
        <ele>204.1</ele>
        <time>2014-01-15T10:07:40Z</time>
      </trkpt>
      <trkpt lat="43.22226" lon="5.70538">
        <ele>206.6</ele>
        <time>2014-01-15T10:07:44Z</time>
      </trkpt>
      <trkpt lat="43.2223" lon="5.70536">
        <ele>206.6</ele>
        <time>2014-01-15T10:07:48Z</time>
      </trkpt>
      <trkpt lat="43.22233" lon="5.70534">
        <ele>205.8</ele>
        <time>2014-01-15T10:07:52Z</time>
      </trkpt>
      <trkpt lat="43.22236" lon="5.70531">
        <ele>205.5</ele>
        <time>2014-01-15T10:07:55Z</time>
      </trkpt>
      <trkpt lat="43.2224" lon="5.70528">
        <ele>205</ele>
        <time>2014-01-15T10:07:59Z</time>
      </trkpt>
      <trkpt lat="43.22243" lon="5.70525">
        <ele>204.5</ele>
        <time>2014-01-15T10:08:03Z</time>
      </trkpt>
      <trkpt lat="43.22246" lon="5.70522">
        <ele>204.1</ele>
        <time>2014-01-15T10:08:06Z</time>
      </trkpt>
      <trkpt lat="43.22248" lon="5.7052">
        <ele>203.8</ele>
        <time>2014-01-15T10:08:08Z</time>
      </trkpt>
      <trkpt lat="43.22251" lon="5.70518">
        <ele>205.1</ele>
        <time>2014-01-15T10:08:10Z</time>
      </trkpt>
      <trkpt lat="43.22255" lon="5.70514">
        <ele>204.3</ele>
        <time>2014-01-15T10:08:14Z</time>
      </trkpt>
      <trkpt lat="43.22257" lon="5.70512">
        <ele>204.3</ele>
        <time>2014-01-15T10:08:17Z</time>
      </trkpt>
      <trkpt lat="43.2226" lon="5.70511">
        <ele>205.1</ele>
        <time>2014-01-15T10:08:19Z</time>
      </trkpt>
      <trkpt lat="43.22264" lon="5.7051">
        <ele>206.6</ele>
        <time>2014-01-15T10:08:21Z</time>
      </trkpt>
      <trkpt lat="43.22267" lon="5.70509">
        <ele>207.8</ele>
        <time>2014-01-15T10:08:23Z</time>
      </trkpt>
      <trkpt lat="43.2227" lon="5.70508">
        <ele>208.1</ele>
        <time>2014-01-15T10:08:26Z</time>
      </trkpt>
      <trkpt lat="43.22274" lon="5.70506">
        <ele>208.1</ele>
        <time>2014-01-15T10:08:30Z</time>
      </trkpt>
      <trkpt lat="43.22278" lon="5.70506">
        <ele>208.1</ele>
        <time>2014-01-15T10:08:33Z</time>
      </trkpt>
      <trkpt lat="43.22281" lon="5.70504">
        <ele>207.1</ele>
        <time>2014-01-15T10:08:36Z</time>
      </trkpt>
      <trkpt lat="43.22286" lon="5.70503">
        <ele>206.1</ele>
        <time>2014-01-15T10:08:40Z</time>
      </trkpt>
      <trkpt lat="43.22287" lon="5.70503">
        <ele>206</ele>
        <time>2014-01-15T10:08:41Z</time>
      </trkpt>
      <trkpt lat="43.22293" lon="5.70501">
        <ele>204.3</ele>
        <time>2014-01-15T10:08:47Z</time>
      </trkpt>
      <trkpt lat="43.22298" lon="5.70501">
        <ele>203.6</ele>
        <time>2014-01-15T10:08:51Z</time>
      </trkpt>
      <trkpt lat="43.22302" lon="5.705">
        <ele>202.8</ele>
        <time>2014-01-15T10:08:55Z</time>
      </trkpt>
      <trkpt lat="43.22305" lon="5.70499">
        <ele>202.1</ele>
        <time>2014-01-15T10:08:58Z</time>
      </trkpt>
      <trkpt lat="43.22309" lon="5.70498">
        <ele>201.3</ele>
        <time>2014-01-15T10:09:01Z</time>
      </trkpt>
      <trkpt lat="43.22313" lon="5.70495">
        <ele>200.3</ele>
        <time>2014-01-15T10:09:05Z</time>
      </trkpt>
      <trkpt lat="43.22317" lon="5.70494">
        <ele>199.8</ele>
        <time>2014-01-15T10:09:09Z</time>
      </trkpt>
      <trkpt lat="43.22321" lon="5.70492">
        <ele>199.6</ele>
        <time>2014-01-15T10:09:12Z</time>
      </trkpt>
      <trkpt lat="43.22324" lon="5.70488">
        <ele>197.1</ele>
        <time>2014-01-15T10:09:17Z</time>
      </trkpt>
      <trkpt lat="43.22326" lon="5.70485">
        <ele>196</ele>
        <time>2014-01-15T10:09:20Z</time>
      </trkpt>
      <trkpt lat="43.22329" lon="5.7048">
        <ele>195.8</ele>
        <time>2014-01-15T10:09:24Z</time>
      </trkpt>
      <trkpt lat="43.22331" lon="5.70477">
        <ele>195.8</ele>
        <time>2014-01-15T10:09:27Z</time>
      </trkpt>
      <trkpt lat="43.22333" lon="5.70473">
        <ele>195.5</ele>
        <time>2014-01-15T10:09:30Z</time>
      </trkpt>
      <trkpt lat="43.22336" lon="5.70469">
        <ele>194.6</ele>
        <time>2014-01-15T10:09:34Z</time>
      </trkpt>
      <trkpt lat="43.22338" lon="5.70464">
        <ele>194.3</ele>
        <time>2014-01-15T10:09:37Z</time>
      </trkpt>
      <trkpt lat="43.2234" lon="5.70461">
        <ele>194.3</ele>
        <time>2014-01-15T10:09:40Z</time>
      </trkpt>
      <trkpt lat="43.22342" lon="5.70458">
        <ele>194.5</ele>
        <time>2014-01-15T10:09:43Z</time>
      </trkpt>
      <trkpt lat="43.22343" lon="5.70457">
        <ele>194.6</ele>
        <time>2014-01-15T10:09:44Z</time>
      </trkpt>
      <trkpt lat="43.22348" lon="5.7045">
        <ele>193.1</ele>
        <time>2014-01-15T10:09:50Z</time>
      </trkpt>
      <trkpt lat="43.22351" lon="5.70447">
        <ele>192.5</ele>
        <time>2014-01-15T10:09:54Z</time>
      </trkpt>
      <trkpt lat="43.22354" lon="5.70444">
        <ele>191.6</ele>
        <time>2014-01-15T10:09:58Z</time>
      </trkpt>
      <trkpt lat="43.22358" lon="5.70441">
        <ele>191.8</ele>
        <time>2014-01-15T10:10:01Z</time>
      </trkpt>
      <trkpt lat="43.22361" lon="5.70439">
        <ele>191.3</ele>
        <time>2014-01-15T10:10:05Z</time>
      </trkpt>
      <trkpt lat="43.22365" lon="5.70436">
        <ele>191</ele>
        <time>2014-01-15T10:10:09Z</time>
      </trkpt>
      <trkpt lat="43.22369" lon="5.70435">
        <ele>191</ele>
        <time>2014-01-15T10:10:12Z</time>
      </trkpt>
      <trkpt lat="43.22372" lon="5.70433">
        <ele>190.8</ele>
        <time>2014-01-15T10:10:15Z</time>
      </trkpt>
      <trkpt lat="43.22376" lon="5.70432">
        <ele>191.1</ele>
        <time>2014-01-15T10:10:18Z</time>
      </trkpt>
      <trkpt lat="43.2238" lon="5.70432">
        <ele>192.3</ele>
        <time>2014-01-15T10:10:21Z</time>
      </trkpt>
      <trkpt lat="43.22384" lon="5.70431">
        <ele>193.1</ele>
        <time>2014-01-15T10:10:23Z</time>
      </trkpt>
      <trkpt lat="43.22387" lon="5.70432">
        <ele>195</ele>
        <time>2014-01-15T10:10:24Z</time>
      </trkpt>
      <trkpt lat="43.2239" lon="5.70432">
        <ele>196.1</ele>
        <time>2014-01-15T10:10:25Z</time>
      </trkpt>
      <trkpt lat="43.22394" lon="5.70431">
        <ele>197.6</ele>
        <time>2014-01-15T10:10:27Z</time>
      </trkpt>
      <trkpt lat="43.22398" lon="5.70432">
        <ele>198.5</ele>
        <time>2014-01-15T10:10:30Z</time>
      </trkpt>
      <trkpt lat="43.22402" lon="5.70433">
        <ele>199.1</ele>
        <time>2014-01-15T10:10:33Z</time>
      </trkpt>
      <trkpt lat="43.22406" lon="5.70434">
        <ele>199.3</ele>
        <time>2014-01-15T10:10:37Z</time>
      </trkpt>
      <trkpt lat="43.2241" lon="5.70435">
        <ele>199.1</ele>
        <time>2014-01-15T10:10:40Z</time>
      </trkpt>
      <trkpt lat="43.22413" lon="5.70435">
        <ele>199</ele>
        <time>2014-01-15T10:10:43Z</time>
      </trkpt>
      <trkpt lat="43.22416" lon="5.70437">
        <ele>198.1</ele>
        <time>2014-01-15T10:10:46Z</time>
      </trkpt>
      <trkpt lat="43.22418" lon="5.70437">
        <ele>198.1</ele>
        <time>2014-01-15T10:10:47Z</time>
      </trkpt>
      <trkpt lat="43.22424" lon="5.7044">
        <ele>197</ele>
        <time>2014-01-15T10:10:53Z</time>
      </trkpt>
      <trkpt lat="43.22427" lon="5.70442">
        <ele>197</ele>
        <time>2014-01-15T10:10:57Z</time>
      </trkpt>
      <trkpt lat="43.22432" lon="5.70441">
        <ele>198.1</ele>
        <time>2014-01-15T10:11:01Z</time>
      </trkpt>
      <trkpt lat="43.22435" lon="5.70442">
        <ele>199</ele>
        <time>2014-01-15T10:11:05Z</time>
      </trkpt>
      <trkpt lat="43.22439" lon="5.70443">
        <ele>198.1</ele>
        <time>2014-01-15T10:11:09Z</time>
      </trkpt>
      <trkpt lat="43.22443" lon="5.70447">
        <ele>195.3</ele>
        <time>2014-01-15T10:11:12Z</time>
      </trkpt>
      <trkpt lat="43.22446" lon="5.70449">
        <ele>194.5</ele>
        <time>2014-01-15T10:11:16Z</time>
      </trkpt>
      <trkpt lat="43.2245" lon="5.70449">
        <ele>194.5</ele>
        <time>2014-01-15T10:11:22Z</time>
      </trkpt>
      <trkpt lat="43.22454" lon="5.70449">
        <ele>194.3</ele>
        <time>2014-01-15T10:11:27Z</time>
      </trkpt>
      <trkpt lat="43.22458" lon="5.70449">
        <ele>195.3</ele>
        <time>2014-01-15T10:11:31Z</time>
      </trkpt>
      <trkpt lat="43.22461" lon="5.70449">
        <ele>199.1</ele>
        <time>2014-01-15T10:11:35Z</time>
      </trkpt>
      <trkpt lat="43.22465" lon="5.70451">
        <ele>198.8</ele>
        <time>2014-01-15T10:11:39Z</time>
      </trkpt>
      <trkpt lat="43.22469" lon="5.70453">
        <ele>197.6</ele>
        <time>2014-01-15T10:11:43Z</time>
      </trkpt>
      <trkpt lat="43.22473" lon="5.70454">
        <ele>195.6</ele>
        <time>2014-01-15T10:11:47Z</time>
      </trkpt>
      <trkpt lat="43.22474" lon="5.70455">
        <ele>195</ele>
        <time>2014-01-15T10:11:48Z</time>
      </trkpt>
      <trkpt lat="43.2248" lon="5.70457">
        <ele>193.8</ele>
        <time>2014-01-15T10:11:55Z</time>
      </trkpt>
      <trkpt lat="43.22484" lon="5.70458">
        <ele>193.6</ele>
        <time>2014-01-15T10:12:00Z</time>
      </trkpt>
      <trkpt lat="43.22489" lon="5.70459">
        <ele>192.6</ele>
        <time>2014-01-15T10:12:05Z</time>
      </trkpt>
      <trkpt lat="43.22493" lon="5.70457">
        <ele>192.6</ele>
        <time>2014-01-15T10:12:11Z</time>
      </trkpt>
      <trkpt lat="43.22496" lon="5.70456">
        <ele>193.5</ele>
        <time>2014-01-15T10:12:16Z</time>
      </trkpt>
      <trkpt lat="43.225" lon="5.70452">
        <ele>194.8</ele>
        <time>2014-01-15T10:12:21Z</time>
      </trkpt>
      <trkpt lat="43.22504" lon="5.7045">
        <ele>196.6</ele>
        <time>2014-01-15T10:12:26Z</time>
      </trkpt>
      <trkpt lat="43.22507" lon="5.7045">
        <ele>197.6</ele>
        <time>2014-01-15T10:12:30Z</time>
      </trkpt>
      <trkpt lat="43.22511" lon="5.70451">
        <ele>197.6</ele>
        <time>2014-01-15T10:12:33Z</time>
      </trkpt>
      <trkpt lat="43.22514" lon="5.70451">
        <ele>198.8</ele>
        <time>2014-01-15T10:12:37Z</time>
      </trkpt>
      <trkpt lat="43.22518" lon="5.70449">
        <ele>198.8</ele>
        <time>2014-01-15T10:12:43Z</time>
      </trkpt>
      <trkpt lat="43.22522" lon="5.70447">
        <ele>199.1</ele>
        <time>2014-01-15T10:12:47Z</time>
      </trkpt>
      <trkpt lat="43.22526" lon="5.70447">
        <ele>199.3</ele>
        <time>2014-01-15T10:12:51Z</time>
      </trkpt>
      <trkpt lat="43.22527" lon="5.70447">
        <ele>199.1</ele>
        <time>2014-01-15T10:12:52Z</time>
      </trkpt>
      <trkpt lat="43.22533" lon="5.70449">
        <ele>198.1</ele>
        <time>2014-01-15T10:12:58Z</time>
      </trkpt>
      <trkpt lat="43.22537" lon="5.70451">
        <ele>197.6</ele>
        <time>2014-01-15T10:13:02Z</time>
      </trkpt>
      <trkpt lat="43.22541" lon="5.70453">
        <ele>198.8</ele>
        <time>2014-01-15T10:13:06Z</time>
      </trkpt>
      <trkpt lat="43.22544" lon="5.70455">
        <ele>199.8</ele>
        <time>2014-01-15T10:13:12Z</time>
      </trkpt>
      <trkpt lat="43.22548" lon="5.70458">
        <ele>214.3</ele>
        <time>2014-01-15T10:13:22Z</time>
      </trkpt>
      <trkpt lat="43.22548" lon="5.70463">
        <ele>222.3</ele>
        <time>2014-01-15T10:13:29Z</time>
      </trkpt>
      <trkpt lat="43.22549" lon="5.70469">
        <ele>225.3</ele>
        <time>2014-01-15T10:13:35Z</time>
      </trkpt>
      <trkpt lat="43.22548" lon="5.70474">
        <ele>224.3</ele>
        <time>2014-01-15T10:13:41Z</time>
      </trkpt>
      <trkpt lat="43.22545" lon="5.7047">
        <ele>217.6</ele>
        <time>2014-01-15T10:14:03Z</time>
      </trkpt>
      <trkpt lat="43.22545" lon="5.70469">
        <ele>217.1</ele>
        <time>2014-01-15T10:14:04Z</time>
      </trkpt>
      <trkpt lat="43.22538" lon="5.70466">
        <ele>214.1</ele>
        <time>2014-01-15T10:14:11Z</time>
      </trkpt>
      <trkpt lat="43.22534" lon="5.70466">
        <ele>211.3</ele>
        <time>2014-01-15T10:14:16Z</time>
      </trkpt>
      <trkpt lat="43.2253" lon="5.70465">
        <ele>209.6</ele>
        <time>2014-01-15T10:14:21Z</time>
      </trkpt>
      <trkpt lat="43.22526" lon="5.70467">
        <ele>211.6</ele>
        <time>2014-01-15T10:14:24Z</time>
      </trkpt>
      <trkpt lat="43.22523" lon="5.70469">
        <ele>213.8</ele>
        <time>2014-01-15T10:14:27Z</time>
      </trkpt>
      <trkpt lat="43.22519" lon="5.7047">
        <ele>216.3</ele>
        <time>2014-01-15T10:14:30Z</time>
      </trkpt>
      <trkpt lat="43.22515" lon="5.70473">
        <ele>216.8</ele>
        <time>2014-01-15T10:14:34Z</time>
      </trkpt>
      <trkpt lat="43.22512" lon="5.70475">
        <ele>215.6</ele>
        <time>2014-01-15T10:14:38Z</time>
      </trkpt>
      <trkpt lat="43.22508" lon="5.70477">
        <ele>214.5</ele>
        <time>2014-01-15T10:14:42Z</time>
      </trkpt>
      <trkpt lat="43.22505" lon="5.70481">
        <ele>211.8</ele>
        <time>2014-01-15T10:14:47Z</time>
      </trkpt>
      <trkpt lat="43.22502" lon="5.70483">
        <ele>210.8</ele>
        <time>2014-01-15T10:14:51Z</time>
      </trkpt>
      <trkpt lat="43.22498" lon="5.70485">
        <ele>212.1</ele>
        <time>2014-01-15T10:14:54Z</time>
      </trkpt>
      <trkpt lat="43.22494" lon="5.70485">
        <ele>212.3</ele>
        <time>2014-01-15T10:14:57Z</time>
      </trkpt>
      <trkpt lat="43.2249" lon="5.70486">
        <ele>212.1</ele>
        <time>2014-01-15T10:15:01Z</time>
      </trkpt>
      <trkpt lat="43.22486" lon="5.70486">
        <ele>212.3</ele>
        <time>2014-01-15T10:15:05Z</time>
      </trkpt>
      <trkpt lat="43.22484" lon="5.70487">
        <ele>212.5</ele>
        <time>2014-01-15T10:15:06Z</time>
      </trkpt>
      <trkpt lat="43.22478" lon="5.70488">
        <ele>213.5</ele>
        <time>2014-01-15T10:15:11Z</time>
      </trkpt>
      <trkpt lat="43.22475" lon="5.7049">
        <ele>213.8</ele>
        <time>2014-01-15T10:15:14Z</time>
      </trkpt>
      <trkpt lat="43.22471" lon="5.70491">
        <ele>214.8</ele>
        <time>2014-01-15T10:15:17Z</time>
      </trkpt>
      <trkpt lat="43.22467" lon="5.7049">
        <ele>214.6</ele>
        <time>2014-01-15T10:15:20Z</time>
      </trkpt>
      <trkpt lat="43.22463" lon="5.70492">
        <ele>215.1</ele>
        <time>2014-01-15T10:15:23Z</time>
      </trkpt>
      <trkpt lat="43.2246" lon="5.70492">
        <ele>214.6</ele>
        <time>2014-01-15T10:15:26Z</time>
      </trkpt>
      <trkpt lat="43.22456" lon="5.70492">
        <ele>214.1</ele>
        <time>2014-01-15T10:15:29Z</time>
      </trkpt>
      <trkpt lat="43.22453" lon="5.70493">
        <ele>214.1</ele>
        <time>2014-01-15T10:15:32Z</time>
      </trkpt>
      <trkpt lat="43.22449" lon="5.70496">
        <ele>213.3</ele>
        <time>2014-01-15T10:15:36Z</time>
      </trkpt>
      <trkpt lat="43.22446" lon="5.705">
        <ele>212.1</ele>
        <time>2014-01-15T10:15:40Z</time>
      </trkpt>
      <trkpt lat="43.22444" lon="5.70505">
        <ele>211.8</ele>
        <time>2014-01-15T10:15:44Z</time>
      </trkpt>
      <trkpt lat="43.22443" lon="5.7051">
        <ele>213.5</ele>
        <time>2014-01-15T10:15:47Z</time>
      </trkpt>
      <trkpt lat="43.22443" lon="5.70514">
        <ele>214.3</ele>
        <time>2014-01-15T10:15:50Z</time>
      </trkpt>
      <trkpt lat="43.22443" lon="5.7052">
        <ele>213</ele>
        <time>2014-01-15T10:15:53Z</time>
      </trkpt>
      <trkpt lat="43.22443" lon="5.70526">
        <ele>213</ele>
        <time>2014-01-15T10:15:58Z</time>
      </trkpt>
      <trkpt lat="43.22443" lon="5.70532">
        <ele>211.3</ele>
        <time>2014-01-15T10:16:04Z</time>
      </trkpt>
      <trkpt lat="43.2244" lon="5.70536">
        <ele>212.8</ele>
        <time>2014-01-15T10:16:39Z</time>
      </trkpt>
      <trkpt lat="43.2244" lon="5.70537">
        <ele>212.5</ele>
        <time>2014-01-15T10:16:40Z</time>
      </trkpt>
      <trkpt lat="43.22437" lon="5.70546">
        <ele>211.3</ele>
        <time>2014-01-15T10:16:48Z</time>
      </trkpt>
      <trkpt lat="43.22433" lon="5.70548">
        <ele>210.8</ele>
        <time>2014-01-15T10:16:56Z</time>
      </trkpt>
      <trkpt lat="43.2243" lon="5.7055">
        <ele>213.5</ele>
        <time>2014-01-15T10:17:11Z</time>
      </trkpt>
      <trkpt lat="43.22428" lon="5.70554">
        <ele>213.6</ele>
        <time>2014-01-15T10:17:14Z</time>
      </trkpt>
      <trkpt lat="43.22426" lon="5.70558">
        <ele>213.5</ele>
        <time>2014-01-15T10:17:17Z</time>
      </trkpt>
      <trkpt lat="43.22424" lon="5.70563">
        <ele>212.8</ele>
        <time>2014-01-15T10:17:21Z</time>
      </trkpt>
      <trkpt lat="43.22421" lon="5.70567">
        <ele>215.5</ele>
        <time>2014-01-15T10:17:23Z</time>
      </trkpt>
      <trkpt lat="43.22419" lon="5.70571">
        <ele>216.6</ele>
        <time>2014-01-15T10:17:26Z</time>
      </trkpt>
      <trkpt lat="43.22416" lon="5.70575">
        <ele>218.3</ele>
        <time>2014-01-15T10:17:28Z</time>
      </trkpt>
      <trkpt lat="43.22414" lon="5.70579">
        <ele>217.8</ele>
        <time>2014-01-15T10:17:31Z</time>
      </trkpt>
      <trkpt lat="43.22413" lon="5.70583">
        <ele>217</ele>
        <time>2014-01-15T10:17:33Z</time>
      </trkpt>
      <trkpt lat="43.22413" lon="5.70589">
        <ele>215.1</ele>
        <time>2014-01-15T10:17:36Z</time>
      </trkpt>
      <trkpt lat="43.2241" lon="5.70593">
        <ele>216.1</ele>
        <time>2014-01-15T10:17:39Z</time>
      </trkpt>
      <trkpt lat="43.22409" lon="5.70597">
        <ele>215.6</ele>
        <time>2014-01-15T10:17:42Z</time>
      </trkpt>
      <trkpt lat="43.22408" lon="5.70598">
        <ele>215.6</ele>
        <time>2014-01-15T10:17:43Z</time>
      </trkpt>
      <trkpt lat="43.22405" lon="5.70605">
        <ele>215.6</ele>
        <time>2014-01-15T10:17:49Z</time>
      </trkpt>
      <trkpt lat="43.22402" lon="5.7061">
        <ele>216</ele>
        <time>2014-01-15T10:17:54Z</time>
      </trkpt>
      <trkpt lat="43.22398" lon="5.70614">
        <ele>215.8</ele>
        <time>2014-01-15T10:17:59Z</time>
      </trkpt>
      <trkpt lat="43.22396" lon="5.70618">
        <ele>215.1</ele>
        <time>2014-01-15T10:18:03Z</time>
      </trkpt>
      <trkpt lat="43.22393" lon="5.70622">
        <ele>215.1</ele>
        <time>2014-01-15T10:18:07Z</time>
      </trkpt>
      <trkpt lat="43.2239" lon="5.70625">
        <ele>215.6</ele>
        <time>2014-01-15T10:18:10Z</time>
      </trkpt>
      <trkpt lat="43.22387" lon="5.70629">
        <ele>215.1</ele>
        <time>2014-01-15T10:18:14Z</time>
      </trkpt>
      <trkpt lat="43.22384" lon="5.70633">
        <ele>215.6</ele>
        <time>2014-01-15T10:18:18Z</time>
      </trkpt>
      <trkpt lat="43.2238" lon="5.70635">
        <ele>216.6</ele>
        <time>2014-01-15T10:18:22Z</time>
      </trkpt>
      <trkpt lat="43.22376" lon="5.70637">
        <ele>216.3</ele>
        <time>2014-01-15T10:18:26Z</time>
      </trkpt>
      <trkpt lat="43.22372" lon="5.70639">
        <ele>216.8</ele>
        <time>2014-01-15T10:18:30Z</time>
      </trkpt>
      <trkpt lat="43.22368" lon="5.70641">
        <ele>216.3</ele>
        <time>2014-01-15T10:18:34Z</time>
      </trkpt>
      <trkpt lat="43.22364" lon="5.70642">
        <ele>216.6</ele>
        <time>2014-01-15T10:18:38Z</time>
      </trkpt>
      <trkpt lat="43.22361" lon="5.70645">
        <ele>216.3</ele>
        <time>2014-01-15T10:18:42Z</time>
      </trkpt>
      <trkpt lat="43.22357" lon="5.70647">
        <ele>215.8</ele>
        <time>2014-01-15T10:18:46Z</time>
      </trkpt>
      <trkpt lat="43.22356" lon="5.70647">
        <ele>215.3</ele>
        <time>2014-01-15T10:18:47Z</time>
      </trkpt>
      <trkpt lat="43.22351" lon="5.70653">
        <ele>216.1</ele>
        <time>2014-01-15T10:18:54Z</time>
      </trkpt>
      <trkpt lat="43.22347" lon="5.70656">
        <ele>217.6</ele>
        <time>2014-01-15T10:18:58Z</time>
      </trkpt>
      <trkpt lat="43.22343" lon="5.70659">
        <ele>217</ele>
        <time>2014-01-15T10:19:02Z</time>
      </trkpt>
      <trkpt lat="43.2234" lon="5.70663">
        <ele>218.3</ele>
        <time>2014-01-15T10:19:06Z</time>
      </trkpt>
      <trkpt lat="43.22337" lon="5.70666">
        <ele>218.1</ele>
        <time>2014-01-15T10:19:10Z</time>
      </trkpt>
      <trkpt lat="43.22334" lon="5.70669">
        <ele>217.3</ele>
        <time>2014-01-15T10:19:15Z</time>
      </trkpt>
      <trkpt lat="43.22331" lon="5.70673">
        <ele>216.8</ele>
        <time>2014-01-15T10:19:18Z</time>
      </trkpt>
      <trkpt lat="43.22328" lon="5.70677">
        <ele>214.8</ele>
        <time>2014-01-15T10:19:24Z</time>
      </trkpt>
      <trkpt lat="43.22325" lon="5.70681">
        <ele>216.3</ele>
        <time>2014-01-15T10:19:28Z</time>
      </trkpt>
      <trkpt lat="43.22322" lon="5.70684">
        <ele>217.8</ele>
        <time>2014-01-15T10:19:31Z</time>
      </trkpt>
      <trkpt lat="43.22319" lon="5.70689">
        <ele>218.8</ele>
        <time>2014-01-15T10:19:34Z</time>
      </trkpt>
      <trkpt lat="43.22318" lon="5.70693">
        <ele>218.3</ele>
        <time>2014-01-15T10:19:37Z</time>
      </trkpt>
      <trkpt lat="43.22317" lon="5.70699">
        <ele>218.8</ele>
        <time>2014-01-15T10:19:41Z</time>
      </trkpt>
      <trkpt lat="43.22319" lon="5.70704">
        <ele>219.3</ele>
        <time>2014-01-15T10:19:45Z</time>
      </trkpt>
      <trkpt lat="43.22321" lon="5.70708">
        <ele>218.6</ele>
        <time>2014-01-15T10:19:49Z</time>
      </trkpt>
      <trkpt lat="43.22321" lon="5.7071">
        <ele>218.6</ele>
        <time>2014-01-15T10:19:50Z</time>
      </trkpt>
      <trkpt lat="43.22325" lon="5.70719">
        <ele>218.5</ele>
        <time>2014-01-15T10:19:57Z</time>
      </trkpt>
      <trkpt lat="43.22327" lon="5.70723">
        <ele>218</ele>
        <time>2014-01-15T10:20:01Z</time>
      </trkpt>
      <trkpt lat="43.2233" lon="5.70727">
        <ele>217.1</ele>
        <time>2014-01-15T10:20:05Z</time>
      </trkpt>
      <trkpt lat="43.22332" lon="5.70731">
        <ele>216.6</ele>
        <time>2014-01-15T10:20:09Z</time>
      </trkpt>
      <trkpt lat="43.22335" lon="5.70736">
        <ele>216.8</ele>
        <time>2014-01-15T10:20:13Z</time>
      </trkpt>
      <trkpt lat="43.22338" lon="5.7074">
        <ele>217.1</ele>
        <time>2014-01-15T10:20:17Z</time>
      </trkpt>
      <trkpt lat="43.2234" lon="5.70746">
        <ele>218.1</ele>
        <time>2014-01-15T10:20:22Z</time>
      </trkpt>
      <trkpt lat="43.22342" lon="5.70751">
        <ele>217.8</ele>
        <time>2014-01-15T10:20:26Z</time>
      </trkpt>
      <trkpt lat="43.22344" lon="5.70756">
        <ele>217.1</ele>
        <time>2014-01-15T10:20:30Z</time>
      </trkpt>
      <trkpt lat="43.22346" lon="5.70762">
        <ele>216.6</ele>
        <time>2014-01-15T10:20:34Z</time>
      </trkpt>
      <trkpt lat="43.22348" lon="5.70767">
        <ele>216.6</ele>
        <time>2014-01-15T10:20:38Z</time>
      </trkpt>
      <trkpt lat="43.22349" lon="5.70771">
        <ele>216.8</ele>
        <time>2014-01-15T10:20:41Z</time>
      </trkpt>
      <trkpt lat="43.22351" lon="5.70776">
        <ele>216.8</ele>
        <time>2014-01-15T10:20:44Z</time>
      </trkpt>
      <trkpt lat="43.22353" lon="5.70781">
        <ele>216.6</ele>
        <time>2014-01-15T10:20:48Z</time>
      </trkpt>
      <trkpt lat="43.22355" lon="5.70784">
        <ele>216.8</ele>
        <time>2014-01-15T10:20:51Z</time>
      </trkpt>
      <trkpt lat="43.22356" lon="5.70786">
        <ele>216.8</ele>
        <time>2014-01-15T10:20:52Z</time>
      </trkpt>
      <trkpt lat="43.22358" lon="5.70794">
        <ele>218.1</ele>
        <time>2014-01-15T10:20:57Z</time>
      </trkpt>
      <trkpt lat="43.2236" lon="5.70798">
        <ele>218.3</ele>
        <time>2014-01-15T10:21:00Z</time>
      </trkpt>
      <trkpt lat="43.22363" lon="5.70802">
        <ele>219.1</ele>
        <time>2014-01-15T10:21:04Z</time>
      </trkpt>
      <trkpt lat="43.22366" lon="5.70805">
        <ele>219.6</ele>
        <time>2014-01-15T10:21:07Z</time>
      </trkpt>
      <trkpt lat="43.22368" lon="5.70808">
        <ele>220.3</ele>
        <time>2014-01-15T10:21:10Z</time>
      </trkpt>
      <trkpt lat="43.22371" lon="5.70811">
        <ele>221.1</ele>
        <time>2014-01-15T10:21:13Z</time>
      </trkpt>
      <trkpt lat="43.22375" lon="5.70813">
        <ele>221.3</ele>
        <time>2014-01-15T10:21:17Z</time>
      </trkpt>
      <trkpt lat="43.22379" lon="5.70814">
        <ele>221.3</ele>
        <time>2014-01-15T10:21:22Z</time>
      </trkpt>
      <trkpt lat="43.22383" lon="5.70814">
        <ele>222.1</ele>
        <time>2014-01-15T10:21:25Z</time>
      </trkpt>
      <trkpt lat="43.22387" lon="5.70816">
        <ele>223.1</ele>
        <time>2014-01-15T10:21:29Z</time>
      </trkpt>
      <trkpt lat="43.22391" lon="5.70817">
        <ele>223.1</ele>
        <time>2014-01-15T10:21:33Z</time>
      </trkpt>
      <trkpt lat="43.22394" lon="5.7082">
        <ele>223.8</ele>
        <time>2014-01-15T10:21:37Z</time>
      </trkpt>
      <trkpt lat="43.22397" lon="5.70823">
        <ele>223.6</ele>
        <time>2014-01-15T10:21:41Z</time>
      </trkpt>
      <trkpt lat="43.224" lon="5.70827">
        <ele>223.6</ele>
        <time>2014-01-15T10:21:44Z</time>
      </trkpt>
      <trkpt lat="43.22402" lon="5.70831">
        <ele>223.6</ele>
        <time>2014-01-15T10:21:47Z</time>
      </trkpt>
      <trkpt lat="43.22402" lon="5.70837">
        <ele>224.8</ele>
        <time>2014-01-15T10:21:51Z</time>
      </trkpt>
      <trkpt lat="43.22401" lon="5.70842">
        <ele>225.5</ele>
        <time>2014-01-15T10:21:55Z</time>
      </trkpt>
      <trkpt lat="43.22401" lon="5.70843">
        <ele>225.6</ele>
        <time>2014-01-15T10:21:56Z</time>
      </trkpt>
      <trkpt lat="43.22397" lon="5.70851">
        <ele>226.5</ele>
        <time>2014-01-15T10:22:03Z</time>
      </trkpt>
      <trkpt lat="43.22394" lon="5.70856">
        <ele>226.8</ele>
        <time>2014-01-15T10:22:07Z</time>
      </trkpt>
      <trkpt lat="43.22392" lon="5.7086">
        <ele>226.5</ele>
        <time>2014-01-15T10:22:11Z</time>
      </trkpt>
      <trkpt lat="43.2239" lon="5.70865">
        <ele>226.5</ele>
        <time>2014-01-15T10:22:15Z</time>
      </trkpt>
      <trkpt lat="43.2239" lon="5.70871">
        <ele>226.6</ele>
        <time>2014-01-15T10:22:19Z</time>
      </trkpt>
      <trkpt lat="43.2239" lon="5.70877">
        <ele>226.8</ele>
        <time>2014-01-15T10:22:23Z</time>
      </trkpt>
      <trkpt lat="43.22391" lon="5.70883">
        <ele>227</ele>
        <time>2014-01-15T10:22:27Z</time>
      </trkpt>
      <trkpt lat="43.22393" lon="5.70888">
        <ele>227.1</ele>
        <time>2014-01-15T10:22:31Z</time>
      </trkpt>
      <trkpt lat="43.22394" lon="5.70893">
        <ele>227.3</ele>
        <time>2014-01-15T10:22:35Z</time>
      </trkpt>
      <trkpt lat="43.22395" lon="5.70899">
        <ele>227.5</ele>
        <time>2014-01-15T10:22:39Z</time>
      </trkpt>
      <trkpt lat="43.22397" lon="5.70904">
        <ele>227.6</ele>
        <time>2014-01-15T10:22:43Z</time>
      </trkpt>
      <trkpt lat="43.22398" lon="5.7091">
        <ele>227.8</ele>
        <time>2014-01-15T10:22:47Z</time>
      </trkpt>
      <trkpt lat="43.22399" lon="5.70916">
        <ele>228.1</ele>
        <time>2014-01-15T10:22:51Z</time>
      </trkpt>
      <trkpt lat="43.224" lon="5.70921">
        <ele>228.3</ele>
        <time>2014-01-15T10:22:55Z</time>
      </trkpt>
      <trkpt lat="43.224" lon="5.70922">
        <ele>228.3</ele>
        <time>2014-01-15T10:22:56Z</time>
      </trkpt>
      <trkpt lat="43.22401" lon="5.70932">
        <ele>228.8</ele>
        <time>2014-01-15T10:23:03Z</time>
      </trkpt>
      <trkpt lat="43.22401" lon="5.70938">
        <ele>228.8</ele>
        <time>2014-01-15T10:23:07Z</time>
      </trkpt>
      <trkpt lat="43.224" lon="5.70943">
        <ele>228.6</ele>
        <time>2014-01-15T10:23:11Z</time>
      </trkpt>
      <trkpt lat="43.224" lon="5.70949">
        <ele>228.6</ele>
        <time>2014-01-15T10:23:15Z</time>
      </trkpt>
      <trkpt lat="43.224" lon="5.70955">
        <ele>228.6</ele>
        <time>2014-01-15T10:23:19Z</time>
      </trkpt>
      <trkpt lat="43.22399" lon="5.70961">
        <ele>228.8</ele>
        <time>2014-01-15T10:23:23Z</time>
      </trkpt>
      <trkpt lat="43.22398" lon="5.70966">
        <ele>228.8</ele>
        <time>2014-01-15T10:23:27Z</time>
      </trkpt>
      <trkpt lat="43.22398" lon="5.70972">
        <ele>229</ele>
        <time>2014-01-15T10:23:31Z</time>
      </trkpt>
      <trkpt lat="43.22397" lon="5.70978">
        <ele>228.8</ele>
        <time>2014-01-15T10:23:35Z</time>
      </trkpt>
      <trkpt lat="43.22397" lon="5.70983">
        <ele>228.8</ele>
        <time>2014-01-15T10:23:39Z</time>
      </trkpt>
      <trkpt lat="43.22396" lon="5.70989">
        <ele>228.3</ele>
        <time>2014-01-15T10:23:43Z</time>
      </trkpt>
      <trkpt lat="43.22396" lon="5.70995">
        <ele>228.5</ele>
        <time>2014-01-15T10:23:47Z</time>
      </trkpt>
      <trkpt lat="43.22395" lon="5.71001">
        <ele>228.3</ele>
        <time>2014-01-15T10:23:51Z</time>
      </trkpt>
      <trkpt lat="43.22395" lon="5.71006">
        <ele>228.1</ele>
        <time>2014-01-15T10:23:55Z</time>
      </trkpt>
      <trkpt lat="43.22394" lon="5.71012">
        <ele>228.3</ele>
        <time>2014-01-15T10:23:59Z</time>
      </trkpt>
      <trkpt lat="43.22394" lon="5.71014">
        <ele>228.3</ele>
        <time>2014-01-15T10:24:00Z</time>
      </trkpt>
      <trkpt lat="43.22393" lon="5.71022">
        <ele>229</ele>
        <time>2014-01-15T10:24:05Z</time>
      </trkpt>
      <trkpt lat="43.22392" lon="5.71028">
        <ele>229.3</ele>
        <time>2014-01-15T10:24:09Z</time>
      </trkpt>
      <trkpt lat="43.22391" lon="5.71034">
        <ele>229.6</ele>
        <time>2014-01-15T10:24:13Z</time>
      </trkpt>
      <trkpt lat="43.22391" lon="5.7104">
        <ele>229.6</ele>
        <time>2014-01-15T10:24:17Z</time>
      </trkpt>
      <trkpt lat="43.22391" lon="5.71044">
        <ele>229.8</ele>
        <time>2014-01-15T10:24:20Z</time>
      </trkpt>
      <trkpt lat="43.22392" lon="5.7105">
        <ele>230</ele>
        <time>2014-01-15T10:24:24Z</time>
      </trkpt>
      <trkpt lat="43.22393" lon="5.71056">
        <ele>231.1</ele>
        <time>2014-01-15T10:24:27Z</time>
      </trkpt>
      <trkpt lat="43.22394" lon="5.71061">
        <ele>231</ele>
        <time>2014-01-15T10:24:31Z</time>
      </trkpt>
      <trkpt lat="43.22396" lon="5.71065">
        <ele>231.8</ele>
        <time>2014-01-15T10:24:34Z</time>
      </trkpt>
      <trkpt lat="43.22398" lon="5.71069">
        <ele>233.1</ele>
        <time>2014-01-15T10:24:37Z</time>
      </trkpt>
      <trkpt lat="43.22401" lon="5.71074">
        <ele>234.1</ele>
        <time>2014-01-15T10:24:41Z</time>
      </trkpt>
      <trkpt lat="43.22404" lon="5.71076">
        <ele>234.8</ele>
        <time>2014-01-15T10:24:45Z</time>
      </trkpt>
      <trkpt lat="43.22408" lon="5.71077">
        <ele>235.3</ele>
        <time>2014-01-15T10:24:49Z</time>
      </trkpt>
      <trkpt lat="43.22412" lon="5.71077">
        <ele>235.6</ele>
        <time>2014-01-15T10:24:54Z</time>
      </trkpt>
      <trkpt lat="43.22416" lon="5.71077">
        <ele>236</ele>
        <time>2014-01-15T10:24:58Z</time>
      </trkpt>
      <trkpt lat="43.22419" lon="5.71076">
        <ele>236.1</ele>
        <time>2014-01-15T10:25:02Z</time>
      </trkpt>
      <trkpt lat="43.2242" lon="5.71075">
        <ele>236.3</ele>
        <time>2014-01-15T10:25:03Z</time>
      </trkpt>
      <trkpt lat="43.22427" lon="5.71074">
        <ele>237.3</ele>
        <time>2014-01-15T10:25:10Z</time>
      </trkpt>
      <trkpt lat="43.22431" lon="5.71073">
        <ele>238.1</ele>
        <time>2014-01-15T10:25:14Z</time>
      </trkpt>
      <trkpt lat="43.22435" lon="5.71072">
        <ele>239.3</ele>
        <time>2014-01-15T10:25:18Z</time>
      </trkpt>
      <trkpt lat="43.22439" lon="5.7107">
        <ele>239.3</ele>
        <time>2014-01-15T10:25:22Z</time>
      </trkpt>
      <trkpt lat="43.22443" lon="5.71069">
        <ele>239.8</ele>
        <time>2014-01-15T10:25:25Z</time>
      </trkpt>
      <trkpt lat="43.22446" lon="5.71068">
        <ele>240.3</ele>
        <time>2014-01-15T10:25:28Z</time>
      </trkpt>
      <trkpt lat="43.2245" lon="5.71067">
        <ele>240.8</ele>
        <time>2014-01-15T10:25:32Z</time>
      </trkpt>
      <trkpt lat="43.22453" lon="5.71067">
        <ele>241.1</ele>
        <time>2014-01-15T10:25:35Z</time>
      </trkpt>
      <trkpt lat="43.22457" lon="5.71066">
        <ele>241.6</ele>
        <time>2014-01-15T10:25:38Z</time>
      </trkpt>
      <trkpt lat="43.22461" lon="5.71067">
        <ele>241.5</ele>
        <time>2014-01-15T10:25:42Z</time>
      </trkpt>
      <trkpt lat="43.22464" lon="5.7107">
        <ele>241.3</ele>
        <time>2014-01-15T10:25:45Z</time>
      </trkpt>
      <trkpt lat="43.22466" lon="5.71074">
        <ele>241.3</ele>
        <time>2014-01-15T10:25:49Z</time>
      </trkpt>
      <trkpt lat="43.22466" lon="5.7108">
        <ele>241.6</ele>
        <time>2014-01-15T10:25:54Z</time>
      </trkpt>
      <trkpt lat="43.22464" lon="5.71085">
        <ele>241.6</ele>
        <time>2014-01-15T10:25:58Z</time>
      </trkpt>
      <trkpt lat="43.22461" lon="5.71089">
        <ele>241.6</ele>
        <time>2014-01-15T10:26:02Z</time>
      </trkpt>
      <trkpt lat="43.22459" lon="5.71093">
        <ele>241.3</ele>
        <time>2014-01-15T10:26:06Z</time>
      </trkpt>
      <trkpt lat="43.22458" lon="5.71094">
        <ele>241.3</ele>
        <time>2014-01-15T10:26:07Z</time>
      </trkpt>
      <trkpt lat="43.22452" lon="5.711">
        <ele>240.6</ele>
        <time>2014-01-15T10:26:14Z</time>
      </trkpt>
      <trkpt lat="43.22449" lon="5.71103">
        <ele>240.1</ele>
        <time>2014-01-15T10:26:18Z</time>
      </trkpt>
      <trkpt lat="43.22445" lon="5.71105">
        <ele>240</ele>
        <time>2014-01-15T10:26:22Z</time>
      </trkpt>
      <trkpt lat="43.22442" lon="5.71108">
        <ele>240.1</ele>
        <time>2014-01-15T10:26:25Z</time>
      </trkpt>
      <trkpt lat="43.22438" lon="5.7111">
        <ele>240.1</ele>
        <time>2014-01-15T10:26:28Z</time>
      </trkpt>
      <trkpt lat="43.22435" lon="5.71112">
        <ele>240</ele>
        <time>2014-01-15T10:26:31Z</time>
      </trkpt>
      <trkpt lat="43.22431" lon="5.71115">
        <ele>239.5</ele>
        <time>2014-01-15T10:26:35Z</time>
      </trkpt>
      <trkpt lat="43.22429" lon="5.71117">
        <ele>239</ele>
        <time>2014-01-15T10:26:38Z</time>
      </trkpt>
      <trkpt lat="43.22425" lon="5.71119">
        <ele>238.6</ele>
        <time>2014-01-15T10:26:41Z</time>
      </trkpt>
      <trkpt lat="43.22422" lon="5.7112">
        <ele>238.5</ele>
        <time>2014-01-15T10:26:44Z</time>
      </trkpt>
      <trkpt lat="43.22418" lon="5.71122">
        <ele>238.8</ele>
        <time>2014-01-15T10:26:48Z</time>
      </trkpt>
      <trkpt lat="43.22414" lon="5.71124">
        <ele>238.8</ele>
        <time>2014-01-15T10:26:52Z</time>
      </trkpt>
      <trkpt lat="43.2241" lon="5.71126">
        <ele>238.6</ele>
        <time>2014-01-15T10:26:55Z</time>
      </trkpt>
      <trkpt lat="43.22407" lon="5.71129">
        <ele>238.8</ele>
        <time>2014-01-15T10:26:59Z</time>
      </trkpt>
      <trkpt lat="43.22405" lon="5.71134">
        <ele>238.8</ele>
        <time>2014-01-15T10:27:06Z</time>
      </trkpt>
      <trkpt lat="43.22402" lon="5.71139">
        <ele>239</ele>
        <time>2014-01-15T10:27:14Z</time>
      </trkpt>
      <trkpt lat="43.22402" lon="5.7114">
        <ele>238.8</ele>
        <time>2014-01-15T10:27:15Z</time>
      </trkpt>
      <trkpt lat="43.22399" lon="5.71143">
        <ele>240.3</ele>
        <time>2014-01-15T10:28:33Z</time>
      </trkpt>
      <trkpt lat="43.22396" lon="5.71153">
        <ele>240.3</ele>
        <time>2014-01-15T10:28:42Z</time>
      </trkpt>
      <trkpt lat="43.22395" lon="5.71158">
        <ele>240.1</ele>
        <time>2014-01-15T10:28:46Z</time>
      </trkpt>
      <trkpt lat="43.22394" lon="5.71164">
        <ele>240.1</ele>
        <time>2014-01-15T10:28:51Z</time>
      </trkpt>
      <trkpt lat="43.22398" lon="5.71168">
        <ele>239.3</ele>
        <time>2014-01-15T10:29:31Z</time>
      </trkpt>
      <trkpt lat="43.22402" lon="5.71167">
        <ele>240.1</ele>
        <time>2014-01-15T10:31:13Z</time>
      </trkpt>
      <trkpt lat="43.22402" lon="5.71166">
        <ele>240.1</ele>
        <time>2014-01-15T10:31:14Z</time>
      </trkpt>
      <trkpt lat="43.22404" lon="5.71156">
        <ele>239.6</ele>
        <time>2014-01-15T10:31:26Z</time>
      </trkpt>
      <trkpt lat="43.22405" lon="5.7115">
        <ele>239.8</ele>
        <time>2014-01-15T10:31:43Z</time>
      </trkpt>
      <trkpt lat="43.22404" lon="5.71145">
        <ele>240.3</ele>
        <time>2014-01-15T10:31:55Z</time>
      </trkpt>
      <trkpt lat="43.22405" lon="5.71139">
        <ele>239.6</ele>
        <time>2014-01-15T10:32:01Z</time>
      </trkpt>
      <trkpt lat="43.22407" lon="5.71134">
        <ele>238.8</ele>
        <time>2014-01-15T10:32:08Z</time>
      </trkpt>
      <trkpt lat="43.22408" lon="5.71129">
        <ele>238.3</ele>
        <time>2014-01-15T10:32:13Z</time>
      </trkpt>
      <trkpt lat="43.22411" lon="5.71125">
        <ele>238.1</ele>
        <time>2014-01-15T10:32:17Z</time>
      </trkpt>
      <trkpt lat="43.22412" lon="5.71125">
        <ele>238.1</ele>
        <time>2014-01-15T10:32:18Z</time>
      </trkpt>
      <trkpt lat="43.22419" lon="5.71123">
        <ele>238.3</ele>
        <time>2014-01-15T10:32:26Z</time>
      </trkpt>
      <trkpt lat="43.22422" lon="5.7112">
        <ele>238.8</ele>
        <time>2014-01-15T10:32:31Z</time>
      </trkpt>
      <trkpt lat="43.22426" lon="5.71119">
        <ele>239.6</ele>
        <time>2014-01-15T10:32:37Z</time>
      </trkpt>
      <trkpt lat="43.2243" lon="5.71116">
        <ele>239.8</ele>
        <time>2014-01-15T10:32:42Z</time>
      </trkpt>
      <trkpt lat="43.22434" lon="5.71114">
        <ele>240.1</ele>
        <time>2014-01-15T10:32:46Z</time>
      </trkpt>
      <trkpt lat="43.22437" lon="5.71111">
        <ele>240.1</ele>
        <time>2014-01-15T10:32:50Z</time>
      </trkpt>
      <trkpt lat="43.22441" lon="5.71109">
        <ele>239.8</ele>
        <time>2014-01-15T10:32:54Z</time>
      </trkpt>
      <trkpt lat="43.22444" lon="5.71106">
        <ele>239.8</ele>
        <time>2014-01-15T10:32:58Z</time>
      </trkpt>
      <trkpt lat="43.22448" lon="5.71104">
        <ele>240.1</ele>
        <time>2014-01-15T10:33:02Z</time>
      </trkpt>
      <trkpt lat="43.22451" lon="5.71101">
        <ele>240.6</ele>
        <time>2014-01-15T10:33:06Z</time>
      </trkpt>
      <trkpt lat="43.22454" lon="5.71099">
        <ele>240.3</ele>
        <time>2014-01-15T10:33:10Z</time>
      </trkpt>
      <trkpt lat="43.22458" lon="5.71096">
        <ele>239.6</ele>
        <time>2014-01-15T10:33:14Z</time>
      </trkpt>
      <trkpt lat="43.22462" lon="5.71093">
        <ele>239.3</ele>
        <time>2014-01-15T10:33:18Z</time>
      </trkpt>
      <trkpt lat="43.22462" lon="5.71092">
        <ele>239.5</ele>
        <time>2014-01-15T10:33:19Z</time>
      </trkpt>
      <trkpt lat="43.22467" lon="5.71085">
        <ele>240.1</ele>
        <time>2014-01-15T10:33:26Z</time>
      </trkpt>
      <trkpt lat="43.22469" lon="5.7108">
        <ele>239.6</ele>
        <time>2014-01-15T10:33:31Z</time>
      </trkpt>
      <trkpt lat="43.22469" lon="5.71075">
        <ele>239.1</ele>
        <time>2014-01-15T10:33:37Z</time>
      </trkpt>
      <trkpt lat="43.22467" lon="5.7107">
        <ele>239.8</ele>
        <time>2014-01-15T10:33:43Z</time>
      </trkpt>
      <trkpt lat="43.22465" lon="5.71064">
        <ele>242.1</ele>
        <time>2014-01-15T10:33:58Z</time>
      </trkpt>
      <trkpt lat="43.22462" lon="5.7106">
        <ele>242.3</ele>
        <time>2014-01-15T10:34:13Z</time>
      </trkpt>
      <trkpt lat="43.2246" lon="5.71054">
        <ele>243.3</ele>
        <time>2014-01-15T10:34:43Z</time>
      </trkpt>
      <trkpt lat="43.22459" lon="5.71054">
        <ele>243.1</ele>
        <time>2014-01-15T10:34:44Z</time>
      </trkpt>
      <trkpt lat="43.22452" lon="5.71055">
        <ele>243.8</ele>
        <time>2014-01-15T10:34:53Z</time>
      </trkpt>
      <trkpt lat="43.22448" lon="5.71054">
        <ele>244.1</ele>
        <time>2014-01-15T10:34:58Z</time>
      </trkpt>
      <trkpt lat="43.22444" lon="5.71053">
        <ele>243.8</ele>
        <time>2014-01-15T10:35:03Z</time>
      </trkpt>
      <trkpt lat="43.2244" lon="5.71053">
        <ele>244.1</ele>
        <time>2014-01-15T10:35:08Z</time>
      </trkpt>
      <trkpt lat="43.22436" lon="5.71051">
        <ele>244.5</ele>
        <time>2014-01-15T10:35:14Z</time>
      </trkpt>
      <trkpt lat="43.22434" lon="5.71046">
        <ele>245.6</ele>
        <time>2014-01-15T10:35:24Z</time>
      </trkpt>
      <trkpt lat="43.22435" lon="5.7104">
        <ele>246</ele>
        <time>2014-01-15T10:35:32Z</time>
      </trkpt>
      <trkpt lat="43.22438" lon="5.71035">
        <ele>247.6</ele>
        <time>2014-01-15T10:35:40Z</time>
      </trkpt>
      <trkpt lat="43.22441" lon="5.71031">
        <ele>246.8</ele>
        <time>2014-01-15T10:35:48Z</time>
      </trkpt>
      <trkpt lat="43.22441" lon="5.7103">
        <ele>247</ele>
        <time>2014-01-15T10:35:49Z</time>
      </trkpt>
      <trkpt lat="43.22446" lon="5.71023">
        <ele>246.8</ele>
        <time>2014-01-15T10:36:01Z</time>
      </trkpt>
      <trkpt lat="43.22449" lon="5.71019">
        <ele>246.5</ele>
        <time>2014-01-15T10:36:08Z</time>
      </trkpt>
      <trkpt lat="43.22452" lon="5.71014">
        <ele>247.6</ele>
        <time>2014-01-15T10:36:14Z</time>
      </trkpt>
      <trkpt lat="43.22455" lon="5.71011">
        <ele>249.1</ele>
        <time>2014-01-15T10:36:20Z</time>
      </trkpt>
      <trkpt lat="43.22458" lon="5.71006">
        <ele>250.6</ele>
        <time>2014-01-15T10:36:26Z</time>
      </trkpt>
      <trkpt lat="43.2246" lon="5.71002">
        <ele>252.5</ele>
        <time>2014-01-15T10:36:32Z</time>
      </trkpt>
      <trkpt lat="43.22464" lon="5.70998">
        <ele>253.8</ele>
        <time>2014-01-15T10:36:38Z</time>
      </trkpt>
      <trkpt lat="43.22467" lon="5.70994">
        <ele>255.3</ele>
        <time>2014-01-15T10:36:44Z</time>
      </trkpt>
      <trkpt lat="43.2247" lon="5.7099">
        <ele>256.2</ele>
        <time>2014-01-15T10:36:51Z</time>
      </trkpt>
      <trkpt lat="43.22471" lon="5.7099">
        <ele>256.5</ele>
        <time>2014-01-15T10:36:52Z</time>
      </trkpt>
      <trkpt lat="43.22477" lon="5.70983">
        <ele>258.3</ele>
        <time>2014-01-15T10:37:06Z</time>
      </trkpt>
      <trkpt lat="43.2248" lon="5.70979">
        <ele>259.1</ele>
        <time>2014-01-15T10:37:14Z</time>
      </trkpt>
      <trkpt lat="43.22483" lon="5.70975">
        <ele>260.1</ele>
        <time>2014-01-15T10:37:21Z</time>
      </trkpt>
      <trkpt lat="43.22486" lon="5.70971">
        <ele>261.2</ele>
        <time>2014-01-15T10:37:27Z</time>
      </trkpt>
      <trkpt lat="43.22488" lon="5.70967">
        <ele>262</ele>
        <time>2014-01-15T10:37:32Z</time>
      </trkpt>
      <trkpt lat="43.22491" lon="5.70963">
        <ele>263.2</ele>
        <time>2014-01-15T10:37:39Z</time>
      </trkpt>
      <trkpt lat="43.22494" lon="5.70959">
        <ele>264.2</ele>
        <time>2014-01-15T10:37:47Z</time>
      </trkpt>
      <trkpt lat="43.22497" lon="5.70954">
        <ele>265.7</ele>
        <time>2014-01-15T10:37:54Z</time>
      </trkpt>
      <trkpt lat="43.22497" lon="5.70954">
        <ele>265.8</ele>
        <time>2014-01-15T10:37:55Z</time>
      </trkpt>
      <trkpt lat="43.22503" lon="5.70947">
        <ele>267.5</ele>
        <time>2014-01-15T10:38:08Z</time>
      </trkpt>
      <trkpt lat="43.22506" lon="5.70944">
        <ele>268.2</ele>
        <time>2014-01-15T10:38:15Z</time>
      </trkpt>
      <trkpt lat="43.2251" lon="5.70941">
        <ele>269.5</ele>
        <time>2014-01-15T10:38:23Z</time>
      </trkpt>
      <trkpt lat="43.22514" lon="5.70939">
        <ele>271</ele>
        <time>2014-01-15T10:38:30Z</time>
      </trkpt>
      <trkpt lat="43.22518" lon="5.70937">
        <ele>271.8</ele>
        <time>2014-01-15T10:38:37Z</time>
      </trkpt>
      <trkpt lat="43.22522" lon="5.70935">
        <ele>273.2</ele>
        <time>2014-01-15T10:38:45Z</time>
      </trkpt>
      <trkpt lat="43.22525" lon="5.70932">
        <ele>274</ele>
        <time>2014-01-15T10:38:52Z</time>
      </trkpt>
      <trkpt lat="43.22529" lon="5.70928">
        <ele>274.5</ele>
        <time>2014-01-15T10:38:58Z</time>
      </trkpt>
      <trkpt lat="43.22529" lon="5.70928">
        <ele>274.5</ele>
        <time>2014-01-15T10:38:59Z</time>
      </trkpt>
      <trkpt lat="43.22535" lon="5.70921">
        <ele>276</ele>
        <time>2014-01-15T10:39:13Z</time>
      </trkpt>
      <trkpt lat="43.22539" lon="5.70918">
        <ele>277</ele>
        <time>2014-01-15T10:39:20Z</time>
      </trkpt>
      <trkpt lat="43.22542" lon="5.70915">
        <ele>277.7</ele>
        <time>2014-01-15T10:39:26Z</time>
      </trkpt>
      <trkpt lat="43.22546" lon="5.70911">
        <ele>279.3</ele>
        <time>2014-01-15T10:39:34Z</time>
      </trkpt>
      <trkpt lat="43.22549" lon="5.70908">
        <ele>280.2</ele>
        <time>2014-01-15T10:39:41Z</time>
      </trkpt>
      <trkpt lat="43.22552" lon="5.70905">
        <ele>281</ele>
        <time>2014-01-15T10:39:48Z</time>
      </trkpt>
      <trkpt lat="43.22556" lon="5.70902">
        <ele>281.6</ele>
        <time>2014-01-15T10:39:55Z</time>
      </trkpt>
      <trkpt lat="43.22559" lon="5.70898">
        <ele>282</ele>
        <time>2014-01-15T10:40:02Z</time>
      </trkpt>
      <trkpt lat="43.2256" lon="5.70898">
        <ele>282.2</ele>
        <time>2014-01-15T10:40:03Z</time>
      </trkpt>
      <trkpt lat="43.22566" lon="5.70891">
        <ele>283.8</ele>
        <time>2014-01-15T10:40:29Z</time>
      </trkpt>
      <trkpt lat="43.22569" lon="5.70887">
        <ele>285.2</ele>
        <time>2014-01-15T10:40:36Z</time>
      </trkpt>
      <trkpt lat="43.22573" lon="5.70884">
        <ele>286.6</ele>
        <time>2014-01-15T10:40:44Z</time>
      </trkpt>
      <trkpt lat="43.22576" lon="5.70881">
        <ele>287.7</ele>
        <time>2014-01-15T10:40:50Z</time>
      </trkpt>
      <trkpt lat="43.22579" lon="5.70878">
        <ele>289</ele>
        <time>2014-01-15T10:40:57Z</time>
      </trkpt>
      <trkpt lat="43.22582" lon="5.70873">
        <ele>290</ele>
        <time>2014-01-15T10:41:04Z</time>
      </trkpt>
      <trkpt lat="43.22582" lon="5.70873">
        <ele>290.1</ele>
        <time>2014-01-15T10:41:05Z</time>
      </trkpt>
      <trkpt lat="43.22589" lon="5.70866">
        <ele>290.7</ele>
        <time>2014-01-15T10:41:17Z</time>
      </trkpt>
      <trkpt lat="43.22592" lon="5.70863">
        <ele>290.7</ele>
        <time>2014-01-15T10:41:24Z</time>
      </trkpt>
      <trkpt lat="43.22595" lon="5.7086">
        <ele>291.2</ele>
        <time>2014-01-15T10:41:30Z</time>
      </trkpt>
      <trkpt lat="43.22599" lon="5.70856">
        <ele>292.1</ele>
        <time>2014-01-15T10:41:37Z</time>
      </trkpt>
      <trkpt lat="43.22602" lon="5.70853">
        <ele>292.8</ele>
        <time>2014-01-15T10:41:44Z</time>
      </trkpt>
      <trkpt lat="43.22605" lon="5.70849">
        <ele>294</ele>
        <time>2014-01-15T10:41:52Z</time>
      </trkpt>
      <trkpt lat="43.22608" lon="5.70845">
        <ele>295.6</ele>
        <time>2014-01-15T10:42:00Z</time>
      </trkpt>
      <trkpt lat="43.22611" lon="5.70841">
        <ele>296.7</ele>
        <time>2014-01-15T10:42:07Z</time>
      </trkpt>
      <trkpt lat="43.22612" lon="5.7084">
        <ele>297</ele>
        <time>2014-01-15T10:42:08Z</time>
      </trkpt>
      <trkpt lat="43.22617" lon="5.70832">
        <ele>298.3</ele>
        <time>2014-01-15T10:42:21Z</time>
      </trkpt>
      <trkpt lat="43.2262" lon="5.70828">
        <ele>299.7</ele>
        <time>2014-01-15T10:42:29Z</time>
      </trkpt>
      <trkpt lat="43.22623" lon="5.70825">
        <ele>301.2</ele>
        <time>2014-01-15T10:42:37Z</time>
      </trkpt>
      <trkpt lat="43.22627" lon="5.70822">
        <ele>302.2</ele>
        <time>2014-01-15T10:42:43Z</time>
      </trkpt>
      <trkpt lat="43.22631" lon="5.70819">
        <ele>303.3</ele>
        <time>2014-01-15T10:42:50Z</time>
      </trkpt>
      <trkpt lat="43.22634" lon="5.70816">
        <ele>304.1</ele>
        <time>2014-01-15T10:42:57Z</time>
      </trkpt>
      <trkpt lat="43.22637" lon="5.70812">
        <ele>304.5</ele>
        <time>2014-01-15T10:43:03Z</time>
      </trkpt>
      <trkpt lat="43.22641" lon="5.7081">
        <ele>305.1</ele>
        <time>2014-01-15T10:43:09Z</time>
      </trkpt>
      <trkpt lat="43.22641" lon="5.70809">
        <ele>305.1</ele>
        <time>2014-01-15T10:43:10Z</time>
      </trkpt>
      <trkpt lat="43.22647" lon="5.70803">
        <ele>306.5</ele>
        <time>2014-01-15T10:43:21Z</time>
      </trkpt>
      <trkpt lat="43.2265" lon="5.70799">
        <ele>307.2</ele>
        <time>2014-01-15T10:43:27Z</time>
      </trkpt>
      <trkpt lat="43.22653" lon="5.70796">
        <ele>309.2</ele>
        <time>2014-01-15T10:43:34Z</time>
      </trkpt>
      <trkpt lat="43.22656" lon="5.70792">
        <ele>309.2</ele>
        <time>2014-01-15T10:43:41Z</time>
      </trkpt>
      <trkpt lat="43.2266" lon="5.70789">
        <ele>309.5</ele>
        <time>2014-01-15T10:43:49Z</time>
      </trkpt>
      <trkpt lat="43.22664" lon="5.70791">
        <ele>310.1</ele>
        <time>2014-01-15T10:43:55Z</time>
      </trkpt>
      <trkpt lat="43.22668" lon="5.70795">
        <ele>311.1</ele>
        <time>2014-01-15T10:44:00Z</time>
      </trkpt>
      <trkpt lat="43.22671" lon="5.70797">
        <ele>311.8</ele>
        <time>2014-01-15T10:44:08Z</time>
      </trkpt>
      <trkpt lat="43.22675" lon="5.708">
        <ele>313.3</ele>
        <time>2014-01-15T10:44:17Z</time>
      </trkpt>
      <trkpt lat="43.22676" lon="5.708">
        <ele>313.2</ele>
        <time>2014-01-15T10:44:18Z</time>
      </trkpt>
      <trkpt lat="43.22682" lon="5.70807">
        <ele>315.7</ele>
        <time>2014-01-15T10:44:35Z</time>
      </trkpt>
      <trkpt lat="43.22686" lon="5.70806">
        <ele>319.2</ele>
        <time>2014-01-15T10:46:52Z</time>
      </trkpt>
      <trkpt lat="43.22686" lon="5.70806">
        <ele>319.1</ele>
        <time>2014-01-15T10:46:53Z</time>
      </trkpt>
      <trkpt lat="43.22694" lon="5.70806">
        <ele>319</ele>
        <time>2014-01-15T10:47:05Z</time>
      </trkpt>
      <trkpt lat="43.22698" lon="5.70806">
        <ele>319.7</ele>
        <time>2014-01-15T10:47:13Z</time>
      </trkpt>
      <trkpt lat="43.22702" lon="5.70807">
        <ele>320.6</ele>
        <time>2014-01-15T10:47:19Z</time>
      </trkpt>
      <trkpt lat="43.22706" lon="5.70806">
        <ele>320.8</ele>
        <time>2014-01-15T10:47:25Z</time>
      </trkpt>
      <trkpt lat="43.2271" lon="5.70806">
        <ele>321.8</ele>
        <time>2014-01-15T10:47:31Z</time>
      </trkpt>
      <trkpt lat="43.22714" lon="5.70804">
        <ele>322.2</ele>
        <time>2014-01-15T10:47:42Z</time>
      </trkpt>
      <trkpt lat="43.22718" lon="5.708">
        <ele>322.6</ele>
        <time>2014-01-15T10:47:49Z</time>
      </trkpt>
      <trkpt lat="43.22722" lon="5.708">
        <ele>323.2</ele>
        <time>2014-01-15T10:47:56Z</time>
      </trkpt>
      <trkpt lat="43.22723" lon="5.708">
        <ele>323.2</ele>
        <time>2014-01-15T10:47:57Z</time>
      </trkpt>
      <trkpt lat="43.2273" lon="5.70798">
        <ele>324.2</ele>
        <time>2014-01-15T10:48:09Z</time>
      </trkpt>
      <trkpt lat="43.22735" lon="5.70797">
        <ele>324.1</ele>
        <time>2014-01-15T10:48:15Z</time>
      </trkpt>
      <trkpt lat="43.22739" lon="5.70796">
        <ele>324.2</ele>
        <time>2014-01-15T10:48:20Z</time>
      </trkpt>
      <trkpt lat="43.22743" lon="5.70796">
        <ele>324.2</ele>
        <time>2014-01-15T10:48:25Z</time>
      </trkpt>
      <trkpt lat="43.22747" lon="5.70796">
        <ele>324.6</ele>
        <time>2014-01-15T10:48:31Z</time>
      </trkpt>
      <trkpt lat="43.22751" lon="5.70795">
        <ele>325</ele>
        <time>2014-01-15T10:48:37Z</time>
      </trkpt>
      <trkpt lat="43.22755" lon="5.70793">
        <ele>324.8</ele>
        <time>2014-01-15T10:48:41Z</time>
      </trkpt>
      <trkpt lat="43.22758" lon="5.70791">
        <ele>324.7</ele>
        <time>2014-01-15T10:48:45Z</time>
      </trkpt>
      <trkpt lat="43.22762" lon="5.7079">
        <ele>324.6</ele>
        <time>2014-01-15T10:48:50Z</time>
      </trkpt>
      <trkpt lat="43.22766" lon="5.70791">
        <ele>325.7</ele>
        <time>2014-01-15T10:48:56Z</time>
      </trkpt>
      <trkpt lat="43.2277" lon="5.70791">
        <ele>326.2</ele>
        <time>2014-01-15T10:49:01Z</time>
      </trkpt>
      <trkpt lat="43.22771" lon="5.70791">
        <ele>326.2</ele>
        <time>2014-01-15T10:49:02Z</time>
      </trkpt>
      <trkpt lat="43.22778" lon="5.70789">
        <ele>326.8</ele>
        <time>2014-01-15T10:49:11Z</time>
      </trkpt>
      <trkpt lat="43.22782" lon="5.70789">
        <ele>327.2</ele>
        <time>2014-01-15T10:49:16Z</time>
      </trkpt>
      <trkpt lat="43.22786" lon="5.7079">
        <ele>327.7</ele>
        <time>2014-01-15T10:49:21Z</time>
      </trkpt>
      <trkpt lat="43.2279" lon="5.70791">
        <ele>327.8</ele>
        <time>2014-01-15T10:49:25Z</time>
      </trkpt>
      <trkpt lat="43.22794" lon="5.70793">
        <ele>328.5</ele>
        <time>2014-01-15T10:49:30Z</time>
      </trkpt>
      <trkpt lat="43.22798" lon="5.70793">
        <ele>328.7</ele>
        <time>2014-01-15T10:49:36Z</time>
      </trkpt>
      <trkpt lat="43.22802" lon="5.70794">
        <ele>329.3</ele>
        <time>2014-01-15T10:49:41Z</time>
      </trkpt>
      <trkpt lat="43.22806" lon="5.70794">
        <ele>330.2</ele>
        <time>2014-01-15T10:49:46Z</time>
      </trkpt>
      <trkpt lat="43.2281" lon="5.70794">
        <ele>330.7</ele>
        <time>2014-01-15T10:49:51Z</time>
      </trkpt>
      <trkpt lat="43.22814" lon="5.70793">
        <ele>331.2</ele>
        <time>2014-01-15T10:49:56Z</time>
      </trkpt>
      <trkpt lat="43.22818" lon="5.70794">
        <ele>331.7</ele>
        <time>2014-01-15T10:50:00Z</time>
      </trkpt>
      <trkpt lat="43.22822" lon="5.70793">
        <ele>332.5</ele>
        <time>2014-01-15T10:50:04Z</time>
      </trkpt>
      <trkpt lat="43.22823" lon="5.70793">
        <ele>332.6</ele>
        <time>2014-01-15T10:50:05Z</time>
      </trkpt>
      <trkpt lat="43.2283" lon="5.70792">
        <ele>333.1</ele>
        <time>2014-01-15T10:50:14Z</time>
      </trkpt>
      <trkpt lat="43.22834" lon="5.7079">
        <ele>333.3</ele>
        <time>2014-01-15T10:50:18Z</time>
      </trkpt>
      <trkpt lat="43.22838" lon="5.7079">
        <ele>333.8</ele>
        <time>2014-01-15T10:50:22Z</time>
      </trkpt>
      <trkpt lat="43.22842" lon="5.70788">
        <ele>334.5</ele>
        <time>2014-01-15T10:50:27Z</time>
      </trkpt>
      <trkpt lat="43.22846" lon="5.70787">
        <ele>334.8</ele>
        <time>2014-01-15T10:50:31Z</time>
      </trkpt>
      <trkpt lat="43.2285" lon="5.70785">
        <ele>335.3</ele>
        <time>2014-01-15T10:50:36Z</time>
      </trkpt>
      <trkpt lat="43.22854" lon="5.70782">
        <ele>335.2</ele>
        <time>2014-01-15T10:50:41Z</time>
      </trkpt>
      <trkpt lat="43.22858" lon="5.7078">
        <ele>335.5</ele>
        <time>2014-01-15T10:50:46Z</time>
      </trkpt>
      <trkpt lat="43.22862" lon="5.70778">
        <ele>336.1</ele>
        <time>2014-01-15T10:50:51Z</time>
      </trkpt>
      <trkpt lat="43.22865" lon="5.70776">
        <ele>336.2</ele>
        <time>2014-01-15T10:50:56Z</time>
      </trkpt>
      <trkpt lat="43.22869" lon="5.70774">
        <ele>336.1</ele>
        <time>2014-01-15T10:51:01Z</time>
      </trkpt>
      <trkpt lat="43.22873" lon="5.70772">
        <ele>336.2</ele>
        <time>2014-01-15T10:51:06Z</time>
      </trkpt>
      <trkpt lat="43.22873" lon="5.70771">
        <ele>336.3</ele>
        <time>2014-01-15T10:51:07Z</time>
      </trkpt>
      <trkpt lat="43.22879" lon="5.70766">
        <ele>336.8</ele>
        <time>2014-01-15T10:51:15Z</time>
      </trkpt>
      <trkpt lat="43.22883" lon="5.70764">
        <ele>336.8</ele>
        <time>2014-01-15T10:51:19Z</time>
      </trkpt>
      <trkpt lat="43.22887" lon="5.70763">
        <ele>337.5</ele>
        <time>2014-01-15T10:51:25Z</time>
      </trkpt>
      <trkpt lat="43.22891" lon="5.70761">
        <ele>337.6</ele>
        <time>2014-01-15T10:51:31Z</time>
      </trkpt>
      <trkpt lat="43.22895" lon="5.70759">
        <ele>337.8</ele>
        <time>2014-01-15T10:51:36Z</time>
      </trkpt>
      <trkpt lat="43.22899" lon="5.70757">
        <ele>338.6</ele>
        <time>2014-01-15T10:51:42Z</time>
      </trkpt>
      <trkpt lat="43.22902" lon="5.70755">
        <ele>338.8</ele>
        <time>2014-01-15T10:51:47Z</time>
      </trkpt>
      <trkpt lat="43.22906" lon="5.70751">
        <ele>339.7</ele>
        <time>2014-01-15T10:51:53Z</time>
      </trkpt>
      <trkpt lat="43.2291" lon="5.70748">
        <ele>340.7</ele>
        <time>2014-01-15T10:52:00Z</time>
      </trkpt>
      <trkpt lat="43.22914" lon="5.70747">
        <ele>341.5</ele>
        <time>2014-01-15T10:52:06Z</time>
      </trkpt>
      <trkpt lat="43.22918" lon="5.70746">
        <ele>342.6</ele>
        <time>2014-01-15T10:52:13Z</time>
      </trkpt>
      <trkpt lat="43.22919" lon="5.70745">
        <ele>342.8</ele>
        <time>2014-01-15T10:52:14Z</time>
      </trkpt>
      <trkpt lat="43.22926" lon="5.70743">
        <ele>344.1</ele>
        <time>2014-01-15T10:52:22Z</time>
      </trkpt>
      <trkpt lat="43.2293" lon="5.70741">
        <ele>344.3</ele>
        <time>2014-01-15T10:52:27Z</time>
      </trkpt>
      <trkpt lat="43.22934" lon="5.70739">
        <ele>344.6</ele>
        <time>2014-01-15T10:52:32Z</time>
      </trkpt>
      <trkpt lat="43.22937" lon="5.70736">
        <ele>344.5</ele>
        <time>2014-01-15T10:52:37Z</time>
      </trkpt>
      <trkpt lat="43.22942" lon="5.70734">
        <ele>345.2</ele>
        <time>2014-01-15T10:52:43Z</time>
      </trkpt>
      <trkpt lat="43.22945" lon="5.70732">
        <ele>345.7</ele>
        <time>2014-01-15T10:52:49Z</time>
      </trkpt>
      <trkpt lat="43.22949" lon="5.7073">
        <ele>346.2</ele>
        <time>2014-01-15T10:52:55Z</time>
      </trkpt>
      <trkpt lat="43.22953" lon="5.70728">
        <ele>346.7</ele>
        <time>2014-01-15T10:53:00Z</time>
      </trkpt>
      <trkpt lat="43.22958" lon="5.70726">
        <ele>347.3</ele>
        <time>2014-01-15T10:53:06Z</time>
      </trkpt>
      <trkpt lat="43.22962" lon="5.70728">
        <ele>347.8</ele>
        <time>2014-01-15T10:53:12Z</time>
      </trkpt>
      <trkpt lat="43.22965" lon="5.70729">
        <ele>348.2</ele>
        <time>2014-01-15T10:53:17Z</time>
      </trkpt>
      <trkpt lat="43.22966" lon="5.7073">
        <ele>348.2</ele>
        <time>2014-01-15T10:53:18Z</time>
      </trkpt>
      <trkpt lat="43.22973" lon="5.70729">
        <ele>349.6</ele>
        <time>2014-01-15T10:53:29Z</time>
      </trkpt>
      <trkpt lat="43.22977" lon="5.70726">
        <ele>350</ele>
        <time>2014-01-15T10:53:36Z</time>
      </trkpt>
      <trkpt lat="43.22981" lon="5.70724">
        <ele>351.5</ele>
        <time>2014-01-15T10:53:43Z</time>
      </trkpt>
      <trkpt lat="43.22985" lon="5.70723">
        <ele>352.3</ele>
        <time>2014-01-15T10:53:50Z</time>
      </trkpt>
      <trkpt lat="43.22989" lon="5.70721">
        <ele>353.2</ele>
        <time>2014-01-15T10:53:58Z</time>
      </trkpt>
      <trkpt lat="43.22993" lon="5.70721">
        <ele>354.8</ele>
        <time>2014-01-15T10:54:05Z</time>
      </trkpt>
      <trkpt lat="43.22996" lon="5.70719">
        <ele>355.2</ele>
        <time>2014-01-15T10:54:10Z</time>
      </trkpt>
      <trkpt lat="43.23" lon="5.70717">
        <ele>355.6</ele>
        <time>2014-01-15T10:54:15Z</time>
      </trkpt>
      <trkpt lat="43.23003" lon="5.70714">
        <ele>355.7</ele>
        <time>2014-01-15T10:54:20Z</time>
      </trkpt>
      <trkpt lat="43.23004" lon="5.70714">
        <ele>355.7</ele>
        <time>2014-01-15T10:54:21Z</time>
      </trkpt>
      <trkpt lat="43.23011" lon="5.7071">
        <ele>356.7</ele>
        <time>2014-01-15T10:54:32Z</time>
      </trkpt>
      <trkpt lat="43.23015" lon="5.70708">
        <ele>357.6</ele>
        <time>2014-01-15T10:54:41Z</time>
      </trkpt>
      <trkpt lat="43.23019" lon="5.70706">
        <ele>359.2</ele>
        <time>2014-01-15T10:54:50Z</time>
      </trkpt>
      <trkpt lat="43.23023" lon="5.70704">
        <ele>360.6</ele>
        <time>2014-01-15T10:54:57Z</time>
      </trkpt>
      <trkpt lat="43.23027" lon="5.70702">
        <ele>361.5</ele>
        <time>2014-01-15T10:55:05Z</time>
      </trkpt>
      <trkpt lat="43.23031" lon="5.70701">
        <ele>363.1</ele>
        <time>2014-01-15T10:55:13Z</time>
      </trkpt>
      <trkpt lat="43.23035" lon="5.707">
        <ele>363.8</ele>
        <time>2014-01-15T10:55:20Z</time>
      </trkpt>
      <trkpt lat="43.23038" lon="5.70697">
        <ele>364.7</ele>
        <time>2014-01-15T10:55:27Z</time>
      </trkpt>
      <trkpt lat="43.23039" lon="5.70697">
        <ele>365</ele>
        <time>2014-01-15T10:55:28Z</time>
      </trkpt>
      <trkpt lat="43.23045" lon="5.70691">
        <ele>365.8</ele>
        <time>2014-01-15T10:55:38Z</time>
      </trkpt>
      <trkpt lat="43.23049" lon="5.70688">
        <ele>366.2</ele>
        <time>2014-01-15T10:55:44Z</time>
      </trkpt>
      <trkpt lat="43.23053" lon="5.70686">
        <ele>366.2</ele>
        <time>2014-01-15T10:55:48Z</time>
      </trkpt>
      <trkpt lat="43.23056" lon="5.70685">
        <ele>366.5</ele>
        <time>2014-01-15T10:55:52Z</time>
      </trkpt>
      <trkpt lat="43.23059" lon="5.70683">
        <ele>366.7</ele>
        <time>2014-01-15T10:55:56Z</time>
      </trkpt>
      <trkpt lat="43.23063" lon="5.70681">
        <ele>366.7</ele>
        <time>2014-01-15T10:56:01Z</time>
      </trkpt>
      <trkpt lat="43.23067" lon="5.70678">
        <ele>367.1</ele>
        <time>2014-01-15T10:56:06Z</time>
      </trkpt>
      <trkpt lat="43.23069" lon="5.70674">
        <ele>368.2</ele>
        <time>2014-01-15T10:56:12Z</time>
      </trkpt>
      <trkpt lat="43.23072" lon="5.7067">
        <ele>369.6</ele>
        <time>2014-01-15T10:56:18Z</time>
      </trkpt>
      <trkpt lat="43.23076" lon="5.70666">
        <ele>370</ele>
        <time>2014-01-15T10:56:24Z</time>
      </trkpt>
      <trkpt lat="43.23079" lon="5.70663">
        <ele>370.6</ele>
        <time>2014-01-15T10:56:30Z</time>
      </trkpt>
      <trkpt lat="43.2308" lon="5.70662">
        <ele>370.6</ele>
        <time>2014-01-15T10:56:31Z</time>
      </trkpt>
      <trkpt lat="43.23086" lon="5.70657">
        <ele>371.1</ele>
        <time>2014-01-15T10:56:46Z</time>
      </trkpt>
      <trkpt lat="43.2309" lon="5.70654">
        <ele>371.3</ele>
        <time>2014-01-15T10:57:05Z</time>
      </trkpt>
      <trkpt lat="43.23094" lon="5.70651">
        <ele>376.8</ele>
        <time>2014-01-15T10:58:06Z</time>
      </trkpt>
      <trkpt lat="43.23094" lon="5.7065">
        <ele>376.7</ele>
        <time>2014-01-15T10:58:07Z</time>
      </trkpt>
      <trkpt lat="43.23096" lon="5.7064">
        <ele>374.7</ele>
        <time>2014-01-15T10:58:22Z</time>
      </trkpt>
      <trkpt lat="43.23097" lon="5.70634">
        <ele>373.6</ele>
        <time>2014-01-15T10:58:30Z</time>
      </trkpt>
      <trkpt lat="43.23098" lon="5.70629">
        <ele>372.2</ele>
        <time>2014-01-15T10:58:37Z</time>
      </trkpt>
      <trkpt lat="43.231" lon="5.70623">
        <ele>370.2</ele>
        <time>2014-01-15T10:58:44Z</time>
      </trkpt>
      <trkpt lat="43.23101" lon="5.70618">
        <ele>369.7</ele>
        <time>2014-01-15T10:58:50Z</time>
      </trkpt>
      <trkpt lat="43.23101" lon="5.70612">
        <ele>370.5</ele>
        <time>2014-01-15T10:58:54Z</time>
      </trkpt>
      <trkpt lat="43.23101" lon="5.70607">
        <ele>371.7</ele>
        <time>2014-01-15T10:58:58Z</time>
      </trkpt>
      <trkpt lat="43.23101" lon="5.70602">
        <ele>372.2</ele>
        <time>2014-01-15T10:59:03Z</time>
      </trkpt>
      <trkpt lat="43.23101" lon="5.70597">
        <ele>372.2</ele>
        <time>2014-01-15T10:59:08Z</time>
      </trkpt>
      <trkpt lat="43.23101" lon="5.70596">
        <ele>372.2</ele>
        <time>2014-01-15T10:59:09Z</time>
      </trkpt>
      <trkpt lat="43.23102" lon="5.70586">
        <ele>373.8</ele>
        <time>2014-01-15T10:59:17Z</time>
      </trkpt>
      <trkpt lat="43.23103" lon="5.70581">
        <ele>375.3</ele>
        <time>2014-01-15T10:59:22Z</time>
      </trkpt>
      <trkpt lat="43.23105" lon="5.70576">
        <ele>376</ele>
        <time>2014-01-15T10:59:27Z</time>
      </trkpt>
      <trkpt lat="43.23107" lon="5.70571">
        <ele>376.1</ele>
        <time>2014-01-15T10:59:33Z</time>
      </trkpt>
      <trkpt lat="43.23109" lon="5.70566">
        <ele>376.1</ele>
        <time>2014-01-15T10:59:39Z</time>
      </trkpt>
      <trkpt lat="43.23111" lon="5.7056">
        <ele>377</ele>
        <time>2014-01-15T10:59:46Z</time>
      </trkpt>
      <trkpt lat="43.23109" lon="5.70556">
        <ele>375</ele>
        <time>2014-01-15T10:59:56Z</time>
      </trkpt>
      <trkpt lat="43.23107" lon="5.70552">
        <ele>376.2</ele>
        <time>2014-01-15T11:00:00Z</time>
      </trkpt>
      <trkpt lat="43.23104" lon="5.70547">
        <ele>375.7</ele>
        <time>2014-01-15T11:00:05Z</time>
      </trkpt>
      <trkpt lat="43.23102" lon="5.70542">
        <ele>376.5</ele>
        <time>2014-01-15T11:00:11Z</time>
      </trkpt>
      <trkpt lat="43.23102" lon="5.70541">
        <ele>376.7</ele>
        <time>2014-01-15T11:00:12Z</time>
      </trkpt>
      <trkpt lat="43.23098" lon="5.70532">
        <ele>376.3</ele>
        <time>2014-01-15T11:00:25Z</time>
      </trkpt>
      <trkpt lat="43.23097" lon="5.70526">
        <ele>373.2</ele>
        <time>2014-01-15T11:00:32Z</time>
      </trkpt>
      <trkpt lat="43.23096" lon="5.7052">
        <ele>372.6</ele>
        <time>2014-01-15T11:00:39Z</time>
      </trkpt>
      <trkpt lat="43.23093" lon="5.70515">
        <ele>373.3</ele>
        <time>2014-01-15T11:00:48Z</time>
      </trkpt>
      <trkpt lat="43.23091" lon="5.7051">
        <ele>375.1</ele>
        <time>2014-01-15T11:00:58Z</time>
      </trkpt>
      <trkpt lat="43.2309" lon="5.70505">
        <ele>375.5</ele>
        <time>2014-01-15T11:01:08Z</time>
      </trkpt>
      <trkpt lat="43.23089" lon="5.70499">
        <ele>375.3</ele>
        <time>2014-01-15T11:01:16Z</time>
      </trkpt>
      <trkpt lat="43.23089" lon="5.70499">
        <ele>375.2</ele>
        <time>2014-01-15T11:01:17Z</time>
      </trkpt>
      <trkpt lat="43.23085" lon="5.7049">
        <ele>374.2</ele>
        <time>2014-01-15T11:01:34Z</time>
      </trkpt>
      <trkpt lat="43.23083" lon="5.70484">
        <ele>373.5</ele>
        <time>2014-01-15T11:01:48Z</time>
      </trkpt>
      <trkpt lat="43.23084" lon="5.70479">
        <ele>377.5</ele>
        <time>2014-01-15T11:05:20Z</time>
      </trkpt>
      <trkpt lat="43.23084" lon="5.70479">
        <ele>377.5</ele>
        <time>2014-01-15T11:05:21Z</time>
      </trkpt>
      <trkpt lat="43.2308" lon="5.70479">
        <ele>365.7</ele>
        <time>2014-01-15T11:40:36Z</time>
      </trkpt>
      <trkpt lat="43.23084" lon="5.70477">
        <ele>368.7</ele>
        <time>2014-01-15T11:44:04Z</time>
      </trkpt>
      <trkpt lat="43.2308" lon="5.70479">
        <ele>368.2</ele>
        <time>2014-01-15T11:47:03Z</time>
      </trkpt>
      <trkpt lat="43.2308" lon="5.70485">
        <ele>370.5</ele>
        <time>2014-01-15T12:16:34Z</time>
      </trkpt>
      <trkpt lat="43.23074" lon="5.70477">
        <ele>375.7</ele>
        <time>2014-01-15T12:19:32Z</time>
      </trkpt>
      <trkpt lat="43.23073" lon="5.70476">
        <ele>374.8</ele>
        <time>2014-01-15T12:19:33Z</time>
      </trkpt>
      <trkpt lat="43.2307" lon="5.70467">
        <ele>371.8</ele>
        <time>2014-01-15T12:19:42Z</time>
      </trkpt>
      <trkpt lat="43.23069" lon="5.70462">
        <ele>370.1</ele>
        <time>2014-01-15T12:19:47Z</time>
      </trkpt>
      <trkpt lat="43.23066" lon="5.70458">
        <ele>369.2</ele>
        <time>2014-01-15T12:19:52Z</time>
      </trkpt>
      <trkpt lat="43.23064" lon="5.70453">
        <ele>368.2</ele>
        <time>2014-01-15T12:19:57Z</time>
      </trkpt>
      <trkpt lat="43.23062" lon="5.70448">
        <ele>368.5</ele>
        <time>2014-01-15T12:20:02Z</time>
      </trkpt>
      <trkpt lat="43.2306" lon="5.70443">
        <ele>368</ele>
        <time>2014-01-15T12:20:06Z</time>
      </trkpt>
      <trkpt lat="43.23058" lon="5.70438">
        <ele>368.7</ele>
        <time>2014-01-15T12:20:10Z</time>
      </trkpt>
      <trkpt lat="43.23055" lon="5.70435">
        <ele>369.2</ele>
        <time>2014-01-15T12:20:14Z</time>
      </trkpt>
      <trkpt lat="43.23053" lon="5.70431">
        <ele>369.2</ele>
        <time>2014-01-15T12:20:18Z</time>
      </trkpt>
      <trkpt lat="43.23052" lon="5.70426">
        <ele>368.7</ele>
        <time>2014-01-15T12:20:22Z</time>
      </trkpt>
      <trkpt lat="43.23054" lon="5.7042">
        <ele>367.5</ele>
        <time>2014-01-15T12:20:28Z</time>
      </trkpt>
      <trkpt lat="43.23056" lon="5.70416">
        <ele>367.2</ele>
        <time>2014-01-15T12:20:33Z</time>
      </trkpt>
      <trkpt lat="43.23056" lon="5.70415">
        <ele>367.5</ele>
        <time>2014-01-15T12:20:34Z</time>
      </trkpt>
      <trkpt lat="43.23059" lon="5.70405">
        <ele>367.2</ele>
        <time>2014-01-15T12:20:44Z</time>
      </trkpt>
      <trkpt lat="43.23061" lon="5.70401">
        <ele>367.2</ele>
        <time>2014-01-15T12:20:48Z</time>
      </trkpt>
      <trkpt lat="43.23063" lon="5.70396">
        <ele>367.1</ele>
        <time>2014-01-15T12:20:53Z</time>
      </trkpt>
      <trkpt lat="43.23065" lon="5.70392">
        <ele>367.2</ele>
        <time>2014-01-15T12:20:57Z</time>
      </trkpt>
      <trkpt lat="43.23067" lon="5.70387">
        <ele>368.7</ele>
        <time>2014-01-15T12:21:01Z</time>
      </trkpt>
      <trkpt lat="43.23068" lon="5.70381">
        <ele>368.2</ele>
        <time>2014-01-15T12:21:06Z</time>
      </trkpt>
      <trkpt lat="43.23069" lon="5.70375">
        <ele>368.1</ele>
        <time>2014-01-15T12:21:12Z</time>
      </trkpt>
      <trkpt lat="43.2307" lon="5.7037">
        <ele>367.7</ele>
        <time>2014-01-15T12:21:19Z</time>
      </trkpt>
      <trkpt lat="43.23072" lon="5.70364">
        <ele>366.7</ele>
        <time>2014-01-15T12:21:29Z</time>
      </trkpt>
      <trkpt lat="43.23072" lon="5.70358">
        <ele>367.3</ele>
        <time>2014-01-15T12:21:39Z</time>
      </trkpt>
      <trkpt lat="43.23072" lon="5.70358">
        <ele>367.3</ele>
        <time>2014-01-15T12:21:40Z</time>
      </trkpt>
      <trkpt lat="43.23074" lon="5.70348">
        <ele>363.6</ele>
        <time>2014-01-15T12:22:03Z</time>
      </trkpt>
      <trkpt lat="43.23075" lon="5.70342">
        <ele>361.2</ele>
        <time>2014-01-15T12:22:12Z</time>
      </trkpt>
      <trkpt lat="43.23077" lon="5.70337">
        <ele>359.7</ele>
        <time>2014-01-15T12:22:17Z</time>
      </trkpt>
      <trkpt lat="43.23079" lon="5.70332">
        <ele>360.1</ele>
        <time>2014-01-15T12:22:28Z</time>
      </trkpt>
      <trkpt lat="43.2308" lon="5.70326">
        <ele>359.7</ele>
        <time>2014-01-15T12:22:36Z</time>
      </trkpt>
      <trkpt lat="43.23081" lon="5.70321">
        <ele>359.5</ele>
        <time>2014-01-15T12:22:43Z</time>
      </trkpt>
      <trkpt lat="43.23082" lon="5.70319">
        <ele>359.3</ele>
        <time>2014-01-15T12:22:44Z</time>
      </trkpt>
      <trkpt lat="43.23087" lon="5.70312">
        <ele>357.8</ele>
        <time>2014-01-15T12:22:51Z</time>
      </trkpt>
      <trkpt lat="43.2309" lon="5.70308">
        <ele>356.5</ele>
        <time>2014-01-15T12:22:55Z</time>
      </trkpt>
      <trkpt lat="43.23094" lon="5.70306">
        <ele>355.2</ele>
        <time>2014-01-15T12:23:02Z</time>
      </trkpt>
      <trkpt lat="43.23098" lon="5.70305">
        <ele>353.3</ele>
        <time>2014-01-15T12:24:08Z</time>
      </trkpt>
      <trkpt lat="43.23098" lon="5.70304">
        <ele>353.6</ele>
        <time>2014-01-15T12:24:09Z</time>
      </trkpt>
      <trkpt lat="43.23101" lon="5.70301">
        <ele>357.8</ele>
        <time>2014-01-15T12:25:16Z</time>
      </trkpt>
      <trkpt lat="43.23108" lon="5.70296">
        <ele>357.1</ele>
        <time>2014-01-15T12:25:27Z</time>
      </trkpt>
      <trkpt lat="43.23112" lon="5.70293">
        <ele>356.7</ele>
        <time>2014-01-15T12:25:33Z</time>
      </trkpt>
      <trkpt lat="43.23116" lon="5.7029">
        <ele>356.7</ele>
        <time>2014-01-15T12:25:38Z</time>
      </trkpt>
      <trkpt lat="43.23119" lon="5.70287">
        <ele>357.5</ele>
        <time>2014-01-15T12:25:46Z</time>
      </trkpt>
      <trkpt lat="43.23123" lon="5.70286">
        <ele>356.6</ele>
        <time>2014-01-15T12:25:52Z</time>
      </trkpt>
      <trkpt lat="43.23127" lon="5.70284">
        <ele>356.2</ele>
        <time>2014-01-15T12:25:57Z</time>
      </trkpt>
      <trkpt lat="43.23131" lon="5.70281">
        <ele>357.7</ele>
        <time>2014-01-15T12:26:03Z</time>
      </trkpt>
      <trkpt lat="43.23135" lon="5.70279">
        <ele>358</ele>
        <time>2014-01-15T12:26:08Z</time>
      </trkpt>
      <trkpt lat="43.23138" lon="5.70276">
        <ele>358.6</ele>
        <time>2014-01-15T12:26:14Z</time>
      </trkpt>
      <trkpt lat="43.23141" lon="5.70273">
        <ele>359.2</ele>
        <time>2014-01-15T12:26:20Z</time>
      </trkpt>
      <trkpt lat="43.23142" lon="5.70273">
        <ele>359.5</ele>
        <time>2014-01-15T12:26:21Z</time>
      </trkpt>
      <trkpt lat="43.23149" lon="5.70268">
        <ele>360.6</ele>
        <time>2014-01-15T12:26:30Z</time>
      </trkpt>
      <trkpt lat="43.23153" lon="5.70265">
        <ele>362</ele>
        <time>2014-01-15T12:26:36Z</time>
      </trkpt>
      <trkpt lat="43.23156" lon="5.70263">
        <ele>362.2</ele>
        <time>2014-01-15T12:26:40Z</time>
      </trkpt>
      <trkpt lat="43.23159" lon="5.70261">
        <ele>362.5</ele>
        <time>2014-01-15T12:26:44Z</time>
      </trkpt>
      <trkpt lat="43.23163" lon="5.70259">
        <ele>362.2</ele>
        <time>2014-01-15T12:26:49Z</time>
      </trkpt>
      <trkpt lat="43.23167" lon="5.70257">
        <ele>361.8</ele>
        <time>2014-01-15T12:26:54Z</time>
      </trkpt>
      <trkpt lat="43.23171" lon="5.70256">
        <ele>361.2</ele>
        <time>2014-01-15T12:27:01Z</time>
      </trkpt>
      <trkpt lat="43.23175" lon="5.70255">
        <ele>360.5</ele>
        <time>2014-01-15T12:27:06Z</time>
      </trkpt>
      <trkpt lat="43.23179" lon="5.70254">
        <ele>361</ele>
        <time>2014-01-15T12:27:10Z</time>
      </trkpt>
      <trkpt lat="43.23183" lon="5.70254">
        <ele>361.2</ele>
        <time>2014-01-15T12:27:16Z</time>
      </trkpt>
      <trkpt lat="43.23187" lon="5.70255">
        <ele>362.6</ele>
        <time>2014-01-15T12:27:22Z</time>
      </trkpt>
      <trkpt lat="43.23188" lon="5.70255">
        <ele>362.7</ele>
        <time>2014-01-15T12:27:23Z</time>
      </trkpt>
      <trkpt lat="43.23194" lon="5.70257">
        <ele>362.2</ele>
        <time>2014-01-15T12:27:30Z</time>
      </trkpt>
      <trkpt lat="43.23197" lon="5.70258">
        <ele>361.6</ele>
        <time>2014-01-15T12:27:33Z</time>
      </trkpt>
      <trkpt lat="43.23201" lon="5.70259">
        <ele>362.3</ele>
        <time>2014-01-15T12:27:37Z</time>
      </trkpt>
      <trkpt lat="43.23205" lon="5.7026">
        <ele>361.6</ele>
        <time>2014-01-15T12:27:43Z</time>
      </trkpt>
      <trkpt lat="43.23209" lon="5.7026">
        <ele>361.8</ele>
        <time>2014-01-15T12:27:48Z</time>
      </trkpt>
      <trkpt lat="43.23214" lon="5.70261">
        <ele>363.2</ele>
        <time>2014-01-15T12:27:52Z</time>
      </trkpt>
      <trkpt lat="43.23218" lon="5.70263">
        <ele>364.5</ele>
        <time>2014-01-15T12:27:58Z</time>
      </trkpt>
      <trkpt lat="43.23222" lon="5.70263">
        <ele>365.8</ele>
        <time>2014-01-15T12:28:03Z</time>
      </trkpt>
      <trkpt lat="43.23226" lon="5.70263">
        <ele>366.2</ele>
        <time>2014-01-15T12:28:07Z</time>
      </trkpt>
      <trkpt lat="43.2323" lon="5.70262">
        <ele>366.7</ele>
        <time>2014-01-15T12:28:12Z</time>
      </trkpt>
      <trkpt lat="43.23234" lon="5.70262">
        <ele>366.6</ele>
        <time>2014-01-15T12:28:16Z</time>
      </trkpt>
      <trkpt lat="43.23238" lon="5.70261">
        <ele>365.7</ele>
        <time>2014-01-15T12:28:20Z</time>
      </trkpt>
      <trkpt lat="43.23242" lon="5.7026">
        <ele>365.8</ele>
        <time>2014-01-15T12:28:25Z</time>
      </trkpt>
      <trkpt lat="43.23243" lon="5.7026">
        <ele>366</ele>
        <time>2014-01-15T12:28:26Z</time>
      </trkpt>
      <trkpt lat="43.2325" lon="5.70257">
        <ele>367.5</ele>
        <time>2014-01-15T12:28:36Z</time>
      </trkpt>
      <trkpt lat="43.23254" lon="5.70255">
        <ele>367.7</ele>
        <time>2014-01-15T12:28:40Z</time>
      </trkpt>
      <trkpt lat="43.23257" lon="5.70252">
        <ele>367.1</ele>
        <time>2014-01-15T12:28:44Z</time>
      </trkpt>
      <trkpt lat="43.2326" lon="5.70248">
        <ele>367.3</ele>
        <time>2014-01-15T12:28:48Z</time>
      </trkpt>
      <trkpt lat="43.23264" lon="5.70245">
        <ele>367.7</ele>
        <time>2014-01-15T12:28:52Z</time>
      </trkpt>
      <trkpt lat="43.23267" lon="5.70242">
        <ele>368.2</ele>
        <time>2014-01-15T12:28:57Z</time>
      </trkpt>
      <trkpt lat="43.23271" lon="5.7024">
        <ele>368</ele>
        <time>2014-01-15T12:29:01Z</time>
      </trkpt>
      <trkpt lat="43.23275" lon="5.70238">
        <ele>368.7</ele>
        <time>2014-01-15T12:29:05Z</time>
      </trkpt>
      <trkpt lat="43.23279" lon="5.70237">
        <ele>368.2</ele>
        <time>2014-01-15T12:29:09Z</time>
      </trkpt>
      <trkpt lat="43.23283" lon="5.70234">
        <ele>369</ele>
        <time>2014-01-15T12:29:14Z</time>
      </trkpt>
      <trkpt lat="43.23286" lon="5.70234">
        <ele>368.6</ele>
        <time>2014-01-15T12:29:19Z</time>
      </trkpt>
      <trkpt lat="43.23291" lon="5.70233">
        <ele>369.2</ele>
        <time>2014-01-15T12:29:24Z</time>
      </trkpt>
      <trkpt lat="43.23295" lon="5.70232">
        <ele>369.6</ele>
        <time>2014-01-15T12:29:28Z</time>
      </trkpt>
      <trkpt lat="43.23296" lon="5.70232">
        <ele>369.7</ele>
        <time>2014-01-15T12:29:29Z</time>
      </trkpt>
      <trkpt lat="43.23303" lon="5.70232">
        <ele>371</ele>
        <time>2014-01-15T12:29:39Z</time>
      </trkpt>
      <trkpt lat="43.23307" lon="5.70234">
        <ele>369.7</ele>
        <time>2014-01-15T12:29:44Z</time>
      </trkpt>
      <trkpt lat="43.2331" lon="5.70236">
        <ele>370.6</ele>
        <time>2014-01-15T12:29:48Z</time>
      </trkpt>
      <trkpt lat="43.23313" lon="5.70238">
        <ele>371.3</ele>
        <time>2014-01-15T12:29:51Z</time>
      </trkpt>
      <trkpt lat="43.23316" lon="5.7024">
        <ele>372.2</ele>
        <time>2014-01-15T12:29:54Z</time>
      </trkpt>
      <trkpt lat="43.2332" lon="5.70242">
        <ele>372.2</ele>
        <time>2014-01-15T12:29:57Z</time>
      </trkpt>
      <trkpt lat="43.23323" lon="5.70244">
        <ele>373.6</ele>
        <time>2014-01-15T12:30:01Z</time>
      </trkpt>
      <trkpt lat="43.23327" lon="5.70247">
        <ele>374.3</ele>
        <time>2014-01-15T12:30:05Z</time>
      </trkpt>
      <trkpt lat="43.2333" lon="5.7025">
        <ele>373</ele>
        <time>2014-01-15T12:30:09Z</time>
      </trkpt>
      <trkpt lat="43.23333" lon="5.70253">
        <ele>373.3</ele>
        <time>2014-01-15T12:30:13Z</time>
      </trkpt>
      <trkpt lat="43.23336" lon="5.70257">
        <ele>369.1</ele>
        <time>2014-01-15T12:30:19Z</time>
      </trkpt>
      <trkpt lat="43.23338" lon="5.70262">
        <ele>366.7</ele>
        <time>2014-01-15T12:30:26Z</time>
      </trkpt>
      <trkpt lat="43.23342" lon="5.70264">
        <ele>370</ele>
        <time>2014-01-15T12:30:36Z</time>
      </trkpt>
      <trkpt lat="43.23342" lon="5.70264">
        <ele>369.7</ele>
        <time>2014-01-15T12:30:37Z</time>
      </trkpt>
      <trkpt lat="43.23351" lon="5.70265">
        <ele>379.3</ele>
        <time>2014-01-15T12:31:23Z</time>
      </trkpt>
      <trkpt lat="43.23355" lon="5.70263">
        <ele>374.8</ele>
        <time>2014-01-15T12:31:38Z</time>
      </trkpt>
      <trkpt lat="43.23355" lon="5.70263">
        <ele>374.5</ele>
        <time>2014-01-15T12:31:39Z</time>
      </trkpt>
      <trkpt lat="43.23362" lon="5.70255">
        <ele>367.7</ele>
        <time>2014-01-15T12:32:04Z</time>
      </trkpt>
      <trkpt lat="43.23365" lon="5.70253">
        <ele>367</ele>
        <time>2014-01-15T12:32:10Z</time>
      </trkpt>
      <trkpt lat="43.23369" lon="5.70252">
        <ele>365.7</ele>
        <time>2014-01-15T12:32:15Z</time>
      </trkpt>
      <trkpt lat="43.23373" lon="5.70254">
        <ele>364.5</ele>
        <time>2014-01-15T12:32:20Z</time>
      </trkpt>
      <trkpt lat="43.23377" lon="5.70257">
        <ele>361.3</ele>
        <time>2014-01-15T12:32:27Z</time>
      </trkpt>
      <trkpt lat="43.23381" lon="5.70258">
        <ele>358.3</ele>
        <time>2014-01-15T12:32:31Z</time>
      </trkpt>
      <trkpt lat="43.23383" lon="5.70255">
        <ele>358.3</ele>
        <time>2014-01-15T12:32:35Z</time>
      </trkpt>
      <trkpt lat="43.23384" lon="5.70249">
        <ele>356.2</ele>
        <time>2014-01-15T12:32:41Z</time>
      </trkpt>
      <trkpt lat="43.23384" lon="5.70249">
        <ele>355.6</ele>
        <time>2014-01-15T12:32:42Z</time>
      </trkpt>
      <trkpt lat="43.2338" lon="5.70241">
        <ele>354.6</ele>
        <time>2014-01-15T12:33:08Z</time>
      </trkpt>
      <trkpt lat="43.2338" lon="5.70236">
        <ele>353</ele>
        <time>2014-01-15T12:33:22Z</time>
      </trkpt>
      <trkpt lat="43.2338" lon="5.7023">
        <ele>352.5</ele>
        <time>2014-01-15T12:33:26Z</time>
      </trkpt>
      <trkpt lat="43.23379" lon="5.70225">
        <ele>350.5</ele>
        <time>2014-01-15T12:33:31Z</time>
      </trkpt>
      <trkpt lat="43.23377" lon="5.70219">
        <ele>348.5</ele>
        <time>2014-01-15T12:33:35Z</time>
      </trkpt>
      <trkpt lat="43.23376" lon="5.70215">
        <ele>347.5</ele>
        <time>2014-01-15T12:33:38Z</time>
      </trkpt>
      <trkpt lat="43.23374" lon="5.7021">
        <ele>346.3</ele>
        <time>2014-01-15T12:33:41Z</time>
      </trkpt>
      <trkpt lat="43.23372" lon="5.70207">
        <ele>345.7</ele>
        <time>2014-01-15T12:33:44Z</time>
      </trkpt>
      <trkpt lat="43.23371" lon="5.70205">
        <ele>345.5</ele>
        <time>2014-01-15T12:33:45Z</time>
      </trkpt>
      <trkpt lat="43.23368" lon="5.70198">
        <ele>345.2</ele>
        <time>2014-01-15T12:33:50Z</time>
      </trkpt>
      <trkpt lat="43.23365" lon="5.70194">
        <ele>344.7</ele>
        <time>2014-01-15T12:33:53Z</time>
      </trkpt>
      <trkpt lat="43.23363" lon="5.7019">
        <ele>344.1</ele>
        <time>2014-01-15T12:33:57Z</time>
      </trkpt>
      <trkpt lat="43.23361" lon="5.70185">
        <ele>344</ele>
        <time>2014-01-15T12:34:00Z</time>
      </trkpt>
      <trkpt lat="43.23359" lon="5.70181">
        <ele>343.3</ele>
        <time>2014-01-15T12:34:03Z</time>
      </trkpt>
      <trkpt lat="43.23357" lon="5.70176">
        <ele>342.7</ele>
        <time>2014-01-15T12:34:06Z</time>
      </trkpt>
      <trkpt lat="43.23355" lon="5.70171">
        <ele>342.2</ele>
        <time>2014-01-15T12:34:09Z</time>
      </trkpt>
      <trkpt lat="43.23353" lon="5.70167">
        <ele>341.6</ele>
        <time>2014-01-15T12:34:12Z</time>
      </trkpt>
      <trkpt lat="43.23351" lon="5.70163">
        <ele>342.1</ele>
        <time>2014-01-15T12:34:15Z</time>
      </trkpt>
      <trkpt lat="43.23349" lon="5.70158">
        <ele>342.2</ele>
        <time>2014-01-15T12:34:19Z</time>
      </trkpt>
      <trkpt lat="43.23347" lon="5.70153">
        <ele>342.6</ele>
        <time>2014-01-15T12:34:22Z</time>
      </trkpt>
      <trkpt lat="43.23345" lon="5.70149">
        <ele>343</ele>
        <time>2014-01-15T12:34:25Z</time>
      </trkpt>
      <trkpt lat="43.23343" lon="5.70145">
        <ele>342.5</ele>
        <time>2014-01-15T12:34:28Z</time>
      </trkpt>
      <trkpt lat="43.23341" lon="5.70139">
        <ele>341.7</ele>
        <time>2014-01-15T12:34:32Z</time>
      </trkpt>
      <trkpt lat="43.2334" lon="5.70134">
        <ele>340.3</ele>
        <time>2014-01-15T12:34:36Z</time>
      </trkpt>
      <trkpt lat="43.23339" lon="5.70129">
        <ele>339.1</ele>
        <time>2014-01-15T12:34:40Z</time>
      </trkpt>
      <trkpt lat="43.23338" lon="5.70124">
        <ele>338</ele>
        <time>2014-01-15T12:34:44Z</time>
      </trkpt>
      <trkpt lat="43.23338" lon="5.70118">
        <ele>337.5</ele>
        <time>2014-01-15T12:34:48Z</time>
      </trkpt>
      <trkpt lat="43.23337" lon="5.70117">
        <ele>337.2</ele>
        <time>2014-01-15T12:34:49Z</time>
      </trkpt>
      <trkpt lat="43.23337" lon="5.70107">
        <ele>337.1</ele>
        <time>2014-01-15T12:34:55Z</time>
      </trkpt>
      <trkpt lat="43.23336" lon="5.70102">
        <ele>336.8</ele>
        <time>2014-01-15T12:34:59Z</time>
      </trkpt>
      <trkpt lat="43.23335" lon="5.70097">
        <ele>336.7</ele>
        <time>2014-01-15T12:35:02Z</time>
      </trkpt>
      <trkpt lat="43.23334" lon="5.70092">
        <ele>337.1</ele>
        <time>2014-01-15T12:35:05Z</time>
      </trkpt>
      <trkpt lat="43.23333" lon="5.70088">
        <ele>337</ele>
        <time>2014-01-15T12:35:08Z</time>
      </trkpt>
      <trkpt lat="43.23331" lon="5.70082">
        <ele>336.5</ele>
        <time>2014-01-15T12:35:12Z</time>
      </trkpt>
      <trkpt lat="43.23329" lon="5.70078">
        <ele>336.3</ele>
        <time>2014-01-15T12:35:15Z</time>
      </trkpt>
      <trkpt lat="43.23328" lon="5.70073">
        <ele>336.2</ele>
        <time>2014-01-15T12:35:18Z</time>
      </trkpt>
      <trkpt lat="43.23326" lon="5.70069">
        <ele>336.7</ele>
        <time>2014-01-15T12:35:21Z</time>
      </trkpt>
      <trkpt lat="43.23324" lon="5.70064">
        <ele>336.7</ele>
        <time>2014-01-15T12:35:24Z</time>
      </trkpt>
      <trkpt lat="43.23322" lon="5.70058">
        <ele>336.7</ele>
        <time>2014-01-15T12:35:27Z</time>
      </trkpt>
      <trkpt lat="43.2332" lon="5.70054">
        <ele>336.8</ele>
        <time>2014-01-15T12:35:30Z</time>
      </trkpt>
      <trkpt lat="43.23319" lon="5.70049">
        <ele>337.3</ele>
        <time>2014-01-15T12:35:33Z</time>
      </trkpt>
      <trkpt lat="43.23316" lon="5.70044">
        <ele>337.6</ele>
        <time>2014-01-15T12:35:36Z</time>
      </trkpt>
      <trkpt lat="43.23314" lon="5.70039">
        <ele>337.7</ele>
        <time>2014-01-15T12:35:40Z</time>
      </trkpt>
      <trkpt lat="43.23313" lon="5.70035">
        <ele>337.2</ele>
        <time>2014-01-15T12:35:43Z</time>
      </trkpt>
      <trkpt lat="43.23311" lon="5.70031">
        <ele>336.5</ele>
        <time>2014-01-15T12:35:46Z</time>
      </trkpt>
      <trkpt lat="43.23309" lon="5.70027">
        <ele>336</ele>
        <time>2014-01-15T12:35:49Z</time>
      </trkpt>
      <trkpt lat="43.23308" lon="5.70026">
        <ele>335.8</ele>
        <time>2014-01-15T12:35:50Z</time>
      </trkpt>
      <trkpt lat="43.23304" lon="5.70017">
        <ele>334.3</ele>
        <time>2014-01-15T12:35:57Z</time>
      </trkpt>
      <trkpt lat="43.23302" lon="5.70014">
        <ele>333.6</ele>
        <time>2014-01-15T12:36:00Z</time>
      </trkpt>
      <trkpt lat="43.233" lon="5.70009">
        <ele>333</ele>
        <time>2014-01-15T12:36:03Z</time>
      </trkpt>
      <trkpt lat="43.23298" lon="5.70005">
        <ele>332.3</ele>
        <time>2014-01-15T12:36:06Z</time>
      </trkpt>
      <trkpt lat="43.23296" lon="5.70001">
        <ele>332.2</ele>
        <time>2014-01-15T12:36:09Z</time>
      </trkpt>
      <trkpt lat="43.23293" lon="5.69997">
        <ele>331.3</ele>
        <time>2014-01-15T12:36:13Z</time>
      </trkpt>
      <trkpt lat="43.2329" lon="5.69992">
        <ele>330.7</ele>
        <time>2014-01-15T12:36:17Z</time>
      </trkpt>
      <trkpt lat="43.23289" lon="5.69988">
        <ele>330.5</ele>
        <time>2014-01-15T12:36:20Z</time>
      </trkpt>
      <trkpt lat="43.23287" lon="5.69984">
        <ele>330.1</ele>
        <time>2014-01-15T12:36:23Z</time>
      </trkpt>
      <trkpt lat="43.23285" lon="5.69981">
        <ele>329.5</ele>
        <time>2014-01-15T12:36:26Z</time>
      </trkpt>
      <trkpt lat="43.23282" lon="5.69977">
        <ele>328.7</ele>
        <time>2014-01-15T12:36:29Z</time>
      </trkpt>
      <trkpt lat="43.2328" lon="5.69973">
        <ele>328</ele>
        <time>2014-01-15T12:36:32Z</time>
      </trkpt>
      <trkpt lat="43.23278" lon="5.69969">
        <ele>327</ele>
        <time>2014-01-15T12:36:36Z</time>
      </trkpt>
      <trkpt lat="43.23275" lon="5.69965">
        <ele>326.3</ele>
        <time>2014-01-15T12:36:40Z</time>
      </trkpt>
      <trkpt lat="43.23272" lon="5.69961">
        <ele>325.7</ele>
        <time>2014-01-15T12:36:43Z</time>
      </trkpt>
      <trkpt lat="43.2327" lon="5.69956">
        <ele>324.7</ele>
        <time>2014-01-15T12:36:47Z</time>
      </trkpt>
      <trkpt lat="43.23267" lon="5.69951">
        <ele>323.7</ele>
        <time>2014-01-15T12:36:52Z</time>
      </trkpt>
      <trkpt lat="43.23267" lon="5.6995">
        <ele>323.5</ele>
        <time>2014-01-15T12:36:53Z</time>
      </trkpt>
      <trkpt lat="43.23262" lon="5.69941">
        <ele>322.2</ele>
        <time>2014-01-15T12:37:00Z</time>
      </trkpt>
      <trkpt lat="43.23261" lon="5.69936">
        <ele>321.6</ele>
        <time>2014-01-15T12:37:03Z</time>
      </trkpt>
      <trkpt lat="43.2326" lon="5.69931">
        <ele>321.3</ele>
        <time>2014-01-15T12:37:06Z</time>
      </trkpt>
      <trkpt lat="43.23261" lon="5.69926">
        <ele>320.7</ele>
        <time>2014-01-15T12:37:10Z</time>
      </trkpt>
      <trkpt lat="43.23264" lon="5.69921">
        <ele>320</ele>
        <time>2014-01-15T12:37:19Z</time>
      </trkpt>
      <trkpt lat="43.23267" lon="5.69926">
        <ele>319.7</ele>
        <time>2014-01-15T12:40:24Z</time>
      </trkpt>
      <trkpt lat="43.23267" lon="5.69926">
        <ele>319.6</ele>
        <time>2014-01-15T12:40:25Z</time>
      </trkpt>
      <trkpt lat="43.23273" lon="5.69919">
        <ele>319.8</ele>
        <time>2014-01-15T12:41:07Z</time>
      </trkpt>
      <trkpt lat="43.23277" lon="5.69917">
        <ele>318.6</ele>
        <time>2014-01-15T12:41:12Z</time>
      </trkpt>
      <trkpt lat="43.23281" lon="5.69915">
        <ele>317.1</ele>
        <time>2014-01-15T12:41:17Z</time>
      </trkpt>
      <trkpt lat="43.23285" lon="5.69913">
        <ele>316.5</ele>
        <time>2014-01-15T12:41:21Z</time>
      </trkpt>
      <trkpt lat="43.23288" lon="5.69911">
        <ele>315.6</ele>
        <time>2014-01-15T12:41:25Z</time>
      </trkpt>
      <trkpt lat="43.2329" lon="5.6991">
        <ele>315.3</ele>
        <time>2014-01-15T12:41:26Z</time>
      </trkpt>
      <trkpt lat="43.23296" lon="5.69907">
        <ele>314.2</ele>
        <time>2014-01-15T12:41:32Z</time>
      </trkpt>
      <trkpt lat="43.233" lon="5.69906">
        <ele>313.2</ele>
        <time>2014-01-15T12:41:35Z</time>
      </trkpt>
      <trkpt lat="43.23304" lon="5.69906">
        <ele>311.8</ele>
        <time>2014-01-15T12:41:39Z</time>
      </trkpt>
      <trkpt lat="43.23308" lon="5.69904">
        <ele>311.7</ele>
        <time>2014-01-15T12:41:43Z</time>
      </trkpt>
      <trkpt lat="43.23312" lon="5.69904">
        <ele>311.1</ele>
        <time>2014-01-15T12:41:47Z</time>
      </trkpt>
      <trkpt lat="43.23316" lon="5.69904">
        <ele>311.7</ele>
        <time>2014-01-15T12:41:52Z</time>
      </trkpt>
      <trkpt lat="43.2332" lon="5.69904">
        <ele>311</ele>
        <time>2014-01-15T12:41:56Z</time>
      </trkpt>
      <trkpt lat="43.23324" lon="5.69905">
        <ele>311.1</ele>
        <time>2014-01-15T12:42:00Z</time>
      </trkpt>
      <trkpt lat="43.23327" lon="5.69906">
        <ele>312.1</ele>
        <time>2014-01-15T12:42:04Z</time>
      </trkpt>
      <trkpt lat="43.23331" lon="5.69907">
        <ele>312.3</ele>
        <time>2014-01-15T12:42:07Z</time>
      </trkpt>
      <trkpt lat="43.23335" lon="5.69908">
        <ele>312.2</ele>
        <time>2014-01-15T12:42:10Z</time>
      </trkpt>
      <trkpt lat="43.23339" lon="5.69909">
        <ele>312.5</ele>
        <time>2014-01-15T12:42:15Z</time>
      </trkpt>
      <trkpt lat="43.23342" lon="5.6991">
        <ele>312.3</ele>
        <time>2014-01-15T12:42:19Z</time>
      </trkpt>
      <trkpt lat="43.23346" lon="5.69911">
        <ele>311.3</ele>
        <time>2014-01-15T12:42:23Z</time>
      </trkpt>
      <trkpt lat="43.2335" lon="5.69912">
        <ele>311.5</ele>
        <time>2014-01-15T12:42:27Z</time>
      </trkpt>
      <trkpt lat="43.23351" lon="5.69913">
        <ele>311.7</ele>
        <time>2014-01-15T12:42:28Z</time>
      </trkpt>
      <trkpt lat="43.23357" lon="5.69917">
        <ele>310.7</ele>
        <time>2014-01-15T12:42:36Z</time>
      </trkpt>
      <trkpt lat="43.23361" lon="5.69918">
        <ele>310.1</ele>
        <time>2014-01-15T12:42:39Z</time>
      </trkpt>
      <trkpt lat="43.23364" lon="5.69922">
        <ele>310.2</ele>
        <time>2014-01-15T12:42:43Z</time>
      </trkpt>
      <trkpt lat="43.23367" lon="5.69925">
        <ele>309.2</ele>
        <time>2014-01-15T12:42:47Z</time>
      </trkpt>
      <trkpt lat="43.2337" lon="5.69929">
        <ele>307.8</ele>
        <time>2014-01-15T12:42:51Z</time>
      </trkpt>
      <trkpt lat="43.23372" lon="5.69933">
        <ele>307.2</ele>
        <time>2014-01-15T12:42:55Z</time>
      </trkpt>
      <trkpt lat="43.23375" lon="5.69937">
        <ele>306.7</ele>
        <time>2014-01-15T12:42:59Z</time>
      </trkpt>
      <trkpt lat="43.23377" lon="5.69942">
        <ele>305.2</ele>
        <time>2014-01-15T12:43:03Z</time>
      </trkpt>
      <trkpt lat="43.2338" lon="5.69946">
        <ele>304.7</ele>
        <time>2014-01-15T12:43:07Z</time>
      </trkpt>
      <trkpt lat="43.23382" lon="5.6995">
        <ele>304.7</ele>
        <time>2014-01-15T12:43:10Z</time>
      </trkpt>
      <trkpt lat="43.23383" lon="5.69956">
        <ele>304.7</ele>
        <time>2014-01-15T12:43:14Z</time>
      </trkpt>
      <trkpt lat="43.23382" lon="5.69961">
        <ele>305.3</ele>
        <time>2014-01-15T12:43:17Z</time>
      </trkpt>
      <trkpt lat="43.23381" lon="5.69966">
        <ele>305.2</ele>
        <time>2014-01-15T12:43:20Z</time>
      </trkpt>
      <trkpt lat="43.23379" lon="5.69971">
        <ele>304.8</ele>
        <time>2014-01-15T12:43:24Z</time>
      </trkpt>
      <trkpt lat="43.2338" lon="5.69976">
        <ele>304.7</ele>
        <time>2014-01-15T12:43:27Z</time>
      </trkpt>
      <trkpt lat="43.23383" lon="5.6998">
        <ele>306.3</ele>
        <time>2014-01-15T12:43:30Z</time>
      </trkpt>
      <trkpt lat="43.23384" lon="5.69982">
        <ele>307.2</ele>
        <time>2014-01-15T12:43:31Z</time>
      </trkpt>
      <trkpt lat="43.23388" lon="5.69987">
        <ele>308.3</ele>
        <time>2014-01-15T12:43:36Z</time>
      </trkpt>
      <trkpt lat="43.23391" lon="5.6999">
        <ele>310.2</ele>
        <time>2014-01-15T12:43:40Z</time>
      </trkpt>
      <trkpt lat="43.23392" lon="5.69996">
        <ele>311.8</ele>
        <time>2014-01-15T12:43:45Z</time>
      </trkpt>
      <trkpt lat="43.23396" lon="5.7">
        <ele>312.2</ele>
        <time>2014-01-15T12:43:49Z</time>
      </trkpt>
      <trkpt lat="43.23399" lon="5.7">
        <ele>312.2</ele>
        <time>2014-01-15T12:43:52Z</time>
      </trkpt>
      <trkpt lat="43.23402" lon="5.7">
        <ele>311.7</ele>
        <time>2014-01-15T12:43:54Z</time>
      </trkpt>
      <trkpt lat="43.23406" lon="5.69998">
        <ele>310.2</ele>
        <time>2014-01-15T12:43:57Z</time>
      </trkpt>
      <trkpt lat="43.23409" lon="5.69995">
        <ele>308.2</ele>
        <time>2014-01-15T12:44:01Z</time>
      </trkpt>
      <trkpt lat="43.23411" lon="5.6999">
        <ele>307.1</ele>
        <time>2014-01-15T12:44:05Z</time>
      </trkpt>
      <trkpt lat="43.23414" lon="5.69986">
        <ele>305.5</ele>
        <time>2014-01-15T12:44:10Z</time>
      </trkpt>
      <trkpt lat="43.23416" lon="5.69981">
        <ele>305.2</ele>
        <time>2014-01-15T12:44:14Z</time>
      </trkpt>
      <trkpt lat="43.23418" lon="5.69976">
        <ele>305.5</ele>
        <time>2014-01-15T12:44:19Z</time>
      </trkpt>
      <trkpt lat="43.23419" lon="5.69971">
        <ele>305.3</ele>
        <time>2014-01-15T12:44:23Z</time>
      </trkpt>
      <trkpt lat="43.23421" lon="5.69966">
        <ele>304.7</ele>
        <time>2014-01-15T12:44:28Z</time>
      </trkpt>
      <trkpt lat="43.23423" lon="5.69961">
        <ele>304.6</ele>
        <time>2014-01-15T12:44:34Z</time>
      </trkpt>
      <trkpt lat="43.23423" lon="5.6996">
        <ele>305</ele>
        <time>2014-01-15T12:44:35Z</time>
      </trkpt>
      <trkpt lat="43.23426" lon="5.69952">
        <ele>305.5</ele>
        <time>2014-01-15T12:44:44Z</time>
      </trkpt>
      <trkpt lat="43.23427" lon="5.69947">
        <ele>306.6</ele>
        <time>2014-01-15T12:44:49Z</time>
      </trkpt>
      <trkpt lat="43.23429" lon="5.69941">
        <ele>307.5</ele>
        <time>2014-01-15T12:44:54Z</time>
      </trkpt>
      <trkpt lat="43.23431" lon="5.69936">
        <ele>308.7</ele>
        <time>2014-01-15T12:45:03Z</time>
      </trkpt>
      <trkpt lat="43.23435" lon="5.69933">
        <ele>310.7</ele>
        <time>2014-01-15T12:45:13Z</time>
      </trkpt>
      <trkpt lat="43.23439" lon="5.69931">
        <ele>311.2</ele>
        <time>2014-01-15T12:45:19Z</time>
      </trkpt>
      <trkpt lat="43.23443" lon="5.6993">
        <ele>312.8</ele>
        <time>2014-01-15T12:45:27Z</time>
      </trkpt>
      <trkpt lat="43.23447" lon="5.69928">
        <ele>313.8</ele>
        <time>2014-01-15T12:45:36Z</time>
      </trkpt>
      <trkpt lat="43.23448" lon="5.69928">
        <ele>314</ele>
        <time>2014-01-15T12:45:37Z</time>
      </trkpt>
      <trkpt lat="43.23455" lon="5.69927">
        <ele>315.8</ele>
        <time>2014-01-15T12:45:53Z</time>
      </trkpt>
      <trkpt lat="43.2346" lon="5.69926">
        <ele>318.6</ele>
        <time>2014-01-15T12:46:05Z</time>
      </trkpt>
      <trkpt lat="43.23464" lon="5.69927">
        <ele>318.7</ele>
        <time>2014-01-15T12:46:14Z</time>
      </trkpt>
      <trkpt lat="43.23468" lon="5.69925">
        <ele>321.2</ele>
        <time>2014-01-15T12:46:25Z</time>
      </trkpt>
      <trkpt lat="43.23473" lon="5.69925">
        <ele>323.8</ele>
        <time>2014-01-15T12:46:35Z</time>
      </trkpt>
      <trkpt lat="43.23476" lon="5.69925">
        <ele>324.1</ele>
        <time>2014-01-15T12:46:41Z</time>
      </trkpt>
      <trkpt lat="43.23477" lon="5.69925">
        <ele>323.6</ele>
        <time>2014-01-15T12:46:42Z</time>
      </trkpt>
      <trkpt lat="43.23484" lon="5.69922">
        <ele>320.7</ele>
        <time>2014-01-15T12:46:59Z</time>
      </trkpt>
      <trkpt lat="43.23488" lon="5.69921">
        <ele>321.1</ele>
        <time>2014-01-15T12:47:08Z</time>
      </trkpt>
      <trkpt lat="43.23492" lon="5.6992">
        <ele>323.8</ele>
        <time>2014-01-15T12:47:18Z</time>
      </trkpt>
      <trkpt lat="43.23496" lon="5.69918">
        <ele>324.6</ele>
        <time>2014-01-15T12:47:29Z</time>
      </trkpt>
      <trkpt lat="43.235" lon="5.69917">
        <ele>327.1</ele>
        <time>2014-01-15T12:47:38Z</time>
      </trkpt>
      <trkpt lat="43.23504" lon="5.69915">
        <ele>331.8</ele>
        <time>2014-01-15T12:47:54Z</time>
      </trkpt>
      <trkpt lat="43.23505" lon="5.69915">
        <ele>332.2</ele>
        <time>2014-01-15T12:47:55Z</time>
      </trkpt>
      <trkpt lat="43.23513" lon="5.69913">
        <ele>335.7</ele>
        <time>2014-01-15T12:48:20Z</time>
      </trkpt>
      <trkpt lat="43.23517" lon="5.69911">
        <ele>338</ele>
        <time>2014-01-15T12:48:39Z</time>
      </trkpt>
      <trkpt lat="43.23521" lon="5.69908">
        <ele>338.7</ele>
        <time>2014-01-15T12:48:59Z</time>
      </trkpt>
      <trkpt lat="43.23521" lon="5.69909">
        <ele>337.7</ele>
        <time>2014-01-15T12:49:00Z</time>
      </trkpt>
      <trkpt lat="43.23523" lon="5.69904">
        <ele>342.7</ele>
        <time>2014-01-15T12:49:35Z</time>
      </trkpt>
      <trkpt lat="43.23519" lon="5.699">
        <ele>357.2</ele>
        <time>2014-01-15T12:50:23Z</time>
      </trkpt>
      <trkpt lat="43.23519" lon="5.699">
        <ele>358</ele>
        <time>2014-01-15T12:50:24Z</time>
      </trkpt>
      <trkpt lat="43.23528" lon="5.69902">
        <ele>345.3</ele>
        <time>2014-01-15T12:50:55Z</time>
      </trkpt>
      <trkpt lat="43.2353" lon="5.69897">
        <ele>341.8</ele>
        <time>2014-01-15T12:51:44Z</time>
      </trkpt>
      <trkpt lat="43.23531" lon="5.69897">
        <ele>340.6</ele>
        <time>2014-01-15T12:51:45Z</time>
      </trkpt>
      <trkpt lat="43.23527" lon="5.69887">
        <ele>351.5</ele>
        <time>2014-01-15T12:52:36Z</time>
      </trkpt>
      <trkpt lat="43.23523" lon="5.69884">
        <ele>350.7</ele>
        <time>2014-01-15T12:52:43Z</time>
      </trkpt>
      <trkpt lat="43.23526" lon="5.69888">
        <ele>353.1</ele>
        <time>2014-01-15T12:53:39Z</time>
      </trkpt>
      <trkpt lat="43.23526" lon="5.69888">
        <ele>352.6</ele>
        <time>2014-01-15T12:53:40Z</time>
      </trkpt>
      <trkpt lat="43.23529" lon="5.69894">
        <ele>352.6</ele>
        <time>2014-01-15T12:54:16Z</time>
      </trkpt>
      <trkpt lat="43.23527" lon="5.69889">
        <ele>353.6</ele>
        <time>2014-01-15T12:54:44Z</time>
      </trkpt>
      <trkpt lat="43.23527" lon="5.69888">
        <ele>353.7</ele>
        <time>2014-01-15T12:54:45Z</time>
      </trkpt>
      <trkpt lat="43.2352" lon="5.69883">
        <ele>354.6</ele>
        <time>2014-01-15T12:54:58Z</time>
      </trkpt>
      <trkpt lat="43.23516" lon="5.6988">
        <ele>354.6</ele>
        <time>2014-01-15T12:55:05Z</time>
      </trkpt>
      <trkpt lat="43.23512" lon="5.69878">
        <ele>353.7</ele>
        <time>2014-01-15T12:55:10Z</time>
      </trkpt>
      <trkpt lat="43.23508" lon="5.69877">
        <ele>351.8</ele>
        <time>2014-01-15T12:55:53Z</time>
      </trkpt>
      <trkpt lat="43.23507" lon="5.69876">
        <ele>351.3</ele>
        <time>2014-01-15T12:55:54Z</time>
      </trkpt>
      <trkpt lat="43.23501" lon="5.69872">
        <ele>350.8</ele>
        <time>2014-01-15T12:56:00Z</time>
      </trkpt>
      <trkpt lat="43.23497" lon="5.6987">
        <ele>350.7</ele>
        <time>2014-01-15T12:56:04Z</time>
      </trkpt>
      <trkpt lat="43.23494" lon="5.69867">
        <ele>350.1</ele>
        <time>2014-01-15T12:56:08Z</time>
      </trkpt>
      <trkpt lat="43.23492" lon="5.69863">
        <ele>348.7</ele>
        <time>2014-01-15T12:56:11Z</time>
      </trkpt>
      <trkpt lat="43.23489" lon="5.69859">
        <ele>348.1</ele>
        <time>2014-01-15T12:56:14Z</time>
      </trkpt>
      <trkpt lat="43.23487" lon="5.69855">
        <ele>347.6</ele>
        <time>2014-01-15T12:56:17Z</time>
      </trkpt>
      <trkpt lat="43.23485" lon="5.6985">
        <ele>347</ele>
        <time>2014-01-15T12:56:20Z</time>
      </trkpt>
      <trkpt lat="43.23483" lon="5.69845">
        <ele>345.1</ele>
        <time>2014-01-15T12:56:24Z</time>
      </trkpt>
      <trkpt lat="43.23482" lon="5.69841">
        <ele>343.8</ele>
        <time>2014-01-15T12:56:27Z</time>
      </trkpt>
      <trkpt lat="43.23481" lon="5.69835">
        <ele>342.2</ele>
        <time>2014-01-15T12:56:31Z</time>
      </trkpt>
      <trkpt lat="43.2348" lon="5.69831">
        <ele>341.7</ele>
        <time>2014-01-15T12:56:34Z</time>
      </trkpt>
      <trkpt lat="43.2348" lon="5.69825">
        <ele>342.2</ele>
        <time>2014-01-15T12:56:37Z</time>
      </trkpt>
      <trkpt lat="43.23481" lon="5.6982">
        <ele>340.2</ele>
        <time>2014-01-15T12:56:41Z</time>
      </trkpt>
      <trkpt lat="43.23481" lon="5.69814">
        <ele>339.5</ele>
        <time>2014-01-15T12:56:45Z</time>
      </trkpt>
      <trkpt lat="43.23482" lon="5.69808">
        <ele>339</ele>
        <time>2014-01-15T12:56:49Z</time>
      </trkpt>
      <trkpt lat="43.23483" lon="5.69802">
        <ele>337.8</ele>
        <time>2014-01-15T12:56:53Z</time>
      </trkpt>
      <trkpt lat="43.23485" lon="5.69797">
        <ele>337</ele>
        <time>2014-01-15T12:56:57Z</time>
      </trkpt>
      <trkpt lat="43.23485" lon="5.69796">
        <ele>336.7</ele>
        <time>2014-01-15T12:56:58Z</time>
      </trkpt>
      <trkpt lat="43.23486" lon="5.69786">
        <ele>338.3</ele>
        <time>2014-01-15T12:57:02Z</time>
      </trkpt>
      <trkpt lat="43.23486" lon="5.69782">
        <ele>339.2</ele>
        <time>2014-01-15T12:57:04Z</time>
      </trkpt>
      <trkpt lat="43.23486" lon="5.69777">
        <ele>341</ele>
        <time>2014-01-15T12:57:06Z</time>
      </trkpt>
      <trkpt lat="43.23487" lon="5.69771">
        <ele>341.7</ele>
        <time>2014-01-15T12:57:09Z</time>
      </trkpt>
      <trkpt lat="43.23488" lon="5.69767">
        <ele>341.2</ele>
        <time>2014-01-15T12:57:12Z</time>
      </trkpt>
      <trkpt lat="43.23488" lon="5.69762">
        <ele>341.7</ele>
        <time>2014-01-15T12:57:15Z</time>
      </trkpt>
      <trkpt lat="43.2349" lon="5.69757">
        <ele>340.7</ele>
        <time>2014-01-15T12:57:19Z</time>
      </trkpt>
      <trkpt lat="43.2349" lon="5.69752">
        <ele>340.7</ele>
        <time>2014-01-15T12:57:23Z</time>
      </trkpt>
      <trkpt lat="43.23489" lon="5.69748">
        <ele>343.1</ele>
        <time>2014-01-15T12:57:25Z</time>
      </trkpt>
      <trkpt lat="43.23488" lon="5.69743">
        <ele>345.7</ele>
        <time>2014-01-15T12:57:28Z</time>
      </trkpt>
      <trkpt lat="43.23485" lon="5.69739">
        <ele>346.7</ele>
        <time>2014-01-15T12:57:32Z</time>
      </trkpt>
      <trkpt lat="43.23481" lon="5.69737">
        <ele>345</ele>
        <time>2014-01-15T12:57:37Z</time>
      </trkpt>
      <trkpt lat="43.23477" lon="5.69735">
        <ele>344.3</ele>
        <time>2014-01-15T12:57:41Z</time>
      </trkpt>
      <trkpt lat="43.23474" lon="5.69734">
        <ele>343</ele>
        <time>2014-01-15T12:57:45Z</time>
      </trkpt>
      <trkpt lat="43.2347" lon="5.69734">
        <ele>342.7</ele>
        <time>2014-01-15T12:57:49Z</time>
      </trkpt>
      <trkpt lat="43.23465" lon="5.69733">
        <ele>343.1</ele>
        <time>2014-01-15T12:57:54Z</time>
      </trkpt>
      <trkpt lat="43.23462" lon="5.69733">
        <ele>343</ele>
        <time>2014-01-15T12:57:58Z</time>
      </trkpt>
      <trkpt lat="43.23461" lon="5.69733">
        <ele>342.8</ele>
        <time>2014-01-15T12:57:59Z</time>
      </trkpt>
      <trkpt lat="43.23454" lon="5.69729">
        <ele>341.5</ele>
        <time>2014-01-15T12:58:07Z</time>
      </trkpt>
      <trkpt lat="43.2345" lon="5.69728">
        <ele>341.3</ele>
        <time>2014-01-15T12:58:12Z</time>
      </trkpt>
      <trkpt lat="43.23445" lon="5.69727">
        <ele>341.2</ele>
        <time>2014-01-15T12:58:16Z</time>
      </trkpt>
      <trkpt lat="43.23441" lon="5.69727">
        <ele>341.5</ele>
        <time>2014-01-15T12:58:20Z</time>
      </trkpt>
      <trkpt lat="43.23438" lon="5.69725">
        <ele>341.2</ele>
        <time>2014-01-15T12:58:25Z</time>
      </trkpt>
      <trkpt lat="43.23434" lon="5.69724">
        <ele>341.3</ele>
        <time>2014-01-15T12:58:29Z</time>
      </trkpt>
      <trkpt lat="43.23429" lon="5.69724">
        <ele>342.6</ele>
        <time>2014-01-15T12:58:33Z</time>
      </trkpt>
      <trkpt lat="43.23426" lon="5.69722">
        <ele>343.1</ele>
        <time>2014-01-15T12:58:37Z</time>
      </trkpt>
      <trkpt lat="43.23422" lon="5.6972">
        <ele>343.7</ele>
        <time>2014-01-15T12:58:41Z</time>
      </trkpt>
      <trkpt lat="43.23418" lon="5.69716">
        <ele>342.5</ele>
        <time>2014-01-15T12:58:46Z</time>
      </trkpt>
      <trkpt lat="43.23415" lon="5.69713">
        <ele>341.8</ele>
        <time>2014-01-15T12:58:51Z</time>
      </trkpt>
      <trkpt lat="43.23413" lon="5.69709">
        <ele>341.7</ele>
        <time>2014-01-15T12:58:55Z</time>
      </trkpt>
      <trkpt lat="43.2341" lon="5.69705">
        <ele>342.2</ele>
        <time>2014-01-15T12:59:00Z</time>
      </trkpt>
      <trkpt lat="43.2341" lon="5.69704">
        <ele>342.2</ele>
        <time>2014-01-15T12:59:01Z</time>
      </trkpt>
      <trkpt lat="43.23409" lon="5.69695">
        <ele>340.7</ele>
        <time>2014-01-15T12:59:11Z</time>
      </trkpt>
      <trkpt lat="43.23409" lon="5.69689">
        <ele>339.7</ele>
        <time>2014-01-15T12:59:16Z</time>
      </trkpt>
      <trkpt lat="43.2341" lon="5.69683">
        <ele>339.2</ele>
        <time>2014-01-15T12:59:21Z</time>
      </trkpt>
      <trkpt lat="43.23411" lon="5.69678">
        <ele>339.1</ele>
        <time>2014-01-15T12:59:26Z</time>
      </trkpt>
      <trkpt lat="43.23413" lon="5.69673">
        <ele>338.7</ele>
        <time>2014-01-15T12:59:31Z</time>
      </trkpt>
      <trkpt lat="43.23414" lon="5.69667">
        <ele>339.6</ele>
        <time>2014-01-15T12:59:36Z</time>
      </trkpt>
      <trkpt lat="43.23416" lon="5.69661">
        <ele>340.2</ele>
        <time>2014-01-15T12:59:41Z</time>
      </trkpt>
      <trkpt lat="43.23417" lon="5.69656">
        <ele>340.1</ele>
        <time>2014-01-15T12:59:46Z</time>
      </trkpt>
      <trkpt lat="43.23419" lon="5.6965">
        <ele>339.5</ele>
        <time>2014-01-15T12:59:51Z</time>
      </trkpt>
      <trkpt lat="43.2342" lon="5.69644">
        <ele>339.3</ele>
        <time>2014-01-15T12:59:56Z</time>
      </trkpt>
      <trkpt lat="43.23422" lon="5.69639">
        <ele>338.3</ele>
        <time>2014-01-15T13:00:01Z</time>
      </trkpt>
      <trkpt lat="43.23422" lon="5.69638">
        <ele>338</ele>
        <time>2014-01-15T13:00:02Z</time>
      </trkpt>
      <trkpt lat="43.23425" lon="5.69628">
        <ele>336.2</ele>
        <time>2014-01-15T13:00:10Z</time>
      </trkpt>
      <trkpt lat="43.23424" lon="5.69624">
        <ele>337.7</ele>
        <time>2014-01-15T13:00:12Z</time>
      </trkpt>
      <trkpt lat="43.23424" lon="5.69618">
        <ele>338.2</ele>
        <time>2014-01-15T13:00:17Z</time>
      </trkpt>
      <trkpt lat="43.23424" lon="5.69613">
        <ele>337.7</ele>
        <time>2014-01-15T13:00:21Z</time>
      </trkpt>
      <trkpt lat="43.23425" lon="5.69608">
        <ele>337.1</ele>
        <time>2014-01-15T13:00:25Z</time>
      </trkpt>
      <trkpt lat="43.23425" lon="5.69603">
        <ele>337.5</ele>
        <time>2014-01-15T13:00:29Z</time>
      </trkpt>
      <trkpt lat="43.23425" lon="5.69597">
        <ele>337.3</ele>
        <time>2014-01-15T13:00:33Z</time>
      </trkpt>
      <trkpt lat="43.23426" lon="5.69593">
        <ele>337.5</ele>
        <time>2014-01-15T13:00:37Z</time>
      </trkpt>
      <trkpt lat="43.23425" lon="5.69587">
        <ele>340.2</ele>
        <time>2014-01-15T13:00:40Z</time>
      </trkpt>
      <trkpt lat="43.23425" lon="5.69581">
        <ele>340.7</ele>
        <time>2014-01-15T13:00:44Z</time>
      </trkpt>
      <trkpt lat="43.23425" lon="5.69577">
        <ele>340.5</ele>
        <time>2014-01-15T13:00:47Z</time>
      </trkpt>
      <trkpt lat="43.23425" lon="5.69573">
        <ele>342.2</ele>
        <time>2014-01-15T13:00:49Z</time>
      </trkpt>
      <trkpt lat="43.23425" lon="5.69567">
        <ele>343.7</ele>
        <time>2014-01-15T13:00:52Z</time>
      </trkpt>
      <trkpt lat="43.23425" lon="5.69562">
        <ele>343.7</ele>
        <time>2014-01-15T13:00:56Z</time>
      </trkpt>
      <trkpt lat="43.23426" lon="5.69556">
        <ele>343.8</ele>
        <time>2014-01-15T13:01:00Z</time>
      </trkpt>
      <trkpt lat="43.23426" lon="5.6955">
        <ele>344</ele>
        <time>2014-01-15T13:01:04Z</time>
      </trkpt>
      <trkpt lat="43.23426" lon="5.69549">
        <ele>343.8</ele>
        <time>2014-01-15T13:01:05Z</time>
      </trkpt>
      <trkpt lat="43.23427" lon="5.69539">
        <ele>344</ele>
        <time>2014-01-15T13:01:13Z</time>
      </trkpt>
      <trkpt lat="43.23427" lon="5.69534">
        <ele>344.2</ele>
        <time>2014-01-15T13:01:18Z</time>
      </trkpt>
      <trkpt lat="43.23428" lon="5.69528">
        <ele>343.8</ele>
        <time>2014-01-15T13:01:24Z</time>
      </trkpt>
      <trkpt lat="43.23428" lon="5.69523">
        <ele>344.2</ele>
        <time>2014-01-15T13:01:28Z</time>
      </trkpt>
      <trkpt lat="43.23428" lon="5.69517">
        <ele>344.6</ele>
        <time>2014-01-15T13:01:32Z</time>
      </trkpt>
      <trkpt lat="43.23429" lon="5.69511">
        <ele>345.3</ele>
        <time>2014-01-15T13:01:37Z</time>
      </trkpt>
      <trkpt lat="43.23429" lon="5.69506">
        <ele>347.7</ele>
        <time>2014-01-15T13:01:41Z</time>
      </trkpt>
      <trkpt lat="43.2343" lon="5.69501">
        <ele>349</ele>
        <time>2014-01-15T13:01:46Z</time>
      </trkpt>
      <trkpt lat="43.23432" lon="5.69496">
        <ele>347.3</ele>
        <time>2014-01-15T13:01:51Z</time>
      </trkpt>
      <trkpt lat="43.23434" lon="5.69492">
        <ele>346.7</ele>
        <time>2014-01-15T13:01:56Z</time>
      </trkpt>
      <trkpt lat="43.23436" lon="5.69487">
        <ele>347.7</ele>
        <time>2014-01-15T13:02:01Z</time>
      </trkpt>
      <trkpt lat="43.23437" lon="5.69482">
        <ele>349.1</ele>
        <time>2014-01-15T13:02:05Z</time>
      </trkpt>
      <trkpt lat="43.23438" lon="5.69481">
        <ele>349</ele>
        <time>2014-01-15T13:02:06Z</time>
      </trkpt>
      <trkpt lat="43.23441" lon="5.69473">
        <ele>351</ele>
        <time>2014-01-15T13:02:14Z</time>
      </trkpt>
      <trkpt lat="43.23444" lon="5.69469">
        <ele>350.7</ele>
        <time>2014-01-15T13:02:17Z</time>
      </trkpt>
      <trkpt lat="43.23447" lon="5.69466">
        <ele>349.8</ele>
        <time>2014-01-15T13:02:20Z</time>
      </trkpt>
      <trkpt lat="43.2345" lon="5.69461">
        <ele>350.1</ele>
        <time>2014-01-15T13:02:24Z</time>
      </trkpt>
      <trkpt lat="43.23452" lon="5.69456">
        <ele>350.7</ele>
        <time>2014-01-15T13:02:28Z</time>
      </trkpt>
      <trkpt lat="43.23455" lon="5.69453">
        <ele>349.7</ele>
        <time>2014-01-15T13:02:33Z</time>
      </trkpt>
      <trkpt lat="43.23458" lon="5.69449">
        <ele>348.8</ele>
        <time>2014-01-15T13:02:37Z</time>
      </trkpt>
      <trkpt lat="43.23462" lon="5.69446">
        <ele>347</ele>
        <time>2014-01-15T13:02:41Z</time>
      </trkpt>
      <trkpt lat="43.23463" lon="5.69441">
        <ele>348.1</ele>
        <time>2014-01-15T13:02:44Z</time>
      </trkpt>
      <trkpt lat="43.23465" lon="5.69436">
        <ele>349</ele>
        <time>2014-01-15T13:02:48Z</time>
      </trkpt>
      <trkpt lat="43.23468" lon="5.69431">
        <ele>348.7</ele>
        <time>2014-01-15T13:02:52Z</time>
      </trkpt>
      <trkpt lat="43.23469" lon="5.69426">
        <ele>349.5</ele>
        <time>2014-01-15T13:02:57Z</time>
      </trkpt>
      <trkpt lat="43.23467" lon="5.69421">
        <ele>350.1</ele>
        <time>2014-01-15T13:03:01Z</time>
      </trkpt>
      <trkpt lat="43.23463" lon="5.69418">
        <ele>351.6</ele>
        <time>2014-01-15T13:03:05Z</time>
      </trkpt>
      <trkpt lat="43.23459" lon="5.69416">
        <ele>353</ele>
        <time>2014-01-15T13:03:10Z</time>
      </trkpt>
      <trkpt lat="43.23459" lon="5.69415">
        <ele>353.1</ele>
        <time>2014-01-15T13:03:11Z</time>
      </trkpt>
      <trkpt lat="43.23451" lon="5.69412">
        <ele>353.2</ele>
        <time>2014-01-15T13:03:19Z</time>
      </trkpt>
      <trkpt lat="43.23448" lon="5.69409">
        <ele>352.2</ele>
        <time>2014-01-15T13:03:24Z</time>
      </trkpt>
      <trkpt lat="43.23444" lon="5.69406">
        <ele>351.3</ele>
        <time>2014-01-15T13:03:28Z</time>
      </trkpt>
      <trkpt lat="43.2344" lon="5.69403">
        <ele>351</ele>
        <time>2014-01-15T13:03:33Z</time>
      </trkpt>
      <trkpt lat="43.23437" lon="5.694">
        <ele>350.2</ele>
        <time>2014-01-15T13:03:38Z</time>
      </trkpt>
      <trkpt lat="43.23434" lon="5.69397">
        <ele>349.7</ele>
        <time>2014-01-15T13:03:42Z</time>
      </trkpt>
      <trkpt lat="43.2343" lon="5.69393">
        <ele>349.3</ele>
        <time>2014-01-15T13:03:47Z</time>
      </trkpt>
      <trkpt lat="43.23428" lon="5.69389">
        <ele>348.7</ele>
        <time>2014-01-15T13:03:52Z</time>
      </trkpt>
      <trkpt lat="43.23426" lon="5.69385">
        <ele>348.2</ele>
        <time>2014-01-15T13:03:56Z</time>
      </trkpt>
      <trkpt lat="43.23424" lon="5.6938">
        <ele>347.5</ele>
        <time>2014-01-15T13:04:00Z</time>
      </trkpt>
      <trkpt lat="43.23423" lon="5.69375">
        <ele>348.1</ele>
        <time>2014-01-15T13:04:04Z</time>
      </trkpt>
      <trkpt lat="43.23423" lon="5.69369">
        <ele>346</ele>
        <time>2014-01-15T13:04:10Z</time>
      </trkpt>
      <trkpt lat="43.23422" lon="5.69364">
        <ele>346.7</ele>
        <time>2014-01-15T13:04:15Z</time>
      </trkpt>
      <trkpt lat="43.23422" lon="5.69362">
        <ele>347.5</ele>
        <time>2014-01-15T13:04:16Z</time>
      </trkpt>
      <trkpt lat="43.2342" lon="5.69352">
        <ele>349.6</ele>
        <time>2014-01-15T13:04:24Z</time>
      </trkpt>
      <trkpt lat="43.23419" lon="5.69347">
        <ele>349</ele>
        <time>2014-01-15T13:04:28Z</time>
      </trkpt>
      <trkpt lat="43.23419" lon="5.69341">
        <ele>349.5</ele>
        <time>2014-01-15T13:04:33Z</time>
      </trkpt>
      <trkpt lat="43.23419" lon="5.69335">
        <ele>348.8</ele>
        <time>2014-01-15T13:04:38Z</time>
      </trkpt>
      <trkpt lat="43.23419" lon="5.69329">
        <ele>347.7</ele>
        <time>2014-01-15T13:04:42Z</time>
      </trkpt>
      <trkpt lat="43.23419" lon="5.69324">
        <ele>343.7</ele>
        <time>2014-01-15T13:04:48Z</time>
      </trkpt>
      <trkpt lat="43.23419" lon="5.69319">
        <ele>343.2</ele>
        <time>2014-01-15T13:04:53Z</time>
      </trkpt>
      <trkpt lat="43.2342" lon="5.69314">
        <ele>342.1</ele>
        <time>2014-01-15T13:04:58Z</time>
      </trkpt>
      <trkpt lat="43.23421" lon="5.69309">
        <ele>340.7</ele>
        <time>2014-01-15T13:05:03Z</time>
      </trkpt>
      <trkpt lat="43.23423" lon="5.69304">
        <ele>339.2</ele>
        <time>2014-01-15T13:05:09Z</time>
      </trkpt>
      <trkpt lat="43.23423" lon="5.69298">
        <ele>338.3</ele>
        <time>2014-01-15T13:05:13Z</time>
      </trkpt>
      <trkpt lat="43.23422" lon="5.69292">
        <ele>338.8</ele>
        <time>2014-01-15T13:05:17Z</time>
      </trkpt>
      <trkpt lat="43.23422" lon="5.69291">
        <ele>338.7</ele>
        <time>2014-01-15T13:05:18Z</time>
      </trkpt>
      <trkpt lat="43.23421" lon="5.69282">
        <ele>339.7</ele>
        <time>2014-01-15T13:05:23Z</time>
      </trkpt>
      <trkpt lat="43.23419" lon="5.69277">
        <ele>341</ele>
        <time>2014-01-15T13:05:27Z</time>
      </trkpt>
      <trkpt lat="43.23418" lon="5.69272">
        <ele>341.1</ele>
        <time>2014-01-15T13:05:31Z</time>
      </trkpt>
      <trkpt lat="43.23416" lon="5.69267">
        <ele>342.5</ele>
        <time>2014-01-15T13:05:34Z</time>
      </trkpt>
      <trkpt lat="43.23416" lon="5.69261">
        <ele>342.2</ele>
        <time>2014-01-15T13:05:40Z</time>
      </trkpt>
      <trkpt lat="43.23415" lon="5.69257">
        <ele>342.7</ele>
        <time>2014-01-15T13:05:43Z</time>
      </trkpt>
      <trkpt lat="43.23413" lon="5.69252">
        <ele>343.6</ele>
        <time>2014-01-15T13:05:46Z</time>
      </trkpt>
      <trkpt lat="43.23413" lon="5.69246">
        <ele>341.7</ele>
        <time>2014-01-15T13:05:50Z</time>
      </trkpt>
      <trkpt lat="43.23413" lon="5.6924">
        <ele>340.5</ele>
        <time>2014-01-15T13:05:55Z</time>
      </trkpt>
      <trkpt lat="43.23411" lon="5.69235">
        <ele>341.6</ele>
        <time>2014-01-15T13:05:59Z</time>
      </trkpt>
      <trkpt lat="43.23408" lon="5.69231">
        <ele>343.7</ele>
        <time>2014-01-15T13:06:01Z</time>
      </trkpt>
      <trkpt lat="43.23407" lon="5.69225">
        <ele>343.2</ele>
        <time>2014-01-15T13:06:05Z</time>
      </trkpt>
      <trkpt lat="43.23406" lon="5.69221">
        <ele>343.3</ele>
        <time>2014-01-15T13:06:08Z</time>
      </trkpt>
      <trkpt lat="43.23404" lon="5.69216">
        <ele>345.2</ele>
        <time>2014-01-15T13:06:12Z</time>
      </trkpt>
      <trkpt lat="43.23403" lon="5.69211">
        <ele>346.5</ele>
        <time>2014-01-15T13:06:17Z</time>
      </trkpt>
      <trkpt lat="43.23401" lon="5.69206">
        <ele>347.7</ele>
        <time>2014-01-15T13:06:21Z</time>
      </trkpt>
      <trkpt lat="43.23401" lon="5.69205">
        <ele>347.8</ele>
        <time>2014-01-15T13:06:22Z</time>
      </trkpt>
      <trkpt lat="43.23398" lon="5.69195">
        <ele>351.2</ele>
        <time>2014-01-15T13:06:46Z</time>
      </trkpt>
      <trkpt lat="43.23397" lon="5.69189">
        <ele>356.7</ele>
        <time>2014-01-15T13:08:52Z</time>
      </trkpt>
      <trkpt lat="43.23397" lon="5.69189">
        <ele>356.6</ele>
        <time>2014-01-15T13:08:53Z</time>
      </trkpt>
      <trkpt lat="43.23395" lon="5.69178">
        <ele>354.6</ele>
        <time>2014-01-15T13:09:30Z</time>
      </trkpt>
      <trkpt lat="43.23396" lon="5.69172">
        <ele>353</ele>
        <time>2014-01-15T13:09:36Z</time>
      </trkpt>
      <trkpt lat="43.23397" lon="5.69166">
        <ele>351.8</ele>
        <time>2014-01-15T13:09:43Z</time>
      </trkpt>
      <trkpt lat="43.23397" lon="5.6916">
        <ele>352.6</ele>
        <time>2014-01-15T13:09:49Z</time>
      </trkpt>
      <trkpt lat="43.23399" lon="5.69155">
        <ele>352.1</ele>
        <time>2014-01-15T13:09:55Z</time>
      </trkpt>
      <trkpt lat="43.23399" lon="5.69154">
        <ele>352.7</ele>
        <time>2014-01-15T13:09:56Z</time>
      </trkpt>
      <trkpt lat="43.23402" lon="5.69145">
        <ele>350.8</ele>
        <time>2014-01-15T13:10:06Z</time>
      </trkpt>
      <trkpt lat="43.23403" lon="5.69139">
        <ele>350.3</ele>
        <time>2014-01-15T13:10:11Z</time>
      </trkpt>
      <trkpt lat="43.23405" lon="5.69134">
        <ele>350.8</ele>
        <time>2014-01-15T13:10:18Z</time>
      </trkpt>
      <trkpt lat="43.23407" lon="5.69129">
        <ele>351.5</ele>
        <time>2014-01-15T13:10:23Z</time>
      </trkpt>
      <trkpt lat="43.23408" lon="5.69124">
        <ele>352.8</ele>
        <time>2014-01-15T13:10:28Z</time>
      </trkpt>
      <trkpt lat="43.2341" lon="5.69119">
        <ele>352.1</ele>
        <time>2014-01-15T13:10:33Z</time>
      </trkpt>
      <trkpt lat="43.2341" lon="5.69114">
        <ele>354.5</ele>
        <time>2014-01-15T13:10:36Z</time>
      </trkpt>
      <trkpt lat="43.2341" lon="5.69109">
        <ele>356.1</ele>
        <time>2014-01-15T13:10:39Z</time>
      </trkpt>
      <trkpt lat="43.23411" lon="5.69105">
        <ele>357.7</ele>
        <time>2014-01-15T13:10:42Z</time>
      </trkpt>
      <trkpt lat="43.23411" lon="5.69099">
        <ele>359.5</ele>
        <time>2014-01-15T13:10:46Z</time>
      </trkpt>
      <trkpt lat="43.23412" lon="5.69093">
        <ele>359</ele>
        <time>2014-01-15T13:10:51Z</time>
      </trkpt>
      <trkpt lat="43.23413" lon="5.69088">
        <ele>358.7</ele>
        <time>2014-01-15T13:10:57Z</time>
      </trkpt>
      <trkpt lat="43.23413" lon="5.69087">
        <ele>358.6</ele>
        <time>2014-01-15T13:10:58Z</time>
      </trkpt>
      <trkpt lat="43.23414" lon="5.69078">
        <ele>357.7</ele>
        <time>2014-01-15T13:11:06Z</time>
      </trkpt>
      <trkpt lat="43.23414" lon="5.69072">
        <ele>358.2</ele>
        <time>2014-01-15T13:11:11Z</time>
      </trkpt>
      <trkpt lat="43.23414" lon="5.69066">
        <ele>358.7</ele>
        <time>2014-01-15T13:11:16Z</time>
      </trkpt>
      <trkpt lat="43.23414" lon="5.6906">
        <ele>358.6</ele>
        <time>2014-01-15T13:11:21Z</time>
      </trkpt>
      <trkpt lat="43.23415" lon="5.69055">
        <ele>357.1</ele>
        <time>2014-01-15T13:11:26Z</time>
      </trkpt>
      <trkpt lat="43.23414" lon="5.69049">
        <ele>358.5</ele>
        <time>2014-01-15T13:11:30Z</time>
      </trkpt>
      <trkpt lat="43.23414" lon="5.69044">
        <ele>357.7</ele>
        <time>2014-01-15T13:11:35Z</time>
      </trkpt>
      <trkpt lat="43.23414" lon="5.69039">
        <ele>356.7</ele>
        <time>2014-01-15T13:11:40Z</time>
      </trkpt>
      <trkpt lat="43.23413" lon="5.69033">
        <ele>356.7</ele>
        <time>2014-01-15T13:11:45Z</time>
      </trkpt>
      <trkpt lat="43.23412" lon="5.69027">
        <ele>357</ele>
        <time>2014-01-15T13:11:50Z</time>
      </trkpt>
      <trkpt lat="43.23411" lon="5.69022">
        <ele>358.2</ele>
        <time>2014-01-15T13:11:56Z</time>
      </trkpt>
      <trkpt lat="43.2341" lon="5.69017">
        <ele>359.7</ele>
        <time>2014-01-15T13:12:01Z</time>
      </trkpt>
      <trkpt lat="43.23409" lon="5.69016">
        <ele>360</ele>
        <time>2014-01-15T13:12:02Z</time>
      </trkpt>
      <trkpt lat="43.23408" lon="5.69006">
        <ele>362.7</ele>
        <time>2014-01-15T13:12:10Z</time>
      </trkpt>
      <trkpt lat="43.23406" lon="5.69">
        <ele>364.3</ele>
        <time>2014-01-15T13:12:15Z</time>
      </trkpt>
      <trkpt lat="43.23406" lon="5.68995">
        <ele>363.7</ele>
        <time>2014-01-15T13:12:20Z</time>
      </trkpt>
      <trkpt lat="43.23406" lon="5.6899">
        <ele>362.5</ele>
        <time>2014-01-15T13:12:25Z</time>
      </trkpt>
      <trkpt lat="43.23406" lon="5.68984">
        <ele>362.7</ele>
        <time>2014-01-15T13:12:30Z</time>
      </trkpt>
      <trkpt lat="43.23405" lon="5.68978">
        <ele>361.8</ele>
        <time>2014-01-15T13:12:36Z</time>
      </trkpt>
      <trkpt lat="43.23405" lon="5.68972">
        <ele>362.7</ele>
        <time>2014-01-15T13:12:42Z</time>
      </trkpt>
      <trkpt lat="43.23404" lon="5.68967">
        <ele>363.6</ele>
        <time>2014-01-15T13:12:48Z</time>
      </trkpt>
      <trkpt lat="43.23402" lon="5.68961">
        <ele>366</ele>
        <time>2014-01-15T13:12:51Z</time>
      </trkpt>
      <trkpt lat="43.234" lon="5.68956">
        <ele>366.5</ele>
        <time>2014-01-15T13:12:56Z</time>
      </trkpt>
      <trkpt lat="43.23399" lon="5.68952">
        <ele>366.5</ele>
        <time>2014-01-15T13:13:00Z</time>
      </trkpt>
      <trkpt lat="43.23398" lon="5.68947">
        <ele>366</ele>
        <time>2014-01-15T13:13:04Z</time>
      </trkpt>
      <trkpt lat="43.23398" lon="5.68945">
        <ele>365.8</ele>
        <time>2014-01-15T13:13:05Z</time>
      </trkpt>
      <trkpt lat="43.23395" lon="5.68936">
        <ele>366.7</ele>
        <time>2014-01-15T13:13:12Z</time>
      </trkpt>
      <trkpt lat="43.23393" lon="5.68931">
        <ele>368</ele>
        <time>2014-01-15T13:13:17Z</time>
      </trkpt>
      <trkpt lat="43.23391" lon="5.68926">
        <ele>368.1</ele>
        <time>2014-01-15T13:13:23Z</time>
      </trkpt>
      <trkpt lat="43.23391" lon="5.6892">
        <ele>367.6</ele>
        <time>2014-01-15T13:13:29Z</time>
      </trkpt>
      <trkpt lat="43.23391" lon="5.68915">
        <ele>367.7</ele>
        <time>2014-01-15T13:13:35Z</time>
      </trkpt>
      <trkpt lat="43.23391" lon="5.68909">
        <ele>367.6</ele>
        <time>2014-01-15T13:13:42Z</time>
      </trkpt>
      <trkpt lat="43.2339" lon="5.68903">
        <ele>369.2</ele>
        <time>2014-01-15T13:13:47Z</time>
      </trkpt>
      <trkpt lat="43.23389" lon="5.68898">
        <ele>370</ele>
        <time>2014-01-15T13:13:54Z</time>
      </trkpt>
      <trkpt lat="43.23388" lon="5.68892">
        <ele>369.7</ele>
        <time>2014-01-15T13:14:00Z</time>
      </trkpt>
      <trkpt lat="43.23388" lon="5.68886">
        <ele>370</ele>
        <time>2014-01-15T13:14:05Z</time>
      </trkpt>
      <trkpt lat="43.23388" lon="5.68885">
        <ele>369.7</ele>
        <time>2014-01-15T13:14:06Z</time>
      </trkpt>
      <trkpt lat="43.2339" lon="5.68875">
        <ele>369.7</ele>
        <time>2014-01-15T13:14:19Z</time>
      </trkpt>
      <trkpt lat="43.2339" lon="5.68869">
        <ele>371.2</ele>
        <time>2014-01-15T13:14:25Z</time>
      </trkpt>
      <trkpt lat="43.2339" lon="5.68863">
        <ele>371.5</ele>
        <time>2014-01-15T13:14:31Z</time>
      </trkpt>
      <trkpt lat="43.2339" lon="5.68858">
        <ele>371.7</ele>
        <time>2014-01-15T13:14:37Z</time>
      </trkpt>
      <trkpt lat="43.23389" lon="5.68852">
        <ele>373.7</ele>
        <time>2014-01-15T13:14:41Z</time>
      </trkpt>
      <trkpt lat="43.23389" lon="5.68846">
        <ele>375.5</ele>
        <time>2014-01-15T13:14:46Z</time>
      </trkpt>
      <trkpt lat="43.2339" lon="5.68841">
        <ele>375.7</ele>
        <time>2014-01-15T13:14:51Z</time>
      </trkpt>
      <trkpt lat="43.2339" lon="5.68835">
        <ele>376.7</ele>
        <time>2014-01-15T13:14:56Z</time>
      </trkpt>
      <trkpt lat="43.23392" lon="5.68829">
        <ele>377.5</ele>
        <time>2014-01-15T13:15:02Z</time>
      </trkpt>
      <trkpt lat="43.23393" lon="5.68824">
        <ele>378.2</ele>
        <time>2014-01-15T13:15:07Z</time>
      </trkpt>
      <trkpt lat="43.23393" lon="5.68824">
        <ele>378.1</ele>
        <time>2014-01-15T13:15:08Z</time>
      </trkpt>
      <trkpt lat="43.23394" lon="5.68814">
        <ele>379.5</ele>
        <time>2014-01-15T13:15:17Z</time>
      </trkpt>
      <trkpt lat="43.23396" lon="5.68808">
        <ele>378.7</ele>
        <time>2014-01-15T13:15:23Z</time>
      </trkpt>
      <trkpt lat="43.23397" lon="5.68802">
        <ele>376.7</ele>
        <time>2014-01-15T13:15:30Z</time>
      </trkpt>
      <trkpt lat="43.23396" lon="5.68798">
        <ele>378.2</ele>
        <time>2014-01-15T13:15:34Z</time>
      </trkpt>
      <trkpt lat="43.23396" lon="5.68792">
        <ele>379.3</ele>
        <time>2014-01-15T13:15:38Z</time>
      </trkpt>
      <trkpt lat="43.23396" lon="5.68787">
        <ele>380.5</ele>
        <time>2014-01-15T13:15:42Z</time>
      </trkpt>
      <trkpt lat="43.23396" lon="5.68782">
        <ele>381.3</ele>
        <time>2014-01-15T13:15:46Z</time>
      </trkpt>
      <trkpt lat="43.23397" lon="5.68776">
        <ele>382.2</ele>
        <time>2014-01-15T13:15:50Z</time>
      </trkpt>
      <trkpt lat="43.23397" lon="5.68771">
        <ele>383.8</ele>
        <time>2014-01-15T13:15:54Z</time>
      </trkpt>
      <trkpt lat="43.23399" lon="5.68766">
        <ele>385.2</ele>
        <time>2014-01-15T13:15:59Z</time>
      </trkpt>
      <trkpt lat="43.23402" lon="5.68764">
        <ele>384.3</ele>
        <time>2014-01-15T13:16:02Z</time>
      </trkpt>
      <trkpt lat="43.23406" lon="5.68761">
        <ele>383.8</ele>
        <time>2014-01-15T13:16:07Z</time>
      </trkpt>
      <trkpt lat="43.23409" lon="5.68757">
        <ele>384.6</ele>
        <time>2014-01-15T13:16:12Z</time>
      </trkpt>
      <trkpt lat="43.23409" lon="5.68757">
        <ele>384.5</ele>
        <time>2014-01-15T13:16:13Z</time>
      </trkpt>
      <trkpt lat="43.23416" lon="5.68752">
        <ele>382.8</ele>
        <time>2014-01-15T13:16:22Z</time>
      </trkpt>
      <trkpt lat="43.23419" lon="5.6875">
        <ele>382.5</ele>
        <time>2014-01-15T13:16:26Z</time>
      </trkpt>
      <trkpt lat="43.23422" lon="5.68747">
        <ele>384.1</ele>
        <time>2014-01-15T13:16:32Z</time>
      </trkpt>
      <trkpt lat="43.23426" lon="5.68745">
        <ele>383.8</ele>
        <time>2014-01-15T13:16:37Z</time>
      </trkpt>
      <trkpt lat="43.23429" lon="5.68742">
        <ele>384.3</ele>
        <time>2014-01-15T13:16:42Z</time>
      </trkpt>
      <trkpt lat="43.23433" lon="5.6874">
        <ele>384.6</ele>
        <time>2014-01-15T13:16:47Z</time>
      </trkpt>
      <trkpt lat="43.23437" lon="5.68739">
        <ele>383.7</ele>
        <time>2014-01-15T13:16:51Z</time>
      </trkpt>
      <trkpt lat="43.23441" lon="5.68737">
        <ele>383.3</ele>
        <time>2014-01-15T13:16:57Z</time>
      </trkpt>
      <trkpt lat="43.23444" lon="5.68736">
        <ele>382.8</ele>
        <time>2014-01-15T13:17:01Z</time>
      </trkpt>
      <trkpt lat="43.23448" lon="5.68734">
        <ele>382.7</ele>
        <time>2014-01-15T13:17:05Z</time>
      </trkpt>
      <trkpt lat="43.23451" lon="5.68731">
        <ele>383.2</ele>
        <time>2014-01-15T13:17:10Z</time>
      </trkpt>
      <trkpt lat="43.23455" lon="5.68727">
        <ele>383.2</ele>
        <time>2014-01-15T13:17:15Z</time>
      </trkpt>
      <trkpt lat="43.23455" lon="5.68726">
        <ele>383.2</ele>
        <time>2014-01-15T13:17:16Z</time>
      </trkpt>
      <trkpt lat="43.2346" lon="5.68718">
        <ele>385.2</ele>
        <time>2014-01-15T13:17:24Z</time>
      </trkpt>
      <trkpt lat="43.23463" lon="5.68715">
        <ele>386.7</ele>
        <time>2014-01-15T13:17:29Z</time>
      </trkpt>
      <trkpt lat="43.23467" lon="5.68711">
        <ele>387.3</ele>
        <time>2014-01-15T13:17:34Z</time>
      </trkpt>
      <trkpt lat="43.23469" lon="5.68707">
        <ele>388.7</ele>
        <time>2014-01-15T13:17:40Z</time>
      </trkpt>
      <trkpt lat="43.23472" lon="5.68703">
        <ele>388.3</ele>
        <time>2014-01-15T13:17:46Z</time>
      </trkpt>
      <trkpt lat="43.23474" lon="5.68698">
        <ele>388.3</ele>
        <time>2014-01-15T13:17:50Z</time>
      </trkpt>
      <trkpt lat="43.23476" lon="5.68693">
        <ele>388.5</ele>
        <time>2014-01-15T13:17:56Z</time>
      </trkpt>
      <trkpt lat="43.23478" lon="5.68689">
        <ele>388.2</ele>
        <time>2014-01-15T13:18:00Z</time>
      </trkpt>
      <trkpt lat="43.2348" lon="5.68683">
        <ele>390.7</ele>
        <time>2014-01-15T13:18:05Z</time>
      </trkpt>
      <trkpt lat="43.23482" lon="5.68679">
        <ele>391.7</ele>
        <time>2014-01-15T13:18:10Z</time>
      </trkpt>
      <trkpt lat="43.23485" lon="5.68674">
        <ele>391.5</ele>
        <time>2014-01-15T13:18:15Z</time>
      </trkpt>
      <trkpt lat="43.23488" lon="5.68671">
        <ele>390</ele>
        <time>2014-01-15T13:18:21Z</time>
      </trkpt>
      <trkpt lat="43.23489" lon="5.68671">
        <ele>389.7</ele>
        <time>2014-01-15T13:18:22Z</time>
      </trkpt>
      <trkpt lat="43.23494" lon="5.68665">
        <ele>387.8</ele>
        <time>2014-01-15T13:18:32Z</time>
      </trkpt>
      <trkpt lat="43.23497" lon="5.6866">
        <ele>390.2</ele>
        <time>2014-01-15T13:18:36Z</time>
      </trkpt>
      <trkpt lat="43.23501" lon="5.68657">
        <ele>388.7</ele>
        <time>2014-01-15T13:18:42Z</time>
      </trkpt>
      <trkpt lat="43.23505" lon="5.68654">
        <ele>391.5</ele>
        <time>2014-01-15T13:18:47Z</time>
      </trkpt>
      <trkpt lat="43.23508" lon="5.68651">
        <ele>392.1</ele>
        <time>2014-01-15T13:18:52Z</time>
      </trkpt>
      <trkpt lat="43.23511" lon="5.68648">
        <ele>394.2</ele>
        <time>2014-01-15T13:18:58Z</time>
      </trkpt>
      <trkpt lat="43.23515" lon="5.68646">
        <ele>394.1</ele>
        <time>2014-01-15T13:19:02Z</time>
      </trkpt>
      <trkpt lat="43.23518" lon="5.68643">
        <ele>392.5</ele>
        <time>2014-01-15T13:19:07Z</time>
      </trkpt>
      <trkpt lat="43.23522" lon="5.68642">
        <ele>392</ele>
        <time>2014-01-15T13:19:12Z</time>
      </trkpt>
      <trkpt lat="43.23526" lon="5.68642">
        <ele>391.7</ele>
        <time>2014-01-15T13:19:17Z</time>
      </trkpt>
      <trkpt lat="43.2353" lon="5.68645">
        <ele>391.3</ele>
        <time>2014-01-15T13:19:22Z</time>
      </trkpt>
      <trkpt lat="43.23531" lon="5.68646">
        <ele>391.1</ele>
        <time>2014-01-15T13:19:23Z</time>
      </trkpt>
      <trkpt lat="43.23537" lon="5.68651">
        <ele>391.2</ele>
        <time>2014-01-15T13:19:29Z</time>
      </trkpt>
      <trkpt lat="43.23539" lon="5.68656">
        <ele>389.8</ele>
        <time>2014-01-15T13:19:33Z</time>
      </trkpt>
      <trkpt lat="43.23541" lon="5.68661">
        <ele>390.7</ele>
        <time>2014-01-15T13:19:39Z</time>
      </trkpt>
      <trkpt lat="43.23543" lon="5.68666">
        <ele>391.3</ele>
        <time>2014-01-15T13:19:44Z</time>
      </trkpt>
      <trkpt lat="43.23546" lon="5.6867">
        <ele>391.8</ele>
        <time>2014-01-15T13:19:49Z</time>
      </trkpt>
      <trkpt lat="43.23548" lon="5.68674">
        <ele>393.7</ele>
        <time>2014-01-15T13:19:56Z</time>
      </trkpt>
      <trkpt lat="43.23552" lon="5.68678">
        <ele>395.5</ele>
        <time>2014-01-15T13:20:02Z</time>
      </trkpt>
      <trkpt lat="43.23555" lon="5.68681">
        <ele>396</ele>
        <time>2014-01-15T13:20:10Z</time>
      </trkpt>
      <trkpt lat="43.23559" lon="5.68682">
        <ele>398.6</ele>
        <time>2014-01-15T13:20:24Z</time>
      </trkpt>
      <trkpt lat="43.2356" lon="5.68681">
        <ele>399.3</ele>
        <time>2014-01-15T13:20:25Z</time>
      </trkpt>
      <trkpt lat="43.23562" lon="5.68683">
        <ele>412</ele>
        <time>2014-01-15T13:22:57Z</time>
      </trkpt>
      <trkpt lat="43.23562" lon="5.68684">
        <ele>410.7</ele>
        <time>2014-01-15T13:22:58Z</time>
      </trkpt>
      <trkpt lat="43.23559" lon="5.68694">
        <ele>401.5</ele>
        <time>2014-01-15T13:23:11Z</time>
      </trkpt>
      <trkpt lat="43.2356" lon="5.68699">
        <ele>397.2</ele>
        <time>2014-01-15T13:23:15Z</time>
      </trkpt>
      <trkpt lat="43.2356" lon="5.68704">
        <ele>393.8</ele>
        <time>2014-01-15T13:23:19Z</time>
      </trkpt>
      <trkpt lat="43.23559" lon="5.6871">
        <ele>390.8</ele>
        <time>2014-01-15T13:23:23Z</time>
      </trkpt>
      <trkpt lat="43.23558" lon="5.68715">
        <ele>390.5</ele>
        <time>2014-01-15T13:23:28Z</time>
      </trkpt>
      <trkpt lat="43.23557" lon="5.68721">
        <ele>390.3</ele>
        <time>2014-01-15T13:23:32Z</time>
      </trkpt>
      <trkpt lat="43.23555" lon="5.68726">
        <ele>390.8</ele>
        <time>2014-01-15T13:23:37Z</time>
      </trkpt>
      <trkpt lat="43.23554" lon="5.68732">
        <ele>391.3</ele>
        <time>2014-01-15T13:23:42Z</time>
      </trkpt>
      <trkpt lat="43.23553" lon="5.68737">
        <ele>391.7</ele>
        <time>2014-01-15T13:23:45Z</time>
      </trkpt>
      <trkpt lat="43.23552" lon="5.68742">
        <ele>391.7</ele>
        <time>2014-01-15T13:23:48Z</time>
      </trkpt>
      <trkpt lat="43.23551" lon="5.68747">
        <ele>393.3</ele>
        <time>2014-01-15T13:23:51Z</time>
      </trkpt>
      <trkpt lat="43.2355" lon="5.68751">
        <ele>393.5</ele>
        <time>2014-01-15T13:23:55Z</time>
      </trkpt>
      <trkpt lat="43.23548" lon="5.68756">
        <ele>393.7</ele>
        <time>2014-01-15T13:24:00Z</time>
      </trkpt>
      <trkpt lat="43.23547" lon="5.68757">
        <ele>393.3</ele>
        <time>2014-01-15T13:24:01Z</time>
      </trkpt>
      <trkpt lat="43.23542" lon="5.68765">
        <ele>396.2</ele>
        <time>2014-01-15T13:24:08Z</time>
      </trkpt>
      <trkpt lat="43.2354" lon="5.68769">
        <ele>394.3</ele>
        <time>2014-01-15T13:24:11Z</time>
      </trkpt>
      <trkpt lat="43.23539" lon="5.68774">
        <ele>393.3</ele>
        <time>2014-01-15T13:24:14Z</time>
      </trkpt>
      <trkpt lat="43.23538" lon="5.68779">
        <ele>392.2</ele>
        <time>2014-01-15T13:24:17Z</time>
      </trkpt>
      <trkpt lat="43.23537" lon="5.68784">
        <ele>391.5</ele>
        <time>2014-01-15T13:24:20Z</time>
      </trkpt>
      <trkpt lat="43.23536" lon="5.68789">
        <ele>390.7</ele>
        <time>2014-01-15T13:24:23Z</time>
      </trkpt>
      <trkpt lat="43.23534" lon="5.68793">
        <ele>389.2</ele>
        <time>2014-01-15T13:24:27Z</time>
      </trkpt>
      <trkpt lat="43.23532" lon="5.68798">
        <ele>389.7</ele>
        <time>2014-01-15T13:24:31Z</time>
      </trkpt>
      <trkpt lat="43.23529" lon="5.68802">
        <ele>390.2</ele>
        <time>2014-01-15T13:24:35Z</time>
      </trkpt>
      <trkpt lat="43.23528" lon="5.68808">
        <ele>390.5</ele>
        <time>2014-01-15T13:24:39Z</time>
      </trkpt>
      <trkpt lat="43.23525" lon="5.68813">
        <ele>390.2</ele>
        <time>2014-01-15T13:24:44Z</time>
      </trkpt>
      <trkpt lat="43.23523" lon="5.68817">
        <ele>390.8</ele>
        <time>2014-01-15T13:24:50Z</time>
      </trkpt>
      <trkpt lat="43.2352" lon="5.68821">
        <ele>391</ele>
        <time>2014-01-15T13:24:55Z</time>
      </trkpt>
      <trkpt lat="43.23519" lon="5.68827">
        <ele>391.1</ele>
        <time>2014-01-15T13:24:59Z</time>
      </trkpt>
      <trkpt lat="43.23519" lon="5.68832">
        <ele>390.5</ele>
        <time>2014-01-15T13:25:03Z</time>
      </trkpt>
      <trkpt lat="43.23518" lon="5.68833">
        <ele>390.1</ele>
        <time>2014-01-15T13:25:04Z</time>
      </trkpt>
      <trkpt lat="43.23517" lon="5.68843">
        <ele>390.2</ele>
        <time>2014-01-15T13:25:12Z</time>
      </trkpt>
      <trkpt lat="43.23515" lon="5.68848">
        <ele>389.7</ele>
        <time>2014-01-15T13:25:17Z</time>
      </trkpt>
      <trkpt lat="43.23514" lon="5.68853">
        <ele>388.7</ele>
        <time>2014-01-15T13:25:22Z</time>
      </trkpt>
      <trkpt lat="43.23511" lon="5.68857">
        <ele>389.6</ele>
        <time>2014-01-15T13:25:26Z</time>
      </trkpt>
      <trkpt lat="43.23509" lon="5.68862">
        <ele>390</ele>
        <time>2014-01-15T13:25:30Z</time>
      </trkpt>
      <trkpt lat="43.23506" lon="5.68866">
        <ele>390.2</ele>
        <time>2014-01-15T13:25:34Z</time>
      </trkpt>
      <trkpt lat="43.23504" lon="5.68871">
        <ele>390.2</ele>
        <time>2014-01-15T13:25:38Z</time>
      </trkpt>
      <trkpt lat="43.23502" lon="5.68875">
        <ele>390.5</ele>
        <time>2014-01-15T13:25:41Z</time>
      </trkpt>
      <trkpt lat="43.23501" lon="5.6888">
        <ele>389.7</ele>
        <time>2014-01-15T13:25:44Z</time>
      </trkpt>
      <trkpt lat="43.23501" lon="5.68885">
        <ele>387.6</ele>
        <time>2014-01-15T13:25:47Z</time>
      </trkpt>
      <trkpt lat="43.235" lon="5.68889">
        <ele>386.7</ele>
        <time>2014-01-15T13:25:50Z</time>
      </trkpt>
      <trkpt lat="43.23499" lon="5.68894">
        <ele>385</ele>
        <time>2014-01-15T13:25:53Z</time>
      </trkpt>
      <trkpt lat="43.23499" lon="5.68899">
        <ele>384.2</ele>
        <time>2014-01-15T13:25:56Z</time>
      </trkpt>
      <trkpt lat="43.23499" lon="5.68904">
        <ele>384.3</ele>
        <time>2014-01-15T13:25:59Z</time>
      </trkpt>
      <trkpt lat="43.23498" lon="5.68909">
        <ele>385.2</ele>
        <time>2014-01-15T13:26:02Z</time>
      </trkpt>
      <trkpt lat="43.23497" lon="5.68913">
        <ele>385.2</ele>
        <time>2014-01-15T13:26:04Z</time>
      </trkpt>
      <trkpt lat="43.23498" lon="5.68915">
        <ele>384.2</ele>
        <time>2014-01-15T13:26:05Z</time>
      </trkpt>
      <trkpt lat="43.23497" lon="5.68923">
        <ele>384.6</ele>
        <time>2014-01-15T13:26:10Z</time>
      </trkpt>
      <trkpt lat="43.23496" lon="5.68929">
        <ele>384.2</ele>
        <time>2014-01-15T13:26:14Z</time>
      </trkpt>
      <trkpt lat="43.23495" lon="5.68933">
        <ele>383.8</ele>
        <time>2014-01-15T13:26:17Z</time>
      </trkpt>
      <trkpt lat="43.23494" lon="5.68938">
        <ele>383.7</ele>
        <time>2014-01-15T13:26:20Z</time>
      </trkpt>
      <trkpt lat="43.23493" lon="5.68943">
        <ele>385.3</ele>
        <time>2014-01-15T13:26:23Z</time>
      </trkpt>
      <trkpt lat="43.23493" lon="5.68948">
        <ele>386.5</ele>
        <time>2014-01-15T13:26:26Z</time>
      </trkpt>
      <trkpt lat="43.23492" lon="5.68953">
        <ele>386.8</ele>
        <time>2014-01-15T13:26:29Z</time>
      </trkpt>
      <trkpt lat="43.23492" lon="5.68958">
        <ele>387.5</ele>
        <time>2014-01-15T13:26:32Z</time>
      </trkpt>
      <trkpt lat="43.23491" lon="5.68964">
        <ele>389.6</ele>
        <time>2014-01-15T13:26:35Z</time>
      </trkpt>
      <trkpt lat="43.2349" lon="5.68969">
        <ele>389.3</ele>
        <time>2014-01-15T13:26:38Z</time>
      </trkpt>
      <trkpt lat="43.23491" lon="5.68974">
        <ele>387.8</ele>
        <time>2014-01-15T13:26:41Z</time>
      </trkpt>
      <trkpt lat="43.23491" lon="5.68979">
        <ele>387</ele>
        <time>2014-01-15T13:26:44Z</time>
      </trkpt>
      <trkpt lat="43.23492" lon="5.68983">
        <ele>385.7</ele>
        <time>2014-01-15T13:26:47Z</time>
      </trkpt>
      <trkpt lat="43.23492" lon="5.68988">
        <ele>385.3</ele>
        <time>2014-01-15T13:26:50Z</time>
      </trkpt>
      <trkpt lat="43.23494" lon="5.68994">
        <ele>387.1</ele>
        <time>2014-01-15T13:26:54Z</time>
      </trkpt>
      <trkpt lat="43.23495" lon="5.68999">
        <ele>388.5</ele>
        <time>2014-01-15T13:26:59Z</time>
      </trkpt>
      <trkpt lat="43.23497" lon="5.69004">
        <ele>390.3</ele>
        <time>2014-01-15T13:27:03Z</time>
      </trkpt>
      <trkpt lat="43.23497" lon="5.69009">
        <ele>389.7</ele>
        <time>2014-01-15T13:27:07Z</time>
      </trkpt>
      <trkpt lat="43.23497" lon="5.69011">
        <ele>389.3</ele>
        <time>2014-01-15T13:27:08Z</time>
      </trkpt>
      <trkpt lat="43.23499" lon="5.6902">
        <ele>386.2</ele>
        <time>2014-01-15T13:27:15Z</time>
      </trkpt>
      <trkpt lat="43.235" lon="5.69026">
        <ele>385.7</ele>
        <time>2014-01-15T13:27:21Z</time>
      </trkpt>
      <trkpt lat="43.235" lon="5.69031">
        <ele>385.6</ele>
        <time>2014-01-15T13:27:25Z</time>
      </trkpt>
      <trkpt lat="43.23501" lon="5.69036">
        <ele>384.7</ele>
        <time>2014-01-15T13:27:29Z</time>
      </trkpt>
      <trkpt lat="43.23501" lon="5.69041">
        <ele>384.2</ele>
        <time>2014-01-15T13:27:33Z</time>
      </trkpt>
      <trkpt lat="43.23502" lon="5.69047">
        <ele>384.6</ele>
        <time>2014-01-15T13:27:37Z</time>
      </trkpt>
      <trkpt lat="43.23502" lon="5.69053">
        <ele>385.2</ele>
        <time>2014-01-15T13:27:41Z</time>
      </trkpt>
      <trkpt lat="43.23502" lon="5.69058">
        <ele>384.5</ele>
        <time>2014-01-15T13:27:45Z</time>
      </trkpt>
      <trkpt lat="43.23504" lon="5.69063">
        <ele>382.6</ele>
        <time>2014-01-15T13:27:49Z</time>
      </trkpt>
      <trkpt lat="43.23504" lon="5.69069">
        <ele>382.7</ele>
        <time>2014-01-15T13:27:54Z</time>
      </trkpt>
      <trkpt lat="43.23505" lon="5.69074">
        <ele>382</ele>
        <time>2014-01-15T13:27:58Z</time>
      </trkpt>
      <trkpt lat="43.23505" lon="5.6908">
        <ele>383.7</ele>
        <time>2014-01-15T13:28:01Z</time>
      </trkpt>
      <trkpt lat="43.23506" lon="5.69085">
        <ele>384.3</ele>
        <time>2014-01-15T13:28:04Z</time>
      </trkpt>
      <trkpt lat="43.23506" lon="5.69089">
        <ele>386.1</ele>
        <time>2014-01-15T13:28:07Z</time>
      </trkpt>
      <trkpt lat="43.23507" lon="5.69094">
        <ele>387.2</ele>
        <time>2014-01-15T13:28:10Z</time>
      </trkpt>
      <trkpt lat="43.23507" lon="5.69095">
        <ele>387.7</ele>
        <time>2014-01-15T13:28:11Z</time>
      </trkpt>
      <trkpt lat="43.2351" lon="5.69105">
        <ele>388.2</ele>
        <time>2014-01-15T13:28:19Z</time>
      </trkpt>
      <trkpt lat="43.23511" lon="5.6911">
        <ele>387.7</ele>
        <time>2014-01-15T13:28:23Z</time>
      </trkpt>
      <trkpt lat="43.23512" lon="5.69115">
        <ele>387.8</ele>
        <time>2014-01-15T13:28:27Z</time>
      </trkpt>
      <trkpt lat="43.23513" lon="5.69121">
        <ele>387.8</ele>
        <time>2014-01-15T13:28:31Z</time>
      </trkpt>
      <trkpt lat="43.23514" lon="5.69126">
        <ele>387.7</ele>
        <time>2014-01-15T13:28:35Z</time>
      </trkpt>
      <trkpt lat="43.23515" lon="5.69131">
        <ele>388.1</ele>
        <time>2014-01-15T13:28:38Z</time>
      </trkpt>
      <trkpt lat="43.23516" lon="5.69137">
        <ele>388.6</ele>
        <time>2014-01-15T13:28:42Z</time>
      </trkpt>
      <trkpt lat="43.23516" lon="5.69142">
        <ele>389.7</ele>
        <time>2014-01-15T13:28:46Z</time>
      </trkpt>
      <trkpt lat="43.23518" lon="5.69148">
        <ele>389.3</ele>
        <time>2014-01-15T13:28:50Z</time>
      </trkpt>
      <trkpt lat="43.2352" lon="5.69152">
        <ele>389</ele>
        <time>2014-01-15T13:28:53Z</time>
      </trkpt>
      <trkpt lat="43.23522" lon="5.69157">
        <ele>389.5</ele>
        <time>2014-01-15T13:28:57Z</time>
      </trkpt>
      <trkpt lat="43.23523" lon="5.69162">
        <ele>389.7</ele>
        <time>2014-01-15T13:29:00Z</time>
      </trkpt>
      <trkpt lat="43.23524" lon="5.69167">
        <ele>390.1</ele>
        <time>2014-01-15T13:29:03Z</time>
      </trkpt>
      <trkpt lat="43.23526" lon="5.69172">
        <ele>389.8</ele>
        <time>2014-01-15T13:29:06Z</time>
      </trkpt>
      <trkpt lat="43.23528" lon="5.69176">
        <ele>390.2</ele>
        <time>2014-01-15T13:29:09Z</time>
      </trkpt>
      <trkpt lat="43.23531" lon="5.69179">
        <ele>390.7</ele>
        <time>2014-01-15T13:29:12Z</time>
      </trkpt>
      <trkpt lat="43.23532" lon="5.69179">
        <ele>390.7</ele>
        <time>2014-01-15T13:29:13Z</time>
      </trkpt>
      <trkpt lat="43.23538" lon="5.69182">
        <ele>391.2</ele>
        <time>2014-01-15T13:29:18Z</time>
      </trkpt>
      <trkpt lat="43.23542" lon="5.69183">
        <ele>391.2</ele>
        <time>2014-01-15T13:29:22Z</time>
      </trkpt>
      <trkpt lat="43.23546" lon="5.69183">
        <ele>391.8</ele>
        <time>2014-01-15T13:29:25Z</time>
      </trkpt>
      <trkpt lat="43.2355" lon="5.69183">
        <ele>392.6</ele>
        <time>2014-01-15T13:29:29Z</time>
      </trkpt>
      <trkpt lat="43.23554" lon="5.69184">
        <ele>392.6</ele>
        <time>2014-01-15T13:29:32Z</time>
      </trkpt>
      <trkpt lat="43.23557" lon="5.69187">
        <ele>392.8</ele>
        <time>2014-01-15T13:29:36Z</time>
      </trkpt>
      <trkpt lat="43.23561" lon="5.69188">
        <ele>393.7</ele>
        <time>2014-01-15T13:29:42Z</time>
      </trkpt>
      <trkpt lat="43.23565" lon="5.69188">
        <ele>395.1</ele>
        <time>2014-01-15T13:29:52Z</time>
      </trkpt>
      <trkpt lat="43.23569" lon="5.69188">
        <ele>394.6</ele>
        <time>2014-01-15T13:29:57Z</time>
      </trkpt>
      <trkpt lat="43.23573" lon="5.69186">
        <ele>395.8</ele>
        <time>2014-01-15T13:30:06Z</time>
      </trkpt>
      <trkpt lat="43.23573" lon="5.69181">
        <ele>397.7</ele>
        <time>2014-01-15T13:30:11Z</time>
      </trkpt>
      <trkpt lat="43.23574" lon="5.69176">
        <ele>400</ele>
        <time>2014-01-15T13:30:15Z</time>
      </trkpt>
      <trkpt lat="43.23574" lon="5.69174">
        <ele>399.8</ele>
        <time>2014-01-15T13:30:16Z</time>
      </trkpt>
      <trkpt lat="43.23577" lon="5.69165">
        <ele>397.7</ele>
        <time>2014-01-15T13:30:23Z</time>
      </trkpt>
      <trkpt lat="43.23578" lon="5.6916">
        <ele>397.6</ele>
        <time>2014-01-15T13:30:27Z</time>
      </trkpt>
      <trkpt lat="43.23578" lon="5.69154">
        <ele>397.8</ele>
        <time>2014-01-15T13:30:31Z</time>
      </trkpt>
      <trkpt lat="43.23577" lon="5.6915">
        <ele>398.7</ele>
        <time>2014-01-15T13:30:34Z</time>
      </trkpt>
      <trkpt lat="43.23577" lon="5.69145">
        <ele>399.5</ele>
        <time>2014-01-15T13:30:37Z</time>
      </trkpt>
      <trkpt lat="43.23576" lon="5.69139">
        <ele>401.2</ele>
        <time>2014-01-15T13:30:41Z</time>
      </trkpt>
      <trkpt lat="43.23576" lon="5.69134">
        <ele>401.6</ele>
        <time>2014-01-15T13:30:44Z</time>
      </trkpt>
      <trkpt lat="43.23575" lon="5.69128">
        <ele>402.5</ele>
        <time>2014-01-15T13:30:48Z</time>
      </trkpt>
      <trkpt lat="43.23576" lon="5.69122">
        <ele>402.7</ele>
        <time>2014-01-15T13:30:52Z</time>
      </trkpt>
      <trkpt lat="43.23576" lon="5.69117">
        <ele>402.2</ele>
        <time>2014-01-15T13:30:56Z</time>
      </trkpt>
      <trkpt lat="43.23575" lon="5.69112">
        <ele>402.7</ele>
        <time>2014-01-15T13:30:59Z</time>
      </trkpt>
      <trkpt lat="43.23576" lon="5.69107">
        <ele>403.1</ele>
        <time>2014-01-15T13:31:03Z</time>
      </trkpt>
      <trkpt lat="43.23577" lon="5.69102">
        <ele>402.1</ele>
        <time>2014-01-15T13:31:08Z</time>
      </trkpt>
      <trkpt lat="43.23578" lon="5.69097">
        <ele>401.7</ele>
        <time>2014-01-15T13:31:11Z</time>
      </trkpt>
      <trkpt lat="43.23578" lon="5.69092">
        <ele>401.1</ele>
        <time>2014-01-15T13:31:14Z</time>
      </trkpt>
      <trkpt lat="43.23578" lon="5.69087">
        <ele>400.8</ele>
        <time>2014-01-15T13:31:18Z</time>
      </trkpt>
      <trkpt lat="43.23578" lon="5.69086">
        <ele>401.2</ele>
        <time>2014-01-15T13:31:19Z</time>
      </trkpt>
      <trkpt lat="43.23578" lon="5.69076">
        <ele>402.5</ele>
        <time>2014-01-15T13:31:27Z</time>
      </trkpt>
      <trkpt lat="43.23577" lon="5.6907">
        <ele>399.7</ele>
        <time>2014-01-15T13:31:31Z</time>
      </trkpt>
      <trkpt lat="43.23577" lon="5.69064">
        <ele>400.1</ele>
        <time>2014-01-15T13:31:36Z</time>
      </trkpt>
      <trkpt lat="43.23577" lon="5.69059">
        <ele>398.7</ele>
        <time>2014-01-15T13:31:39Z</time>
      </trkpt>
      <trkpt lat="43.23577" lon="5.69053">
        <ele>397.7</ele>
        <time>2014-01-15T13:31:42Z</time>
      </trkpt>
      <trkpt lat="43.23578" lon="5.69048">
        <ele>399.2</ele>
        <time>2014-01-15T13:31:46Z</time>
      </trkpt>
      <trkpt lat="43.23579" lon="5.69043">
        <ele>400.7</ele>
        <time>2014-01-15T13:31:49Z</time>
      </trkpt>
      <trkpt lat="43.23579" lon="5.69039">
        <ele>402.6</ele>
        <time>2014-01-15T13:31:52Z</time>
      </trkpt>
      <trkpt lat="43.23578" lon="5.69033">
        <ele>405.2</ele>
        <time>2014-01-15T13:31:56Z</time>
      </trkpt>
      <trkpt lat="43.23578" lon="5.69028">
        <ele>406.7</ele>
        <time>2014-01-15T13:32:00Z</time>
      </trkpt>
      <trkpt lat="43.23578" lon="5.69023">
        <ele>405.1</ele>
        <time>2014-01-15T13:32:04Z</time>
      </trkpt>
      <trkpt lat="43.23578" lon="5.69018">
        <ele>404.2</ele>
        <time>2014-01-15T13:32:07Z</time>
      </trkpt>
      <trkpt lat="43.23579" lon="5.69013">
        <ele>403.1</ele>
        <time>2014-01-15T13:32:10Z</time>
      </trkpt>
      <trkpt lat="43.23579" lon="5.69007">
        <ele>402.2</ele>
        <time>2014-01-15T13:32:14Z</time>
      </trkpt>
      <trkpt lat="43.23579" lon="5.69003">
        <ele>402.1</ele>
        <time>2014-01-15T13:32:17Z</time>
      </trkpt>
      <trkpt lat="43.23578" lon="5.68997">
        <ele>401.7</ele>
        <time>2014-01-15T13:32:21Z</time>
      </trkpt>
      <trkpt lat="43.23578" lon="5.68996">
        <ele>401.7</ele>
        <time>2014-01-15T13:32:22Z</time>
      </trkpt>
      <trkpt lat="43.23578" lon="5.68986">
        <ele>402.2</ele>
        <time>2014-01-15T13:32:29Z</time>
      </trkpt>
      <trkpt lat="43.23579" lon="5.68981">
        <ele>402.2</ele>
        <time>2014-01-15T13:32:34Z</time>
      </trkpt>
      <trkpt lat="43.2358" lon="5.68976">
        <ele>402.2</ele>
        <time>2014-01-15T13:32:38Z</time>
      </trkpt>
      <trkpt lat="43.23581" lon="5.6897">
        <ele>401.5</ele>
        <time>2014-01-15T13:32:42Z</time>
      </trkpt>
      <trkpt lat="43.23581" lon="5.68966">
        <ele>400.7</ele>
        <time>2014-01-15T13:32:45Z</time>
      </trkpt>
      <trkpt lat="43.23583" lon="5.68962">
        <ele>401.6</ele>
        <time>2014-01-15T13:32:48Z</time>
      </trkpt>
      <trkpt lat="43.23585" lon="5.68957">
        <ele>401.1</ele>
        <time>2014-01-15T13:32:52Z</time>
      </trkpt>
      <trkpt lat="43.23585" lon="5.68951">
        <ele>400.3</ele>
        <time>2014-01-15T13:32:56Z</time>
      </trkpt>
      <trkpt lat="43.23587" lon="5.68945">
        <ele>399.7</ele>
        <time>2014-01-15T13:33:00Z</time>
      </trkpt>
      <trkpt lat="43.23587" lon="5.6894">
        <ele>399.7</ele>
        <time>2014-01-15T13:33:03Z</time>
      </trkpt>
      <trkpt lat="43.23588" lon="5.68936">
        <ele>399.6</ele>
        <time>2014-01-15T13:33:06Z</time>
      </trkpt>
      <trkpt lat="43.23589" lon="5.68931">
        <ele>400.5</ele>
        <time>2014-01-15T13:33:09Z</time>
      </trkpt>
      <trkpt lat="43.2359" lon="5.68926">
        <ele>400.1</ele>
        <time>2014-01-15T13:33:13Z</time>
      </trkpt>
      <trkpt lat="43.23591" lon="5.6892">
        <ele>400.2</ele>
        <time>2014-01-15T13:33:17Z</time>
      </trkpt>
      <trkpt lat="43.23591" lon="5.68914">
        <ele>399.1</ele>
        <time>2014-01-15T13:33:21Z</time>
      </trkpt>
      <trkpt lat="43.23591" lon="5.68909">
        <ele>397.8</ele>
        <time>2014-01-15T13:33:25Z</time>
      </trkpt>
      <trkpt lat="43.23591" lon="5.68907">
        <ele>397.7</ele>
        <time>2014-01-15T13:33:26Z</time>
      </trkpt>
      <trkpt lat="43.23591" lon="5.68899">
        <ele>398</ele>
        <time>2014-01-15T13:33:31Z</time>
      </trkpt>
      <trkpt lat="43.23591" lon="5.68894">
        <ele>398.8</ele>
        <time>2014-01-15T13:33:35Z</time>
      </trkpt>
      <trkpt lat="43.23591" lon="5.68888">
        <ele>401.7</ele>
        <time>2014-01-15T13:33:39Z</time>
      </trkpt>
      <trkpt lat="43.23591" lon="5.68882">
        <ele>402.8</ele>
        <time>2014-01-15T13:33:43Z</time>
      </trkpt>
      <trkpt lat="43.23591" lon="5.68876">
        <ele>403</ele>
        <time>2014-01-15T13:33:47Z</time>
      </trkpt>
      <trkpt lat="43.2359" lon="5.68872">
        <ele>402.6</ele>
        <time>2014-01-15T13:33:50Z</time>
      </trkpt>
      <trkpt lat="43.2359" lon="5.68867">
        <ele>402.7</ele>
        <time>2014-01-15T13:33:53Z</time>
      </trkpt>
      <trkpt lat="43.2359" lon="5.68862">
        <ele>402.3</ele>
        <time>2014-01-15T13:33:56Z</time>
      </trkpt>
      <trkpt lat="43.2359" lon="5.68857">
        <ele>402.5</ele>
        <time>2014-01-15T13:33:59Z</time>
      </trkpt>
      <trkpt lat="43.23589" lon="5.68852">
        <ele>402.3</ele>
        <time>2014-01-15T13:34:02Z</time>
      </trkpt>
      <trkpt lat="43.23589" lon="5.68847">
        <ele>402.1</ele>
        <time>2014-01-15T13:34:05Z</time>
      </trkpt>
      <trkpt lat="43.23589" lon="5.68842">
        <ele>401.8</ele>
        <time>2014-01-15T13:34:08Z</time>
      </trkpt>
      <trkpt lat="43.23589" lon="5.68837">
        <ele>401.6</ele>
        <time>2014-01-15T13:34:12Z</time>
      </trkpt>
      <trkpt lat="43.23589" lon="5.68831">
        <ele>401.7</ele>
        <time>2014-01-15T13:34:16Z</time>
      </trkpt>
      <trkpt lat="43.2359" lon="5.68826">
        <ele>401.7</ele>
        <time>2014-01-15T13:34:20Z</time>
      </trkpt>
      <trkpt lat="43.23591" lon="5.68821">
        <ele>402.2</ele>
        <time>2014-01-15T13:34:24Z</time>
      </trkpt>
      <trkpt lat="43.23591" lon="5.68815">
        <ele>402.6</ele>
        <time>2014-01-15T13:34:28Z</time>
      </trkpt>
      <trkpt lat="43.23591" lon="5.68814">
        <ele>402.5</ele>
        <time>2014-01-15T13:34:29Z</time>
      </trkpt>
      <trkpt lat="43.23594" lon="5.68804">
        <ele>404.1</ele>
        <time>2014-01-15T13:34:38Z</time>
      </trkpt>
      <trkpt lat="43.23594" lon="5.68799">
        <ele>403.7</ele>
        <time>2014-01-15T13:34:41Z</time>
      </trkpt>
      <trkpt lat="43.23595" lon="5.68794">
        <ele>403.8</ele>
        <time>2014-01-15T13:34:44Z</time>
      </trkpt>
      <trkpt lat="43.23595" lon="5.68789">
        <ele>404.8</ele>
        <time>2014-01-15T13:34:47Z</time>
      </trkpt>
      <trkpt lat="43.23596" lon="5.68785">
        <ele>405.2</ele>
        <time>2014-01-15T13:34:50Z</time>
      </trkpt>
      <trkpt lat="43.23597" lon="5.6878">
        <ele>405.2</ele>
        <time>2014-01-15T13:34:53Z</time>
      </trkpt>
      <trkpt lat="43.23599" lon="5.68775">
        <ele>405.6</ele>
        <time>2014-01-15T13:34:56Z</time>
      </trkpt>
      <trkpt lat="43.236" lon="5.68769">
        <ele>404.2</ele>
        <time>2014-01-15T13:35:00Z</time>
      </trkpt>
      <trkpt lat="43.23601" lon="5.68765">
        <ele>403.2</ele>
        <time>2014-01-15T13:35:04Z</time>
      </trkpt>
      <trkpt lat="43.23602" lon="5.6876">
        <ele>403.8</ele>
        <time>2014-01-15T13:35:07Z</time>
      </trkpt>
      <trkpt lat="43.23603" lon="5.68756">
        <ele>403.8</ele>
        <time>2014-01-15T13:35:10Z</time>
      </trkpt>
      <trkpt lat="43.23603" lon="5.6875">
        <ele>404.6</ele>
        <time>2014-01-15T13:35:15Z</time>
      </trkpt>
      <trkpt lat="43.23605" lon="5.68745">
        <ele>404.6</ele>
        <time>2014-01-15T13:35:19Z</time>
      </trkpt>
      <trkpt lat="43.23607" lon="5.6874">
        <ele>404.5</ele>
        <time>2014-01-15T13:35:22Z</time>
      </trkpt>
      <trkpt lat="43.23608" lon="5.68736">
        <ele>404.3</ele>
        <time>2014-01-15T13:35:25Z</time>
      </trkpt>
      <trkpt lat="43.23609" lon="5.68731">
        <ele>405.1</ele>
        <time>2014-01-15T13:35:28Z</time>
      </trkpt>
      <trkpt lat="43.23611" lon="5.68726">
        <ele>405.6</ele>
        <time>2014-01-15T13:35:31Z</time>
      </trkpt>
      <trkpt lat="43.23611" lon="5.68724">
        <ele>405.6</ele>
        <time>2014-01-15T13:35:32Z</time>
      </trkpt>
      <trkpt lat="43.23611" lon="5.68716">
        <ele>405.2</ele>
        <time>2014-01-15T13:35:38Z</time>
      </trkpt>
      <trkpt lat="43.23612" lon="5.6871">
        <ele>407</ele>
        <time>2014-01-15T13:35:42Z</time>
      </trkpt>
      <trkpt lat="43.23612" lon="5.68704">
        <ele>406.1</ele>
        <time>2014-01-15T13:35:46Z</time>
      </trkpt>
      <trkpt lat="43.23613" lon="5.68699">
        <ele>405.7</ele>
        <time>2014-01-15T13:35:49Z</time>
      </trkpt>
      <trkpt lat="43.23613" lon="5.68693">
        <ele>404.2</ele>
        <time>2014-01-15T13:35:53Z</time>
      </trkpt>
      <trkpt lat="43.23614" lon="5.68687">
        <ele>402.7</ele>
        <time>2014-01-15T13:35:58Z</time>
      </trkpt>
      <trkpt lat="43.23614" lon="5.68683">
        <ele>403.3</ele>
        <time>2014-01-15T13:36:02Z</time>
      </trkpt>
      <trkpt lat="43.23614" lon="5.68678">
        <ele>403.1</ele>
        <time>2014-01-15T13:36:05Z</time>
      </trkpt>
      <trkpt lat="43.23615" lon="5.68673">
        <ele>402.6</ele>
        <time>2014-01-15T13:36:08Z</time>
      </trkpt>
      <trkpt lat="43.23616" lon="5.68668">
        <ele>402.8</ele>
        <time>2014-01-15T13:36:12Z</time>
      </trkpt>
      <trkpt lat="43.23617" lon="5.68662">
        <ele>401.2</ele>
        <time>2014-01-15T13:36:16Z</time>
      </trkpt>
      <trkpt lat="43.23618" lon="5.68656">
        <ele>400.5</ele>
        <time>2014-01-15T13:36:20Z</time>
      </trkpt>
      <trkpt lat="43.23619" lon="5.68651">
        <ele>400.2</ele>
        <time>2014-01-15T13:36:24Z</time>
      </trkpt>
      <trkpt lat="43.23619" lon="5.68646">
        <ele>400.2</ele>
        <time>2014-01-15T13:36:28Z</time>
      </trkpt>
      <trkpt lat="43.23619" lon="5.6864">
        <ele>401</ele>
        <time>2014-01-15T13:36:31Z</time>
      </trkpt>
      <trkpt lat="43.2362" lon="5.68634">
        <ele>400.7</ele>
        <time>2014-01-15T13:36:35Z</time>
      </trkpt>
      <trkpt lat="43.2362" lon="5.68633">
        <ele>400.7</ele>
        <time>2014-01-15T13:36:36Z</time>
      </trkpt>
      <trkpt lat="43.2362" lon="5.68623">
        <ele>401.2</ele>
        <time>2014-01-15T13:36:43Z</time>
      </trkpt>
      <trkpt lat="43.23621" lon="5.68618">
        <ele>400.6</ele>
        <time>2014-01-15T13:36:47Z</time>
      </trkpt>
      <trkpt lat="43.23621" lon="5.68613">
        <ele>400.6</ele>
        <time>2014-01-15T13:36:50Z</time>
      </trkpt>
      <trkpt lat="43.23621" lon="5.68608">
        <ele>400.3</ele>
        <time>2014-01-15T13:36:53Z</time>
      </trkpt>
      <trkpt lat="43.23623" lon="5.68603">
        <ele>400.7</ele>
        <time>2014-01-15T13:36:57Z</time>
      </trkpt>
      <trkpt lat="43.23623" lon="5.68598">
        <ele>401</ele>
        <time>2014-01-15T13:37:00Z</time>
      </trkpt>
      <trkpt lat="43.23624" lon="5.68593">
        <ele>401.3</ele>
        <time>2014-01-15T13:37:03Z</time>
      </trkpt>
      <trkpt lat="43.23623" lon="5.68587">
        <ele>402.7</ele>
        <time>2014-01-15T13:37:06Z</time>
      </trkpt>
      <trkpt lat="43.23623" lon="5.68582">
        <ele>402.7</ele>
        <time>2014-01-15T13:37:09Z</time>
      </trkpt>
      <trkpt lat="43.23625" lon="5.68576">
        <ele>401.1</ele>
        <time>2014-01-15T13:37:13Z</time>
      </trkpt>
      <trkpt lat="43.23626" lon="5.68571">
        <ele>399.7</ele>
        <time>2014-01-15T13:37:16Z</time>
      </trkpt>
      <trkpt lat="43.23626" lon="5.68566">
        <ele>398.7</ele>
        <time>2014-01-15T13:37:19Z</time>
      </trkpt>
      <trkpt lat="43.23626" lon="5.68561">
        <ele>397.2</ele>
        <time>2014-01-15T13:37:22Z</time>
      </trkpt>
      <trkpt lat="43.23629" lon="5.68557">
        <ele>397.7</ele>
        <time>2014-01-15T13:37:26Z</time>
      </trkpt>
      <trkpt lat="43.23629" lon="5.68552">
        <ele>397.1</ele>
        <time>2014-01-15T13:37:29Z</time>
      </trkpt>
      <trkpt lat="43.23629" lon="5.68546">
        <ele>397.2</ele>
        <time>2014-01-15T13:37:32Z</time>
      </trkpt>
      <trkpt lat="43.23627" lon="5.68541">
        <ele>396.6</ele>
        <time>2014-01-15T13:37:35Z</time>
      </trkpt>
      <trkpt lat="43.23625" lon="5.68536">
        <ele>397.1</ele>
        <time>2014-01-15T13:37:38Z</time>
      </trkpt>
      <trkpt lat="43.23624" lon="5.68535">
        <ele>397.5</ele>
        <time>2014-01-15T13:37:39Z</time>
      </trkpt>
      <trkpt lat="43.23621" lon="5.68527">
        <ele>399.2</ele>
        <time>2014-01-15T13:37:45Z</time>
      </trkpt>
      <trkpt lat="43.2362" lon="5.68522">
        <ele>398.7</ele>
        <time>2014-01-15T13:37:49Z</time>
      </trkpt>
      <trkpt lat="43.23619" lon="5.68517">
        <ele>398.5</ele>
        <time>2014-01-15T13:37:52Z</time>
      </trkpt>
      <trkpt lat="43.23619" lon="5.68512">
        <ele>398.6</ele>
        <time>2014-01-15T13:37:55Z</time>
      </trkpt>
      <trkpt lat="43.23617" lon="5.68508">
        <ele>397.2</ele>
        <time>2014-01-15T13:37:58Z</time>
      </trkpt>
      <trkpt lat="43.23614" lon="5.68503">
        <ele>397.1</ele>
        <time>2014-01-15T13:38:02Z</time>
      </trkpt>
      <trkpt lat="43.23611" lon="5.685">
        <ele>395.8</ele>
        <time>2014-01-15T13:38:06Z</time>
      </trkpt>
      <trkpt lat="43.23607" lon="5.68499">
        <ele>396.8</ele>
        <time>2014-01-15T13:38:10Z</time>
      </trkpt>
      <trkpt lat="43.23603" lon="5.68501">
        <ele>396.5</ele>
        <time>2014-01-15T13:38:14Z</time>
      </trkpt>
      <trkpt lat="43.236" lon="5.68502">
        <ele>397</ele>
        <time>2014-01-15T13:38:17Z</time>
      </trkpt>
      <trkpt lat="43.23597" lon="5.68506">
        <ele>397.8</ele>
        <time>2014-01-15T13:38:21Z</time>
      </trkpt>
      <trkpt lat="43.23594" lon="5.68509">
        <ele>398.2</ele>
        <time>2014-01-15T13:38:24Z</time>
      </trkpt>
      <trkpt lat="43.23592" lon="5.68512">
        <ele>398.8</ele>
        <time>2014-01-15T13:38:27Z</time>
      </trkpt>
      <trkpt lat="43.23588" lon="5.68515">
        <ele>398.3</ele>
        <time>2014-01-15T13:38:31Z</time>
      </trkpt>
      <trkpt lat="43.23584" lon="5.68516">
        <ele>395.8</ele>
        <time>2014-01-15T13:38:36Z</time>
      </trkpt>
      <trkpt lat="43.2358" lon="5.6852">
        <ele>394.6</ele>
        <time>2014-01-15T13:38:40Z</time>
      </trkpt>
      <trkpt lat="43.23579" lon="5.68521">
        <ele>394.6</ele>
        <time>2014-01-15T13:38:41Z</time>
      </trkpt>
      <trkpt lat="43.23574" lon="5.68525">
        <ele>392.7</ele>
        <time>2014-01-15T13:38:46Z</time>
      </trkpt>
      <trkpt lat="43.23571" lon="5.68527">
        <ele>392.1</ele>
        <time>2014-01-15T13:38:49Z</time>
      </trkpt>
      <trkpt lat="43.23567" lon="5.68527">
        <ele>391.3</ele>
        <time>2014-01-15T13:38:52Z</time>
      </trkpt>
      <trkpt lat="43.23564" lon="5.68525">
        <ele>391.2</ele>
        <time>2014-01-15T13:38:54Z</time>
      </trkpt>
      <trkpt lat="43.23561" lon="5.68521">
        <ele>390.5</ele>
        <time>2014-01-15T13:38:58Z</time>
      </trkpt>
      <trkpt lat="43.23561" lon="5.68516">
        <ele>389.3</ele>
        <time>2014-01-15T13:39:02Z</time>
      </trkpt>
      <trkpt lat="43.23562" lon="5.68511">
        <ele>389</ele>
        <time>2014-01-15T13:39:05Z</time>
      </trkpt>
      <trkpt lat="43.23564" lon="5.68506">
        <ele>388.2</ele>
        <time>2014-01-15T13:39:09Z</time>
      </trkpt>
      <trkpt lat="43.23566" lon="5.68501">
        <ele>389.1</ele>
        <time>2014-01-15T13:39:14Z</time>
      </trkpt>
      <trkpt lat="43.23567" lon="5.68496">
        <ele>389</ele>
        <time>2014-01-15T13:39:18Z</time>
      </trkpt>
      <trkpt lat="43.23569" lon="5.6849">
        <ele>390.1</ele>
        <time>2014-01-15T13:39:22Z</time>
      </trkpt>
      <trkpt lat="43.23571" lon="5.68485">
        <ele>389.6</ele>
        <time>2014-01-15T13:39:25Z</time>
      </trkpt>
      <trkpt lat="43.23571" lon="5.6848">
        <ele>389.7</ele>
        <time>2014-01-15T13:39:28Z</time>
      </trkpt>
      <trkpt lat="43.23572" lon="5.68476">
        <ele>389.7</ele>
        <time>2014-01-15T13:39:31Z</time>
      </trkpt>
      <trkpt lat="43.23572" lon="5.68471">
        <ele>390.3</ele>
        <time>2014-01-15T13:39:34Z</time>
      </trkpt>
      <trkpt lat="43.23572" lon="5.68466">
        <ele>389.8</ele>
        <time>2014-01-15T13:39:37Z</time>
      </trkpt>
      <trkpt lat="43.23572" lon="5.68461">
        <ele>389.5</ele>
        <time>2014-01-15T13:39:40Z</time>
      </trkpt>
      <trkpt lat="43.23572" lon="5.68456">
        <ele>389.7</ele>
        <time>2014-01-15T13:39:43Z</time>
      </trkpt>
      <trkpt lat="43.23572" lon="5.68454">
        <ele>389.2</ele>
        <time>2014-01-15T13:39:44Z</time>
      </trkpt>
      <trkpt lat="43.23572" lon="5.68446">
        <ele>388.3</ele>
        <time>2014-01-15T13:39:49Z</time>
      </trkpt>
      <trkpt lat="43.23573" lon="5.6844">
        <ele>387.2</ele>
        <time>2014-01-15T13:39:53Z</time>
      </trkpt>
      <trkpt lat="43.23573" lon="5.68435">
        <ele>385.7</ele>
        <time>2014-01-15T13:39:57Z</time>
      </trkpt>
      <trkpt lat="43.23574" lon="5.68429">
        <ele>385.7</ele>
        <time>2014-01-15T13:40:01Z</time>
      </trkpt>
      <trkpt lat="43.23575" lon="5.68423">
        <ele>384.5</ele>
        <time>2014-01-15T13:40:04Z</time>
      </trkpt>
      <trkpt lat="43.23574" lon="5.68418">
        <ele>383.3</ele>
        <time>2014-01-15T13:40:08Z</time>
      </trkpt>
      <trkpt lat="43.23572" lon="5.68414">
        <ele>383.2</ele>
        <time>2014-01-15T13:40:12Z</time>
      </trkpt>
      <trkpt lat="43.23569" lon="5.68413">
        <ele>382</ele>
        <time>2014-01-15T13:40:14Z</time>
      </trkpt>
      <trkpt lat="43.23565" lon="5.68411">
        <ele>380.7</ele>
        <time>2014-01-15T13:40:17Z</time>
      </trkpt>
      <trkpt lat="43.23561" lon="5.68413">
        <ele>378.7</ele>
        <time>2014-01-15T13:40:22Z</time>
      </trkpt>
      <trkpt lat="43.23558" lon="5.68418">
        <ele>377.2</ele>
        <time>2014-01-15T13:40:28Z</time>
      </trkpt>
      <trkpt lat="43.23555" lon="5.68422">
        <ele>377.2</ele>
        <time>2014-01-15T13:40:33Z</time>
      </trkpt>
      <trkpt lat="43.23552" lon="5.68425">
        <ele>378.7</ele>
        <time>2014-01-15T13:40:37Z</time>
      </trkpt>
      <trkpt lat="43.23549" lon="5.68428">
        <ele>379.5</ele>
        <time>2014-01-15T13:40:41Z</time>
      </trkpt>
      <trkpt lat="43.23546" lon="5.68432">
        <ele>379.6</ele>
        <time>2014-01-15T13:40:45Z</time>
      </trkpt>
      <trkpt lat="43.23545" lon="5.68433">
        <ele>379.8</ele>
        <time>2014-01-15T13:40:46Z</time>
      </trkpt>
      <trkpt lat="43.2354" lon="5.68439">
        <ele>383.3</ele>
        <time>2014-01-15T13:40:52Z</time>
      </trkpt>
      <trkpt lat="43.23537" lon="5.68442">
        <ele>383.1</ele>
        <time>2014-01-15T13:40:56Z</time>
      </trkpt>
      <trkpt lat="43.23534" lon="5.68444">
        <ele>382</ele>
        <time>2014-01-15T13:41:00Z</time>
      </trkpt>
      <trkpt lat="43.2353" lon="5.68446">
        <ele>382.8</ele>
        <time>2014-01-15T13:41:04Z</time>
      </trkpt>
      <trkpt lat="43.23526" lon="5.68447">
        <ele>380.2</ele>
        <time>2014-01-15T13:41:09Z</time>
      </trkpt>
      <trkpt lat="43.23522" lon="5.68449">
        <ele>380</ele>
        <time>2014-01-15T13:41:14Z</time>
      </trkpt>
      <trkpt lat="43.23519" lon="5.6845">
        <ele>380.7</ele>
        <time>2014-01-15T13:41:18Z</time>
      </trkpt>
      <trkpt lat="43.23514" lon="5.68451">
        <ele>380.6</ele>
        <time>2014-01-15T13:41:23Z</time>
      </trkpt>
      <trkpt lat="43.2351" lon="5.68451">
        <ele>385.7</ele>
        <time>2014-01-15T13:41:27Z</time>
      </trkpt>
      <trkpt lat="43.23507" lon="5.68448">
        <ele>386.5</ele>
        <time>2014-01-15T13:41:30Z</time>
      </trkpt>
      <trkpt lat="43.23505" lon="5.68444">
        <ele>387</ele>
        <time>2014-01-15T13:41:34Z</time>
      </trkpt>
      <trkpt lat="43.23504" lon="5.68438">
        <ele>388.7</ele>
        <time>2014-01-15T13:41:40Z</time>
      </trkpt>
      <trkpt lat="43.235" lon="5.68436">
        <ele>389.2</ele>
        <time>2014-01-15T13:41:45Z</time>
      </trkpt>
      <trkpt lat="43.23496" lon="5.68433">
        <ele>390.2</ele>
        <time>2014-01-15T13:41:49Z</time>
      </trkpt>
      <trkpt lat="43.23495" lon="5.68433">
        <ele>390.6</ele>
        <time>2014-01-15T13:41:50Z</time>
      </trkpt>
      <trkpt lat="43.23488" lon="5.6843">
        <ele>391.6</ele>
        <time>2014-01-15T13:41:57Z</time>
      </trkpt>
      <trkpt lat="43.23485" lon="5.68427">
        <ele>391</ele>
        <time>2014-01-15T13:42:00Z</time>
      </trkpt>
      <trkpt lat="43.23482" lon="5.68424">
        <ele>391</ele>
        <time>2014-01-15T13:42:03Z</time>
      </trkpt>
      <trkpt lat="43.23479" lon="5.6842">
        <ele>391.7</ele>
        <time>2014-01-15T13:42:07Z</time>
      </trkpt>
      <trkpt lat="43.23476" lon="5.68416">
        <ele>392.3</ele>
        <time>2014-01-15T13:42:11Z</time>
      </trkpt>
      <trkpt lat="43.23471" lon="5.68414">
        <ele>393.1</ele>
        <time>2014-01-15T13:42:15Z</time>
      </trkpt>
      <trkpt lat="43.23468" lon="5.6841">
        <ele>393.3</ele>
        <time>2014-01-15T13:42:20Z</time>
      </trkpt>
      <trkpt lat="43.23467" lon="5.68406">
        <ele>393.3</ele>
        <time>2014-01-15T13:42:23Z</time>
      </trkpt>
      <trkpt lat="43.23464" lon="5.68404">
        <ele>393.2</ele>
        <time>2014-01-15T13:42:26Z</time>
      </trkpt>
      <trkpt lat="43.23459" lon="5.68401">
        <ele>393.6</ele>
        <time>2014-01-15T13:42:29Z</time>
      </trkpt>
      <trkpt lat="43.23456" lon="5.68398">
        <ele>393.2</ele>
        <time>2014-01-15T13:42:32Z</time>
      </trkpt>
      <trkpt lat="43.23452" lon="5.68396">
        <ele>393.1</ele>
        <time>2014-01-15T13:42:35Z</time>
      </trkpt>
      <trkpt lat="43.23449" lon="5.68394">
        <ele>393.5</ele>
        <time>2014-01-15T13:42:38Z</time>
      </trkpt>
      <trkpt lat="43.23445" lon="5.68392">
        <ele>394.3</ele>
        <time>2014-01-15T13:42:42Z</time>
      </trkpt>
      <trkpt lat="43.2344" lon="5.68393">
        <ele>395</ele>
        <time>2014-01-15T13:42:47Z</time>
      </trkpt>
      <trkpt lat="43.23436" lon="5.6839">
        <ele>397.2</ele>
        <time>2014-01-15T13:42:52Z</time>
      </trkpt>
      <trkpt lat="43.23435" lon="5.6839">
        <ele>397.6</ele>
        <time>2014-01-15T13:42:53Z</time>
      </trkpt>
      <trkpt lat="43.23434" lon="5.68381">
        <ele>394.1</ele>
        <time>2014-01-15T13:42:59Z</time>
      </trkpt>
      <trkpt lat="43.23434" lon="5.68376">
        <ele>392.8</ele>
        <time>2014-01-15T13:43:03Z</time>
      </trkpt>
      <trkpt lat="43.23433" lon="5.6837">
        <ele>392.2</ele>
        <time>2014-01-15T13:43:07Z</time>
      </trkpt>
      <trkpt lat="43.23433" lon="5.68365">
        <ele>392.3</ele>
        <time>2014-01-15T13:43:10Z</time>
      </trkpt>
      <trkpt lat="43.23432" lon="5.68361">
        <ele>393</ele>
        <time>2014-01-15T13:43:13Z</time>
      </trkpt>
      <trkpt lat="43.23432" lon="5.68356">
        <ele>393.7</ele>
        <time>2014-01-15T13:43:16Z</time>
      </trkpt>
      <trkpt lat="43.23431" lon="5.68351">
        <ele>394.2</ele>
        <time>2014-01-15T13:43:19Z</time>
      </trkpt>
      <trkpt lat="43.2343" lon="5.68345">
        <ele>395</ele>
        <time>2014-01-15T13:43:22Z</time>
      </trkpt>
      <trkpt lat="43.23427" lon="5.6834">
        <ele>395.5</ele>
        <time>2014-01-15T13:43:26Z</time>
      </trkpt>
      <trkpt lat="43.23423" lon="5.68339">
        <ele>396.1</ele>
        <time>2014-01-15T13:43:30Z</time>
      </trkpt>
      <trkpt lat="43.23419" lon="5.68338">
        <ele>396.2</ele>
        <time>2014-01-15T13:43:33Z</time>
      </trkpt>
      <trkpt lat="43.23416" lon="5.68335">
        <ele>396.3</ele>
        <time>2014-01-15T13:43:37Z</time>
      </trkpt>
      <trkpt lat="43.23413" lon="5.68332">
        <ele>396.3</ele>
        <time>2014-01-15T13:43:40Z</time>
      </trkpt>
      <trkpt lat="43.23412" lon="5.68327">
        <ele>396</ele>
        <time>2014-01-15T13:43:43Z</time>
      </trkpt>
      <trkpt lat="43.23412" lon="5.68322">
        <ele>395.2</ele>
        <time>2014-01-15T13:43:46Z</time>
      </trkpt>
      <trkpt lat="43.23411" lon="5.68317">
        <ele>394.5</ele>
        <time>2014-01-15T13:43:49Z</time>
      </trkpt>
      <trkpt lat="43.23411" lon="5.68312">
        <ele>394</ele>
        <time>2014-01-15T13:43:52Z</time>
      </trkpt>
      <trkpt lat="43.23411" lon="5.68307">
        <ele>393.8</ele>
        <time>2014-01-15T13:43:55Z</time>
      </trkpt>
      <trkpt lat="43.23411" lon="5.68305">
        <ele>393.8</ele>
        <time>2014-01-15T13:43:56Z</time>
      </trkpt>
      <trkpt lat="43.23412" lon="5.68296">
        <ele>393.3</ele>
        <time>2014-01-15T13:44:02Z</time>
      </trkpt>
      <trkpt lat="43.23412" lon="5.6829">
        <ele>393.2</ele>
        <time>2014-01-15T13:44:06Z</time>
      </trkpt>
      <trkpt lat="43.23413" lon="5.68285">
        <ele>393.5</ele>
        <time>2014-01-15T13:44:13Z</time>
      </trkpt>
      <trkpt lat="43.23413" lon="5.68279">
        <ele>393</ele>
        <time>2014-01-15T13:44:18Z</time>
      </trkpt>
      <trkpt lat="43.23413" lon="5.68273">
        <ele>392.6</ele>
        <time>2014-01-15T13:44:23Z</time>
      </trkpt>
      <trkpt lat="43.23413" lon="5.68267">
        <ele>391.6</ele>
        <time>2014-01-15T13:44:27Z</time>
      </trkpt>
      <trkpt lat="43.23414" lon="5.68262">
        <ele>391.7</ele>
        <time>2014-01-15T13:44:30Z</time>
      </trkpt>
      <trkpt lat="43.23415" lon="5.68257">
        <ele>391.6</ele>
        <time>2014-01-15T13:44:34Z</time>
      </trkpt>
      <trkpt lat="43.23415" lon="5.68251">
        <ele>391.2</ele>
        <time>2014-01-15T13:44:38Z</time>
      </trkpt>
      <trkpt lat="43.23416" lon="5.68246">
        <ele>390.8</ele>
        <time>2014-01-15T13:44:41Z</time>
      </trkpt>
      <trkpt lat="43.23416" lon="5.68241">
        <ele>390.7</ele>
        <time>2014-01-15T13:44:44Z</time>
      </trkpt>
      <trkpt lat="43.23417" lon="5.68237">
        <ele>390.2</ele>
        <time>2014-01-15T13:44:47Z</time>
      </trkpt>
      <trkpt lat="43.23417" lon="5.68232">
        <ele>389.6</ele>
        <time>2014-01-15T13:44:50Z</time>
      </trkpt>
      <trkpt lat="43.23418" lon="5.68227">
        <ele>389.2</ele>
        <time>2014-01-15T13:44:53Z</time>
      </trkpt>
      <trkpt lat="43.23419" lon="5.68222">
        <ele>389.2</ele>
        <time>2014-01-15T13:44:57Z</time>
      </trkpt>
      <trkpt lat="43.23419" lon="5.68221">
        <ele>389.1</ele>
        <time>2014-01-15T13:44:58Z</time>
      </trkpt>
      <trkpt lat="43.2342" lon="5.68212">
        <ele>391.6</ele>
        <time>2014-01-15T13:45:06Z</time>
      </trkpt>
      <trkpt lat="43.23421" lon="5.68206">
        <ele>392.8</ele>
        <time>2014-01-15T13:45:11Z</time>
      </trkpt>
      <trkpt lat="43.23419" lon="5.68201">
        <ele>392.2</ele>
        <time>2014-01-15T13:45:16Z</time>
      </trkpt>
      <trkpt lat="43.23416" lon="5.68198">
        <ele>391.7</ele>
        <time>2014-01-15T13:45:20Z</time>
      </trkpt>
      <trkpt lat="43.23414" lon="5.68193">
        <ele>391.2</ele>
        <time>2014-01-15T13:45:26Z</time>
      </trkpt>
      <trkpt lat="43.23412" lon="5.68188">
        <ele>387.8</ele>
        <time>2014-01-15T13:45:31Z</time>
      </trkpt>
      <trkpt lat="43.23409" lon="5.68184">
        <ele>385.8</ele>
        <time>2014-01-15T13:45:39Z</time>
      </trkpt>
      <trkpt lat="43.23405" lon="5.68181">
        <ele>387.7</ele>
        <time>2014-01-15T13:46:04Z</time>
      </trkpt>
      <trkpt lat="43.23405" lon="5.68181">
        <ele>387.7</ele>
        <time>2014-01-15T13:46:05Z</time>
      </trkpt>
      <trkpt lat="43.23404" lon="5.68169">
        <ele>393.2</ele>
        <time>2014-01-15T13:47:06Z</time>
      </trkpt>
      <trkpt lat="43.23404" lon="5.68168">
        <ele>393.3</ele>
        <time>2014-01-15T13:47:07Z</time>
      </trkpt>
      <trkpt lat="43.23408" lon="5.68159">
        <ele>395.5</ele>
        <time>2014-01-15T13:47:18Z</time>
      </trkpt>
      <trkpt lat="43.23411" lon="5.68154">
        <ele>394.8</ele>
        <time>2014-01-15T13:47:23Z</time>
      </trkpt>
      <trkpt lat="43.23413" lon="5.68151">
        <ele>395.2</ele>
        <time>2014-01-15T13:47:27Z</time>
      </trkpt>
      <trkpt lat="43.23416" lon="5.68146">
        <ele>394.1</ele>
        <time>2014-01-15T13:47:32Z</time>
      </trkpt>
      <trkpt lat="43.23418" lon="5.68141">
        <ele>394.2</ele>
        <time>2014-01-15T13:47:37Z</time>
      </trkpt>
      <trkpt lat="43.23419" lon="5.68135">
        <ele>394.6</ele>
        <time>2014-01-15T13:47:42Z</time>
      </trkpt>
      <trkpt lat="43.23421" lon="5.68131">
        <ele>394.6</ele>
        <time>2014-01-15T13:47:46Z</time>
      </trkpt>
      <trkpt lat="43.23423" lon="5.68126">
        <ele>394.7</ele>
        <time>2014-01-15T13:47:50Z</time>
      </trkpt>
      <trkpt lat="43.23425" lon="5.68122">
        <ele>394.3</ele>
        <time>2014-01-15T13:47:54Z</time>
      </trkpt>
      <trkpt lat="43.23427" lon="5.68116">
        <ele>393.8</ele>
        <time>2014-01-15T13:47:58Z</time>
      </trkpt>
      <trkpt lat="43.2343" lon="5.68113">
        <ele>394.7</ele>
        <time>2014-01-15T13:48:02Z</time>
      </trkpt>
      <trkpt lat="43.23432" lon="5.68109">
        <ele>394.3</ele>
        <time>2014-01-15T13:48:06Z</time>
      </trkpt>
      <trkpt lat="43.23435" lon="5.68105">
        <ele>395.2</ele>
        <time>2014-01-15T13:48:10Z</time>
      </trkpt>
      <trkpt lat="43.23436" lon="5.68104">
        <ele>395.5</ele>
        <time>2014-01-15T13:48:11Z</time>
      </trkpt>
      <trkpt lat="43.23442" lon="5.68098">
        <ele>395.3</ele>
        <time>2014-01-15T13:48:20Z</time>
      </trkpt>
      <trkpt lat="43.23444" lon="5.68093">
        <ele>394.7</ele>
        <time>2014-01-15T13:48:25Z</time>
      </trkpt>
      <trkpt lat="43.23445" lon="5.68088">
        <ele>395.1</ele>
        <time>2014-01-15T13:48:32Z</time>
      </trkpt>
      <trkpt lat="43.23443" lon="5.68082">
        <ele>394.7</ele>
        <time>2014-01-15T13:48:35Z</time>
      </trkpt>
      <trkpt lat="43.23444" lon="5.68077">
        <ele>395.5</ele>
        <time>2014-01-15T13:48:39Z</time>
      </trkpt>
      <trkpt lat="43.23446" lon="5.68072">
        <ele>395.7</ele>
        <time>2014-01-15T13:48:44Z</time>
      </trkpt>
      <trkpt lat="43.23448" lon="5.68067">
        <ele>394.5</ele>
        <time>2014-01-15T13:48:49Z</time>
      </trkpt>
      <trkpt lat="43.2345" lon="5.68062">
        <ele>393.3</ele>
        <time>2014-01-15T13:48:53Z</time>
      </trkpt>
      <trkpt lat="43.23452" lon="5.68057">
        <ele>393.2</ele>
        <time>2014-01-15T13:48:57Z</time>
      </trkpt>
      <trkpt lat="43.23453" lon="5.68053">
        <ele>392.7</ele>
        <time>2014-01-15T13:49:01Z</time>
      </trkpt>
      <trkpt lat="43.23453" lon="5.68048">
        <ele>393.5</ele>
        <time>2014-01-15T13:49:04Z</time>
      </trkpt>
      <trkpt lat="43.23452" lon="5.68042">
        <ele>395.1</ele>
        <time>2014-01-15T13:49:08Z</time>
      </trkpt>
      <trkpt lat="43.23452" lon="5.68036">
        <ele>395.6</ele>
        <time>2014-01-15T13:49:12Z</time>
      </trkpt>
      <trkpt lat="43.23451" lon="5.68034">
        <ele>395.1</ele>
        <time>2014-01-15T13:49:13Z</time>
      </trkpt>
      <trkpt lat="43.23451" lon="5.68025">
        <ele>395.5</ele>
        <time>2014-01-15T13:49:19Z</time>
      </trkpt>
      <trkpt lat="43.23452" lon="5.68021">
        <ele>397.1</ele>
        <time>2014-01-15T13:49:22Z</time>
      </trkpt>
      <trkpt lat="43.23454" lon="5.68016">
        <ele>400.1</ele>
        <time>2014-01-15T13:49:25Z</time>
      </trkpt>
      <trkpt lat="43.23454" lon="5.68011">
        <ele>400.8</ele>
        <time>2014-01-15T13:49:29Z</time>
      </trkpt>
      <trkpt lat="43.23454" lon="5.68006">
        <ele>399.8</ele>
        <time>2014-01-15T13:49:34Z</time>
      </trkpt>
      <trkpt lat="43.23455" lon="5.68">
        <ele>400.2</ele>
        <time>2014-01-15T13:49:39Z</time>
      </trkpt>
      <trkpt lat="43.23454" lon="5.67995">
        <ele>399.7</ele>
        <time>2014-01-15T13:49:44Z</time>
      </trkpt>
      <trkpt lat="43.23453" lon="5.67989">
        <ele>400.6</ele>
        <time>2014-01-15T13:49:49Z</time>
      </trkpt>
      <trkpt lat="43.23451" lon="5.67984">
        <ele>398.6</ele>
        <time>2014-01-15T13:49:54Z</time>
      </trkpt>
      <trkpt lat="43.23449" lon="5.67979">
        <ele>396.7</ele>
        <time>2014-01-15T13:50:00Z</time>
      </trkpt>
      <trkpt lat="43.23448" lon="5.67973">
        <ele>395.7</ele>
        <time>2014-01-15T13:50:05Z</time>
      </trkpt>
      <trkpt lat="43.23447" lon="5.67968">
        <ele>393.5</ele>
        <time>2014-01-15T13:50:10Z</time>
      </trkpt>
      <trkpt lat="43.23448" lon="5.67962">
        <ele>392.7</ele>
        <time>2014-01-15T13:50:16Z</time>
      </trkpt>
      <trkpt lat="43.23448" lon="5.67962">
        <ele>392.7</ele>
        <time>2014-01-15T13:50:17Z</time>
      </trkpt>
      <trkpt lat="43.23447" lon="5.67951">
        <ele>392.6</ele>
        <time>2014-01-15T13:50:24Z</time>
      </trkpt>
      <trkpt lat="43.23447" lon="5.67945">
        <ele>392.2</ele>
        <time>2014-01-15T13:50:30Z</time>
      </trkpt>
      <trkpt lat="43.23446" lon="5.67939">
        <ele>392</ele>
        <time>2014-01-15T13:50:34Z</time>
      </trkpt>
      <trkpt lat="43.23446" lon="5.67934">
        <ele>391.7</ele>
        <time>2014-01-15T13:50:37Z</time>
      </trkpt>
      <trkpt lat="43.23446" lon="5.67929">
        <ele>391.7</ele>
        <time>2014-01-15T13:50:40Z</time>
      </trkpt>
      <trkpt lat="43.23446" lon="5.67924">
        <ele>392.1</ele>
        <time>2014-01-15T13:50:45Z</time>
      </trkpt>
      <trkpt lat="43.23445" lon="5.67919">
        <ele>394.3</ele>
        <time>2014-01-15T13:50:49Z</time>
      </trkpt>
      <trkpt lat="43.23446" lon="5.67913">
        <ele>397.3</ele>
        <time>2014-01-15T13:50:53Z</time>
      </trkpt>
      <trkpt lat="43.23447" lon="5.67908">
        <ele>399.1</ele>
        <time>2014-01-15T13:50:59Z</time>
      </trkpt>
      <trkpt lat="43.23448" lon="5.67902">
        <ele>397.3</ele>
        <time>2014-01-15T13:51:04Z</time>
      </trkpt>
      <trkpt lat="43.23449" lon="5.67896">
        <ele>396.8</ele>
        <time>2014-01-15T13:51:09Z</time>
      </trkpt>
      <trkpt lat="43.2345" lon="5.67891">
        <ele>396.7</ele>
        <time>2014-01-15T13:51:14Z</time>
      </trkpt>
      <trkpt lat="43.23448" lon="5.67886">
        <ele>395.2</ele>
        <time>2014-01-15T13:51:18Z</time>
      </trkpt>
      <trkpt lat="43.23448" lon="5.67885">
        <ele>394.8</ele>
        <time>2014-01-15T13:51:19Z</time>
      </trkpt>
      <trkpt lat="43.23448" lon="5.67875">
        <ele>395.3</ele>
        <time>2014-01-15T13:51:28Z</time>
      </trkpt>
      <trkpt lat="43.23447" lon="5.67869">
        <ele>396.5</ele>
        <time>2014-01-15T13:51:31Z</time>
      </trkpt>
      <trkpt lat="43.23447" lon="5.67863">
        <ele>397.2</ele>
        <time>2014-01-15T13:51:35Z</time>
      </trkpt>
      <trkpt lat="43.23447" lon="5.67858">
        <ele>396.8</ele>
        <time>2014-01-15T13:51:39Z</time>
      </trkpt>
      <trkpt lat="43.23448" lon="5.67853">
        <ele>394.1</ele>
        <time>2014-01-15T13:51:44Z</time>
      </trkpt>
      <trkpt lat="43.23449" lon="5.67847">
        <ele>394.2</ele>
        <time>2014-01-15T13:51:48Z</time>
      </trkpt>
      <trkpt lat="43.2345" lon="5.67842">
        <ele>394.1</ele>
        <time>2014-01-15T13:51:51Z</time>
      </trkpt>
      <trkpt lat="43.2345" lon="5.67836">
        <ele>393.8</ele>
        <time>2014-01-15T13:51:55Z</time>
      </trkpt>
      <trkpt lat="43.23451" lon="5.67831">
        <ele>394.8</ele>
        <time>2014-01-15T13:52:00Z</time>
      </trkpt>
      <trkpt lat="43.2345" lon="5.67826">
        <ele>394.8</ele>
        <time>2014-01-15T13:52:03Z</time>
      </trkpt>
      <trkpt lat="43.23451" lon="5.67821">
        <ele>394.7</ele>
        <time>2014-01-15T13:52:07Z</time>
      </trkpt>
      <trkpt lat="43.23452" lon="5.67816">
        <ele>395.8</ele>
        <time>2014-01-15T13:52:11Z</time>
      </trkpt>
      <trkpt lat="43.23453" lon="5.67811">
        <ele>395.6</ele>
        <time>2014-01-15T13:52:15Z</time>
      </trkpt>
      <trkpt lat="43.23456" lon="5.67807">
        <ele>395.3</ele>
        <time>2014-01-15T13:52:19Z</time>
      </trkpt>
      <trkpt lat="43.23456" lon="5.67805">
        <ele>395.8</ele>
        <time>2014-01-15T13:52:20Z</time>
      </trkpt>
      <trkpt lat="43.23458" lon="5.67797">
        <ele>395.8</ele>
        <time>2014-01-15T13:52:26Z</time>
      </trkpt>
      <trkpt lat="43.2346" lon="5.67792">
        <ele>395.8</ele>
        <time>2014-01-15T13:52:30Z</time>
      </trkpt>
      <trkpt lat="43.23462" lon="5.67788">
        <ele>395.7</ele>
        <time>2014-01-15T13:52:34Z</time>
      </trkpt>
      <trkpt lat="43.23462" lon="5.67782">
        <ele>395</ele>
        <time>2014-01-15T13:52:40Z</time>
      </trkpt>
      <trkpt lat="43.23462" lon="5.67776">
        <ele>395.5</ele>
        <time>2014-01-15T13:52:47Z</time>
      </trkpt>
      <trkpt lat="43.23462" lon="5.6777">
        <ele>396.6</ele>
        <time>2014-01-15T13:52:52Z</time>
      </trkpt>
      <trkpt lat="43.23462" lon="5.67765">
        <ele>396.5</ele>
        <time>2014-01-15T13:52:56Z</time>
      </trkpt>
      <trkpt lat="43.23463" lon="5.6776">
        <ele>396.5</ele>
        <time>2014-01-15T13:53:00Z</time>
      </trkpt>
      <trkpt lat="43.23464" lon="5.67754">
        <ele>395.7</ele>
        <time>2014-01-15T13:53:06Z</time>
      </trkpt>
      <trkpt lat="43.23464" lon="5.67749">
        <ele>396.7</ele>
        <time>2014-01-15T13:53:09Z</time>
      </trkpt>
      <trkpt lat="43.23464" lon="5.67743">
        <ele>396.8</ele>
        <time>2014-01-15T13:53:13Z</time>
      </trkpt>
      <trkpt lat="43.23463" lon="5.67738">
        <ele>395.3</ele>
        <time>2014-01-15T13:53:17Z</time>
      </trkpt>
      <trkpt lat="43.23462" lon="5.67732">
        <ele>393.6</ele>
        <time>2014-01-15T13:53:23Z</time>
      </trkpt>
      <trkpt lat="43.23462" lon="5.67731">
        <ele>392.8</ele>
        <time>2014-01-15T13:53:24Z</time>
      </trkpt>
      <trkpt lat="43.23461" lon="5.67722">
        <ele>390.7</ele>
        <time>2014-01-15T13:53:35Z</time>
      </trkpt>
      <trkpt lat="43.2346" lon="5.67717">
        <ele>391.7</ele>
        <time>2014-01-15T13:53:37Z</time>
      </trkpt>
      <trkpt lat="43.23459" lon="5.67711">
        <ele>392.6</ele>
        <time>2014-01-15T13:53:43Z</time>
      </trkpt>
      <trkpt lat="43.23458" lon="5.67705">
        <ele>394.1</ele>
        <time>2014-01-15T13:53:47Z</time>
      </trkpt>
      <trkpt lat="43.23458" lon="5.67699">
        <ele>393.1</ele>
        <time>2014-01-15T13:53:53Z</time>
      </trkpt>
      <trkpt lat="43.23458" lon="5.67694">
        <ele>392.1</ele>
        <time>2014-01-15T13:53:58Z</time>
      </trkpt>
      <trkpt lat="43.23457" lon="5.67691">
        <ele>392.1</ele>
        <time>2014-01-15T13:54:01Z</time>
      </trkpt>
      <trkpt lat="43.23456" lon="5.67685">
        <ele>393</ele>
        <time>2014-01-15T13:54:03Z</time>
      </trkpt>
      <trkpt lat="43.23455" lon="5.67681">
        <ele>393.2</ele>
        <time>2014-01-15T13:54:05Z</time>
      </trkpt>
      <trkpt lat="43.23453" lon="5.67675">
        <ele>394.5</ele>
        <time>2014-01-15T13:54:08Z</time>
      </trkpt>
      <trkpt lat="43.23452" lon="5.6767">
        <ele>396.2</ele>
        <time>2014-01-15T13:54:11Z</time>
      </trkpt>
      <trkpt lat="43.23452" lon="5.67664">
        <ele>397.5</ele>
        <time>2014-01-15T13:54:16Z</time>
      </trkpt>
      <trkpt lat="43.2345" lon="5.67659">
        <ele>395.7</ele>
        <time>2014-01-15T13:54:21Z</time>
      </trkpt>
      <trkpt lat="43.23449" lon="5.67653">
        <ele>395.6</ele>
        <time>2014-01-15T13:54:25Z</time>
      </trkpt>
      <trkpt lat="43.23448" lon="5.67652">
        <ele>395.7</ele>
        <time>2014-01-15T13:54:26Z</time>
      </trkpt>
      <trkpt lat="43.23446" lon="5.67645">
        <ele>396.5</ele>
        <time>2014-01-15T13:54:31Z</time>
      </trkpt>
      <trkpt lat="43.23445" lon="5.6764">
        <ele>396.5</ele>
        <time>2014-01-15T13:54:34Z</time>
      </trkpt>
      <trkpt lat="43.23444" lon="5.67634">
        <ele>395.1</ele>
        <time>2014-01-15T13:54:41Z</time>
      </trkpt>
      <trkpt lat="43.23444" lon="5.67627">
        <ele>394.7</ele>
        <time>2014-01-15T13:54:46Z</time>
      </trkpt>
      <trkpt lat="43.23445" lon="5.67622">
        <ele>395</ele>
        <time>2014-01-15T13:54:49Z</time>
      </trkpt>
      <trkpt lat="43.23445" lon="5.67617">
        <ele>395.2</ele>
        <time>2014-01-15T13:54:52Z</time>
      </trkpt>
      <trkpt lat="43.23445" lon="5.67612">
        <ele>396.5</ele>
        <time>2014-01-15T13:54:55Z</time>
      </trkpt>
      <trkpt lat="43.23445" lon="5.67606">
        <ele>397.7</ele>
        <time>2014-01-15T13:54:59Z</time>
      </trkpt>
      <trkpt lat="43.23445" lon="5.67601">
        <ele>397.7</ele>
        <time>2014-01-15T13:55:03Z</time>
      </trkpt>
      <trkpt lat="43.23445" lon="5.67595">
        <ele>396.1</ele>
        <time>2014-01-15T13:55:08Z</time>
      </trkpt>
      <trkpt lat="43.23444" lon="5.6759">
        <ele>396.3</ele>
        <time>2014-01-15T13:55:11Z</time>
      </trkpt>
      <trkpt lat="43.23444" lon="5.67586">
        <ele>395.8</ele>
        <time>2014-01-15T13:55:14Z</time>
      </trkpt>
      <trkpt lat="43.23443" lon="5.67581">
        <ele>396.2</ele>
        <time>2014-01-15T13:55:17Z</time>
      </trkpt>
      <trkpt lat="43.23442" lon="5.67575">
        <ele>396.3</ele>
        <time>2014-01-15T13:55:22Z</time>
      </trkpt>
      <trkpt lat="43.23442" lon="5.67569">
        <ele>397.6</ele>
        <time>2014-01-15T13:55:27Z</time>
      </trkpt>
      <trkpt lat="43.23442" lon="5.67568">
        <ele>397.7</ele>
        <time>2014-01-15T13:55:28Z</time>
      </trkpt>
      <trkpt lat="43.23441" lon="5.6756">
        <ele>396.7</ele>
        <time>2014-01-15T13:55:34Z</time>
      </trkpt>
      <trkpt lat="43.23439" lon="5.67555">
        <ele>397</ele>
        <time>2014-01-15T13:55:38Z</time>
      </trkpt>
      <trkpt lat="43.23436" lon="5.67552">
        <ele>396.2</ele>
        <time>2014-01-15T13:55:42Z</time>
      </trkpt>
      <trkpt lat="43.23434" lon="5.67548">
        <ele>396.7</ele>
        <time>2014-01-15T13:55:44Z</time>
      </trkpt>
      <trkpt lat="43.23432" lon="5.67545">
        <ele>397</ele>
        <time>2014-01-15T13:55:46Z</time>
      </trkpt>
      <trkpt lat="43.2343" lon="5.6754">
        <ele>397.7</ele>
        <time>2014-01-15T13:55:49Z</time>
      </trkpt>
      <trkpt lat="43.23429" lon="5.67535">
        <ele>397.7</ele>
        <time>2014-01-15T13:55:53Z</time>
      </trkpt>
      <trkpt lat="43.23426" lon="5.6753">
        <ele>398.3</ele>
        <time>2014-01-15T13:55:57Z</time>
      </trkpt>
      <trkpt lat="43.23423" lon="5.67526">
        <ele>398.2</ele>
        <time>2014-01-15T13:56:01Z</time>
      </trkpt>
      <trkpt lat="43.2342" lon="5.67522">
        <ele>398.5</ele>
        <time>2014-01-15T13:56:05Z</time>
      </trkpt>
      <trkpt lat="43.23417" lon="5.67518">
        <ele>397.1</ele>
        <time>2014-01-15T13:56:10Z</time>
      </trkpt>
      <trkpt lat="43.23413" lon="5.67518">
        <ele>397.7</ele>
        <time>2014-01-15T13:56:14Z</time>
      </trkpt>
      <trkpt lat="43.2341" lon="5.67516">
        <ele>397.1</ele>
        <time>2014-01-15T13:56:17Z</time>
      </trkpt>
      <trkpt lat="43.23407" lon="5.67514">
        <ele>396.7</ele>
        <time>2014-01-15T13:56:20Z</time>
      </trkpt>
      <trkpt lat="43.23404" lon="5.67512">
        <ele>397.7</ele>
        <time>2014-01-15T13:56:23Z</time>
      </trkpt>
      <trkpt lat="43.234" lon="5.67509">
        <ele>398.8</ele>
        <time>2014-01-15T13:56:27Z</time>
      </trkpt>
      <trkpt lat="43.23396" lon="5.67509">
        <ele>399.2</ele>
        <time>2014-01-15T13:56:31Z</time>
      </trkpt>
      <trkpt lat="43.23395" lon="5.67509">
        <ele>399.1</ele>
        <time>2014-01-15T13:56:32Z</time>
      </trkpt>
      <trkpt lat="43.23389" lon="5.6751">
        <ele>397.7</ele>
        <time>2014-01-15T13:56:39Z</time>
      </trkpt>
      <trkpt lat="43.23386" lon="5.67509">
        <ele>398.7</ele>
        <time>2014-01-15T13:56:42Z</time>
      </trkpt>
      <trkpt lat="43.23382" lon="5.67508">
        <ele>398.2</ele>
        <time>2014-01-15T13:56:45Z</time>
      </trkpt>
      <trkpt lat="43.23378" lon="5.67508">
        <ele>400</ele>
        <time>2014-01-15T13:56:49Z</time>
      </trkpt>
      <trkpt lat="43.23374" lon="5.67506">
        <ele>400.2</ele>
        <time>2014-01-15T13:56:53Z</time>
      </trkpt>
      <trkpt lat="43.2337" lon="5.67506">
        <ele>399.6</ele>
        <time>2014-01-15T13:56:57Z</time>
      </trkpt>
      <trkpt lat="43.23366" lon="5.67507">
        <ele>400.2</ele>
        <time>2014-01-15T13:57:01Z</time>
      </trkpt>
      <trkpt lat="43.23362" lon="5.67507">
        <ele>400.3</ele>
        <time>2014-01-15T13:57:06Z</time>
      </trkpt>
      <trkpt lat="43.23358" lon="5.67507">
        <ele>400.8</ele>
        <time>2014-01-15T13:57:10Z</time>
      </trkpt>
      <trkpt lat="43.23355" lon="5.67507">
        <ele>401.2</ele>
        <time>2014-01-15T13:57:13Z</time>
      </trkpt>
      <trkpt lat="43.23351" lon="5.67506">
        <ele>402.3</ele>
        <time>2014-01-15T13:57:16Z</time>
      </trkpt>
      <trkpt lat="43.23347" lon="5.67505">
        <ele>403.2</ele>
        <time>2014-01-15T13:57:21Z</time>
      </trkpt>
      <trkpt lat="43.23343" lon="5.67504">
        <ele>404.1</ele>
        <time>2014-01-15T13:57:31Z</time>
      </trkpt>
      <trkpt lat="43.2334" lon="5.67503">
        <ele>404.3</ele>
        <time>2014-01-15T13:57:35Z</time>
      </trkpt>
      <trkpt lat="43.23339" lon="5.67503">
        <ele>404.2</ele>
        <time>2014-01-15T13:57:36Z</time>
      </trkpt>
      <trkpt lat="43.23332" lon="5.675">
        <ele>405.1</ele>
        <time>2014-01-15T13:57:43Z</time>
      </trkpt>
      <trkpt lat="43.23329" lon="5.67498">
        <ele>405.1</ele>
        <time>2014-01-15T13:57:45Z</time>
      </trkpt>
      <trkpt lat="43.23325" lon="5.67496">
        <ele>407</ele>
        <time>2014-01-15T13:57:49Z</time>
      </trkpt>
      <trkpt lat="43.23322" lon="5.67494">
        <ele>407</ele>
        <time>2014-01-15T13:57:53Z</time>
      </trkpt>
      <trkpt lat="43.23318" lon="5.67492">
        <ele>407</ele>
        <time>2014-01-15T13:57:58Z</time>
      </trkpt>
      <trkpt lat="43.23314" lon="5.67488">
        <ele>405</ele>
        <time>2014-01-15T13:58:02Z</time>
      </trkpt>
      <trkpt lat="43.23312" lon="5.67484">
        <ele>404.2</ele>
        <time>2014-01-15T13:58:05Z</time>
      </trkpt>
      <trkpt lat="43.23309" lon="5.6748">
        <ele>403.7</ele>
        <time>2014-01-15T13:58:09Z</time>
      </trkpt>
      <trkpt lat="43.23306" lon="5.67476">
        <ele>403.6</ele>
        <time>2014-01-15T13:58:14Z</time>
      </trkpt>
      <trkpt lat="43.23304" lon="5.67473">
        <ele>403.6</ele>
        <time>2014-01-15T13:58:17Z</time>
      </trkpt>
      <trkpt lat="43.23302" lon="5.67468">
        <ele>403.8</ele>
        <time>2014-01-15T13:58:19Z</time>
      </trkpt>
      <trkpt lat="43.23299" lon="5.67466">
        <ele>404.2</ele>
        <time>2014-01-15T13:58:23Z</time>
      </trkpt>
      <trkpt lat="43.23296" lon="5.67461">
        <ele>404.2</ele>
        <time>2014-01-15T13:58:26Z</time>
      </trkpt>
      <trkpt lat="43.23293" lon="5.67457">
        <ele>403</ele>
        <time>2014-01-15T13:58:31Z</time>
      </trkpt>
      <trkpt lat="43.2329" lon="5.67453">
        <ele>402.5</ele>
        <time>2014-01-15T13:58:35Z</time>
      </trkpt>
      <trkpt lat="43.23288" lon="5.67449">
        <ele>402.3</ele>
        <time>2014-01-15T13:58:38Z</time>
      </trkpt>
      <trkpt lat="43.23288" lon="5.67448">
        <ele>402.5</ele>
        <time>2014-01-15T13:58:39Z</time>
      </trkpt>
      <trkpt lat="43.23284" lon="5.67442">
        <ele>403.1</ele>
        <time>2014-01-15T13:58:44Z</time>
      </trkpt>
      <trkpt lat="43.23281" lon="5.67438">
        <ele>402.2</ele>
        <time>2014-01-15T13:58:50Z</time>
      </trkpt>
      <trkpt lat="43.23279" lon="5.67434">
        <ele>400.3</ele>
        <time>2014-01-15T13:58:54Z</time>
      </trkpt>
      <trkpt lat="43.23278" lon="5.6743">
        <ele>400.1</ele>
        <time>2014-01-15T13:58:56Z</time>
      </trkpt>
      <trkpt lat="43.23277" lon="5.67425">
        <ele>399.2</ele>
        <time>2014-01-15T13:59:00Z</time>
      </trkpt>
      <trkpt lat="43.23275" lon="5.67419">
        <ele>400.2</ele>
        <time>2014-01-15T13:59:09Z</time>
      </trkpt>
      <trkpt lat="43.23272" lon="5.67415">
        <ele>399.8</ele>
        <time>2014-01-15T13:59:16Z</time>
      </trkpt>
      <trkpt lat="43.2327" lon="5.6741">
        <ele>399.3</ele>
        <time>2014-01-15T13:59:20Z</time>
      </trkpt>
      <trkpt lat="43.23269" lon="5.67405">
        <ele>398.1</ele>
        <time>2014-01-15T13:59:24Z</time>
      </trkpt>
      <trkpt lat="43.23267" lon="5.67401">
        <ele>396</ele>
        <time>2014-01-15T13:59:28Z</time>
      </trkpt>
      <trkpt lat="43.23266" lon="5.67395">
        <ele>394.1</ele>
        <time>2014-01-15T13:59:33Z</time>
      </trkpt>
      <trkpt lat="43.23264" lon="5.67391">
        <ele>393.6</ele>
        <time>2014-01-15T13:59:37Z</time>
      </trkpt>
      <trkpt lat="43.23264" lon="5.67385">
        <ele>393.3</ele>
        <time>2014-01-15T13:59:41Z</time>
      </trkpt>
      <trkpt lat="43.23264" lon="5.67383">
        <ele>393.7</ele>
        <time>2014-01-15T13:59:42Z</time>
      </trkpt>
      <trkpt lat="43.23266" lon="5.67373">
        <ele>393.8</ele>
        <time>2014-01-15T13:59:50Z</time>
      </trkpt>
      <trkpt lat="43.23267" lon="5.67367">
        <ele>395.8</ele>
        <time>2014-01-15T13:59:54Z</time>
      </trkpt>
      <trkpt lat="43.23267" lon="5.67362">
        <ele>397.2</ele>
        <time>2014-01-15T13:59:58Z</time>
      </trkpt>
      <trkpt lat="43.23268" lon="5.67357">
        <ele>397</ele>
        <time>2014-01-15T14:00:02Z</time>
      </trkpt>
      <trkpt lat="43.2327" lon="5.67352">
        <ele>395.6</ele>
        <time>2014-01-15T14:00:07Z</time>
      </trkpt>
      <trkpt lat="43.23272" lon="5.67346">
        <ele>394.5</ele>
        <time>2014-01-15T14:00:12Z</time>
      </trkpt>
      <trkpt lat="43.23273" lon="5.67342">
        <ele>394.1</ele>
        <time>2014-01-15T14:00:17Z</time>
      </trkpt>
      <trkpt lat="43.23274" lon="5.67337">
        <ele>393.7</ele>
        <time>2014-01-15T14:00:20Z</time>
      </trkpt>
      <trkpt lat="43.23276" lon="5.67333">
        <ele>393.7</ele>
        <time>2014-01-15T14:00:23Z</time>
      </trkpt>
      <trkpt lat="43.23278" lon="5.67329">
        <ele>392.6</ele>
        <time>2014-01-15T14:00:27Z</time>
      </trkpt>
      <trkpt lat="43.23281" lon="5.67325">
        <ele>392.2</ele>
        <time>2014-01-15T14:00:31Z</time>
      </trkpt>
      <trkpt lat="43.23283" lon="5.6732">
        <ele>391.2</ele>
        <time>2014-01-15T14:00:36Z</time>
      </trkpt>
      <trkpt lat="43.23286" lon="5.67316">
        <ele>389.5</ele>
        <time>2014-01-15T14:00:40Z</time>
      </trkpt>
      <trkpt lat="43.23289" lon="5.67312">
        <ele>388.8</ele>
        <time>2014-01-15T14:00:44Z</time>
      </trkpt>
      <trkpt lat="43.2329" lon="5.67311">
        <ele>389</ele>
        <time>2014-01-15T14:00:45Z</time>
      </trkpt>
      <trkpt lat="43.23296" lon="5.67308">
        <ele>389.2</ele>
        <time>2014-01-15T14:00:52Z</time>
      </trkpt>
      <trkpt lat="43.233" lon="5.67307">
        <ele>390.8</ele>
        <time>2014-01-15T14:00:56Z</time>
      </trkpt>
      <trkpt lat="43.23304" lon="5.67307">
        <ele>393</ele>
        <time>2014-01-15T14:00:59Z</time>
      </trkpt>
      <trkpt lat="43.23308" lon="5.67306">
        <ele>393.2</ele>
        <time>2014-01-15T14:01:02Z</time>
      </trkpt>
      <trkpt lat="43.23312" lon="5.67305">
        <ele>394.2</ele>
        <time>2014-01-15T14:01:07Z</time>
      </trkpt>
      <trkpt lat="43.23315" lon="5.67302">
        <ele>396.1</ele>
        <time>2014-01-15T14:01:11Z</time>
      </trkpt>
      <trkpt lat="43.23317" lon="5.67299">
        <ele>395.3</ele>
        <time>2014-01-15T14:01:13Z</time>
      </trkpt>
      <trkpt lat="43.2332" lon="5.67295">
        <ele>393.6</ele>
        <time>2014-01-15T14:01:16Z</time>
      </trkpt>
      <trkpt lat="43.23323" lon="5.67291">
        <ele>391.7</ele>
        <time>2014-01-15T14:01:20Z</time>
      </trkpt>
      <trkpt lat="43.23326" lon="5.67287">
        <ele>391.3</ele>
        <time>2014-01-15T14:01:26Z</time>
      </trkpt>
      <trkpt lat="43.23329" lon="5.67285">
        <ele>390.6</ele>
        <time>2014-01-15T14:01:30Z</time>
      </trkpt>
      <trkpt lat="43.23333" lon="5.67282">
        <ele>391.1</ele>
        <time>2014-01-15T14:01:35Z</time>
      </trkpt>
      <trkpt lat="43.23336" lon="5.67279">
        <ele>390.3</ele>
        <time>2014-01-15T14:01:38Z</time>
      </trkpt>
      <trkpt lat="43.23338" lon="5.67276">
        <ele>389.3</ele>
        <time>2014-01-15T14:01:41Z</time>
      </trkpt>
      <trkpt lat="43.23341" lon="5.67274">
        <ele>388.7</ele>
        <time>2014-01-15T14:01:44Z</time>
      </trkpt>
      <trkpt lat="43.23344" lon="5.67271">
        <ele>387.6</ele>
        <time>2014-01-15T14:01:47Z</time>
      </trkpt>
      <trkpt lat="43.23345" lon="5.6727">
        <ele>387.2</ele>
        <time>2014-01-15T14:01:48Z</time>
      </trkpt>
    </trkseg>
  </trk>
</gpx>